
Distance (Route):
Temperature : 0°C
Humidity : 0%
Pressure : 0hPa| Receiver | Frames | First received | Last received |
|---|---|---|---|
| SQ6EMJ | 698 | 2026-09-01 11:28:29 | 2026-09-01 13:19:39 |
| KRY50SP | 586 | 2026-09-01 12:01:50 | 2026-09-01 13:12:01 |
| POL1PZ | 280 | 2026-09-01 11:28:51 | 2026-09-01 13:26:07 |
| PETON7-10 | 98 | 2026-09-01 11:58:55 | 2026-09-01 12:57:05 |
| SP3BTT-10 | 73 | 2026-09-01 11:36:54 | 2026-09-01 13:07:06 |
| OE5DRO-10 | 39 | 2026-09-01 12:19:08 | 2026-09-01 12:55:51 |
| OM5KV | 26 | 2026-09-01 12:57:27 | 2026-09-01 13:01:06 |
| SP6BVK | 23 | 2026-09-01 13:17:52 | 2026-09-01 13:26:02 |
| PG1ADW-2 | 21 | 2026-09-01 12:31:13 | 2026-09-01 12:54:22 |
| OK1SLM-15 | 10 | 2026-09-01 12:36:31 | 2026-09-01 12:56:15 |
| SQ9EZE-15 | 4 | 2026-09-01 12:37:19 | 2026-09-01 13:01:39 |
| OE3JTB-15 | 2 | 2026-09-01 11:42:39 | 2026-09-01 11:44:05 |
| S52SK | 1 | 2026-09-01 12:31:03 | 2026-09-01 12:31:03 |
| Receiver | Date | Latitude | Longitude | Direction | Speed | Altitude | Climb | Temperature | Humidity | Pressure | Voltage | Killtimer | Uptime | BKT | XDATA |
|---|---|---|---|---|---|---|---|---|---|---|---|---|---|---|---|
| POL1PZ | 2026-09-01 13:26:07 | 51.08471 | 18.24507 | 107° | 42km/h | 2405m | -13.0m/s | 0°C | 0% | 0hPa | 0V | 00:00:00 | 00:00:00 | 00:00:00 | |
| SP6BVK | 2026-09-01 13:26:02 | 51.08484 | 18.24430 | 103° | 38km/h | 2475m | -13.7m/s | 0°C | 0% | 0hPa | 0V | 00:00:00 | 00:00:00 | 00:00:00 | |
| SP6BVK | 2026-09-01 13:25:15 | 51.08589 | 18.23623 | 92° | 46km/h | 3087m | -12.2m/s | 0°C | 0% | 0hPa | 0V | 00:00:00 | 00:00:00 | 00:00:00 | |
| POL1PZ | 2026-09-01 13:24:59 | 51.08594 | 18.23311 | 95° | 49km/h | 3291m | -14.0m/s | 0°C | 0% | 0hPa | 0V | 00:00:00 | 00:00:00 | 00:00:00 | |
| SP6BVK | 2026-09-01 13:24:51 | 51.08601 | 18.23162 | 96° | 44km/h | 3394m | -12.8m/s | 0°C | 0% | 0hPa | 0V | 00:00:00 | 00:00:00 | 00:00:00 | |
| SP6BVK | 2026-09-01 13:24:31 | 51.08634 | 18.22779 | 94° | 49km/h | 3660m | -12.2m/s | 0°C | 0% | 0hPa | 0V | 00:00:00 | 00:00:00 | 00:00:00 | |
| POL1PZ | 2026-09-01 13:24:30 | 51.08635 | 18.22758 | 98° | 53km/h | 3673m | -13.3m/s | 0°C | 0% | 0hPa | 0V | 00:00:00 | 00:00:00 | 00:00:00 | |
| POL1PZ | 2026-09-01 13:24:09 | 51.08667 | 18.22327 | 99° | 53km/h | 3951m | -13.1m/s | 0°C | 0% | 0hPa | 0V | 00:00:00 | 00:00:00 | 00:00:00 | |
| SP6BVK | 2026-09-01 13:24:05 | 51.08675 | 18.22241 | 100° | 57km/h | 4004m | -12.4m/s | 0°C | 0% | 0hPa | 0V | 00:00:00 | 00:00:00 | 00:00:00 | |
| POL1PZ | 2026-09-01 13:23:49 | 51.08715 | 18.21893 | 101° | 57km/h | 4225m | -14.2m/s | 0°C | 0% | 0hPa | 0V | 00:00:00 | 00:00:00 | 00:00:00 | |
| SP6BVK | 2026-09-01 13:23:43 | 51.08728 | 18.21758 | 101° | 55km/h | 4309m | -12.6m/s | 0°C | 0% | 0hPa | 0V | 00:00:00 | 00:00:00 | 00:00:00 | |
| POL1PZ | 2026-09-01 13:23:28 | 51.08759 | 18.21424 | 102° | 57km/h | 4507m | -12.3m/s | 0°C | 0% | 0hPa | 0V | 00:00:00 | 00:00:00 | 00:00:00 | |
| SP6BVK | 2026-09-01 13:23:22 | 51.08772 | 18.21289 | 100° | 55km/h | 4582m | -12.0m/s | 0°C | 0% | 0hPa | 0V | 00:00:00 | 00:00:00 | 00:00:00 | |
| POL1PZ | 2026-09-01 13:23:07 | 51.08808 | 18.20956 | 101° | 53km/h | 4772m | -12.4m/s | 0°C | 0% | 0hPa | 0V | 00:00:00 | 00:00:00 | 00:00:00 | |
| SP6BVK | 2026-09-01 13:23:01 | 51.08826 | 18.20828 | 99° | 53km/h | 4847m | -12.7m/s | 0°C | 0% | 0hPa | 0V | 00:00:00 | 00:00:00 | 00:00:00 | |
| POL1PZ | 2026-09-01 13:22:47 | 51.08865 | 18.20539 | 107° | 55km/h | 5032m | -11.3m/s | 0°C | 0% | 0hPa | 0V | 00:00:00 | 00:00:00 | 00:00:00 | |
| SP6BVK | 2026-09-01 13:22:41 | 51.08884 | 18.20412 | 106° | 57km/h | 5108m | -13.8m/s | 0°C | 0% | 0hPa | 0V | 00:00:00 | 00:00:00 | 00:00:00 | |
| POL1PZ | 2026-09-01 13:22:26 | 51.08936 | 18.20091 | 107° | 57km/h | 5276m | -10.8m/s | 0°C | 0% | 0hPa | 0V | 00:00:00 | 00:00:00 | 00:00:00 | |
| SP6BVK | 2026-09-01 13:22:20 | 51.08958 | 18.19963 | 105° | 57km/h | 5338m | -10.2m/s | 0°C | 0% | 0hPa | 0V | 00:00:00 | 00:00:00 | 00:00:00 | |
| POL1PZ | 2026-09-01 13:22:06 | 51.09013 | 18.19649 | 104° | 62km/h | 5487m | -10.4m/s | 0°C | 0% | 0hPa | 0V | 00:00:00 | 00:00:00 | 00:00:00 | |
| SP6BVK | 2026-09-01 13:22:00 | 51.09034 | 18.19506 | 103° | 57km/h | 5552m | -10.1m/s | 0°C | 0% | 0hPa | 0V | 00:00:00 | 00:00:00 | 00:00:00 | |
| POL1PZ | 2026-09-01 13:21:45 | 51.09079 | 18.19157 | 101° | 60km/h | 5720m | -10.4m/s | 0°C | 0% | 0hPa | 0V | 00:00:00 | 00:00:00 | 00:00:00 | |
| SP6BVK | 2026-09-01 13:21:38 | 51.09102 | 18.18994 | 102° | 58km/h | 5800m | -11.1m/s | 0°C | 0% | 0hPa | 0V | 00:00:00 | 00:00:00 | 00:00:00 | |
| POL1PZ | 2026-09-01 13:21:23 | 51.09159 | 18.18650 | 106° | 55km/h | 5963m | -10.3m/s | 0°C | 0% | 0hPa | 0V | 00:00:00 | 00:00:00 | 00:00:00 | |
| SP6BVK | 2026-09-01 13:21:18 | 51.09178 | 18.18543 | 105° | 55km/h | 6016m | -11.0m/s | 0°C | 0% | 0hPa | 0V | 00:00:00 | 00:00:00 | 00:00:00 | |
| POL1PZ | 2026-09-01 13:21:03 | 51.09236 | 18.18219 | 106° | 58km/h | 6180m | -9.9m/s | 0°C | 0% | 0hPa | 0V | 00:00:00 | 00:00:00 | 00:00:00 | |
| SP6BVK | 2026-09-01 13:20:57 | 51.09263 | 18.18079 | 110° | 62km/h | 6244m | -11.6m/s | 0°C | 0% | 0hPa | 0V | 00:00:00 | 00:00:00 | 00:00:00 | |
| POL1PZ | 2026-09-01 13:20:42 | 51.09337 | 18.17700 | 106° | 68km/h | 6410m | -11.9m/s | 0°C | 0% | 0hPa | 0V | 00:00:00 | 00:00:00 | 00:00:00 | |
| SP6BVK | 2026-09-01 13:20:36 | 51.09360 | 18.17545 | 102° | 64km/h | 6476m | -10.3m/s | 0°C | 0% | 0hPa | 0V | 00:00:00 | 00:00:00 | 00:00:00 | |
| POL1PZ | 2026-09-01 13:20:22 | 51.09404 | 18.17174 | 101° | 69km/h | 6628m | -10.7m/s | 0°C | 0% | 0hPa | 0V | 00:00:00 | 00:00:00 | 00:00:00 | |
| SP6BVK | 2026-09-01 13:20:16 | 51.09424 | 18.17012 | 102° | 69km/h | 6694m | -10.6m/s | 0°C | 0% | 0hPa | 0V | 00:00:00 | 00:00:00 | 00:00:00 | |
| POL1PZ | 2026-09-01 13:19:59 | 51.09480 | 18.16514 | 100° | 77km/h | 6882m | -11.3m/s | 0°C | 0% | 0hPa | 0V | 00:00:00 | 00:00:00 | 00:00:00 | |
| SP6BVK | 2026-09-01 13:19:55 | 51.09490 | 18.16390 | 100° | 78km/h | 6930m | -11.9m/s | 0°C | 0% | 0hPa | 0V | 00:00:00 | 00:00:00 | 00:00:00 | |
| SQ6EMJ | 2026-09-01 13:19:39 | 51.09520 | 18.15906 | 98° | 71km/h | 7117m | -10.2m/s | 0°C | 0% | 0hPa | 0V | 00:00:00 | 00:00:00 | 00:00:00 | |
| POL1PZ | 2026-09-01 13:19:38 | 51.09522 | 18.15878 | 95° | 69km/h | 7128m | -10.9m/s | 0°C | 0% | 0hPa | 0V | 00:00:00 | 00:00:00 | 00:00:00 | |
| SP6BVK | 2026-09-01 13:19:34 | 51.09528 | 18.15767 | 97° | 71km/h | 7175m | -11.6m/s | 0°C | 0% | 0hPa | 0V | 00:00:00 | 00:00:00 | 00:00:00 | |
| SQ6EMJ | 2026-09-01 13:19:31 | 51.09534 | 18.15683 | 98° | 69km/h | 7212m | -12.4m/s | 0°C | 0% | 0hPa | 0V | 00:00:00 | 00:00:00 | 00:00:00 | |
| SQ6EMJ | 2026-09-01 13:19:24 | 51.09547 | 18.15489 | 95° | 71km/h | 7294m | -10.1m/s | 0°C | 0% | 0hPa | 0V | 00:00:00 | 00:00:00 | 00:00:00 | |
| POL1PZ | 2026-09-01 13:19:18 | 51.09558 | 18.15318 | 96° | 73km/h | 7358m | -11.0m/s | 0°C | 0% | 0hPa | 0V | 00:00:00 | 00:00:00 | 00:00:00 | |
| SP6BVK | 2026-09-01 13:19:14 | 51.09565 | 18.15202 | 99° | 73km/h | 7403m | -11.3m/s | 0°C | 0% | 0hPa | 0V | 00:00:00 | 00:00:00 | 00:00:00 | |
| POL1PZ | 2026-09-01 13:18:57 | 51.09596 | 18.14706 | 99° | 71km/h | 7594m | -10.8m/s | 0°C | 0% | 0hPa | 0V | 00:00:00 | 00:00:00 | 00:00:00 | |
| SP6BVK | 2026-09-01 13:18:53 | 51.09606 | 18.14589 | 97° | 78km/h | 7638m | -10.9m/s | 0°C | 0% | 0hPa | 0V | 00:00:00 | 00:00:00 | 00:00:00 | |
| POL1PZ | 2026-09-01 13:18:36 | 51.09651 | 18.14060 | 98° | 84km/h | 7830m | -11.7m/s | 0°C | 0% | 0hPa | 0V | 00:00:00 | 00:00:00 | 00:00:00 | |
| SP6BVK | 2026-09-01 13:18:33 | 51.09658 | 18.13962 | 97° | 80km/h | 7864m | -10.8m/s | 0°C | 0% | 0hPa | 0V | 00:00:00 | 00:00:00 | 00:00:00 | |
| SP6BVK | 2026-09-01 13:18:13 | 51.09689 | 18.13284 | 95° | 91km/h | 8091m | -9.7m/s | 0°C | 0% | 0hPa | 0V | 00:00:00 | 00:00:00 | 00:00:00 | |
| SP6BVK | 2026-09-01 13:17:52 | 51.09746 | 18.12532 | 102° | 89km/h | 8320m | -10.9m/s | 0°C | 0% | 0hPa | 0V | 00:00:00 | 00:00:00 | 00:00:00 | |
| POL1PZ | 2026-09-01 13:17:50 | 51.09753 | 18.12464 | 101° | 88km/h | 8342m | -10.6m/s | 0°C | 0% | 0hPa | 0V | 00:00:00 | 00:00:00 | 00:00:00 | |
| POL1PZ | 2026-09-01 13:17:30 | 51.09835 | 18.11815 | 103° | 86km/h | 8546m | -10.8m/s | 0°C | 0% | 0hPa | 0V | 00:00:00 | 00:00:00 | 00:00:00 | |
| POL1PZ | 2026-09-01 13:17:09 | 51.09926 | 18.11153 | 101° | 82km/h | 8768m | -10.2m/s | 0°C | 0% | 0hPa | 0V | 00:00:00 | 00:00:00 | 00:00:00 | |
| POL1PZ | 2026-09-01 13:16:48 | 51.09985 | 18.10442 | 98° | 89km/h | 8993m | -9.2m/s | 0°C | 0% | 0hPa | 0V | 00:00:00 | 00:00:00 | 00:00:00 | |
| POL1PZ | 2026-09-01 13:16:26 | 51.10026 | 18.09658 | 93° | 93km/h | 9212m | -8.9m/s | 0°C | 0% | 0hPa | 0V | 00:00:00 | 00:00:00 | 00:00:00 | |
| POL1PZ | 2026-09-01 13:16:06 | 51.10049 | 18.08879 | 92° | 99km/h | 9410m | -9.0m/s | 0°C | 0% | 0hPa | 0V | 00:00:00 | 00:00:00 | 00:00:00 | |
| POL1PZ | 2026-09-01 13:15:45 | 51.10080 | 18.08021 | 97° | 108km/h | 9628m | -9.3m/s | 0°C | 0% | 0hPa | 0V | 00:00:00 | 00:00:00 | 00:00:00 | |
| POL1PZ | 2026-09-01 13:15:24 | 51.10151 | 18.07089 | 98° | 119km/h | 9838m | -10.6m/s | 0°C | 0% | 0hPa | 0V | 00:00:00 | 00:00:00 | 00:00:00 | |
| SQ6EMJ | 2026-09-01 13:15:15 | 51.10179 | 18.06664 | 96° | 115km/h | 9936m | -10.5m/s | 0°C | 0% | 0hPa | 0V | 00:00:00 | 00:00:00 | 00:00:00 | |
| SQ6EMJ | 2026-09-01 13:15:09 | 51.10192 | 18.06380 | 96° | 117km/h | 10001m | -11.8m/s | 0°C | 0% | 0hPa | 0V | 00:00:00 | 00:00:00 | 00:00:00 | |
| POL1PZ | 2026-09-01 13:14:43 | 51.10258 | 18.05194 | 97° | 108km/h | 10287m | -10.5m/s | 0°C | 0% | 0hPa | 0V | 00:00:00 | 00:00:00 | 00:00:00 | |
| POL1PZ | 2026-09-01 13:14:22 | 51.10328 | 18.04282 | 96° | 108km/h | 10506m | -11.5m/s | 0°C | 0% | 0hPa | 0V | 00:00:00 | 00:00:00 | 00:00:00 | |
| POL1PZ | 2026-09-01 13:13:58 | 51.10383 | 18.03151 | 97° | 122km/h | 10770m | -10.5m/s | 0°C | 0% | 0hPa | 0V | 00:00:00 | 00:00:00 | 00:00:00 | |
| POL1PZ | 2026-09-01 13:13:37 | 51.10445 | 18.02177 | 98° | 117km/h | 11015m | -11.4m/s | 0°C | 0% | 0hPa | 0V | 00:00:00 | 00:00:00 | 00:00:00 | |
| POL1PZ | 2026-09-01 13:13:15 | 51.10519 | 18.01191 | 98° | 115km/h | 11258m | -9.9m/s | 0°C | 0% | 0hPa | 0V | 00:00:00 | 00:00:00 | 00:00:00 | |
| POL1PZ | 2026-09-01 13:12:50 | 51.10602 | 18.00066 | 98° | 108km/h | 11536m | -10.2m/s | 0°C | 0% | 0hPa | 0V | 00:00:00 | 00:00:00 | 00:00:00 | |
| POL1PZ | 2026-09-01 13:12:29 | 51.10664 | 17.99186 | 99° | 108km/h | 11755m | -14.6m/s | 0°C | 0% | 0hPa | 0V | 00:00:00 | 00:00:00 | 00:00:00 | |
| POL1PZ | 2026-09-01 13:12:03 | 51.10794 | 17.98149 | 101° | 104km/h | 12069m | -11.5m/s | 0°C | 0% | 0hPa | 0V | 00:00:00 | 00:00:00 | 00:00:00 | |
| KRY50SP | 2026-09-01 13:12:01 | 51.10803 | 17.98068 | 103° | 104km/h | 12093m | -11.9m/s | 0°C | 0% | 0hPa | 0V | 00:00:00 | 00:00:00 | 00:00:00 | |
| KRY50SP | 2026-09-01 13:11:54 | 51.10835 | 17.97788 | 99° | 95km/h | 12177m | -10.8m/s | 0°C | 0% | 0hPa | 0V | 00:00:00 | 00:00:00 | 00:00:00 | |
| POL1PZ | 2026-09-01 13:11:42 | 51.10883 | 17.97358 | 101° | 89km/h | 12316m | -10.9m/s | 0°C | 0% | 0hPa | 0V | 00:00:00 | 00:00:00 | 00:00:00 | |
| POL1PZ | 2026-09-01 13:11:20 | 51.10912 | 17.96644 | 92° | 80km/h | 12587m | -11.6m/s | 0°C | 0% | 0hPa | 0V | 00:00:00 | 00:00:00 | 00:00:00 | |
| POL1PZ | 2026-09-01 13:10:53 | 51.10903 | 17.95769 | 92° | 78km/h | 12910m | -11.4m/s | 0°C | 0% | 0hPa | 0V | 00:00:00 | 00:00:00 | 00:00:00 | |
| KRY50SP | 2026-09-01 13:10:43 | 51.10905 | 17.95477 | 87° | 69km/h | 13027m | -11.3m/s | 0°C | 0% | 0hPa | 0V | 00:00:00 | 00:00:00 | 00:00:00 | |
| POL1PZ | 2026-09-01 13:10:32 | 51.10881 | 17.95161 | 82° | 71km/h | 13154m | -11.3m/s | 0°C | 0% | 0hPa | 0V | 00:00:00 | 00:00:00 | 00:00:00 | |
| KRY50SP | 2026-09-01 13:10:20 | 51.10837 | 17.94791 | 78° | 73km/h | 13308m | -11.3m/s | 0°C | 0% | 0hPa | 0V | 00:00:00 | 00:00:00 | 00:00:00 | |
| KRY50SP | 2026-09-01 13:10:12 | 51.10807 | 17.94579 | 78° | 78km/h | 13390m | -11.6m/s | 0°C | 0% | 0hPa | 0V | 00:00:00 | 00:00:00 | 00:00:00 | |
| POL1PZ | 2026-09-01 13:10:10 | 51.10799 | 17.94517 | 79° | 80km/h | 13414m | -10.9m/s | 0°C | 0% | 0hPa | 0V | 00:00:00 | 00:00:00 | 00:00:00 | |
| KRY50SP | 2026-09-01 13:10:04 | 51.10778 | 17.94319 | 84° | 84km/h | 13486m | -11.6m/s | 0°C | 0% | 0hPa | 0V | 00:00:00 | 00:00:00 | 00:00:00 | |
| KRY50SP | 2026-09-01 13:09:59 | 51.10765 | 17.94154 | 86° | 82km/h | 13544m | -11.0m/s | 0°C | 0% | 0hPa | 0V | 00:00:00 | 00:00:00 | 00:00:00 | |
| KRY50SP | 2026-09-01 13:09:52 | 51.10751 | 17.93934 | 83° | 75km/h | 13627m | -11.3m/s | 0°C | 0% | 0hPa | 0V | 00:00:00 | 00:00:00 | 00:00:00 | |
| POL1PZ | 2026-09-01 13:09:48 | 51.10739 | 17.93817 | 81° | 75km/h | 13674m | -11.1m/s | 0°C | 0% | 0hPa | 0V | 00:00:00 | 00:00:00 | 00:00:00 | |
| KRY50SP | 2026-09-01 13:09:45 | 51.10731 | 17.93728 | 81° | 73km/h | 13711m | -11.8m/s | 0°C | 0% | 0hPa | 0V | 00:00:00 | 00:00:00 | 00:00:00 | |
| SQ6EMJ | 2026-09-01 13:09:44 | 51.10728 | 17.93698 | 86° | 80km/h | 13724m | -11.4m/s | 0°C | 0% | 0hPa | 0V | 00:00:00 | 00:00:00 | 00:00:00 | |
| KRY50SP | 2026-09-01 13:09:38 | 51.10721 | 17.93505 | 88° | 78km/h | 13794m | -11.4m/s | 0°C | 0% | 0hPa | 0V | 00:00:00 | 00:00:00 | 00:00:00 | |
| KRY50SP | 2026-09-01 13:09:31 | 51.10715 | 17.93295 | 87° | 69km/h | 13878m | -12.0m/s | 0°C | 0% | 0hPa | 0V | 00:00:00 | 00:00:00 | 00:00:00 | |
| KRY50SP | 2026-09-01 13:09:25 | 51.10704 | 17.93125 | 84° | 75km/h | 13952m | -12.3m/s | 0°C | 0% | 0hPa | 0V | 00:00:00 | 00:00:00 | 00:00:00 | |
| POL1PZ | 2026-09-01 13:09:21 | 51.10696 | 17.93005 | 87° | 75km/h | 14004m | -11.1m/s | 0°C | 0% | 0hPa | 0V | 00:00:00 | 00:00:00 | 00:00:00 | |
| SQ6EMJ | 2026-09-01 13:09:16 | 51.10692 | 17.92855 | 91° | 75km/h | 14071m | -13.8m/s | 0°C | 0% | 0hPa | 0V | 00:00:00 | 00:00:00 | 00:00:00 | |
| KRY50SP | 2026-09-01 13:09:11 | 51.10689 | 17.92706 | 87° | 71km/h | 14141m | -13.1m/s | 0°C | 0% | 0hPa | 0V | 00:00:00 | 00:00:00 | 00:00:00 | |
| KRY50SP | 2026-09-01 13:09:05 | 51.10677 | 17.92523 | 84° | 80km/h | 14223m | -13.8m/s | 0°C | 0% | 0hPa | 0V | 00:00:00 | 00:00:00 | 00:00:00 | |
| POL1PZ | 2026-09-01 13:09:01 | 51.10666 | 17.92393 | 83° | 80km/h | 14281m | -13.2m/s | 0°C | 0% | 0hPa | 0V | 00:00:00 | 00:00:00 | 00:00:00 | |
| KRY50SP | 2026-09-01 13:08:58 | 51.10658 | 17.92299 | 85° | 77km/h | 14324m | -13.6m/s | 0°C | 0% | 0hPa | 0V | 00:00:00 | 00:00:00 | 00:00:00 | |
| KRY50SP | 2026-09-01 13:08:52 | 51.10645 | 17.92110 | 85° | 82km/h | 14409m | -13.5m/s | 0°C | 0% | 0hPa | 0V | 00:00:00 | 00:00:00 | 00:00:00 | |
| KRY50SP | 2026-09-01 13:08:45 | 51.10640 | 17.91875 | 90° | 84km/h | 14506m | -13.8m/s | 0°C | 0% | 0hPa | 0V | 00:00:00 | 00:00:00 | 00:00:00 | |
| POL1PZ | 2026-09-01 13:08:40 | 51.10635 | 17.91703 | 87° | 80km/h | 14572m | -12.6m/s | 0°C | 0% | 0hPa | 0V | 00:00:00 | 00:00:00 | 00:00:00 | |
| KRY50SP | 2026-09-01 13:08:39 | 51.10633 | 17.91673 | 84° | 75km/h | 14585m | -13.6m/s | 0°C | 0% | 0hPa | 0V | 00:00:00 | 00:00:00 | 00:00:00 | |
| KRY50SP | 2026-09-01 13:08:27 | 51.10608 | 17.91331 | 84° | 68km/h | 14746m | -12.9m/s | 0°C | 0% | 0hPa | 0V | 00:00:00 | 00:00:00 | 00:00:00 | |
| POL1PZ | 2026-09-01 13:08:19 | 51.10592 | 17.91110 | 86° | 73km/h | 14855m | -12.5m/s | 0°C | 0% | 0hPa | 0V | 00:00:00 | 00:00:00 | 00:00:00 | |
| SQ6EMJ | 2026-09-01 13:08:15 | 51.10585 | 17.90963 | 87° | 75km/h | 14923m | -13.4m/s | 0°C | 0% | 0hPa | 0V | 00:00:00 | 00:00:00 | 00:00:00 | |
| KRY50SP | 2026-09-01 13:08:10 | 51.10580 | 17.90845 | 87° | 73km/h | 14978m | -13.6m/s | 0°C | 0% | 0hPa | 0V | 00:00:00 | 00:00:00 | 00:00:00 | |
| SQ6EMJ | 2026-09-01 13:08:07 | 51.10575 | 17.90754 | 86° | 78km/h | 15020m | -13.4m/s | 0°C | 0% | 0hPa | 0V | 00:00:00 | 00:00:00 | 00:00:00 | |
| KRY50SP | 2026-09-01 13:08:03 | 51.10571 | 17.90631 | 91° | 77km/h | 15076m | -14.0m/s | 0°C | 0% | 0hPa | 0V | 00:00:00 | 00:00:00 | 00:00:00 | |
| SQ6EMJ | 2026-09-01 13:08:00 | 51.10573 | 17.90540 | 93° | 75km/h | 15118m | -13.8m/s | 0°C | 0% | 0hPa | 0V | 00:00:00 | 00:00:00 | 00:00:00 | |
| POL1PZ | 2026-09-01 13:07:56 | 51.10578 | 17.90420 | 97° | 75km/h | 15176m | -14.1m/s | 0°C | 0% | 0hPa | 0V | 00:00:00 | 00:00:00 | 00:00:00 | |
| KRY50SP | 2026-09-01 13:07:54 | 51.10582 | 17.90363 | 101° | 71km/h | 15204m | -13.4m/s | 0°C | 0% | 0hPa | 0V | 00:00:00 | 00:00:00 | 00:00:00 | |
| SQ6EMJ | 2026-09-01 13:07:51 | 51.10590 | 17.90280 | 103° | 69km/h | 15247m | -13.9m/s | 0°C | 0% | 0hPa | 0V | 00:00:00 | 00:00:00 | 00:00:00 | |
| KRY50SP | 2026-09-01 13:07:49 | 51.10598 | 17.90227 | 107° | 69km/h | 15275m | -14.8m/s | 0°C | 0% | 0hPa | 0V | 00:00:00 | 00:00:00 | 00:00:00 | |
| KRY50SP | 2026-09-01 13:07:43 | 51.10626 | 17.90069 | 106° | 68km/h | 15367m | -13.9m/s | 0°C | 0% | 0hPa | 0V | 00:00:00 | 00:00:00 | 00:00:00 | |
| KRY50SP | 2026-09-01 13:07:37 | 51.10639 | 17.89924 | 101° | 57km/h | 15460m | -15.3m/s | 0°C | 0% | 0hPa | 0V | 00:00:00 | 00:00:00 | 00:00:00 | |
| POL1PZ | 2026-09-01 13:07:34 | 51.10646 | 17.89857 | 100° | 57km/h | 15508m | -14.4m/s | 0°C | 0% | 0hPa | 0V | 00:00:00 | 00:00:00 | 00:00:00 | |
| KRY50SP | 2026-09-01 13:07:31 | 51.10654 | 17.89795 | 105° | 51km/h | 15555m | -15.5m/s | 0°C | 0% | 0hPa | 0V | 00:00:00 | 00:00:00 | 00:00:00 | |
| KRY50SP | 2026-09-01 13:07:25 | 51.10671 | 17.89686 | 108° | 42km/h | 15651m | -15.2m/s | 0°C | 0% | 0hPa | 0V | 00:00:00 | 00:00:00 | 00:00:00 | |
| KRY50SP | 2026-09-01 13:07:19 | 51.10688 | 17.89595 | 108° | 33km/h | 15747m | -16.0m/s | 0°C | 0% | 0hPa | 0V | 00:00:00 | 00:00:00 | 00:00:00 | |
| POL1PZ | 2026-09-01 13:07:13 | 51.10702 | 17.89537 | 113° | 18km/h | 15845m | -17.0m/s | 0°C | 0% | 0hPa | 0V | 00:00:00 | 00:00:00 | 00:00:00 | |
| KRY50SP | 2026-09-01 13:07:07 | 51.10709 | 17.89498 | 99° | 13km/h | 15941m | -14.6m/s | 0°C | 0% | 0hPa | 0V | 00:00:00 | 00:00:00 | 00:00:00 | |
| SP3BTT-10 | 2026-09-01 13:07:06 | 51.10709 | 17.89492 | 89° | 31km/h | 15955m | -13.7m/s | 0°C | 0% | 0hPa | 0V | 00:00:00 | 00:00:00 | 00:00:00 | |
| KRY50SP | 2026-09-01 13:07:00 | 51.10704 | 17.89460 | 70° | 16km/h | 16037m | -12.3m/s | 0°C | 0% | 0hPa | 0V | 00:00:00 | 00:00:00 | 00:00:00 | |
| KRY50SP | 2026-09-01 13:06:54 | 51.10682 | 17.89417 | 39° | 27km/h | 16123m | -13.7m/s | 0°C | 0% | 0hPa | 0V | 00:00:00 | 00:00:00 | 00:00:00 | |
| POL1PZ | 2026-09-01 13:06:53 | 51.10676 | 17.89411 | 36° | 27km/h | 16137m | -13.8m/s | 0°C | 0% | 0hPa | 0V | 00:00:00 | 00:00:00 | 00:00:00 | |
| KRY50SP | 2026-09-01 13:06:40 | 51.10605 | 17.89325 | 49° | 24km/h | 16331m | -14.1m/s | 0°C | 0% | 0hPa | 0V | 00:00:00 | 00:00:00 | 00:00:00 | |
| KRY50SP | 2026-09-01 13:06:34 | 51.10580 | 17.89269 | 68° | 35km/h | 16423m | -15.1m/s | 0°C | 0% | 0hPa | 0V | 00:00:00 | 00:00:00 | 00:00:00 | |
| POL1PZ | 2026-09-01 13:06:33 | 51.10577 | 17.89256 | 73° | 35km/h | 16439m | -14.8m/s | 0°C | 0% | 0hPa | 0V | 00:00:00 | 00:00:00 | 00:00:00 | |
| SQ6EMJ | 2026-09-01 13:06:26 | 51.10570 | 17.89154 | 87° | 46km/h | 16551m | -15.2m/s | 0°C | 0% | 0hPa | 0V | 00:00:00 | 00:00:00 | 00:00:00 | |
| SQ6EMJ | 2026-09-01 13:06:21 | 51.10560 | 17.89056 | 80° | 51km/h | 16628m | -15.9m/s | 0°C | 0% | 0hPa | 0V | 00:00:00 | 00:00:00 | 00:00:00 | |
| KRY50SP | 2026-09-01 13:06:15 | 51.10544 | 17.88929 | 78° | 37km/h | 16749m | -18.0m/s | 0°C | 0% | 0hPa | 0V | 00:00:00 | 00:00:00 | 00:00:00 | |
| POL1PZ | 2026-09-01 13:06:12 | 51.10540 | 17.88899 | 76° | 40km/h | 16787m | -17.9m/s | 0°C | 0% | 0hPa | 0V | 00:00:00 | 00:00:00 | 00:00:00 | |
| SP3BTT-10 | 2026-09-01 13:06:05 | 51.10502 | 17.88814 | 52° | 27km/h | 16919m | -17.4m/s | 0°C | 0% | 0hPa | 0V | 00:00:00 | 00:00:00 | 00:00:00 | |
| KRY50SP | 2026-09-01 13:06:00 | 51.10483 | 17.88764 | 51° | 37km/h | 17008m | -17.5m/s | 0°C | 0% | 0hPa | 0V | 00:00:00 | 00:00:00 | 00:00:00 | |
| KRY50SP | 2026-09-01 13:05:55 | 51.10450 | 17.88716 | 41° | 35km/h | 17093m | -16.4m/s | 0°C | 0% | 0hPa | 0V | 00:00:00 | 00:00:00 | 00:00:00 | |
| POL1PZ | 2026-09-01 13:05:51 | 51.10426 | 17.88674 | 51° | 40km/h | 17163m | -16.4m/s | 0°C | 0% | 0hPa | 0V | 00:00:00 | 00:00:00 | 00:00:00 | |
| KRY50SP | 2026-09-01 13:05:45 | 51.10373 | 17.88580 | 48° | 49km/h | 17288m | -17.5m/s | 0°C | 0% | 0hPa | 0V | 00:00:00 | 00:00:00 | 00:00:00 | |
| KRY50SP | 2026-09-01 13:05:36 | 51.10313 | 17.88454 | 60° | 55km/h | 17432m | -17.5m/s | 0°C | 0% | 0hPa | 0V | 00:00:00 | 00:00:00 | 00:00:00 | |
| KRY50SP | 2026-09-01 13:05:30 | 51.10277 | 17.88341 | 72° | 53km/h | 17535m | -15.9m/s | 0°C | 0% | 0hPa | 0V | 00:00:00 | 00:00:00 | 00:00:00 | |
| KRY50SP | 2026-09-01 13:05:24 | 51.10257 | 17.88225 | 80° | 51km/h | 17637m | -16.4m/s | 0°C | 0% | 0hPa | 0V | 00:00:00 | 00:00:00 | 00:00:00 | |
| KRY50SP | 2026-09-01 13:05:18 | 51.10252 | 17.88116 | 97° | 38km/h | 17741m | -16.4m/s | 0°C | 0% | 0hPa | 0V | 00:00:00 | 00:00:00 | 00:00:00 | |
| POL1PZ | 2026-09-01 13:05:12 | 51.10264 | 17.88037 | 106° | 31km/h | 17845m | -16.8m/s | 0°C | 0% | 0hPa | 0V | 00:00:00 | 00:00:00 | 00:00:00 | |
| KRY50SP | 2026-09-01 13:04:59 | 51.10265 | 17.87917 | 74° | 22km/h | 18064m | -17.4m/s | 0°C | 0% | 0hPa | 0V | 00:00:00 | 00:00:00 | 00:00:00 | |
| KRY50SP | 2026-09-01 13:04:53 | 51.10251 | 17.87861 | 64° | 26km/h | 18169m | -16.5m/s | 0°C | 0% | 0hPa | 0V | 00:00:00 | 00:00:00 | 00:00:00 | |
| KRY50SP | 2026-09-01 13:04:48 | 51.10235 | 17.87813 | 68° | 20km/h | 18276m | -16.7m/s | 0°C | 0% | 0hPa | 0V | 00:00:00 | 00:00:00 | 00:00:00 | |
| POL1PZ | 2026-09-01 13:04:46 | 51.10234 | 17.87806 | 70° | 18km/h | 18293m | -16.4m/s | 0°C | 0% | 0hPa | 0V | 00:00:00 | 00:00:00 | 00:00:00 | |
| KRY50SP | 2026-09-01 13:04:36 | 51.10203 | 17.87703 | 70° | 27km/h | 18495m | -18.0m/s | 0°C | 0% | 0hPa | 0V | 00:00:00 | 00:00:00 | 00:00:00 | |
| SP3BTT-10 | 2026-09-01 13:04:34 | 51.10201 | 17.87692 | 75° | 24km/h | 18513m | -17.1m/s | 0°C | 0% | 0hPa | 0V | 00:00:00 | 00:00:00 | 00:00:00 | |
| KRY50SP | 2026-09-01 13:04:29 | 51.10192 | 17.87630 | 77° | 40km/h | 18609m | -17.0m/s | 0°C | 0% | 0hPa | 0V | 00:00:00 | 00:00:00 | 00:00:00 | |
| KRY50SP | 2026-09-01 13:04:23 | 51.10180 | 17.87536 | 79° | 38km/h | 18721m | -17.4m/s | 0°C | 0% | 0hPa | 0V | 00:00:00 | 00:00:00 | 00:00:00 | |
| POL1PZ | 2026-09-01 13:04:17 | 51.10173 | 17.87467 | 80° | 24km/h | 18833m | -20.3m/s | 0°C | 0% | 0hPa | 0V | 00:00:00 | 00:00:00 | 00:00:00 | |
| KRY50SP | 2026-09-01 13:04:12 | 51.10168 | 17.87417 | 76° | 26km/h | 18931m | -18.6m/s | 0°C | 0% | 0hPa | 0V | 00:00:00 | 00:00:00 | 00:00:00 | |
| KRY50SP | 2026-09-01 13:04:06 | 51.10160 | 17.87377 | 75° | 9km/h | 19047m | -18.8m/s | 0°C | 0% | 0hPa | 0V | 00:00:00 | 00:00:00 | 00:00:00 | |
| KRY50SP | 2026-09-01 13:04:00 | 51.10149 | 17.87352 | 34° | 20km/h | 19162m | -21.0m/s | 0°C | 0% | 0hPa | 0V | 00:00:00 | 00:00:00 | 00:00:00 | |
| KRY50SP | 2026-09-01 13:03:53 | 51.10127 | 17.87309 | 73° | 20km/h | 19306m | -19.1m/s | 0°C | 0% | 0hPa | 0V | 00:00:00 | 00:00:00 | 00:00:00 | |
| KRY50SP | 2026-09-01 13:03:48 | 51.10113 | 17.87262 | 58° | 35km/h | 19412m | -20.7m/s | 0°C | 0% | 0hPa | 0V | 00:00:00 | 00:00:00 | 00:00:00 | |
| SQ6EMJ | 2026-09-01 13:03:39 | 51.10097 | 17.87176 | 85° | 24km/h | 19628m | -22.0m/s | 0°C | 0% | 0hPa | 0V | 00:00:00 | 00:00:00 | 00:00:00 | |
| KRY50SP | 2026-09-01 13:03:37 | 51.10096 | 17.87167 | 73° | 24km/h | 19650m | -21.0m/s | 0°C | 0% | 0hPa | 0V | 00:00:00 | 00:00:00 | 00:00:00 | |
| SP3BTT-10 | 2026-09-01 13:03:34 | 51.10088 | 17.87145 | 40° | 11km/h | 19714m | -21.7m/s | 0°C | 0% | 0hPa | 0V | 00:00:00 | 00:00:00 | 00:00:00 | |
| KRY50SP | 2026-09-01 13:03:30 | 51.10077 | 17.87136 | 38° | 13km/h | 19800m | -21.0m/s | 0°C | 0% | 0hPa | 0V | 00:00:00 | 00:00:00 | 00:00:00 | |
| POL1PZ | 2026-09-01 13:03:29 | 51.10074 | 17.87133 | 42° | 15km/h | 19823m | -21.8m/s | 0°C | 0% | 0hPa | 0V | 00:00:00 | 00:00:00 | 00:00:00 | |
| KRY50SP | 2026-09-01 13:03:24 | 51.10055 | 17.87115 | 26° | 22km/h | 19935m | -22.0m/s | 0°C | 0% | 0hPa | 0V | 00:00:00 | 00:00:00 | 00:00:00 | |
| KRY50SP | 2026-09-01 13:03:16 | 51.10015 | 17.87090 | 23° | 18km/h | 20112m | -22.1m/s | 0°C | 0% | 0hPa | 0V | 00:00:00 | 00:00:00 | 00:00:00 | |
| KRY50SP | 2026-09-01 13:03:10 | 51.09983 | 17.87058 | 35° | 33km/h | 20248m | -21.4m/s | 0°C | 0% | 0hPa | 0V | 00:00:00 | 00:00:00 | 00:00:00 | |
| POL1PZ | 2026-09-01 13:03:05 | 51.09954 | 17.87025 | 53° | 18km/h | 20361m | -21.0m/s | 0°C | 0% | 0hPa | 0V | 00:00:00 | 00:00:00 | 00:00:00 | |
| KRY50SP | 2026-09-01 13:02:53 | 51.09939 | 17.86998 | 26° | 11km/h | 20641m | -22.4m/s | 0°C | 0% | 0hPa | 0V | 00:00:00 | 00:00:00 | 00:00:00 | |
| SP3BTT-10 | 2026-09-01 13:02:51 | 51.09935 | 17.86993 | 63° | 15km/h | 20689m | -23.5m/s | 0°C | 0% | 0hPa | 0V | 00:00:00 | 00:00:00 | 00:00:00 | |
| KRY50SP | 2026-09-01 13:02:48 | 51.09931 | 17.86976 | 79° | 20km/h | 20761m | -22.6m/s | 0°C | 0% | 0hPa | 0V | 00:00:00 | 00:00:00 | 00:00:00 | |
| POL1PZ | 2026-09-01 13:02:40 | 51.09919 | 17.86897 | 72° | 24km/h | 20955m | -28.0m/s | 0°C | 0% | 0hPa | 0V | 00:00:00 | 00:00:00 | 00:00:00 | |
| SQ6EMJ | 2026-09-01 13:02:38 | 51.09915 | 17.86882 | 59° | 18km/h | 21010m | -26.4m/s | 0°C | 0% | 0hPa | 0V | 00:00:00 | 00:00:00 | 00:00:00 | |
| KRY50SP | 2026-09-01 13:02:34 | 51.09907 | 17.86864 | 35° | 9km/h | 21128m | -29.6m/s | 0°C | 0% | 0hPa | 0V | 00:00:00 | 00:00:00 | 00:00:00 | |
| KRY50SP | 2026-09-01 13:02:29 | 51.09896 | 17.86850 | 25° | 13km/h | 21271m | -28.9m/s | 0°C | 0% | 0hPa | 0V | 00:00:00 | 00:00:00 | 00:00:00 | |
| KRY50SP | 2026-09-01 13:02:23 | 51.09878 | 17.86829 | 41° | 16km/h | 21422m | -24.4m/s | 0°C | 0% | 0hPa | 0V | 00:00:00 | 00:00:00 | 00:00:00 | |
| KRY50SP | 2026-09-01 13:02:17 | 51.09856 | 17.86819 | 330° | 15km/h | 21566m | -23.3m/s | 0°C | 0% | 0hPa | 0V | 00:00:00 | 00:00:00 | 00:00:00 | |
| KRY50SP | 2026-09-01 13:02:12 | 51.09832 | 17.86824 | 37° | 18km/h | 21706m | -22.9m/s | 0°C | 0% | 0hPa | 0V | 00:00:00 | 00:00:00 | 00:00:00 | |
| SQ6EMJ | 2026-09-01 13:02:11 | 51.09828 | 17.86819 | 45° | 16km/h | 21729m | -21.4m/s | 0°C | 0% | 0hPa | 0V | 00:00:00 | 00:00:00 | 00:00:00 | |
| KRY50SP | 2026-09-01 13:02:06 | 51.09820 | 17.86794 | 95° | 15km/h | 21820m | -24.2m/s | 0°C | 0% | 0hPa | 0V | 00:00:00 | 00:00:00 | 00:00:00 | |
| SQ6EMJ | 2026-09-01 13:02:04 | 51.09821 | 17.86780 | 116° | 18km/h | 21869m | -23.7m/s | 0°C | 0% | 0hPa | 0V | 00:00:00 | 00:00:00 | 00:00:00 | |
| POL1PZ | 2026-09-01 13:02:02 | 51.09825 | 17.86769 | 118° | 16km/h | 21918m | -22.0m/s | 0°C | 0% | 0hPa | 0V | 00:00:00 | 00:00:00 | 00:00:00 | |
| KRY50SP | 2026-09-01 13:02:01 | 51.09827 | 17.86763 | 134° | 16km/h | 21940m | -21.6m/s | 0°C | 0% | 0hPa | 0V | 00:00:00 | 00:00:00 | 00:00:00 | |
| KRY50SP | 2026-09-01 13:01:55 | 51.09854 | 17.86740 | 166° | 18km/h | 22082m | -24.5m/s | 0°C | 0% | 0hPa | 0V | 00:00:00 | 00:00:00 | 00:00:00 | |
| KRY50SP | 2026-09-01 13:01:49 | 51.09865 | 17.86745 | 299° | 5km/h | 22229m | -24.1m/s | 0°C | 0% | 0hPa | 0V | 00:00:00 | 00:00:00 | 00:00:00 | |
| SP3BTT-10 | 2026-09-01 13:01:48 | 51.09864 | 17.86748 | 305° | 5km/h | 22252m | -22.7m/s | 0°C | 0% | 0hPa | 0V | 00:00:00 | 00:00:00 | 00:00:00 | |
| SQ6EMJ | 2026-09-01 13:01:45 | 51.09860 | 17.86758 | 294° | 11km/h | 22329m | -24.9m/s | 0°C | 0% | 0hPa | 0V | 00:00:00 | 00:00:00 | 00:00:00 | |
| KRY50SP | 2026-09-01 13:01:43 | 51.09856 | 17.86767 | 313° | 15km/h | 22377m | -20.5m/s | 0°C | 0% | 0hPa | 0V | 00:00:00 | 00:00:00 | 00:00:00 | |
| POL1PZ | 2026-09-01 13:01:41 | 51.09850 | 17.86775 | 328° | 18km/h | 22416m | -17.3m/s | 0°C | 0% | 0hPa | 0V | 00:00:00 | 00:00:00 | 00:00:00 | |
| SQ9EZE-15 | 2026-09-01 13:01:39 | 51.09842 | 17.86780 | 351° | 16km/h | 22450m | -16.6m/s | 0°C | 0% | 0hPa | 0V | 00:00:00 | 00:00:00 | 00:00:00 | |
| KRY50SP | 2026-09-01 13:01:38 | 51.09838 | 17.86780 | 5° | 18km/h | 22467m | -15.6m/s | 0°C | 0% | 0hPa | 0V | 00:00:00 | 00:00:00 | 00:00:00 | |
| KRY50SP | 2026-09-01 13:01:32 | 51.09812 | 17.86782 | 2° | 16km/h | 22562m | -22.4m/s | 0°C | 0% | 0hPa | 0V | 00:00:00 | 00:00:00 | 00:00:00 | |
| KRY50SP | 2026-09-01 13:01:27 | 51.09787 | 17.86777 | 17° | 26km/h | 22669m | -20.0m/s | 0°C | 0% | 0hPa | 0V | 00:00:00 | 00:00:00 | 00:00:00 | |
| KRY50SP | 2026-09-01 13:01:21 | 51.09753 | 17.86760 | 23° | 20km/h | 22777m | -16.9m/s | 0°C | 0% | 0hPa | 0V | 00:00:00 | 00:00:00 | 00:00:00 | |
| SQ9EZE-15 | 2026-09-01 13:01:18 | 51.09742 | 17.86753 | 24° | 15km/h | 22831m | -18.3m/s | 0°C | 0% | 0hPa | 0V | 00:00:00 | 00:00:00 | 00:00:00 | |
| POL1PZ | 2026-09-01 13:01:17 | 51.09739 | 17.86750 | 47° | 13km/h | 22849m | -17.5m/s | 0°C | 0% | 0hPa | 0V | 00:00:00 | 00:00:00 | 00:00:00 | |
| KRY50SP | 2026-09-01 13:01:15 | 51.09735 | 17.86742 | 69° | 11km/h | 22883m | -15.5m/s | 0°C | 0% | 0hPa | 0V | 00:00:00 | 00:00:00 | 00:00:00 | |
| KRY50SP | 2026-09-01 13:01:08 | 51.09736 | 17.86734 | 229° | 9km/h | 23018m | -19.1m/s | 0°C | 0% | 0hPa | 0V | 00:00:00 | 00:00:00 | 00:00:00 | |
| OM5KV | 2026-09-01 13:01:06 | 51.09737 | 17.86740 | 271° | 5km/h | 23059m | -19.7m/s | 0°C | 0% | 0hPa | 0V | 00:00:00 | 00:00:00 | 00:00:00 | |
| OM5KV | 2026-09-01 13:01:05 | 51.09737 | 17.86741 | 305° | 5km/h | 23080m | -22.1m/s | 0°C | 0% | 0hPa | 0V | 00:00:00 | 00:00:00 | 00:00:00 | |
| KRY50SP | 2026-09-01 13:01:03 | 51.09734 | 17.86742 | 11° | 11km/h | 23122m | -18.0m/s | 0°C | 0% | 0hPa | 0V | 00:00:00 | 00:00:00 | 00:00:00 | |
| OM5KV | 2026-09-01 13:00:59 | 51.09719 | 17.86738 | 12° | 16km/h | 23203m | -21.2m/s | 0°C | 0% | 0hPa | 0V | 00:00:00 | 00:00:00 | 00:00:00 | |
| KRY50SP | 2026-09-01 13:00:58 | 51.09716 | 17.86737 | 4° | 11km/h | 23225m | -20.5m/s | 0°C | 0% | 0hPa | 0V | 00:00:00 | 00:00:00 | 00:00:00 | |
| OM5KV | 2026-09-01 13:00:53 | 51.09703 | 17.86732 | 36° | 11km/h | 23328m | -19.2m/s | 0°C | 0% | 0hPa | 0V | 00:00:00 | 00:00:00 | 00:00:00 | |
| KRY50SP | 2026-09-01 13:00:52 | 51.09701 | 17.86730 | 22° | 16km/h | 23349m | -19.7m/s | 0°C | 0% | 0hPa | 0V | 00:00:00 | 00:00:00 | 00:00:00 | |
| OM5KV | 2026-09-01 13:00:45 | 51.09684 | 17.86710 | 9° | 2km/h | 23492m | -21.8m/s | 0°C | 0% | 0hPa | 0V | 00:00:00 | 00:00:00 | 00:00:00 | |
| OM5KV | 2026-09-01 13:00:41 | 51.09684 | 17.86710 | 238° | 4km/h | 23590m | -23.4m/s | 0°C | 0% | 0hPa | 0V | 00:00:00 | 00:00:00 | 00:00:00 | |
| OM5KV | 2026-09-01 13:00:38 | 51.09684 | 17.86715 | 298° | 5km/h | 23660m | -22.4m/s | 0°C | 0% | 0hPa | 0V | 00:00:00 | 00:00:00 | 00:00:00 | |
| OM5KV | 2026-09-01 13:00:34 | 51.09679 | 17.86721 | 344° | 7km/h | 23747m | -23.0m/s | 0°C | 0% | 0hPa | 0V | 00:00:00 | 00:00:00 | 00:00:00 | |
| SP3BTT-10 | 2026-09-01 13:00:33 | 51.09677 | 17.86723 | 346° | 15km/h | 23771m | -23.3m/s | 0°C | 0% | 0hPa | 0V | 00:00:00 | 00:00:00 | 00:00:00 | |
| OM5KV | 2026-09-01 13:00:32 | 51.09676 | 17.86723 | 347° | 4km/h | 23794m | -22.1m/s | 0°C | 0% | 0hPa | 0V | 00:00:00 | 00:00:00 | 00:00:00 | |
| POL1PZ | 2026-09-01 13:00:31 | 51.09675 | 17.86723 | 356° | 4km/h | 23816m | -20.2m/s | 0°C | 0% | 0hPa | 0V | 00:00:00 | 00:00:00 | 00:00:00 | |
| KRY50SP | 2026-09-01 13:00:27 | 51.09670 | 17.86719 | 56° | 9km/h | 23896m | -19.7m/s | 0°C | 0% | 0hPa | 0V | 00:00:00 | 00:00:00 | 00:00:00 | |
| OM5KV | 2026-09-01 13:00:25 | 51.09667 | 17.86711 | 64° | 13km/h | 23937m | -20.3m/s | 0°C | 0% | 0hPa | 0V | 00:00:00 | 00:00:00 | 00:00:00 | |
| KRY50SP | 2026-09-01 13:00:22 | 51.09664 | 17.86702 | 79° | 7km/h | 23998m | -21.7m/s | 0°C | 0% | 0hPa | 0V | 00:00:00 | 00:00:00 | 00:00:00 | |
| OM5KV | 2026-09-01 13:00:20 | 51.09663 | 17.86695 | 90° | 7km/h | 24041m | -20.2m/s | 0°C | 0% | 0hPa | 0V | 00:00:00 | 00:00:00 | 00:00:00 | |
| KRY50SP | 2026-09-01 13:00:17 | 51.09666 | 17.86681 | 118° | 11km/h | 24115m | -18.9m/s | 0°C | 0% | 0hPa | 0V | 00:00:00 | 00:00:00 | 00:00:00 | |
| OM5KV | 2026-09-01 13:00:14 | 51.09669 | 17.86672 | 139° | 13km/h | 24153m | -15.3m/s | 0°C | 0% | 0hPa | 0V | 00:00:00 | 00:00:00 | 00:00:00 | |
| KRY50SP | 2026-09-01 13:00:10 | 51.09676 | 17.86673 | 222° | 9km/h | 24232m | -21.8m/s | 0°C | 0% | 0hPa | 0V | 00:00:00 | 00:00:00 | 00:00:00 | |
| KRY50SP | 2026-09-01 13:00:05 | 51.09692 | 17.86677 | 187° | 20km/h | 24340m | -21.2m/s | 0°C | 0% | 0hPa | 0V | 00:00:00 | 00:00:00 | 00:00:00 | |
| OM5KV | 2026-09-01 13:00:01 | 51.09706 | 17.86683 | 233° | 13km/h | 24421m | -18.8m/s | 0°C | 0% | 0hPa | 0V | 00:00:00 | 00:00:00 | 00:00:00 | |
| KRY50SP | 2026-09-01 12:59:59 | 51.09710 | 17.86696 | 264° | 15km/h | 24483m | -20.1m/s | 0°C | 0% | 0hPa | 0V | 00:00:00 | 00:00:00 | 00:00:00 | |
| OM5KV | 2026-09-01 12:59:56 | 51.09710 | 17.86710 | 284° | 20km/h | 24524m | -18.9m/s | 0°C | 0% | 0hPa | 0V | 00:00:00 | 00:00:00 | 00:00:00 | |
| KRY50SP | 2026-09-01 12:59:52 | 51.09704 | 17.86737 | 287° | 20km/h | 24600m | -19.7m/s | 0°C | 0% | 0hPa | 0V | 00:00:00 | 00:00:00 | 00:00:00 | |
| POL1PZ | 2026-09-01 12:59:49 | 51.09695 | 17.86757 | 319° | 22km/h | 24661m | -19.6m/s | 0°C | 0% | 0hPa | 0V | 00:00:00 | 00:00:00 | 00:00:00 | |
| KRY50SP | 2026-09-01 12:59:46 | 51.09680 | 17.86773 | 336° | 26km/h | 24720m | -19.0m/s | 0°C | 0% | 0hPa | 0V | 00:00:00 | 00:00:00 | 00:00:00 | |
| OM5KV | 2026-09-01 12:59:44 | 51.09668 | 17.86780 | 348° | 26km/h | 24760m | -20.7m/s | 0°C | 0% | 0hPa | 0V | 00:00:00 | 00:00:00 | 00:00:00 | |
| SQ6EMJ | 2026-09-01 12:59:41 | 51.09651 | 17.86786 | 343° | 24km/h | 24820m | -19.9m/s | 0°C | 0% | 0hPa | 0V | 00:00:00 | 00:00:00 | 00:00:00 | |
| OM5KV | 2026-09-01 12:59:39 | 51.09642 | 17.86789 | 338° | 16km/h | 24862m | -22.0m/s | 0°C | 0% | 0hPa | 0V | 00:00:00 | 00:00:00 | 00:00:00 | |
| OM5KV | 2026-09-01 12:59:36 | 51.09628 | 17.86793 | 7° | 16km/h | 24925m | -21.8m/s | 0°C | 0% | 0hPa | 0V | 00:00:00 | 00:00:00 | 00:00:00 | |
| SP3BTT-10 | 2026-09-01 12:59:34 | 51.09622 | 17.86789 | 40° | 7km/h | 24971m | -24.9m/s | 0°C | 0% | 0hPa | 0V | 00:00:00 | 00:00:00 | 00:00:00 | |
| KRY50SP | 2026-09-01 12:59:33 | 51.09621 | 17.86786 | 47° | 9km/h | 24995m | -23.0m/s | 0°C | 0% | 0hPa | 0V | 00:00:00 | 00:00:00 | 00:00:00 | |
| OM5KV | 2026-09-01 12:59:32 | 51.09619 | 17.86784 | 42° | 7km/h | 25018m | -22.6m/s | 0°C | 0% | 0hPa | 0V | 00:00:00 | 00:00:00 | 00:00:00 | |
| POL1PZ | 2026-09-01 12:59:30 | 51.09616 | 17.86784 | 308° | 2km/h | 25126m | -27.5m/s | 0°C | 0% | 0hPa | 0V | 00:00:00 | 00:00:00 | 00:00:00 | |
| KRY50SP | 2026-09-01 12:59:29 | 51.09615 | 17.86785 | 0° | 0km/h | 25153m | -25.3m/s | 0°C | 0% | 0hPa | 0V | 00:00:00 | 00:00:00 | 00:00:00 | |
| SQ6EMJ | 2026-09-01 12:59:24 | 51.09614 | 17.86786 | 58° | 4km/h | 25227m | -22.3m/s | 0°C | 0% | 0hPa | 0V | 00:00:00 | 00:00:00 | 00:00:00 | |
| KRY50SP | 2026-09-01 12:59:22 | 51.09612 | 17.86785 | 47° | 4km/h | 25275m | -24.3m/s | 0°C | 0% | 0hPa | 0V | 00:00:00 | 00:00:00 | 00:00:00 | |
| KRY50SP | 2026-09-01 12:59:16 | 51.09603 | 17.86786 | 350° | 9km/h | 25423m | -21.8m/s | 0°C | 0% | 0hPa | 0V | 00:00:00 | 00:00:00 | 00:00:00 | |
| SQ6EMJ | 2026-09-01 12:59:12 | 51.09596 | 17.86784 | 63° | 4km/h | 25522m | -25.5m/s | 0°C | 0% | 0hPa | 0V | 00:00:00 | 00:00:00 | 00:00:00 | |
| KRY50SP | 2026-09-01 12:59:11 | 51.09596 | 17.86783 | 65° | 2km/h | 25547m | -24.8m/s | 0°C | 0% | 0hPa | 0V | 00:00:00 | 00:00:00 | 00:00:00 | |
| OM5KV | 2026-09-01 12:59:07 | 51.09595 | 17.86779 | 53° | 4km/h | 25644m | -23.0m/s | 0°C | 0% | 0hPa | 0V | 00:00:00 | 00:00:00 | 00:00:00 | |
| POL1PZ | 2026-09-01 12:59:06 | 51.09594 | 17.86778 | 84° | 5km/h | 25668m | -23.3m/s | 0°C | 0% | 0hPa | 0V | 00:00:00 | 00:00:00 | 00:00:00 | |
| KRY50SP | 2026-09-01 12:59:04 | 51.09593 | 17.86773 | 74° | 5km/h | 25716m | -23.9m/s | 0°C | 0% | 0hPa | 0V | 00:00:00 | 00:00:00 | 00:00:00 | |
| SQ6EMJ | 2026-09-01 12:59:03 | 51.09594 | 17.86770 | 121° | 9km/h | 25741m | -23.6m/s | 0°C | 0% | 0hPa | 0V | 00:00:00 | 00:00:00 | 00:00:00 | |
| KRY50SP | 2026-09-01 12:58:59 | 51.09603 | 17.86762 | 175° | 13km/h | 25835m | -22.8m/s | 0°C | 0% | 0hPa | 0V | 00:00:00 | 00:00:00 | 00:00:00 | |
| SQ6EMJ | 2026-09-01 12:58:58 | 51.09607 | 17.86763 | 188° | 13km/h | 25858m | -21.1m/s | 0°C | 0% | 0hPa | 0V | 00:00:00 | 00:00:00 | 00:00:00 | |
| OM5KV | 2026-09-01 12:58:57 | 51.09613 | 17.86764 | 183° | 9km/h | 25900m | -22.3m/s | 0°C | 0% | 0hPa | 0V | 00:00:00 | 00:00:00 | 00:00:00 | |
| KRY50SP | 2026-09-01 12:58:56 | 51.09617 | 17.86763 | 150° | 2km/h | 25944m | -23.4m/s | 0°C | 0% | 0hPa | 0V | 00:00:00 | 00:00:00 | 00:00:00 | |
| SQ6EMJ | 2026-09-01 12:58:52 | 51.09618 | 17.86761 | 97° | 4km/h | 25992m | -22.6m/s | 0°C | 0% | 0hPa | 0V | 00:00:00 | 00:00:00 | 00:00:00 | |
| SP3BTT-10 | 2026-09-01 12:58:49 | 51.09616 | 17.86758 | 19° | 18km/h | 26063m | -25.5m/s | 0°C | 0% | 0hPa | 0V | 00:00:00 | 00:00:00 | 00:00:00 | |
| KRY50SP | 2026-09-01 12:58:48 | 51.09613 | 17.86757 | 17° | 15km/h | 26089m | -25.3m/s | 0°C | 0% | 0hPa | 0V | 00:00:00 | 00:00:00 | 00:00:00 | |
| SQ6EMJ | 2026-09-01 12:58:45 | 51.09602 | 17.86751 | 28° | 18km/h | 26169m | -23.9m/s | 0°C | 0% | 0hPa | 0V | 00:00:00 | 00:00:00 | 00:00:00 | |
| POL1PZ | 2026-09-01 12:58:44 | 51.09599 | 17.86747 | 38° | 16km/h | 26193m | -22.1m/s | 0°C | 0% | 0hPa | 0V | 00:00:00 | 00:00:00 | 00:00:00 | |
| KRY50SP | 2026-09-01 12:58:43 | 51.09595 | 17.86744 | 42° | 16km/h | 26215m | -20.8m/s | 0°C | 0% | 0hPa | 0V | 00:00:00 | 00:00:00 | 00:00:00 | |
| SQ6EMJ | 2026-09-01 12:58:39 | 51.09586 | 17.86725 | 59° | 18km/h | 26304m | -26.7m/s | 0°C | 0% | 0hPa | 0V | 00:00:00 | 00:00:00 | 00:00:00 | |
| KRY50SP | 2026-09-01 12:58:38 | 51.09583 | 17.86719 | 44° | 24km/h | 26332m | -26.6m/s | 0°C | 0% | 0hPa | 0V | 00:00:00 | 00:00:00 | 00:00:00 | |
| OM5KV | 2026-09-01 12:58:37 | 51.09579 | 17.86711 | 54° | 27km/h | 26359m | -25.6m/s | 0°C | 0% | 0hPa | 0V | 00:00:00 | 00:00:00 | 00:00:00 | |
| SQ6EMJ | 2026-09-01 12:58:32 | 51.09567 | 17.86671 | 87° | 20km/h | 26492m | -23.6m/s | 0°C | 0% | 0hPa | 0V | 00:00:00 | 00:00:00 | 00:00:00 | |
| KRY50SP | 2026-09-01 12:58:31 | 51.09567 | 17.86657 | 98° | 20km/h | 26540m | -21.5m/s | 0°C | 0% | 0hPa | 0V | 00:00:00 | 00:00:00 | 00:00:00 | |
| SQ6EMJ | 2026-09-01 12:58:26 | 51.09569 | 17.86631 | 103° | 15km/h | 26643m | -24.5m/s | 0°C | 0% | 0hPa | 0V | 00:00:00 | 00:00:00 | 00:00:00 | |
| KRY50SP | 2026-09-01 12:58:25 | 51.09570 | 17.86625 | 99° | 15km/h | 26669m | -25.7m/s | 0°C | 0% | 0hPa | 0V | 00:00:00 | 00:00:00 | 00:00:00 | |
| OM5KV | 2026-09-01 12:58:24 | 51.09571 | 17.86614 | 89° | 11km/h | 26725m | -29.5m/s | 0°C | 0% | 0hPa | 0V | 00:00:00 | 00:00:00 | 00:00:00 | |
| KRY50SP | 2026-09-01 12:58:20 | 51.09568 | 17.86604 | 34° | 7km/h | 26844m | -28.1m/s | 0°C | 0% | 0hPa | 0V | 00:00:00 | 00:00:00 | 00:00:00 | |
| SQ6EMJ | 2026-09-01 12:58:13 | 51.09565 | 17.86592 | 91° | 9km/h | 26996m | -23.5m/s | 0°C | 0% | 0hPa | 0V | 00:00:00 | 00:00:00 | 00:00:00 | |
| KRY50SP | 2026-09-01 12:58:11 | 51.09563 | 17.86585 | 39° | 13km/h | 27044m | -22.7m/s | 0°C | 0% | 0hPa | 0V | 00:00:00 | 00:00:00 | 00:00:00 | |
| SQ6EMJ | 2026-09-01 12:58:05 | 51.09550 | 17.86553 | 77° | 26km/h | 27190m | -23.8m/s | 0°C | 0% | 0hPa | 0V | 00:00:00 | 00:00:00 | 00:00:00 | |
| KRY50SP | 2026-09-01 12:58:04 | 51.09549 | 17.86542 | 79° | 29km/h | 27215m | -25.7m/s | 0°C | 0% | 0hPa | 0V | 00:00:00 | 00:00:00 | 00:00:00 | |
| OM5KV | 2026-09-01 12:58:01 | 51.09547 | 17.86508 | 94° | 26km/h | 27298m | -28.6m/s | 0°C | 0% | 0hPa | 0V | 00:00:00 | 00:00:00 | 00:00:00 | |
| POL1PZ | 2026-09-01 12:57:59 | 51.09547 | 17.86490 | 95° | 16km/h | 27356m | -30.0m/s | 0°C | 0% | 0hPa | 0V | 00:00:00 | 00:00:00 | 00:00:00 | |
| KRY50SP | 2026-09-01 12:57:57 | 51.09547 | 17.86478 | 79° | 16km/h | 27416m | -26.2m/s | 0°C | 0% | 0hPa | 0V | 00:00:00 | 00:00:00 | 00:00:00 | |
| SQ6EMJ | 2026-09-01 12:57:52 | 51.09553 | 17.86441 | 120° | 13km/h | 27587m | -28.5m/s | 0°C | 0% | 0hPa | 0V | 00:00:00 | 00:00:00 | 00:00:00 | |
| KRY50SP | 2026-09-01 12:57:49 | 51.09554 | 17.86432 | 85° | 11km/h | 27644m | -28.0m/s | 0°C | 0% | 0hPa | 0V | 00:00:00 | 00:00:00 | 00:00:00 | |
| SQ6EMJ | 2026-09-01 12:57:45 | 51.09550 | 17.86407 | 85° | 22km/h | 27751m | -27.2m/s | 0°C | 0% | 0hPa | 0V | 00:00:00 | 00:00:00 | 00:00:00 | |
| OM5KV | 2026-09-01 12:57:43 | 51.09550 | 17.86388 | 99° | 26km/h | 27808m | -26.6m/s | 0°C | 0% | 0hPa | 0V | 00:00:00 | 00:00:00 | 00:00:00 | |
| KRY50SP | 2026-09-01 12:57:40 | 51.09556 | 17.86358 | 110° | 24km/h | 27886m | -25.5m/s | 0°C | 0% | 0hPa | 0V | 00:00:00 | 00:00:00 | 00:00:00 | |
| SQ6EMJ | 2026-09-01 12:57:39 | 51.09561 | 17.86341 | 121° | 22km/h | 27939m | -26.3m/s | 0°C | 0% | 0hPa | 0V | 00:00:00 | 00:00:00 | 00:00:00 | |
| OM5KV | 2026-09-01 12:57:38 | 51.09561 | 17.86341 | 121° | 22km/h | 27939m | -26.3m/s | 0°C | 0% | 0hPa | 0V | 00:00:00 | 00:00:00 | 00:00:00 | |
| KRY50SP | 2026-09-01 12:57:33 | 51.09578 | 17.86320 | 172° | 16km/h | 28079m | -28.1m/s | 0°C | 0% | 0hPa | 0V | 00:00:00 | 00:00:00 | 00:00:00 | |
| SP3BTT-10 | 2026-09-01 12:57:32 | 51.09582 | 17.86319 | 173° | 13km/h | 28107m | -27.5m/s | 0°C | 0% | 0hPa | 0V | 00:00:00 | 00:00:00 | 00:00:00 | |
| OM5KV | 2026-09-01 12:57:27 | 51.09585 | 17.86324 | 332° | 11km/h | 28239m | -26.1m/s | 0°C | 0% | 0hPa | 0V | 00:00:00 | 00:00:00 | 00:00:00 | |
| SQ6EMJ | 2026-09-01 12:57:25 | 51.09579 | 17.86326 | 346° | 11km/h | 28294m | -30.2m/s | 0°C | 0% | 0hPa | 0V | 00:00:00 | 00:00:00 | 00:00:00 | |
| POL1PZ | 2026-09-01 12:57:16 | 51.09535 | 17.86292 | 41° | 26km/h | 28553m | -28.5m/s | 0°C | 0% | 0hPa | 0V | 00:00:00 | 00:00:00 | 00:00:00 | |
| KRY50SP | 2026-09-01 12:57:07 | 51.09518 | 17.86217 | 83° | 22km/h | 28810m | -29.9m/s | 0°C | 0% | 0hPa | 0V | 00:00:00 | 00:00:00 | 00:00:00 | |
| PETON7-10 | 2026-09-01 12:57:05 | 51.09517 | 17.86199 | 101° | 15km/h | 28894m | -25.9m/s | 0°C | 0% | 0hPa | 0V | 00:00:00 | 00:00:00 | 00:00:00 | |
| KRY50SP | 2026-09-01 12:57:01 | 51.09523 | 17.86184 | 132° | 20km/h | 28973m | -27.5m/s | 0°C | 0% | 0hPa | 0V | 00:00:00 | 00:00:00 | 00:00:00 | |
| POL1PZ | 2026-09-01 12:56:55 | 51.09544 | 17.86132 | 120° | 22km/h | 29136m | -27.0m/s | 0°C | 0% | 0hPa | 0V | 00:00:00 | 00:00:00 | 00:00:00 | |
| KRY50SP | 2026-09-01 12:56:54 | 51.09546 | 17.86125 | 118° | 18km/h | 29163m | -25.6m/s | 0°C | 0% | 0hPa | 0V | 00:00:00 | 00:00:00 | 00:00:00 | |
| SQ6EMJ | 2026-09-01 12:56:51 | 51.09550 | 17.86113 | 157° | 9km/h | 29239m | -25.3m/s | 0°C | 0% | 0hPa | 0V | 00:00:00 | 00:00:00 | 00:00:00 | |
| KRY50SP | 2026-09-01 12:56:49 | 51.09555 | 17.86110 | 157° | 11km/h | 29293m | -26.0m/s | 0°C | 0% | 0hPa | 0V | 00:00:00 | 00:00:00 | 00:00:00 | |
| PETON7-10 | 2026-09-01 12:56:46 | 51.09562 | 17.86100 | 121° | 15km/h | 29375m | -25.6m/s | 0°C | 0% | 0hPa | 0V | 00:00:00 | 00:00:00 | 00:00:00 | |
| SQ6EMJ | 2026-09-01 12:56:40 | 51.09564 | 17.86064 | 86° | 15km/h | 29537m | -25.1m/s | 0°C | 0% | 0hPa | 0V | 00:00:00 | 00:00:00 | 00:00:00 | |
| KRY50SP | 2026-09-01 12:56:38 | 51.09562 | 17.86053 | 71° | 15km/h | 29582m | -22.8m/s | 0°C | 0% | 0hPa | 0V | 00:00:00 | 00:00:00 | 00:00:00 | |
| SQ6EMJ | 2026-09-01 12:56:35 | 51.09559 | 17.86037 | 74° | 16km/h | 29651m | -23.4m/s | 0°C | 0% | 0hPa | 0V | 00:00:00 | 00:00:00 | 00:00:00 | |
| POL1PZ | 2026-09-01 12:56:33 | 51.09555 | 17.86025 | 70° | 15km/h | 29697m | -23.0m/s | 0°C | 0% | 0hPa | 0V | 00:00:00 | 00:00:00 | 00:00:00 | |
| SP3BTT-10 | 2026-09-01 12:56:32 | 51.09554 | 17.86021 | 59° | 9km/h | 29722m | -25.1m/s | 0°C | 0% | 0hPa | 0V | 00:00:00 | 00:00:00 | 00:00:00 | |
| SQ6EMJ | 2026-09-01 12:56:29 | 51.09553 | 17.86010 | 95° | 11km/h | 29796m | -23.6m/s | 0°C | 0% | 0hPa | 0V | 00:00:00 | 00:00:00 | 00:00:00 | |
| SQ6EMJ | 2026-09-01 12:56:22 | 51.09532 | 17.85959 | 49° | 26km/h | 30003m | -22.2m/s | 0°C | 0% | 0hPa | 0V | 00:00:00 | 00:00:00 | 00:00:00 | |
| KRY50SP | 2026-09-01 12:56:18 | 51.09522 | 17.85939 | 70° | 18km/h | 30068m | -22.3m/s | 0°C | 0% | 0hPa | 0V | 00:00:00 | 00:00:00 | 00:00:00 | |
| OK1SLM-15 | 2026-09-01 12:56:15 | 51.09523 | 17.85914 | 109° | 24km/h | 30137m | -22.6m/s | 0°C | 0% | 0hPa | 0V | 00:00:00 | 00:00:00 | 00:00:00 | |
| POL1PZ | 2026-09-01 12:56:11 | 51.09530 | 17.85882 | 117° | 16km/h | 30232m | -23.3m/s | 0°C | 0% | 0hPa | 0V | 00:00:00 | 00:00:00 | 00:00:00 | |
| OK1SLM-15 | 2026-09-01 12:56:10 | 51.09531 | 17.85877 | 114° | 11km/h | 30257m | -25.4m/s | 0°C | 0% | 0hPa | 0V | 00:00:00 | 00:00:00 | 00:00:00 | |
| SQ6EMJ | 2026-09-01 12:56:08 | 51.09530 | 17.85860 | 75° | 18km/h | 30338m | -25.5m/s | 0°C | 0% | 0hPa | 0V | 00:00:00 | 00:00:00 | 00:00:00 | |
| KRY50SP | 2026-09-01 12:56:06 | 51.09528 | 17.85853 | 72° | 18km/h | 30363m | -23.5m/s | 0°C | 0% | 0hPa | 0V | 00:00:00 | 00:00:00 | 00:00:00 | |
| OK1SLM-15 | 2026-09-01 12:56:03 | 51.09526 | 17.85825 | 94° | 26km/h | 30427m | -20.6m/s | 0°C | 0% | 0hPa | 0V | 00:00:00 | 00:00:00 | 00:00:00 | |
| KRY50SP | 2026-09-01 12:56:01 | 51.09527 | 17.85800 | 98° | 33km/h | 30472m | -22.6m/s | 0°C | 0% | 0hPa | 0V | 00:00:00 | 00:00:00 | 00:00:00 | |
| OK1SLM-15 | 2026-09-01 12:55:57 | 51.09521 | 17.85740 | 89° | 29km/h | 30587m | -21.5m/s | 0°C | 0% | 0hPa | 0V | 00:00:00 | 00:00:00 | 00:00:00 | |
| KRY50SP | 2026-09-01 12:55:55 | 51.09522 | 17.85729 | 105° | 24km/h | 30610m | -23.6m/s | 0°C | 0% | 0hPa | 0V | 00:00:00 | 00:00:00 | 00:00:00 | |
| OE5DRO-10 | 2026-09-01 12:55:51 | 51.09543 | 17.85706 | 168° | 11km/h | 30734m | -32.1m/s | 0°C | 0% | 0hPa | 0V | 00:00:00 | 00:00:00 | 00:00:00 | |
| KRY50SP | 2026-09-01 12:55:50 | 51.09547 | 17.85704 | 154° | 13km/h | 30765m | -30.0m/s | 0°C | 0% | 0hPa | 0V | 00:00:00 | 00:00:00 | 00:00:00 | |
| KRY50SP | 2026-09-01 12:55:44 | 51.09546 | 17.85687 | 68° | 9km/h | 30909m | -29.7m/s | 0°C | 0% | 0hPa | 0V | 00:00:00 | 00:00:00 | 00:00:00 | |
| SQ6EMJ | 2026-09-01 12:55:42 | 51.09545 | 17.85681 | 87° | 5km/h | 30963m | -22.3m/s | 0°C | 0% | 0hPa | 0V | 00:00:00 | 00:00:00 | 00:00:00 | |
| PETON7-10 | 2026-09-01 12:55:40 | 51.09547 | 17.85681 | 231° | 11km/h | 31005m | -17.7m/s | 0°C | 0% | 0hPa | 0V | 00:00:00 | 00:00:00 | 00:00:00 | |
| SQ6EMJ | 2026-09-01 12:55:38 | 51.09553 | 17.85689 | 180° | 9km/h | 31063m | -23.1m/s | 0°C | 0% | 0hPa | 0V | 00:00:00 | 00:00:00 | 00:00:00 | |
| KRY50SP | 2026-09-01 12:55:33 | 51.09553 | 17.85673 | 73° | 16km/h | 31162m | -24.3m/s | 0°C | 0% | 0hPa | 0V | 00:00:00 | 00:00:00 | 00:00:00 | |
| SP3BTT-10 | 2026-09-01 12:55:32 | 51.09553 | 17.85667 | 85° | 13km/h | 31186m | -24.0m/s | 0°C | 0% | 0hPa | 0V | 00:00:00 | 00:00:00 | 00:00:00 | |
| POL1PZ | 2026-09-01 12:55:30 | 51.09554 | 17.85659 | 152° | 9km/h | 31233m | -23.5m/s | 0°C | 0% | 0hPa | 0V | 00:00:00 | 00:00:00 | 00:00:00 | |
| SQ6EMJ | 2026-09-01 12:55:29 | 51.09556 | 17.85658 | 174° | 9km/h | 31255m | -22.0m/s | 0°C | 0% | 0hPa | 0V | 00:00:00 | 00:00:00 | 00:00:00 | |
| KRY50SP | 2026-09-01 12:55:27 | 51.09561 | 17.85655 | 137° | 9km/h | 31297m | -21.9m/s | 0°C | 0% | 0hPa | 0V | 00:00:00 | 00:00:00 | 00:00:00 | |
| PETON7-10 | 2026-09-01 12:55:25 | 51.09562 | 17.85648 | 79° | 11km/h | 31340m | -19.6m/s | 0°C | 0% | 0hPa | 0V | 00:00:00 | 00:00:00 | 00:00:00 | |
| SQ6EMJ | 2026-09-01 12:55:22 | 51.09559 | 17.85636 | 80° | 7km/h | 31395m | -18.1m/s | 0°C | 0% | 0hPa | 0V | 00:00:00 | 00:00:00 | 00:00:00 | |
| KRY50SP | 2026-09-01 12:55:21 | 51.09560 | 17.85633 | 148° | 7km/h | 31414m | -17.8m/s | 0°C | 0% | 0hPa | 0V | 00:00:00 | 00:00:00 | 00:00:00 | |
| SQ6EMJ | 2026-09-01 12:55:17 | 51.09563 | 17.85633 | 131° | 7km/h | 31484m | -19.2m/s | 0°C | 0% | 0hPa | 0V | 00:00:00 | 00:00:00 | 00:00:00 | |
| KRY50SP | 2026-09-01 12:55:15 | 51.09564 | 17.85625 | 81° | 16km/h | 31518m | -17.2m/s | 0°C | 0% | 0hPa | 0V | 00:00:00 | 00:00:00 | 00:00:00 | |
| POL1PZ | 2026-09-01 12:55:11 | 51.09559 | 17.85600 | 264° | 9km/h | 31602m | -16.0m/s | 0°C | 0% | 0hPa | 0V | 00:00:00 | 00:00:00 | 00:00:00 | |
| PETON7-10 | 2026-09-01 12:55:10 | 51.09559 | 17.85600 | 263° | 18km/h | 31602m | -16.0m/s | 0°C | 0% | 0hPa | 0V | 00:00:00 | 00:00:00 | 00:00:00 | |
| KRY50SP | 2026-09-01 12:55:09 | 51.09559 | 17.85605 | 255° | 15km/h | 31620m | -17.5m/s | 0°C | 0% | 0hPa | 0V | 00:00:00 | 00:00:00 | 00:00:00 | |
| SQ6EMJ | 2026-09-01 12:55:06 | 51.09562 | 17.85617 | 125° | 4km/h | 31678m | -16.0m/s | 0°C | 0% | 0hPa | 0V | 00:00:00 | 00:00:00 | 00:00:00 | |
| KRY50SP | 2026-09-01 12:55:03 | 51.09561 | 17.85597 | 79° | 16km/h | 31730m | -21.8m/s | 0°C | 0% | 0hPa | 0V | 00:00:00 | 00:00:00 | 00:00:00 | |
| SQ6EMJ | 2026-09-01 12:54:59 | 51.09560 | 17.85618 | 272° | 33km/h | 31822m | -28.0m/s | 0°C | 0% | 0hPa | 0V | 00:00:00 | 00:00:00 | 00:00:00 | |
| KRY50SP | 2026-09-01 12:54:57 | 51.09559 | 17.85639 | 293° | 13km/h | 31878m | -31.2m/s | 0°C | 0% | 0hPa | 0V | 00:00:00 | 00:00:00 | 00:00:00 | |
| SQ6EMJ | 2026-09-01 12:54:53 | 51.09546 | 17.85627 | 50° | 38km/h | 31972m | -22.3m/s | 0°C | 0% | 0hPa | 0V | 00:00:00 | 00:00:00 | 00:00:00 | |
| PETON7-10 | 2026-09-01 12:54:52 | 51.09538 | 17.85614 | 41° | 35km/h | 31998m | -30.6m/s | 0°C | 0% | 0hPa | 0V | 00:00:00 | 00:00:00 | 00:00:00 | |
| KRY50SP | 2026-09-01 12:54:51 | 51.09528 | 17.85601 | 38° | 53km/h | 32026m | -25.7m/s | 0°C | 0% | 0hPa | 0V | 00:00:00 | 00:00:00 | 00:00:00 | |
| POL1PZ | 2026-09-01 12:54:50 | 51.09518 | 17.85595 | 351° | 38km/h | 32054m | -30.5m/s | 0°C | 0% | 0hPa | 0V | 00:00:00 | 00:00:00 | 00:00:00 | |
| SQ6EMJ | 2026-09-01 12:54:49 | 51.09499 | 17.85602 | 347° | 38km/h | 32099m | -14.6m/s | 0°C | 0% | 0hPa | 0V | 00:00:00 | 00:00:00 | 00:00:00 | |
| KRY50SP | 2026-09-01 12:54:43 | 51.09460 | 17.85615 | 41° | 11km/h | 32086m | 6.5m/s | 0°C | 0% | 0hPa | 0V | 00:00:00 | 00:00:00 | 00:00:00 | |
| SQ6EMJ | 2026-09-01 12:54:40 | 51.09447 | 17.85601 | 20° | 37km/h | 32067m | 7.6m/s | 0°C | 0% | 0hPa | 0V | 00:00:00 | 00:00:00 | 00:00:00 | |
| PETON7-10 | 2026-09-01 12:54:37 | 51.09418 | 17.85594 | 2° | 20km/h | 32050m | 5.4m/s | 0°C | 0% | 0hPa | 0V | 00:00:00 | 00:00:00 | 00:00:00 | |
| KRY50SP | 2026-09-01 12:54:36 | 51.09411 | 17.85594 | 358° | 18km/h | 32044m | 8.3m/s | 0°C | 0% | 0hPa | 0V | 00:00:00 | 00:00:00 | 00:00:00 | |
| SQ6EMJ | 2026-09-01 12:54:34 | 51.09407 | 17.85597 | 285° | 7km/h | 32029m | 5.2m/s | 0°C | 0% | 0hPa | 0V | 00:00:00 | 00:00:00 | 00:00:00 | |
| OE5DRO-10 | 2026-09-01 12:54:33 | 51.09406 | 17.85601 | 311° | 18km/h | 32024m | 5.7m/s | 0°C | 0% | 0hPa | 0V | 00:00:00 | 00:00:00 | 00:00:00 | |
| KRY50SP | 2026-09-01 12:54:30 | 51.09388 | 17.85608 | 4° | 33km/h | 32005m | 5.7m/s | 0°C | 0% | 0hPa | 0V | 00:00:00 | 00:00:00 | 00:00:00 | |
| POL1PZ | 2026-09-01 12:54:28 | 51.09375 | 17.85604 | 25° | 18km/h | 31992m | 7.7m/s | 0°C | 0% | 0hPa | 0V | 00:00:00 | 00:00:00 | 00:00:00 | |
| KRY50SP | 2026-09-01 12:54:24 | 51.09368 | 17.85609 | 310° | 20km/h | 31967m | 6.8m/s | 0°C | 0% | 0hPa | 0V | 00:00:00 | 00:00:00 | 00:00:00 | |
| PG1ADW-2 | 2026-09-01 12:54:22 | 51.09359 | 17.85619 | 339° | 15km/h | 31954m | 4.7m/s | 0°C | 0% | 0hPa | 0V | 00:00:00 | 00:00:00 | 00:00:00 | |
| PETON7-10 | 2026-09-01 12:54:20 | 51.09352 | 17.85618 | 52° | 13km/h | 31941m | 8.1m/s | 0°C | 0% | 0hPa | 0V | 00:00:00 | 00:00:00 | 00:00:00 | |
| KRY50SP | 2026-09-01 12:54:18 | 51.09349 | 17.85608 | 66° | 13km/h | 31929m | 4.3m/s | 0°C | 0% | 0hPa | 0V | 00:00:00 | 00:00:00 | 00:00:00 | |
| SP3BTT-10 | 2026-09-01 12:54:16 | 51.09344 | 17.85606 | 334° | 16km/h | 31917m | 7.5m/s | 0°C | 0% | 0hPa | 0V | 00:00:00 | 00:00:00 | 00:00:00 | |
| OE5DRO-10 | 2026-09-01 12:54:14 | 51.09338 | 17.85618 | 286° | 15km/h | 31906m | 4.9m/s | 0°C | 0% | 0hPa | 0V | 00:00:00 | 00:00:00 | 00:00:00 | |
| KRY50SP | 2026-09-01 12:54:12 | 51.09341 | 17.85628 | 217° | 15km/h | 31890m | 8.2m/s | 0°C | 0% | 0hPa | 0V | 00:00:00 | 00:00:00 | 00:00:00 | |
| SQ6EMJ | 2026-09-01 12:54:10 | 51.09347 | 17.85629 | 157° | 7km/h | 31878m | 4.8m/s | 0°C | 0% | 0hPa | 0V | 00:00:00 | 00:00:00 | 00:00:00 | |
| POL1PZ | 2026-09-01 12:54:07 | 51.09341 | 17.85626 | 4° | 18km/h | 31858m | 4.3m/s | 0°C | 0% | 0hPa | 0V | 00:00:00 | 00:00:00 | 00:00:00 | |
| PETON7-10 | 2026-09-01 12:54:05 | 51.09336 | 17.85625 | 38° | 16km/h | 31848m | 7.6m/s | 0°C | 0% | 0hPa | 0V | 00:00:00 | 00:00:00 | 00:00:00 | |
| KRY50SP | 2026-09-01 12:54:02 | 51.09347 | 17.85628 | 199° | 24km/h | 31828m | 4.5m/s | 0°C | 0% | 0hPa | 0V | 00:00:00 | 00:00:00 | 00:00:00 | |
| KRY50SP | 2026-09-01 12:53:56 | 51.09345 | 17.85626 | 99° | 18km/h | 31789m | 8.0m/s | 0°C | 0% | 0hPa | 0V | 00:00:00 | 00:00:00 | 00:00:00 | |
| OE5DRO-10 | 2026-09-01 12:53:55 | 51.09348 | 17.85619 | 133° | 15km/h | 31782m | 6.5m/s | 0°C | 0% | 0hPa | 0V | 00:00:00 | 00:00:00 | 00:00:00 | |
| SQ6EMJ | 2026-09-01 12:53:52 | 51.09358 | 17.85618 | 247° | 15km/h | 31760m | 8.2m/s | 0°C | 0% | 0hPa | 0V | 00:00:00 | 00:00:00 | 00:00:00 | |
| KRY50SP | 2026-09-01 12:53:51 | 51.09359 | 17.85625 | 277° | 18km/h | 31753m | 5.1m/s | 0°C | 0% | 0hPa | 0V | 00:00:00 | 00:00:00 | 00:00:00 | |
| PETON7-10 | 2026-09-01 12:53:49 | 51.09358 | 17.85636 | 255° | 13km/h | 31744m | 6.3m/s | 0°C | 0% | 0hPa | 0V | 00:00:00 | 00:00:00 | 00:00:00 | |
| SP3BTT-10 | 2026-09-01 12:53:46 | 51.09365 | 17.85627 | 118° | 18km/h | 31723m | 5.2m/s | 0°C | 0% | 0hPa | 0V | 00:00:00 | 00:00:00 | 00:00:00 | |
| KRY50SP | 2026-09-01 12:53:45 | 51.09367 | 17.85620 | 104° | 16km/h | 31718m | 6.1m/s | 0°C | 0% | 0hPa | 0V | 00:00:00 | 00:00:00 | 00:00:00 | |
| SQ6EMJ | 2026-09-01 12:53:41 | 51.09360 | 17.85619 | 279° | 9km/h | 31691m | 7.3m/s | 0°C | 0% | 0hPa | 0V | 00:00:00 | 00:00:00 | 00:00:00 | |
| KRY50SP | 2026-09-01 12:53:38 | 51.09365 | 17.85623 | 136° | 9km/h | 31671m | 5.6m/s | 0°C | 0% | 0hPa | 0V | 00:00:00 | 00:00:00 | 00:00:00 | |
| PG1ADW-2 | 2026-09-01 12:53:37 | 51.09365 | 17.85620 | 80° | 13km/h | 31665m | 6.9m/s | 0°C | 0% | 0hPa | 0V | 00:00:00 | 00:00:00 | 00:00:00 | |
| OE5DRO-10 | 2026-09-01 12:53:35 | 51.09360 | 17.85612 | 34° | 15km/h | 31651m | 6.0m/s | 0°C | 0% | 0hPa | 0V | 00:00:00 | 00:00:00 | 00:00:00 | |
| PETON7-10 | 2026-09-01 12:53:33 | 51.09354 | 17.85603 | 73° | 13km/h | 31639m | 6.4m/s | 0°C | 0% | 0hPa | 0V | 00:00:00 | 00:00:00 | 00:00:00 | |
| KRY50SP | 2026-09-01 12:53:32 | 51.09355 | 17.85599 | 127° | 13km/h | 31632m | 8.4m/s | 0°C | 0% | 0hPa | 0V | 00:00:00 | 00:00:00 | 00:00:00 | |
| POL1PZ | 2026-09-01 12:53:26 | 51.09356 | 17.85592 | 3° | 20km/h | 31593m | 4.7m/s | 0°C | 0% | 0hPa | 0V | 00:00:00 | 00:00:00 | 00:00:00 | |
| SQ6EMJ | 2026-09-01 12:53:25 | 51.09351 | 17.85591 | 22° | 13km/h | 31588m | 6.3m/s | 0°C | 0% | 0hPa | 0V | 00:00:00 | 00:00:00 | 00:00:00 | |
| KRY50SP | 2026-09-01 12:53:20 | 51.09357 | 17.85573 | 101° | 4km/h | 31553m | 7.4m/s | 0°C | 0% | 0hPa | 0V | 00:00:00 | 00:00:00 | 00:00:00 | |
| PETON7-10 | 2026-09-01 12:53:18 | 51.09354 | 17.85573 | 335° | 13km/h | 31539m | 6.0m/s | 0°C | 0% | 0hPa | 0V | 00:00:00 | 00:00:00 | 00:00:00 | |
| PG1ADW-2 | 2026-09-01 12:53:17 | 51.09353 | 17.85575 | 317° | 13km/h | 31532m | 7.2m/s | 0°C | 0% | 0hPa | 0V | 00:00:00 | 00:00:00 | 00:00:00 | |
| KRY50SP | 2026-09-01 12:53:16 | 51.09353 | 17.85575 | 117° | 4km/h | 31519m | 5.6m/s | 0°C | 0% | 0hPa | 0V | 00:00:00 | 00:00:00 | 00:00:00 | |
| SQ6EMJ | 2026-09-01 12:53:15 | 51.09352 | 17.85570 | 50° | 11km/h | 31507m | 6.9m/s | 0°C | 0% | 0hPa | 0V | 00:00:00 | 00:00:00 | 00:00:00 | |
| KRY50SP | 2026-09-01 12:53:10 | 51.09347 | 17.85558 | 118° | 9km/h | 31490m | 4.4m/s | 0°C | 0% | 0hPa | 0V | 00:00:00 | 00:00:00 | 00:00:00 | |
| SQ6EMJ | 2026-09-01 12:53:08 | 51.09361 | 17.85547 | 151° | 27km/h | 31470m | 3.7m/s | 0°C | 0% | 0hPa | 0V | 00:00:00 | 00:00:00 | 00:00:00 | |
| POL1PZ | 2026-09-01 12:53:06 | 51.09366 | 17.85540 | 123° | 24km/h | 31467m | 3.6m/s | 0°C | 0% | 0hPa | 0V | 00:00:00 | 00:00:00 | 00:00:00 | |
| KRY50SP | 2026-09-01 12:53:05 | 51.09367 | 17.85532 | 91° | 22km/h | 31461m | 7.8m/s | 0°C | 0% | 0hPa | 0V | 00:00:00 | 00:00:00 | 00:00:00 | |
| PETON7-10 | 2026-09-01 12:53:03 | 51.09359 | 17.85517 | 23° | 27km/h | 31445m | 5.8m/s | 0°C | 0% | 0hPa | 0V | 00:00:00 | 00:00:00 | 00:00:00 | |
| SQ6EMJ | 2026-09-01 12:53:02 | 51.09352 | 17.85513 | 9° | 24km/h | 31440m | 3.0m/s | 0°C | 0% | 0hPa | 0V | 00:00:00 | 00:00:00 | 00:00:00 | |
| KRY50SP | 2026-09-01 12:52:59 | 51.09351 | 17.85513 | 177° | 27km/h | 31420m | 7.1m/s | 0°C | 0% | 0hPa | 0V | 00:00:00 | 00:00:00 | 00:00:00 | |
| OE5DRO-10 | 2026-09-01 12:52:54 | 51.09361 | 17.85494 | 16° | 11km/h | 31376m | 5.1m/s | 0°C | 0% | 0hPa | 0V | 00:00:00 | 00:00:00 | 00:00:00 | |
| SQ6EMJ | 2026-09-01 12:52:53 | 51.09361 | 17.85494 | 16° | 15km/h | 31376m | 5.1m/s | 0°C | 0% | 0hPa | 0V | 00:00:00 | 00:00:00 | 00:00:00 | |
| PETON7-10 | 2026-09-01 12:52:48 | 51.09372 | 17.85487 | 167° | 18km/h | 31351m | 5.1m/s | 0°C | 0% | 0hPa | 0V | 00:00:00 | 00:00:00 | 00:00:00 | |
| KRY50SP | 2026-09-01 12:52:47 | 51.09377 | 17.85486 | 169° | 15km/h | 31345m | 6.3m/s | 0°C | 0% | 0hPa | 0V | 00:00:00 | 00:00:00 | 00:00:00 | |
| SQ6EMJ | 2026-09-01 12:52:45 | 51.09374 | 17.85483 | 25° | 16km/h | 31324m | 5.4m/s | 0°C | 0% | 0hPa | 0V | 00:00:00 | 00:00:00 | 00:00:00 | |
| KRY50SP | 2026-09-01 12:52:41 | 51.09370 | 17.85464 | 113° | 24km/h | 31304m | 5.7m/s | 0°C | 0% | 0hPa | 0V | 00:00:00 | 00:00:00 | 00:00:00 | |
| SQ6EMJ | 2026-09-01 12:52:38 | 51.09378 | 17.85448 | 155° | 2km/h | 31283m | 7.8m/s | 0°C | 0% | 0hPa | 0V | 00:00:00 | 00:00:00 | 00:00:00 | |
| PG1ADW-2 | 2026-09-01 12:52:37 | 51.09378 | 17.85448 | 351° | 18km/h | 31277m | 5.5m/s | 0°C | 0% | 0hPa | 0V | 00:00:00 | 00:00:00 | 00:00:00 | |
| KRY50SP | 2026-09-01 12:52:34 | 51.09376 | 17.85436 | 91° | 24km/h | 31257m | 7.6m/s | 0°C | 0% | 0hPa | 0V | 00:00:00 | 00:00:00 | 00:00:00 | |
| PETON7-10 | 2026-09-01 12:52:33 | 51.09376 | 17.85425 | 88° | 20km/h | 31250m | 5.2m/s | 0°C | 0% | 0hPa | 0V | 00:00:00 | 00:00:00 | 00:00:00 | |
| OE5DRO-10 | 2026-09-01 12:52:32 | 51.09375 | 17.85414 | 83° | 15km/h | 31245m | 4.9m/s | 0°C | 0% | 0hPa | 0V | 00:00:00 | 00:00:00 | 00:00:00 | |
| KRY50SP | 2026-09-01 12:52:28 | 51.09372 | 17.85401 | 215° | 11km/h | 31220m | 6.7m/s | 0°C | 0% | 0hPa | 0V | 00:00:00 | 00:00:00 | 00:00:00 | |
| SQ6EMJ | 2026-09-01 12:52:25 | 51.09386 | 17.85401 | 155° | 18km/h | 31201m | 3.9m/s | 0°C | 0% | 0hPa | 0V | 00:00:00 | 00:00:00 | 00:00:00 | |
| POL1PZ | 2026-09-01 12:52:24 | 51.09389 | 17.85397 | 124° | 11km/h | 31196m | 5.7m/s | 0°C | 0% | 0hPa | 0V | 00:00:00 | 00:00:00 | 00:00:00 | |
| KRY50SP | 2026-09-01 12:52:23 | 51.09389 | 17.85394 | 55° | 9km/h | 31190m | 8.9m/s | 0°C | 0% | 0hPa | 0V | 00:00:00 | 00:00:00 | 00:00:00 | |
| SQ6EMJ | 2026-09-01 12:52:20 | 51.09377 | 17.85379 | 93° | 16km/h | 31166m | 6.7m/s | 0°C | 0% | 0hPa | 0V | 00:00:00 | 00:00:00 | 00:00:00 | |
| KRY50SP | 2026-09-01 12:52:18 | 51.09386 | 17.85366 | 158° | 33km/h | 31150m | 6.3m/s | 0°C | 0% | 0hPa | 0V | 00:00:00 | 00:00:00 | 00:00:00 | |
| PETON7-10 | 2026-09-01 12:52:16 | 51.09400 | 17.85362 | 191° | 18km/h | 31138m | 6.1m/s | 0°C | 0% | 0hPa | 0V | 00:00:00 | 00:00:00 | 00:00:00 | |
| SQ6EMJ | 2026-09-01 12:52:15 | 51.09403 | 17.85364 | 218° | 9km/h | 31132m | 5.7m/s | 0°C | 0% | 0hPa | 0V | 00:00:00 | 00:00:00 | 00:00:00 | |
| KRY50SP | 2026-09-01 12:52:11 | 51.09400 | 17.85356 | 74° | 22km/h | 31112m | 7.5m/s | 0°C | 0% | 0hPa | 0V | 00:00:00 | 00:00:00 | 00:00:00 | |
| SQ6EMJ | 2026-09-01 12:52:08 | 51.09401 | 17.85334 | 132° | 13km/h | 31096m | 7.5m/s | 0°C | 0% | 0hPa | 0V | 00:00:00 | 00:00:00 | 00:00:00 | |
| POL1PZ | 2026-09-01 12:52:06 | 51.09413 | 17.85343 | 186° | 11km/h | 31068m | 7.9m/s | 0°C | 0% | 0hPa | 0V | 00:00:00 | 00:00:00 | 00:00:00 | |
| SQ6EMJ | 2026-09-01 12:52:04 | 51.09415 | 17.85342 | 127° | 11km/h | 31060m | 5.9m/s | 0°C | 0% | 0hPa | 0V | 00:00:00 | 00:00:00 | 00:00:00 | |
| KRY50SP | 2026-09-01 12:52:00 | 51.09413 | 17.85335 | 356° | 11km/h | 31041m | 7.6m/s | 0°C | 0% | 0hPa | 0V | 00:00:00 | 00:00:00 | 00:00:00 | |
| PETON7-10 | 2026-09-01 12:51:58 | 51.09408 | 17.85336 | 37° | 13km/h | 31029m | 5.1m/s | 0°C | 0% | 0hPa | 0V | 00:00:00 | 00:00:00 | 00:00:00 | |
| SQ6EMJ | 2026-09-01 12:51:57 | 51.09408 | 17.85335 | 129° | 7km/h | 31022m | 7.1m/s | 0°C | 0% | 0hPa | 0V | 00:00:00 | 00:00:00 | 00:00:00 | |
| KRY50SP | 2026-09-01 12:51:54 | 51.09416 | 17.85328 | 183° | 13km/h | 31004m | 6.3m/s | 0°C | 0% | 0hPa | 0V | 00:00:00 | 00:00:00 | 00:00:00 | |
| SQ6EMJ | 2026-09-01 12:51:50 | 51.09416 | 17.85339 | 9° | 11km/h | 30979m | 7.9m/s | 0°C | 0% | 0hPa | 0V | 00:00:00 | 00:00:00 | 00:00:00 | |
| POL1PZ | 2026-09-01 12:51:44 | 51.09411 | 17.85333 | 247° | 16km/h | 30938m | 4.8m/s | 0°C | 0% | 0hPa | 0V | 00:00:00 | 00:00:00 | 00:00:00 | |
| PETON7-10 | 2026-09-01 12:51:42 | 51.09414 | 17.85339 | 169° | 15km/h | 30927m | 7.7m/s | 0°C | 0% | 0hPa | 0V | 00:00:00 | 00:00:00 | 00:00:00 | |
| KRY50SP | 2026-09-01 12:51:39 | 51.09410 | 17.85319 | 72° | 11km/h | 30899m | 7.1m/s | 0°C | 0% | 0hPa | 0V | 00:00:00 | 00:00:00 | 00:00:00 | |
| SQ6EMJ | 2026-09-01 12:51:34 | 51.09425 | 17.85304 | 154° | 24km/h | 30868m | 4.7m/s | 0°C | 0% | 0hPa | 0V | 00:00:00 | 00:00:00 | 00:00:00 | |
| KRY50SP | 2026-09-01 12:51:33 | 51.09430 | 17.85301 | 168° | 18km/h | 30863m | 6.7m/s | 0°C | 0% | 0hPa | 0V | 00:00:00 | 00:00:00 | 00:00:00 | |
| SQ6EMJ | 2026-09-01 12:51:28 | 51.09433 | 17.85295 | 61° | 18km/h | 30837m | 7.3m/s | 0°C | 0% | 0hPa | 0V | 00:00:00 | 00:00:00 | 00:00:00 | |
| PETON7-10 | 2026-09-01 12:51:27 | 51.09431 | 17.85286 | 83° | 27km/h | 30830m | 5.5m/s | 0°C | 0% | 0hPa | 0V | 00:00:00 | 00:00:00 | 00:00:00 | |
| POL1PZ | 2026-09-01 12:51:24 | 51.09440 | 17.85260 | 156° | 24km/h | 30813m | 8.3m/s | 0°C | 0% | 0hPa | 0V | 00:00:00 | 00:00:00 | 00:00:00 | |
| SQ6EMJ | 2026-09-01 12:51:22 | 51.09452 | 17.85261 | 195° | 27km/h | 30798m | 4.8m/s | 0°C | 0% | 0hPa | 0V | 00:00:00 | 00:00:00 | 00:00:00 | |
| KRY50SP | 2026-09-01 12:51:20 | 51.09464 | 17.85261 | 158° | 24km/h | 30787m | 6.6m/s | 0°C | 0% | 0hPa | 0V | 00:00:00 | 00:00:00 | 00:00:00 | |
| OE5DRO-10 | 2026-09-01 12:51:16 | 51.09473 | 17.85228 | 93° | 20km/h | 30761m | 5.7m/s | 0°C | 0% | 0hPa | 0V | 00:00:00 | 00:00:00 | 00:00:00 | |
| KRY50SP | 2026-09-01 12:51:15 | 51.09474 | 17.85222 | 114° | 15km/h | 30756m | 4.3m/s | 0°C | 0% | 0hPa | 0V | 00:00:00 | 00:00:00 | 00:00:00 | |
| PETON7-10 | 2026-09-01 12:51:11 | 51.09494 | 17.85185 | 140° | 27km/h | 30731m | 4.3m/s | 0°C | 0% | 0hPa | 0V | 00:00:00 | 00:00:00 | 00:00:00 | |
| SQ6EMJ | 2026-09-01 12:51:10 | 51.09501 | 17.85176 | 147° | 33km/h | 30727m | 4.8m/s | 0°C | 0% | 0hPa | 0V | 00:00:00 | 00:00:00 | 00:00:00 | |
| KRY50SP | 2026-09-01 12:51:09 | 51.09507 | 17.85170 | 156° | 24km/h | 30721m | 9.2m/s | 0°C | 0% | 0hPa | 0V | 00:00:00 | 00:00:00 | 00:00:00 | |
| KRY50SP | 2026-09-01 12:51:03 | 51.09514 | 17.85121 | 109° | 49km/h | 30681m | 5.6m/s | 0°C | 0% | 0hPa | 0V | 00:00:00 | 00:00:00 | 00:00:00 | |
| SP3BTT-10 | 2026-09-01 12:51:01 | 51.09527 | 17.85081 | 132° | 27km/h | 30663m | 7.3m/s | 0°C | 0% | 0hPa | 0V | 00:00:00 | 00:00:00 | 00:00:00 | |
| PETON7-10 | 2026-09-01 12:50:56 | 51.09527 | 17.85059 | 93° | 33km/h | 30639m | 6.0m/s | 0°C | 0% | 0hPa | 0V | 00:00:00 | 00:00:00 | 00:00:00 | |
| SQ6EMJ | 2026-09-01 12:50:55 | 51.09528 | 17.85045 | 100° | 38km/h | 30633m | 5.6m/s | 0°C | 0% | 0hPa | 0V | 00:00:00 | 00:00:00 | 00:00:00 | |
| KRY50SP | 2026-09-01 12:50:50 | 51.09538 | 17.84986 | 96° | 20km/h | 30604m | 5.3m/s | 0°C | 0% | 0hPa | 0V | 00:00:00 | 00:00:00 | 00:00:00 | |
| SQ6EMJ | 2026-09-01 12:50:48 | 51.09538 | 17.84964 | 83° | 37km/h | 30591m | 7.2m/s | 0°C | 0% | 0hPa | 0V | 00:00:00 | 00:00:00 | 00:00:00 | |
| KRY50SP | 2026-09-01 12:50:44 | 51.09534 | 17.84909 | 102° | 24km/h | 30566m | 6.9m/s | 0°C | 0% | 0hPa | 0V | 00:00:00 | 00:00:00 | 00:00:00 | |
| PETON7-10 | 2026-09-01 12:50:41 | 51.09537 | 17.84873 | 90° | 29km/h | 30548m | 8.0m/s | 0°C | 0% | 0hPa | 0V | 00:00:00 | 00:00:00 | 00:00:00 | |
| POL1PZ | 2026-09-01 12:50:40 | 51.09536 | 17.84856 | 80° | 46km/h | 30541m | 6.6m/s | 0°C | 0% | 0hPa | 0V | 00:00:00 | 00:00:00 | 00:00:00 | |
| KRY50SP | 2026-09-01 12:50:39 | 51.09533 | 17.84840 | 70° | 44km/h | 30535m | 4.6m/s | 0°C | 0% | 0hPa | 0V | 00:00:00 | 00:00:00 | 00:00:00 | |
| SQ6EMJ | 2026-09-01 12:50:37 | 51.09524 | 17.84814 | 54° | 29km/h | 30522m | 7.2m/s | 0°C | 0% | 0hPa | 0V | 00:00:00 | 00:00:00 | 00:00:00 | |
| KRY50SP | 2026-09-01 12:50:33 | 51.09513 | 17.84775 | 84° | 37km/h | 30497m | 6.0m/s | 0°C | 0% | 0hPa | 0V | 00:00:00 | 00:00:00 | 00:00:00 | |
| SQ6EMJ | 2026-09-01 12:50:31 | 51.09512 | 17.84749 | 83° | 27km/h | 30488m | 6.1m/s | 0°C | 0% | 0hPa | 0V | 00:00:00 | 00:00:00 | 00:00:00 | |
| SP3BTT-10 | 2026-09-01 12:50:30 | 51.09511 | 17.84740 | 76° | 22km/h | 30480m | 9.2m/s | 0°C | 0% | 0hPa | 0V | 00:00:00 | 00:00:00 | 00:00:00 | |
| KRY50SP | 2026-09-01 12:50:28 | 51.09505 | 17.84728 | 52° | 22km/h | 30467m | 5.0m/s | 0°C | 0% | 0hPa | 0V | 00:00:00 | 00:00:00 | 00:00:00 | |
| PETON7-10 | 2026-09-01 12:50:26 | 51.09499 | 17.84709 | 73° | 22km/h | 30454m | 6.4m/s | 0°C | 0% | 0hPa | 0V | 00:00:00 | 00:00:00 | 00:00:00 | |
| KRY50SP | 2026-09-01 12:50:22 | 51.09497 | 17.84670 | 99° | 9km/h | 30428m | 6.2m/s | 0°C | 0% | 0hPa | 0V | 00:00:00 | 00:00:00 | 00:00:00 | |
| POL1PZ | 2026-09-01 12:50:18 | 51.09498 | 17.84642 | 90° | 24km/h | 30404m | 4.6m/s | 0°C | 0% | 0hPa | 0V | 00:00:00 | 00:00:00 | 00:00:00 | |
| KRY50SP | 2026-09-01 12:50:16 | 51.09497 | 17.84627 | 71° | 15km/h | 30392m | 7.7m/s | 0°C | 0% | 0hPa | 0V | 00:00:00 | 00:00:00 | 00:00:00 | |
| SQ6EMJ | 2026-09-01 12:50:14 | 51.09493 | 17.84610 | 78° | 22km/h | 30374m | 6.8m/s | 0°C | 0% | 0hPa | 0V | 00:00:00 | 00:00:00 | 00:00:00 | |
| PETON7-10 | 2026-09-01 12:50:11 | 51.09492 | 17.84589 | 96° | 15km/h | 30362m | 4.8m/s | 0°C | 0% | 0hPa | 0V | 00:00:00 | 00:00:00 | 00:00:00 | |
| KRY50SP | 2026-09-01 12:50:10 | 51.09493 | 17.84579 | 104° | 22km/h | 30357m | 6.3m/s | 0°C | 0% | 0hPa | 0V | 00:00:00 | 00:00:00 | 00:00:00 | |
| SQ6EMJ | 2026-09-01 12:50:09 | 51.09496 | 17.84570 | 167° | 5km/h | 30344m | 6.1m/s | 0°C | 0% | 0hPa | 0V | 00:00:00 | 00:00:00 | 00:00:00 | |
| KRY50SP | 2026-09-01 12:50:05 | 51.09497 | 17.84560 | 91° | 22km/h | 30328m | 7.9m/s | 0°C | 0% | 0hPa | 0V | 00:00:00 | 00:00:00 | 00:00:00 | |
| KRY50SP | 2026-09-01 12:50:00 | 51.09501 | 17.84521 | 216° | 2km/h | 30296m | 5.8m/s | 0°C | 0% | 0hPa | 0V | 00:00:00 | 00:00:00 | 00:00:00 | |
| SQ6EMJ | 2026-09-01 12:49:59 | 51.09499 | 17.84520 | 45° | 9km/h | 30286m | 7.6m/s | 0°C | 0% | 0hPa | 0V | 00:00:00 | 00:00:00 | 00:00:00 | |
| POL1PZ | 2026-09-01 12:49:58 | 51.09497 | 17.84515 | 73° | 18km/h | 30279m | 6.5m/s | 0°C | 0% | 0hPa | 0V | 00:00:00 | 00:00:00 | 00:00:00 | |
| PETON7-10 | 2026-09-01 12:49:55 | 51.09498 | 17.84497 | 114° | 22km/h | 30267m | 7.0m/s | 0°C | 0% | 0hPa | 0V | 00:00:00 | 00:00:00 | 00:00:00 | |
| KRY50SP | 2026-09-01 12:49:54 | 51.09502 | 17.84487 | 130° | 27km/h | 30260m | 8.3m/s | 0°C | 0% | 0hPa | 0V | 00:00:00 | 00:00:00 | 00:00:00 | |
| SQ6EMJ | 2026-09-01 12:49:52 | 51.09512 | 17.84471 | 129° | 27km/h | 30247m | 5.2m/s | 0°C | 0% | 0hPa | 0V | 00:00:00 | 00:00:00 | 00:00:00 | |
| OE5DRO-10 | 2026-09-01 12:49:48 | 51.09512 | 17.84442 | 41° | 15km/h | 30223m | 6.5m/s | 0°C | 0% | 0hPa | 0V | 00:00:00 | 00:00:00 | 00:00:00 | |
| SQ6EMJ | 2026-09-01 12:49:43 | 51.09517 | 17.84415 | 101° | 40km/h | 30194m | 7.5m/s | 0°C | 0% | 0hPa | 0V | 00:00:00 | 00:00:00 | 00:00:00 | |
| KRY50SP | 2026-09-01 12:49:42 | 51.09518 | 17.84398 | 98° | 44km/h | 30187m | 4.6m/s | 0°C | 0% | 0hPa | 0V | 00:00:00 | 00:00:00 | 00:00:00 | |
| PETON7-10 | 2026-09-01 12:49:40 | 51.09520 | 17.84370 | 102° | 26km/h | 30177m | 7.3m/s | 0°C | 0% | 0hPa | 0V | 00:00:00 | 00:00:00 | 00:00:00 | |
| SQ6EMJ | 2026-09-01 12:49:38 | 51.09521 | 17.84363 | 345° | 5km/h | 30164m | 5.2m/s | 0°C | 0% | 0hPa | 0V | 00:00:00 | 00:00:00 | 00:00:00 | |
| POL1PZ | 2026-09-01 12:49:36 | 51.09514 | 17.84355 | 66° | 22km/h | 30146m | 5.8m/s | 0°C | 0% | 0hPa | 0V | 00:00:00 | 00:00:00 | 00:00:00 | |
| PG1ADW-2 | 2026-09-01 12:49:32 | 51.09517 | 17.84321 | 117° | 18km/h | 30127m | 6.9m/s | 0°C | 0% | 0hPa | 0V | 00:00:00 | 00:00:00 | 00:00:00 | |
| KRY50SP | 2026-09-01 12:49:31 | 51.09520 | 17.84310 | 122° | 31km/h | 30122m | 4.5m/s | 0°C | 0% | 0hPa | 0V | 00:00:00 | 00:00:00 | 00:00:00 | |
| OE5DRO-10 | 2026-09-01 12:49:27 | 51.09514 | 17.84273 | 30° | 22km/h | 30098m | 7.1m/s | 0°C | 0% | 0hPa | 0V | 00:00:00 | 00:00:00 | 00:00:00 | |
| PETON7-10 | 2026-09-01 12:49:25 | 51.09499 | 17.84265 | 9° | 18km/h | 30087m | 6.3m/s | 0°C | 0% | 0hPa | 0V | 00:00:00 | 00:00:00 | 00:00:00 | |
| KRY50SP | 2026-09-01 12:49:20 | 51.09492 | 17.84240 | 80° | 37km/h | 30058m | 7.2m/s | 0°C | 0% | 0hPa | 0V | 00:00:00 | 00:00:00 | 00:00:00 | |
| SQ6EMJ | 2026-09-01 12:49:19 | 51.09489 | 17.84226 | 67° | 38km/h | 30053m | 3.0m/s | 0°C | 0% | 0hPa | 0V | 00:00:00 | 00:00:00 | 00:00:00 | |
| SP3BTT-10 | 2026-09-01 12:49:15 | 51.09473 | 17.84200 | 2° | 15km/h | 30028m | 6.0m/s | 0°C | 0% | 0hPa | 0V | 00:00:00 | 00:00:00 | 00:00:00 | |
| POL1PZ | 2026-09-01 12:49:14 | 51.09471 | 17.84200 | 19° | 9km/h | 30022m | 7.3m/s | 0°C | 0% | 0hPa | 0V | 00:00:00 | 00:00:00 | 00:00:00 | |
| KRY50SP | 2026-09-01 12:49:13 | 51.09468 | 17.84197 | 48° | 15km/h | 30015m | 6.6m/s | 0°C | 0% | 0hPa | 0V | 00:00:00 | 00:00:00 | 00:00:00 | |
| SQ6EMJ | 2026-09-01 12:49:12 | 51.09465 | 17.84192 | 50° | 20km/h | 30009m | 4.7m/s | 0°C | 0% | 0hPa | 0V | 00:00:00 | 00:00:00 | 00:00:00 | |
| PETON7-10 | 2026-09-01 12:49:10 | 51.09458 | 17.84182 | 34° | 20km/h | 29996m | 7.8m/s | 0°C | 0% | 0hPa | 0V | 00:00:00 | 00:00:00 | 00:00:00 | |
| KRY50SP | 2026-09-01 12:49:08 | 51.09447 | 17.84171 | 47° | 29km/h | 29984m | 6.4m/s | 0°C | 0% | 0hPa | 0V | 00:00:00 | 00:00:00 | 00:00:00 | |
| SQ6EMJ | 2026-09-01 12:49:07 | 51.09442 | 17.84161 | 53° | 31km/h | 29977m | 7.6m/s | 0°C | 0% | 0hPa | 0V | 00:00:00 | 00:00:00 | 00:00:00 | |
| KRY50SP | 2026-09-01 12:49:02 | 51.09429 | 17.84135 | 284° | 11km/h | 29946m | 6.0m/s | 0°C | 0% | 0hPa | 0V | 00:00:00 | 00:00:00 | 00:00:00 | |
| SQ6EMJ | 2026-09-01 12:48:57 | 51.09419 | 17.84116 | 66° | 33km/h | 29917m | 4.9m/s | 0°C | 0% | 0hPa | 0V | 00:00:00 | 00:00:00 | 00:00:00 | |
| KRY50SP | 2026-09-01 12:48:56 | 51.09416 | 17.84106 | 61° | 27km/h | 29911m | 7.2m/s | 0°C | 0% | 0hPa | 0V | 00:00:00 | 00:00:00 | 00:00:00 | |
| PETON7-10 | 2026-09-01 12:48:55 | 51.09413 | 17.84099 | 45° | 16km/h | 29904m | 6.8m/s | 0°C | 0% | 0hPa | 0V | 00:00:00 | 00:00:00 | 00:00:00 | |
| POL1PZ | 2026-09-01 12:48:53 | 51.09410 | 17.84097 | 207° | 4km/h | 29891m | 5.6m/s | 0°C | 0% | 0hPa | 0V | 00:00:00 | 00:00:00 | 00:00:00 | |
| SQ6EMJ | 2026-09-01 12:48:51 | 51.09414 | 17.84094 | 127° | 15km/h | 29879m | 6.7m/s | 0°C | 0% | 0hPa | 0V | 00:00:00 | 00:00:00 | 00:00:00 | |
| KRY50SP | 2026-09-01 12:48:49 | 51.09417 | 17.84078 | 93° | 22km/h | 29866m | 6.6m/s | 0°C | 0% | 0hPa | 0V | 00:00:00 | 00:00:00 | 00:00:00 | |
| PG1ADW-2 | 2026-09-01 12:48:46 | 51.09410 | 17.84059 | 37° | 15km/h | 29847m | 3.5m/s | 0°C | 0% | 0hPa | 0V | 00:00:00 | 00:00:00 | 00:00:00 | |
| KRY50SP | 2026-09-01 12:48:42 | 51.09411 | 17.84040 | 137° | 15km/h | 29827m | 3.4m/s | 0°C | 0% | 0hPa | 0V | 00:00:00 | 00:00:00 | 00:00:00 | |
| SQ6EMJ | 2026-09-01 12:48:41 | 51.09413 | 17.84037 | 127° | 7km/h | 29822m | 5.8m/s | 0°C | 0% | 0hPa | 0V | 00:00:00 | 00:00:00 | 00:00:00 | |
| SQ9EZE-15 | 2026-09-01 12:48:39 | 51.09411 | 17.84036 | 349° | 11km/h | 29808m | 6.0m/s | 0°C | 0% | 0hPa | 0V | 00:00:00 | 00:00:00 | 00:00:00 | |
| PETON7-10 | 2026-09-01 12:48:37 | 51.09406 | 17.84033 | 54° | 13km/h | 29796m | 8.4m/s | 0°C | 0% | 0hPa | 0V | 00:00:00 | 00:00:00 | 00:00:00 | |
| KRY50SP | 2026-09-01 12:48:36 | 51.09405 | 17.84027 | 87° | 20km/h | 29788m | 7.4m/s | 0°C | 0% | 0hPa | 0V | 00:00:00 | 00:00:00 | 00:00:00 | |
| SQ6EMJ | 2026-09-01 12:48:35 | 51.09405 | 17.84019 | 92° | 20km/h | 29783m | 4.6m/s | 0°C | 0% | 0hPa | 0V | 00:00:00 | 00:00:00 | 00:00:00 | |
| POL1PZ | 2026-09-01 12:48:33 | 51.09405 | 17.84006 | 83° | 13km/h | 29771m | 7.9m/s | 0°C | 0% | 0hPa | 0V | 00:00:00 | 00:00:00 | 00:00:00 | |
| KRY50SP | 2026-09-01 12:48:30 | 51.09404 | 17.83992 | 98° | 15km/h | 29752m | 7.9m/s | 0°C | 0% | 0hPa | 0V | 00:00:00 | 00:00:00 | 00:00:00 | |
| SQ6EMJ | 2026-09-01 12:48:29 | 51.09405 | 17.83985 | 112° | 20km/h | 29745m | 6.5m/s | 0°C | 0% | 0hPa | 0V | 00:00:00 | 00:00:00 | 00:00:00 | |
| PG1ADW-2 | 2026-09-01 12:48:26 | 51.09406 | 17.83967 | 18° | 15km/h | 29720m | 5.2m/s | 0°C | 0% | 0hPa | 0V | 00:00:00 | 00:00:00 | 00:00:00 | |
| KRY50SP | 2026-09-01 12:48:24 | 51.09404 | 17.83965 | 40° | 13km/h | 29715m | 5.0m/s | 0°C | 0% | 0hPa | 0V | 00:00:00 | 00:00:00 | 00:00:00 | |
| SQ6EMJ | 2026-09-01 12:48:23 | 51.09402 | 17.83960 | 66° | 16km/h | 29709m | 7.0m/s | 0°C | 0% | 0hPa | 0V | 00:00:00 | 00:00:00 | 00:00:00 | |
| PETON7-10 | 2026-09-01 12:48:22 | 51.09401 | 17.83944 | 99° | 16km/h | 29697m | 5.0m/s | 0°C | 0% | 0hPa | 0V | 00:00:00 | 00:00:00 | 00:00:00 | |
| KRY50SP | 2026-09-01 12:48:20 | 51.09403 | 17.83930 | 10° | 4km/h | 29677m | 6.3m/s | 0°C | 0% | 0hPa | 0V | 00:00:00 | 00:00:00 | 00:00:00 | |
| SQ6EMJ | 2026-09-01 12:48:16 | 51.09399 | 17.83928 | 32° | 13km/h | 29667m | 7.5m/s | 0°C | 0% | 0hPa | 0V | 00:00:00 | 00:00:00 | 00:00:00 | |
| SP3BTT-10 | 2026-09-01 12:48:13 | 51.09393 | 17.83904 | 71° | 16km/h | 29648m | 4.9m/s | 0°C | 0% | 0hPa | 0V | 00:00:00 | 00:00:00 | 00:00:00 | |
| POL1PZ | 2026-09-01 12:48:12 | 51.09390 | 17.83895 | 57° | 24km/h | 29642m | 5.3m/s | 0°C | 0% | 0hPa | 0V | 00:00:00 | 00:00:00 | 00:00:00 | |
| SQ6EMJ | 2026-09-01 12:48:11 | 51.09386 | 17.83890 | 34° | 18km/h | 29637m | 7.7m/s | 0°C | 0% | 0hPa | 0V | 00:00:00 | 00:00:00 | 00:00:00 | |
| SQ6EMJ | 2026-09-01 12:48:07 | 51.09372 | 17.83870 | 88° | 27km/h | 29604m | 6.9m/s | 0°C | 0% | 0hPa | 0V | 00:00:00 | 00:00:00 | 00:00:00 | |
| PETON7-10 | 2026-09-01 12:48:06 | 51.09372 | 17.83870 | 87° | 18km/h | 29604m | 6.9m/s | 0°C | 0% | 0hPa | 0V | 00:00:00 | 00:00:00 | 00:00:00 | |
| PG1ADW-2 | 2026-09-01 12:48:04 | 51.09372 | 17.83848 | 88° | 20km/h | 29592m | 6.0m/s | 0°C | 0% | 0hPa | 0V | 00:00:00 | 00:00:00 | 00:00:00 | |
| KRY50SP | 2026-09-01 12:48:01 | 51.09367 | 17.83840 | 352° | 16km/h | 29573m | 5.4m/s | 0°C | 0% | 0hPa | 0V | 00:00:00 | 00:00:00 | 00:00:00 | |
| SQ6EMJ | 2026-09-01 12:48:00 | 51.09362 | 17.83839 | 10° | 18km/h | 29567m | 6.0m/s | 0°C | 0% | 0hPa | 0V | 00:00:00 | 00:00:00 | 00:00:00 | |
| KRY50SP | 2026-09-01 12:47:55 | 51.09348 | 17.83801 | 102° | 11km/h | 29535m | 7.6m/s | 0°C | 0% | 0hPa | 0V | 00:00:00 | 00:00:00 | 00:00:00 | |
| POL1PZ | 2026-09-01 12:47:52 | 51.09356 | 17.83793 | 142° | 18km/h | 29516m | 7.4m/s | 0°C | 0% | 0hPa | 0V | 00:00:00 | 00:00:00 | 00:00:00 | |
| KRY50SP | 2026-09-01 12:47:50 | 51.09358 | 17.83771 | 59° | 18km/h | 29497m | 7.2m/s | 0°C | 0% | 0hPa | 0V | 00:00:00 | 00:00:00 | 00:00:00 | |
| KRY50SP | 2026-09-01 12:47:45 | 51.09345 | 17.83745 | 114° | 29km/h | 29466m | 8.2m/s | 0°C | 0% | 0hPa | 0V | 00:00:00 | 00:00:00 | 00:00:00 | |
| KRY50SP | 2026-09-01 12:47:38 | 51.09369 | 17.83727 | 56° | 4km/h | 29429m | 5.6m/s | 0°C | 0% | 0hPa | 0V | 00:00:00 | 00:00:00 | 00:00:00 | |
| SQ6EMJ | 2026-09-01 12:47:36 | 51.09366 | 17.83715 | 79° | 26km/h | 29415m | 6.8m/s | 0°C | 0% | 0hPa | 0V | 00:00:00 | 00:00:00 | 00:00:00 | |
| PG1ADW-2 | 2026-09-01 12:47:34 | 51.09367 | 17.83689 | 142° | 16km/h | 29396m | 6.2m/s | 0°C | 0% | 0hPa | 0V | 00:00:00 | 00:00:00 | 00:00:00 | |
| PETON7-10 | 2026-09-01 12:47:31 | 51.09374 | 17.83691 | 201° | 13km/h | 29384m | 6.5m/s | 0°C | 0% | 0hPa | 0V | 00:00:00 | 00:00:00 | 00:00:00 | |
| KRY50SP | 2026-09-01 12:47:28 | 51.09390 | 17.83690 | 147° | 16km/h | 29367m | 5.3m/s | 0°C | 0% | 0hPa | 0V | 00:00:00 | 00:00:00 | 00:00:00 | |
| SQ6EMJ | 2026-09-01 12:47:25 | 51.09392 | 17.83682 | 353° | 9km/h | 29345m | 8.0m/s | 0°C | 0% | 0hPa | 0V | 00:00:00 | 00:00:00 | 00:00:00 | |
| SQ6EMJ | 2026-09-01 12:47:21 | 51.09389 | 17.83666 | 131° | 22km/h | 29314m | 5.4m/s | 0°C | 0% | 0hPa | 0V | 00:00:00 | 00:00:00 | 00:00:00 | |
| KRY50SP | 2026-09-01 12:47:20 | 51.09389 | 17.83666 | 131° | 22km/h | 29314m | 5.4m/s | 0°C | 0% | 0hPa | 0V | 00:00:00 | 00:00:00 | 00:00:00 | |
| KRY50SP | 2026-09-01 12:47:14 | 51.09399 | 17.83669 | 92° | 7km/h | 29278m | 7.1m/s | 0°C | 0% | 0hPa | 0V | 00:00:00 | 00:00:00 | 00:00:00 | |
| PETON7-10 | 2026-09-01 12:47:13 | 51.09401 | 17.83652 | 110° | 18km/h | 29265m | 5.6m/s | 0°C | 0% | 0hPa | 0V | 00:00:00 | 00:00:00 | 00:00:00 | |
| POL1PZ | 2026-09-01 12:47:10 | 51.09406 | 17.83635 | 136° | 16km/h | 29253m | 6.7m/s | 0°C | 0% | 0hPa | 0V | 00:00:00 | 00:00:00 | 00:00:00 | |
| KRY50SP | 2026-09-01 12:47:08 | 51.09412 | 17.83634 | 211° | 11km/h | 29240m | 5.8m/s | 0°C | 0% | 0hPa | 0V | 00:00:00 | 00:00:00 | 00:00:00 | |
| SQ6EMJ | 2026-09-01 12:47:07 | 51.09414 | 17.83636 | 201° | 7km/h | 29235m | 5.4m/s | 0°C | 0% | 0hPa | 0V | 00:00:00 | 00:00:00 | 00:00:00 | |
| PG1ADW-2 | 2026-09-01 12:47:05 | 51.09417 | 17.83632 | 101° | 16km/h | 29220m | 6.7m/s | 0°C | 0% | 0hPa | 0V | 00:00:00 | 00:00:00 | 00:00:00 | |
| KRY50SP | 2026-09-01 12:47:02 | 51.09419 | 17.83614 | 124° | 13km/h | 29200m | 8.5m/s | 0°C | 0% | 0hPa | 0V | 00:00:00 | 00:00:00 | 00:00:00 | |
| SQ6EMJ | 2026-09-01 12:47:00 | 51.09425 | 17.83605 | 135° | 22km/h | 29187m | 7.1m/s | 0°C | 0% | 0hPa | 0V | 00:00:00 | 00:00:00 | 00:00:00 | |
| SP3BTT-10 | 2026-09-01 12:46:58 | 51.09433 | 17.83589 | 129° | 22km/h | 29173m | 4.6m/s | 0°C | 0% | 0hPa | 0V | 00:00:00 | 00:00:00 | 00:00:00 | |
| PETON7-10 | 2026-09-01 12:46:57 | 51.09436 | 17.83582 | 131° | 18km/h | 29169m | 4.7m/s | 0°C | 0% | 0hPa | 0V | 00:00:00 | 00:00:00 | 00:00:00 | |
| SQ6EMJ | 2026-09-01 12:46:54 | 51.09440 | 17.83575 | 44° | 4km/h | 29148m | 4.1m/s | 0°C | 0% | 0hPa | 0V | 00:00:00 | 00:00:00 | 00:00:00 | |
| KRY50SP | 2026-09-01 12:46:50 | 51.09440 | 17.83545 | 120° | 29km/h | 29123m | 6.3m/s | 0°C | 0% | 0hPa | 0V | 00:00:00 | 00:00:00 | 00:00:00 | |
| POL1PZ | 2026-09-01 12:46:49 | 51.09444 | 17.83536 | 129° | 24km/h | 29117m | 9.6m/s | 0°C | 0% | 0hPa | 0V | 00:00:00 | 00:00:00 | 00:00:00 | |
| SQ6EMJ | 2026-09-01 12:46:48 | 51.09448 | 17.83531 | 164° | 18km/h | 29108m | 6.6m/s | 0°C | 0% | 0hPa | 0V | 00:00:00 | 00:00:00 | 00:00:00 | |
| KRY50SP | 2026-09-01 12:46:45 | 51.09463 | 17.83512 | 111° | 27km/h | 29085m | 4.0m/s | 0°C | 0% | 0hPa | 0V | 00:00:00 | 00:00:00 | 00:00:00 | |
| SQ6EMJ | 2026-09-01 12:46:43 | 51.09464 | 17.83502 | 108° | 26km/h | 29080m | 4.6m/s | 0°C | 0% | 0hPa | 0V | 00:00:00 | 00:00:00 | 00:00:00 | |
| PETON7-10 | 2026-09-01 12:46:41 | 51.09468 | 17.83489 | 128° | 18km/h | 29065m | 10.0m/s | 0°C | 0% | 0hPa | 0V | 00:00:00 | 00:00:00 | 00:00:00 | |
| KRY50SP | 2026-09-01 12:46:38 | 51.09476 | 17.83481 | 138° | 20km/h | 29046m | 9.6m/s | 0°C | 0% | 0hPa | 0V | 00:00:00 | 00:00:00 | 00:00:00 | |
| SQ6EMJ | 2026-09-01 12:46:37 | 51.09480 | 17.83473 | 129° | 31km/h | 29038m | 6.9m/s | 0°C | 0% | 0hPa | 0V | 00:00:00 | 00:00:00 | 00:00:00 | |
| KRY50SP | 2026-09-01 12:46:33 | 51.09498 | 17.83441 | 120° | 15km/h | 29011m | 5.2m/s | 0°C | 0% | 0hPa | 0V | 00:00:00 | 00:00:00 | 00:00:00 | |
| SQ6EMJ | 2026-09-01 12:46:31 | 51.09499 | 17.83428 | 85° | 22km/h | 28996m | 8.7m/s | 0°C | 0% | 0hPa | 0V | 00:00:00 | 00:00:00 | 00:00:00 | |
| POL1PZ | 2026-09-01 12:46:28 | 51.09499 | 17.83408 | 110° | 13km/h | 28980m | 8.8m/s | 0°C | 0% | 0hPa | 0V | 00:00:00 | 00:00:00 | 00:00:00 | |
| PETON7-10 | 2026-09-01 12:46:26 | 51.09506 | 17.83395 | 117° | 22km/h | 28962m | 8.2m/s | 0°C | 0% | 0hPa | 0V | 00:00:00 | 00:00:00 | 00:00:00 | |
| PG1ADW-2 | 2026-09-01 12:46:25 | 51.09507 | 17.83385 | 99° | 18km/h | 28954m | 7.2m/s | 0°C | 0% | 0hPa | 0V | 00:00:00 | 00:00:00 | 00:00:00 | |
| KRY50SP | 2026-09-01 12:46:20 | 51.09512 | 17.83349 | 121° | 15km/h | 28927m | 5.3m/s | 0°C | 0% | 0hPa | 0V | 00:00:00 | 00:00:00 | 00:00:00 | |
| SQ6EMJ | 2026-09-01 12:46:19 | 51.09513 | 17.83343 | 112° | 18km/h | 28922m | 5.4m/s | 0°C | 0% | 0hPa | 0V | 00:00:00 | 00:00:00 | 00:00:00 | |
| KRY50SP | 2026-09-01 12:46:14 | 51.09522 | 17.83292 | 119° | 13km/h | 28884m | 5.4m/s | 0°C | 0% | 0hPa | 0V | 00:00:00 | 00:00:00 | 00:00:00 | |
| PETON7-10 | 2026-09-01 12:46:10 | 51.09523 | 17.83270 | 84° | 20km/h | 28865m | 6.9m/s | 0°C | 0% | 0hPa | 0V | 00:00:00 | 00:00:00 | 00:00:00 | |
| POL1PZ | 2026-09-01 12:46:08 | 51.09523 | 17.83247 | 97° | 26km/h | 28855m | 6.5m/s | 0°C | 0% | 0hPa | 0V | 00:00:00 | 00:00:00 | 00:00:00 | |
| SQ6EMJ | 2026-09-01 12:46:07 | 51.09526 | 17.83232 | 124° | 13km/h | 28840m | 7.2m/s | 0°C | 0% | 0hPa | 0V | 00:00:00 | 00:00:00 | 00:00:00 | |
| KRY50SP | 2026-09-01 12:46:06 | 51.09526 | 17.83232 | 124° | 13km/h | 28840m | 7.2m/s | 0°C | 0% | 0hPa | 0V | 00:00:00 | 00:00:00 | 00:00:00 | |
| PG1ADW-2 | 2026-09-01 12:46:03 | 51.09526 | 17.83205 | 72° | 24km/h | 28814m | 5.4m/s | 0°C | 0% | 0hPa | 0V | 00:00:00 | 00:00:00 | 00:00:00 | |
| SQ6EMJ | 2026-09-01 12:46:00 | 51.09522 | 17.83186 | 72° | 22km/h | 28802m | 8.1m/s | 0°C | 0% | 0hPa | 0V | 00:00:00 | 00:00:00 | 00:00:00 | |
| OE5DRO-10 | 2026-09-01 12:45:59 | 51.09521 | 17.83179 | 82° | 16km/h | 28794m | 7.3m/s | 0°C | 0% | 0hPa | 0V | 00:00:00 | 00:00:00 | 00:00:00 | |
| PETON7-10 | 2026-09-01 12:45:55 | 51.09515 | 17.83153 | 65° | 22km/h | 28768m | 5.3m/s | 0°C | 0% | 0hPa | 0V | 00:00:00 | 00:00:00 | 00:00:00 | |
| SQ6EMJ | 2026-09-01 12:45:51 | 51.09513 | 17.83128 | 105° | 16km/h | 28743m | 4.7m/s | 0°C | 0% | 0hPa | 0V | 00:00:00 | 00:00:00 | 00:00:00 | |
| KRY50SP | 2026-09-01 12:45:49 | 51.09514 | 17.83108 | 88° | 37km/h | 28727m | 9.2m/s | 0°C | 0% | 0hPa | 0V | 00:00:00 | 00:00:00 | 00:00:00 | |
| POL1PZ | 2026-09-01 12:45:47 | 51.09513 | 17.83080 | 89° | 31km/h | 28716m | 5.3m/s | 0°C | 0% | 0hPa | 0V | 00:00:00 | 00:00:00 | 00:00:00 | |
| SQ6EMJ | 2026-09-01 12:45:45 | 51.09513 | 17.83061 | 96° | 15km/h | 28703m | 6.9m/s | 0°C | 0% | 0hPa | 0V | 00:00:00 | 00:00:00 | 00:00:00 | |
| KRY50SP | 2026-09-01 12:45:44 | 51.09513 | 17.83056 | 72° | 13km/h | 28697m | 5.4m/s | 0°C | 0% | 0hPa | 0V | 00:00:00 | 00:00:00 | 00:00:00 | |
| PG1ADW-2 | 2026-09-01 12:45:42 | 51.09510 | 17.83042 | 69° | 29km/h | 28683m | 6.3m/s | 0°C | 0% | 0hPa | 0V | 00:00:00 | 00:00:00 | 00:00:00 | |
| PETON7-10 | 2026-09-01 12:45:40 | 51.09506 | 17.83025 | 74° | 26km/h | 28674m | 6.6m/s | 0°C | 0% | 0hPa | 0V | 00:00:00 | 00:00:00 | 00:00:00 | |
| KRY50SP | 2026-09-01 12:45:38 | 51.09504 | 17.83012 | 79° | 16km/h | 28661m | 4.8m/s | 0°C | 0% | 0hPa | 0V | 00:00:00 | 00:00:00 | 00:00:00 | |
| OE5DRO-10 | 2026-09-01 12:45:35 | 51.09496 | 17.82983 | 52° | 27km/h | 28641m | 6.0m/s | 0°C | 0% | 0hPa | 0V | 00:00:00 | 00:00:00 | 00:00:00 | |
| SQ6EMJ | 2026-09-01 12:45:33 | 51.09485 | 17.82964 | 40° | 27km/h | 28631m | 7.1m/s | 0°C | 0% | 0hPa | 0V | 00:00:00 | 00:00:00 | 00:00:00 | |
| SP3BTT-10 | 2026-09-01 12:45:28 | 51.09466 | 17.82928 | 63° | 16km/h | 28603m | 6.1m/s | 0°C | 0% | 0hPa | 0V | 00:00:00 | 00:00:00 | 00:00:00 | |
| POL1PZ | 2026-09-01 12:45:26 | 51.09459 | 17.82906 | 59° | 27km/h | 28589m | 8.0m/s | 0°C | 0% | 0hPa | 0V | 00:00:00 | 00:00:00 | 00:00:00 | |
| PETON7-10 | 2026-09-01 12:45:25 | 51.09456 | 17.82898 | 44° | 31km/h | 28582m | 7.0m/s | 0°C | 0% | 0hPa | 0V | 00:00:00 | 00:00:00 | 00:00:00 | |
| KRY50SP | 2026-09-01 12:45:20 | 51.09412 | 17.82858 | 43° | 26km/h | 28546m | 7.7m/s | 0°C | 0% | 0hPa | 0V | 00:00:00 | 00:00:00 | 00:00:00 | |
| OE5DRO-10 | 2026-09-01 12:45:17 | 51.09401 | 17.82836 | 42° | 35km/h | 28520m | 7.0m/s | 0°C | 0% | 0hPa | 0V | 00:00:00 | 00:00:00 | 00:00:00 | |
| SQ6EMJ | 2026-09-01 12:45:14 | 51.09395 | 17.82829 | 34° | 38km/h | 28513m | 6.5m/s | 0°C | 0% | 0hPa | 0V | 00:00:00 | 00:00:00 | 00:00:00 | |
| PETON7-10 | 2026-09-01 12:45:09 | 51.09351 | 17.82811 | 26° | 18km/h | 28485m | 7.3m/s | 0°C | 0% | 0hPa | 0V | 00:00:00 | 00:00:00 | 00:00:00 | |
| SQ6EMJ | 2026-09-01 12:45:08 | 51.09345 | 17.82804 | 42° | 31km/h | 28477m | 8.7m/s | 0°C | 0% | 0hPa | 0V | 00:00:00 | 00:00:00 | 00:00:00 | |
| KRY50SP | 2026-09-01 12:45:07 | 51.09340 | 17.82795 | 64° | 27km/h | 28470m | 4.1m/s | 0°C | 0% | 0hPa | 0V | 00:00:00 | 00:00:00 | 00:00:00 | |
| POL1PZ | 2026-09-01 12:45:06 | 51.09338 | 17.82787 | 71° | 18km/h | 28467m | 3.7m/s | 0°C | 0% | 0hPa | 0V | 00:00:00 | 00:00:00 | 00:00:00 | |
| KRY50SP | 2026-09-01 12:45:01 | 51.09320 | 17.82786 | 10° | 31km/h | 28431m | 8.0m/s | 0°C | 0% | 0hPa | 0V | 00:00:00 | 00:00:00 | 00:00:00 | |
| PG1ADW-2 | 2026-09-01 12:44:58 | 51.09297 | 17.82775 | 16° | 24km/h | 28414m | 7.8m/s | 0°C | 0% | 0hPa | 0V | 00:00:00 | 00:00:00 | 00:00:00 | |
| SQ6EMJ | 2026-09-01 12:44:57 | 51.09292 | 17.82773 | 3° | 18km/h | 28406m | 6.3m/s | 0°C | 0% | 0hPa | 0V | 00:00:00 | 00:00:00 | 00:00:00 | |
| KRY50SP | 2026-09-01 12:44:55 | 51.09285 | 17.82772 | 21° | 11km/h | 28395m | 7.4m/s | 0°C | 0% | 0hPa | 0V | 00:00:00 | 00:00:00 | 00:00:00 | |
| SQ6EMJ | 2026-09-01 12:44:52 | 51.09271 | 17.82775 | 328° | 24km/h | 28370m | 7.9m/s | 0°C | 0% | 0hPa | 0V | 00:00:00 | 00:00:00 | 00:00:00 | |
| KRY50SP | 2026-09-01 12:44:50 | 51.09266 | 17.82780 | 336° | 26km/h | 28363m | 5.6m/s | 0°C | 0% | 0hPa | 0V | 00:00:00 | 00:00:00 | 00:00:00 | |
| SQ6EMJ | 2026-09-01 12:44:46 | 51.09243 | 17.82775 | 24° | 16km/h | 28339m | 4.0m/s | 0°C | 0% | 0hPa | 0V | 00:00:00 | 00:00:00 | 00:00:00 | |
| POL1PZ | 2026-09-01 12:44:45 | 51.09239 | 17.82774 | 360° | 15km/h | 28334m | 6.9m/s | 0°C | 0% | 0hPa | 0V | 00:00:00 | 00:00:00 | 00:00:00 | |
| KRY50SP | 2026-09-01 12:44:44 | 51.09236 | 17.82776 | 317° | 15km/h | 28327m | 6.8m/s | 0°C | 0% | 0hPa | 0V | 00:00:00 | 00:00:00 | 00:00:00 | |
| SQ6EMJ | 2026-09-01 12:44:40 | 51.09226 | 17.82800 | 339° | 13km/h | 28303m | 6.0m/s | 0°C | 0% | 0hPa | 0V | 00:00:00 | 00:00:00 | 00:00:00 | |
| KRY50SP | 2026-09-01 12:44:37 | 51.09215 | 17.82805 | 325° | 16km/h | 28282m | 6.8m/s | 0°C | 0% | 0hPa | 0V | 00:00:00 | 00:00:00 | 00:00:00 | |
| SQ6EMJ | 2026-09-01 12:44:34 | 51.09207 | 17.82813 | 349° | 11km/h | 28265m | 6.8m/s | 0°C | 0% | 0hPa | 0V | 00:00:00 | 00:00:00 | 00:00:00 | |
| PETON7-10 | 2026-09-01 12:44:33 | 51.09205 | 17.82814 | 358° | 15km/h | 28259m | 5.7m/s | 0°C | 0% | 0hPa | 0V | 00:00:00 | 00:00:00 | 00:00:00 | |
| KRY50SP | 2026-09-01 12:44:31 | 51.09204 | 17.82818 | 267° | 13km/h | 28247m | 7.7m/s | 0°C | 0% | 0hPa | 0V | 00:00:00 | 00:00:00 | 00:00:00 | |
| SQ6EMJ | 2026-09-01 12:44:28 | 51.09205 | 17.82836 | 285° | 7km/h | 28231m | 5.8m/s | 0°C | 0% | 0hPa | 0V | 00:00:00 | 00:00:00 | 00:00:00 | |
| KRY50SP | 2026-09-01 12:44:25 | 51.09199 | 17.82832 | 36° | 9km/h | 28211m | 4.8m/s | 0°C | 0% | 0hPa | 0V | 00:00:00 | 00:00:00 | 00:00:00 | |
| POL1PZ | 2026-09-01 12:44:24 | 51.09197 | 17.82832 | 350° | 5km/h | 28205m | 7.3m/s | 0°C | 0% | 0hPa | 0V | 00:00:00 | 00:00:00 | 00:00:00 | |
| SQ6EMJ | 2026-09-01 12:44:23 | 51.09196 | 17.82834 | 277° | 11km/h | 28198m | 7.3m/s | 0°C | 0% | 0hPa | 0V | 00:00:00 | 00:00:00 | 00:00:00 | |
| KRY50SP | 2026-09-01 12:44:20 | 51.09203 | 17.82849 | 199° | 16km/h | 28178m | 7.0m/s | 0°C | 0% | 0hPa | 0V | 00:00:00 | 00:00:00 | 00:00:00 | |
| KRY50SP | 2026-09-01 12:44:15 | 51.09222 | 17.82857 | 117° | 9km/h | 28144m | 8.2m/s | 0°C | 0% | 0hPa | 0V | 00:00:00 | 00:00:00 | 00:00:00 | |
| OE5DRO-10 | 2026-09-01 12:44:10 | 51.09231 | 17.82840 | 192° | 15km/h | 28119m | 7.2m/s | 0°C | 0% | 0hPa | 0V | 00:00:00 | 00:00:00 | 00:00:00 | |
| KRY50SP | 2026-09-01 12:44:09 | 51.09235 | 17.82843 | 216° | 20km/h | 28112m | 5.4m/s | 0°C | 0% | 0hPa | 0V | 00:00:00 | 00:00:00 | 00:00:00 | |
| POL1PZ | 2026-09-01 12:44:04 | 51.09251 | 17.82839 | 126° | 11km/h | 28080m | 7.4m/s | 0°C | 0% | 0hPa | 0V | 00:00:00 | 00:00:00 | 00:00:00 | |
| KRY50SP | 2026-09-01 12:44:03 | 51.09253 | 17.82836 | 143° | 9km/h | 28073m | 8.0m/s | 0°C | 0% | 0hPa | 0V | 00:00:00 | 00:00:00 | 00:00:00 | |
| PETON7-10 | 2026-09-01 12:44:00 | 51.09261 | 17.82827 | 139° | 18km/h | 28054m | 7.8m/s | 0°C | 0% | 0hPa | 0V | 00:00:00 | 00:00:00 | 00:00:00 | |
| SQ6EMJ | 2026-09-01 12:43:58 | 51.09270 | 17.82814 | 144° | 22km/h | 28043m | 4.0m/s | 0°C | 0% | 0hPa | 0V | 00:00:00 | 00:00:00 | 00:00:00 | |
| KRY50SP | 2026-09-01 12:43:57 | 51.09274 | 17.82810 | 157° | 15km/h | 28037m | 7.3m/s | 0°C | 0% | 0hPa | 0V | 00:00:00 | 00:00:00 | 00:00:00 | |
| SQ6EMJ | 2026-09-01 12:43:52 | 51.09283 | 17.82799 | 108° | 26km/h | 28004m | 6.3m/s | 0°C | 0% | 0hPa | 0V | 00:00:00 | 00:00:00 | 00:00:00 | |
| KRY50SP | 2026-09-01 12:43:50 | 51.09288 | 17.82779 | 118° | 26km/h | 27993m | 7.4m/s | 0°C | 0% | 0hPa | 0V | 00:00:00 | 00:00:00 | 00:00:00 | |
| OE5DRO-10 | 2026-09-01 12:43:49 | 51.09295 | 17.82765 | 139° | 18km/h | 27979m | 5.2m/s | 0°C | 0% | 0hPa | 0V | 00:00:00 | 00:00:00 | 00:00:00 | |
| SQ6EMJ | 2026-09-01 12:43:46 | 51.09303 | 17.82751 | 139° | 26km/h | 27967m | 7.1m/s | 0°C | 0% | 0hPa | 0V | 00:00:00 | 00:00:00 | 00:00:00 | |
| PETON7-10 | 2026-09-01 12:43:44 | 51.09312 | 17.82738 | 140° | 24km/h | 27955m | 6.3m/s | 0°C | 0% | 0hPa | 0V | 00:00:00 | 00:00:00 | 00:00:00 | |
| POL1PZ | 2026-09-01 12:43:43 | 51.09315 | 17.82734 | 142° | 15km/h | 27948m | 7.2m/s | 0°C | 0% | 0hPa | 0V | 00:00:00 | 00:00:00 | 00:00:00 | |
| SQ6EMJ | 2026-09-01 12:43:42 | 51.09318 | 17.82724 | 94° | 20km/h | 27937m | 5.1m/s | 0°C | 0% | 0hPa | 0V | 00:00:00 | 00:00:00 | 00:00:00 | |
| KRY50SP | 2026-09-01 12:43:39 | 51.09320 | 17.82700 | 90° | 42km/h | 27922m | 3.9m/s | 0°C | 0% | 0hPa | 0V | 00:00:00 | 00:00:00 | 00:00:00 | |
| SQ6EMJ | 2026-09-01 12:43:35 | 51.09327 | 17.82647 | 128° | 13km/h | 27900m | 4.9m/s | 0°C | 0% | 0hPa | 0V | 00:00:00 | 00:00:00 | 00:00:00 | |
| KRY50SP | 2026-09-01 12:43:34 | 51.09329 | 17.82642 | 120° | 18km/h | 27895m | 5.2m/s | 0°C | 0% | 0hPa | 0V | 00:00:00 | 00:00:00 | 00:00:00 | |
| SQ6EMJ | 2026-09-01 12:43:30 | 51.09340 | 17.82607 | 108° | 22km/h | 27872m | 7.1m/s | 0°C | 0% | 0hPa | 0V | 00:00:00 | 00:00:00 | 00:00:00 | |
| PETON7-10 | 2026-09-01 12:43:28 | 51.09340 | 17.82594 | 86° | 16km/h | 27860m | 4.7m/s | 0°C | 0% | 0hPa | 0V | 00:00:00 | 00:00:00 | 00:00:00 | |
| SQ6EMJ | 2026-09-01 12:43:25 | 51.09337 | 17.82563 | 83° | 35km/h | 27843m | 5.4m/s | 0°C | 0% | 0hPa | 0V | 00:00:00 | 00:00:00 | 00:00:00 | |
| KRY50SP | 2026-09-01 12:43:21 | 51.09332 | 17.82529 | 101° | 5km/h | 27818m | 6.9m/s | 0°C | 0% | 0hPa | 0V | 00:00:00 | 00:00:00 | 00:00:00 | |
| SQ6EMJ | 2026-09-01 12:43:19 | 51.09332 | 17.82523 | 94° | 15km/h | 27805m | 6.7m/s | 0°C | 0% | 0hPa | 0V | 00:00:00 | 00:00:00 | 00:00:00 | |
| POL1PZ | 2026-09-01 12:43:15 | 51.09330 | 17.82486 | 72° | 20km/h | 27782m | 6.9m/s | 0°C | 0% | 0hPa | 0V | 00:00:00 | 00:00:00 | 00:00:00 | |
| SQ6EMJ | 2026-09-01 12:43:13 | 51.09327 | 17.82475 | 77° | 15km/h | 27771m | 5.4m/s | 0°C | 0% | 0hPa | 0V | 00:00:00 | 00:00:00 | 00:00:00 | |
| PETON7-10 | 2026-09-01 12:43:12 | 51.09326 | 17.82469 | 83° | 13km/h | 27765m | 7.4m/s | 0°C | 0% | 0hPa | 0V | 00:00:00 | 00:00:00 | 00:00:00 | |
| KRY50SP | 2026-09-01 12:43:09 | 51.09328 | 17.82444 | 114° | 16km/h | 27745m | 6.0m/s | 0°C | 0% | 0hPa | 0V | 00:00:00 | 00:00:00 | 00:00:00 | |
| SQ6EMJ | 2026-09-01 12:43:08 | 51.09330 | 17.82439 | 121° | 9km/h | 27738m | 7.7m/s | 0°C | 0% | 0hPa | 0V | 00:00:00 | 00:00:00 | 00:00:00 | |
| KRY50SP | 2026-09-01 12:43:04 | 51.09319 | 17.82419 | 58° | 24km/h | 27707m | 4.4m/s | 0°C | 0% | 0hPa | 0V | 00:00:00 | 00:00:00 | 00:00:00 | |
| PETON7-10 | 2026-09-01 12:42:57 | 51.09319 | 17.82385 | 100° | 18km/h | 27672m | 3.0m/s | 0°C | 0% | 0hPa | 0V | 00:00:00 | 00:00:00 | 00:00:00 | |
| SQ6EMJ | 2026-09-01 12:42:56 | 51.09320 | 17.82379 | 85° | 13km/h | 27668m | 4.8m/s | 0°C | 0% | 0hPa | 0V | 00:00:00 | 00:00:00 | 00:00:00 | |
| POL1PZ | 2026-09-01 12:42:55 | 51.09319 | 17.82375 | 52° | 7km/h | 27661m | 9.2m/s | 0°C | 0% | 0hPa | 0V | 00:00:00 | 00:00:00 | 00:00:00 | |
| KRY50SP | 2026-09-01 12:42:50 | 51.09314 | 17.82356 | 110° | 29km/h | 27628m | 4.1m/s | 0°C | 0% | 0hPa | 0V | 00:00:00 | 00:00:00 | 00:00:00 | |
| KRY50SP | 2026-09-01 12:42:45 | 51.09323 | 17.82328 | 62° | 7km/h | 27602m | 5.7m/s | 0°C | 0% | 0hPa | 0V | 00:00:00 | 00:00:00 | 00:00:00 | |
| SQ6EMJ | 2026-09-01 12:42:44 | 51.09321 | 17.82324 | 68° | 15km/h | 27594m | 9.4m/s | 0°C | 0% | 0hPa | 0V | 00:00:00 | 00:00:00 | 00:00:00 | |
| PETON7-10 | 2026-09-01 12:42:40 | 51.09316 | 17.82290 | 78° | 15km/h | 27569m | 7.9m/s | 0°C | 0% | 0hPa | 0V | 00:00:00 | 00:00:00 | 00:00:00 | |
| SQ6EMJ | 2026-09-01 12:42:39 | 51.09315 | 17.82285 | 96° | 13km/h | 27562m | 4.7m/s | 0°C | 0% | 0hPa | 0V | 00:00:00 | 00:00:00 | 00:00:00 | |
| OE5DRO-10 | 2026-09-01 12:42:30 | 51.09306 | 17.82226 | 99° | 13km/h | 27503m | 4.5m/s | 0°C | 0% | 0hPa | 0V | 00:00:00 | 00:00:00 | 00:00:00 | |
| SQ6EMJ | 2026-09-01 12:42:29 | 51.09307 | 17.82219 | 108° | 16km/h | 27497m | 7.5m/s | 0°C | 0% | 0hPa | 0V | 00:00:00 | 00:00:00 | 00:00:00 | |
| KRY50SP | 2026-09-01 12:42:28 | 51.09307 | 17.82219 | 108° | 16km/h | 27497m | 7.5m/s | 0°C | 0% | 0hPa | 0V | 00:00:00 | 00:00:00 | 00:00:00 | |
| SP3BTT-10 | 2026-09-01 12:42:26 | 51.09310 | 17.82213 | 120° | 18km/h | 27484m | 4.5m/s | 0°C | 0% | 0hPa | 0V | 00:00:00 | 00:00:00 | 00:00:00 | |
| KRY50SP | 2026-09-01 12:42:23 | 51.09307 | 17.82199 | 60° | 20km/h | 27464m | 5.1m/s | 0°C | 0% | 0hPa | 0V | 00:00:00 | 00:00:00 | 00:00:00 | |
| PETON7-10 | 2026-09-01 12:42:22 | 51.09305 | 17.82193 | 49° | 20km/h | 27459m | 6.4m/s | 0°C | 0% | 0hPa | 0V | 00:00:00 | 00:00:00 | 00:00:00 | |
| SQ6EMJ | 2026-09-01 12:42:16 | 51.09303 | 17.82146 | 110° | 26km/h | 27424m | 4.0m/s | 0°C | 0% | 0hPa | 0V | 00:00:00 | 00:00:00 | 00:00:00 | |
| POL1PZ | 2026-09-01 12:42:13 | 51.09303 | 17.82132 | 14° | 13km/h | 27405m | 5.1m/s | 0°C | 0% | 0hPa | 0V | 00:00:00 | 00:00:00 | 00:00:00 | |
| OE5DRO-10 | 2026-09-01 12:42:10 | 51.09290 | 17.82115 | 66° | 18km/h | 27387m | 5.5m/s | 0°C | 0% | 0hPa | 0V | 00:00:00 | 00:00:00 | 00:00:00 | |
| PETON7-10 | 2026-09-01 12:42:05 | 51.09294 | 17.82062 | 109° | 24km/h | 27358m | 5.7m/s | 0°C | 0% | 0hPa | 0V | 00:00:00 | 00:00:00 | 00:00:00 | |
| KRY50SP | 2026-09-01 12:42:04 | 51.09296 | 17.82050 | 96° | 31km/h | 27352m | 6.6m/s | 0°C | 0% | 0hPa | 0V | 00:00:00 | 00:00:00 | 00:00:00 | |
| SQ6EMJ | 2026-09-01 12:42:01 | 51.09288 | 17.82014 | 36° | 11km/h | 27330m | 6.9m/s | 0°C | 0% | 0hPa | 0V | 00:00:00 | 00:00:00 | 00:00:00 | |
| KRY50SP | 2026-09-01 12:41:59 | 51.09287 | 17.82012 | 46° | 7km/h | 27324m | 4.7m/s | 0°C | 0% | 0hPa | 0V | 00:00:00 | 00:00:00 | 00:00:00 | |
| SQ6EMJ | 2026-09-01 12:41:54 | 51.09286 | 17.81959 | 96° | 33km/h | 27296m | 5.7m/s | 0°C | 0% | 0hPa | 0V | 00:00:00 | 00:00:00 | 00:00:00 | |
| KRY50SP | 2026-09-01 12:41:53 | 51.09287 | 17.81947 | 97° | 22km/h | 27290m | 6.7m/s | 0°C | 0% | 0hPa | 0V | 00:00:00 | 00:00:00 | 00:00:00 | |
| POL1PZ | 2026-09-01 12:41:51 | 51.09285 | 17.81935 | 57° | 16km/h | 27278m | 5.9m/s | 0°C | 0% | 0hPa | 0V | 00:00:00 | 00:00:00 | 00:00:00 | |
| PETON7-10 | 2026-09-01 12:41:50 | 51.09282 | 17.81929 | 51° | 22km/h | 27272m | 7.5m/s | 0°C | 0% | 0hPa | 0V | 00:00:00 | 00:00:00 | 00:00:00 | |
| SQ6EMJ | 2026-09-01 12:41:48 | 51.09275 | 17.81914 | 60° | 22km/h | 27261m | 4.4m/s | 0°C | 0% | 0hPa | 0V | 00:00:00 | 00:00:00 | 00:00:00 | |
| KRY50SP | 2026-09-01 12:41:47 | 51.09273 | 17.81907 | 71° | 16km/h | 27255m | 7.5m/s | 0°C | 0% | 0hPa | 0V | 00:00:00 | 00:00:00 | 00:00:00 | |
| SQ6EMJ | 2026-09-01 12:41:42 | 51.09269 | 17.81863 | 77° | 35km/h | 27225m | 4.3m/s | 0°C | 0% | 0hPa | 0V | 00:00:00 | 00:00:00 | 00:00:00 | |
| SP3BTT-10 | 2026-09-01 12:41:41 | 51.09267 | 17.81851 | 78° | 11km/h | 27221m | 4.4m/s | 0°C | 0% | 0hPa | 0V | 00:00:00 | 00:00:00 | 00:00:00 | |
| KRY50SP | 2026-09-01 12:41:36 | 51.09258 | 17.81823 | 54° | 20km/h | 27192m | 6.8m/s | 0°C | 0% | 0hPa | 0V | 00:00:00 | 00:00:00 | 00:00:00 | |
| PETON7-10 | 2026-09-01 12:41:35 | 51.09255 | 17.81815 | 61° | 18km/h | 27185m | 5.6m/s | 0°C | 0% | 0hPa | 0V | 00:00:00 | 00:00:00 | 00:00:00 | |
| POL1PZ | 2026-09-01 12:41:31 | 51.09244 | 17.81779 | 39° | 9km/h | 27163m | 7.4m/s | 0°C | 0% | 0hPa | 0V | 00:00:00 | 00:00:00 | 00:00:00 | |
| KRY50SP | 2026-09-01 12:41:30 | 51.09242 | 17.81778 | 357° | 9km/h | 27157m | 5.7m/s | 0°C | 0% | 0hPa | 0V | 00:00:00 | 00:00:00 | 00:00:00 | |
| SQ6EMJ | 2026-09-01 12:41:26 | 51.09228 | 17.81769 | 58° | 18km/h | 27135m | 6.4m/s | 0°C | 0% | 0hPa | 0V | 00:00:00 | 00:00:00 | 00:00:00 | |
| KRY50SP | 2026-09-01 12:41:24 | 51.09226 | 17.81758 | 96° | 15km/h | 27120m | 5.5m/s | 0°C | 0% | 0hPa | 0V | 00:00:00 | 00:00:00 | 00:00:00 | |
| PETON7-10 | 2026-09-01 12:41:20 | 51.09220 | 17.81735 | 53° | 11km/h | 27098m | 3.9m/s | 0°C | 0% | 0hPa | 0V | 00:00:00 | 00:00:00 | 00:00:00 | |
| KRY50SP | 2026-09-01 12:41:18 | 51.09218 | 17.81732 | 180° | 2km/h | 27086m | 7.6m/s | 0°C | 0% | 0hPa | 0V | 00:00:00 | 00:00:00 | 00:00:00 | |
| SQ6EMJ | 2026-09-01 12:41:14 | 51.09219 | 17.81733 | 25° | 9km/h | 27060m | 5.5m/s | 0°C | 0% | 0hPa | 0V | 00:00:00 | 00:00:00 | 00:00:00 | |
| KRY50SP | 2026-09-01 12:41:12 | 51.09215 | 17.81728 | 46° | 9km/h | 27049m | 6.0m/s | 0°C | 0% | 0hPa | 0V | 00:00:00 | 00:00:00 | 00:00:00 | |
| POL1PZ | 2026-09-01 12:41:11 | 51.09214 | 17.81726 | 111° | 5km/h | 27043m | 6.8m/s | 0°C | 0% | 0hPa | 0V | 00:00:00 | 00:00:00 | 00:00:00 | |
| SQ6EMJ | 2026-09-01 12:41:09 | 51.09216 | 17.81724 | 30° | 4km/h | 27024m | 6.3m/s | 0°C | 0% | 0hPa | 0V | 00:00:00 | 00:00:00 | 00:00:00 | |
| KRY50SP | 2026-09-01 12:41:07 | 51.09213 | 17.81723 | 14° | 15km/h | 27017m | 6.3m/s | 0°C | 0% | 0hPa | 0V | 00:00:00 | 00:00:00 | 00:00:00 | |
| PETON7-10 | 2026-09-01 12:41:05 | 51.09205 | 17.81720 | 21° | 7km/h | 27009m | 4.5m/s | 0°C | 0% | 0hPa | 0V | 00:00:00 | 00:00:00 | 00:00:00 | |
| SQ6EMJ | 2026-09-01 12:41:02 | 51.09204 | 17.81720 | 219° | 5km/h | 26990m | 4.8m/s | 0°C | 0% | 0hPa | 0V | 00:00:00 | 00:00:00 | 00:00:00 | |
| KRY50SP | 2026-09-01 12:41:01 | 51.09204 | 17.81722 | 277° | 4km/h | 26985m | 6.5m/s | 0°C | 0% | 0hPa | 0V | 00:00:00 | 00:00:00 | 00:00:00 | |
| OK1SLM-15 | 2026-09-01 12:40:58 | 51.09199 | 17.81726 | 339° | 5km/h | 26967m | 5.6m/s | 0°C | 0% | 0hPa | 0V | 00:00:00 | 00:00:00 | 00:00:00 | |
| KRY50SP | 2026-09-01 12:40:56 | 51.09200 | 17.81726 | 164° | 5km/h | 26954m | 5.7m/s | 0°C | 0% | 0hPa | 0V | 00:00:00 | 00:00:00 | 00:00:00 | |
| OK1SLM-15 | 2026-09-01 12:40:53 | 51.09198 | 17.81719 | 34° | 13km/h | 26935m | 6.1m/s | 0°C | 0% | 0hPa | 0V | 00:00:00 | 00:00:00 | 00:00:00 | |
| SQ6EMJ | 2026-09-01 12:40:50 | 51.09192 | 17.81717 | 267° | 4km/h | 26917m | 6.3m/s | 0°C | 0% | 0hPa | 0V | 00:00:00 | 00:00:00 | 00:00:00 | |
| PETON7-10 | 2026-09-01 12:40:49 | 51.09193 | 17.81719 | 242° | 9km/h | 26911m | 5.1m/s | 0°C | 0% | 0hPa | 0V | 00:00:00 | 00:00:00 | 00:00:00 | |
| OK1SLM-15 | 2026-09-01 12:40:47 | 51.09192 | 17.81720 | 39° | 7km/h | 26899m | 7.1m/s | 0°C | 0% | 0hPa | 0V | 00:00:00 | 00:00:00 | 00:00:00 | |
| KRY50SP | 2026-09-01 12:40:45 | 51.09190 | 17.81711 | 87° | 15km/h | 26888m | 5.2m/s | 0°C | 0% | 0hPa | 0V | 00:00:00 | 00:00:00 | 00:00:00 | |
| SP3BTT-10 | 2026-09-01 12:40:41 | 51.09192 | 17.81693 | 60° | 16km/h | 26864m | 7.8m/s | 0°C | 0% | 0hPa | 0V | 00:00:00 | 00:00:00 | 00:00:00 | |
| KRY50SP | 2026-09-01 12:40:39 | 51.09188 | 17.81692 | 342° | 7km/h | 26852m | 4.3m/s | 0°C | 0% | 0hPa | 0V | 00:00:00 | 00:00:00 | 00:00:00 | |
| SQ6EMJ | 2026-09-01 12:40:38 | 51.09186 | 17.81693 | 267° | 4km/h | 26847m | 6.5m/s | 0°C | 0% | 0hPa | 0V | 00:00:00 | 00:00:00 | 00:00:00 | |
| PETON7-10 | 2026-09-01 12:40:34 | 51.09197 | 17.81686 | 112° | 13km/h | 26821m | 7.3m/s | 0°C | 0% | 0hPa | 0V | 00:00:00 | 00:00:00 | 00:00:00 | |
| SQ6EMJ | 2026-09-01 12:40:33 | 51.09197 | 17.81673 | 81° | 16km/h | 26809m | 5.0m/s | 0°C | 0% | 0hPa | 0V | 00:00:00 | 00:00:00 | 00:00:00 | |
| POL1PZ | 2026-09-01 12:40:29 | 51.09197 | 17.81665 | 259° | 2km/h | 26791m | 4.5m/s | 0°C | 0% | 0hPa | 0V | 00:00:00 | 00:00:00 | 00:00:00 | |
| KRY50SP | 2026-09-01 12:40:28 | 51.09197 | 17.81666 | 325° | 4km/h | 26786m | 6.3m/s | 0°C | 0% | 0hPa | 0V | 00:00:00 | 00:00:00 | 00:00:00 | |
| SQ6EMJ | 2026-09-01 12:40:27 | 51.09196 | 17.81666 | 25° | 7km/h | 26779m | 6.4m/s | 0°C | 0% | 0hPa | 0V | 00:00:00 | 00:00:00 | 00:00:00 | |
| KRY50SP | 2026-09-01 12:40:23 | 51.09200 | 17.81646 | 137° | 26km/h | 26754m | 6.0m/s | 0°C | 0% | 0hPa | 0V | 00:00:00 | 00:00:00 | 00:00:00 | |
| SQ6EMJ | 2026-09-01 12:40:21 | 51.09207 | 17.81631 | 109° | 20km/h | 26743m | 6.9m/s | 0°C | 0% | 0hPa | 0V | 00:00:00 | 00:00:00 | 00:00:00 | |
| PETON7-10 | 2026-09-01 12:40:18 | 51.09202 | 17.81617 | 18° | 22km/h | 26723m | 7.0m/s | 0°C | 0% | 0hPa | 0V | 00:00:00 | 00:00:00 | 00:00:00 | |
| KRY50SP | 2026-09-01 12:40:17 | 51.09201 | 17.81616 | 11° | 4km/h | 26716m | 7.3m/s | 0°C | 0% | 0hPa | 0V | 00:00:00 | 00:00:00 | 00:00:00 | |
| SQ6EMJ | 2026-09-01 12:40:16 | 51.09201 | 17.81615 | 113° | 7km/h | 26710m | 3.8m/s | 0°C | 0% | 0hPa | 0V | 00:00:00 | 00:00:00 | 00:00:00 | |
| KRY50SP | 2026-09-01 12:40:12 | 51.09202 | 17.81584 | 99° | 26km/h | 26687m | 4.9m/s | 0°C | 0% | 0hPa | 0V | 00:00:00 | 00:00:00 | 00:00:00 | |
| SQ6EMJ | 2026-09-01 12:40:11 | 51.09203 | 17.81575 | 109° | 20km/h | 26680m | 8.0m/s | 0°C | 0% | 0hPa | 0V | 00:00:00 | 00:00:00 | 00:00:00 | |
| POL1PZ | 2026-09-01 12:40:08 | 51.09204 | 17.81562 | 43° | 11km/h | 26662m | 8.9m/s | 0°C | 0% | 0hPa | 0V | 00:00:00 | 00:00:00 | 00:00:00 | |
| KRY50SP | 2026-09-01 12:40:06 | 51.09197 | 17.81554 | 36° | 18km/h | 26648m | 4.9m/s | 0°C | 0% | 0hPa | 0V | 00:00:00 | 00:00:00 | 00:00:00 | |
| SQ6EMJ | 2026-09-01 12:40:05 | 51.09194 | 17.81549 | 43° | 16km/h | 26643m | 6.4m/s | 0°C | 0% | 0hPa | 0V | 00:00:00 | 00:00:00 | 00:00:00 | |
| PETON7-10 | 2026-09-01 12:40:00 | 51.09192 | 17.81504 | 79° | 20km/h | 26612m | 4.1m/s | 0°C | 0% | 0hPa | 0V | 00:00:00 | 00:00:00 | 00:00:00 | |
| KRY50SP | 2026-09-01 12:39:55 | 51.09181 | 17.81476 | 38° | 24km/h | 26577m | 7.8m/s | 0°C | 0% | 0hPa | 0V | 00:00:00 | 00:00:00 | 00:00:00 | |
| SQ6EMJ | 2026-09-01 12:39:50 | 51.09165 | 17.81440 | 88° | 20km/h | 26552m | 6.7m/s | 0°C | 0% | 0hPa | 0V | 00:00:00 | 00:00:00 | 00:00:00 | |
| KRY50SP | 2026-09-01 12:39:48 | 51.09165 | 17.81425 | 88° | 18km/h | 26540m | 7.8m/s | 0°C | 0% | 0hPa | 0V | 00:00:00 | 00:00:00 | 00:00:00 | |
| POL1PZ | 2026-09-01 12:39:47 | 51.09164 | 17.81417 | 71° | 22km/h | 26533m | 6.0m/s | 0°C | 0% | 0hPa | 0V | 00:00:00 | 00:00:00 | 00:00:00 | |
| SQ6EMJ | 2026-09-01 12:39:46 | 51.09159 | 17.81404 | 48° | 18km/h | 26521m | 7.1m/s | 0°C | 0% | 0hPa | 0V | 00:00:00 | 00:00:00 | 00:00:00 | |
| KRY50SP | 2026-09-01 12:39:43 | 51.09153 | 17.81396 | 34° | 18km/h | 26509m | 4.9m/s | 0°C | 0% | 0hPa | 0V | 00:00:00 | 00:00:00 | 00:00:00 | |
| PETON7-10 | 2026-09-01 12:39:42 | 51.09148 | 17.81391 | 38° | 22km/h | 26503m | 6.3m/s | 0°C | 0% | 0hPa | 0V | 00:00:00 | 00:00:00 | 00:00:00 | |
| SQ6EMJ | 2026-09-01 12:39:39 | 51.09134 | 17.81366 | 64° | 26km/h | 26485m | 6.0m/s | 0°C | 0% | 0hPa | 0V | 00:00:00 | 00:00:00 | 00:00:00 | |
| KRY50SP | 2026-09-01 12:39:37 | 51.09133 | 17.81351 | 111° | 16km/h | 26472m | 4.5m/s | 0°C | 0% | 0hPa | 0V | 00:00:00 | 00:00:00 | 00:00:00 | |
| SQ6EMJ | 2026-09-01 12:39:34 | 51.09129 | 17.81332 | 40° | 26km/h | 26453m | 6.6m/s | 0°C | 0% | 0hPa | 0V | 00:00:00 | 00:00:00 | 00:00:00 | |
| KRY50SP | 2026-09-01 12:39:31 | 51.09113 | 17.81319 | 16° | 16km/h | 26435m | 7.1m/s | 0°C | 0% | 0hPa | 0V | 00:00:00 | 00:00:00 | 00:00:00 | |
| SQ6EMJ | 2026-09-01 12:39:28 | 51.09104 | 17.81312 | 43° | 16km/h | 26416m | 5.9m/s | 0°C | 0% | 0hPa | 0V | 00:00:00 | 00:00:00 | 00:00:00 | |
| PETON7-10 | 2026-09-01 12:39:27 | 51.09101 | 17.81306 | 60° | 16km/h | 26411m | 4.8m/s | 0°C | 0% | 0hPa | 0V | 00:00:00 | 00:00:00 | 00:00:00 | |
| SP3BTT-10 | 2026-09-01 12:39:26 | 51.09099 | 17.81299 | 78° | 13km/h | 26404m | 7.9m/s | 0°C | 0% | 0hPa | 0V | 00:00:00 | 00:00:00 | 00:00:00 | |
| KRY50SP | 2026-09-01 12:39:25 | 51.09098 | 17.81291 | 90° | 20km/h | 26397m | 6.4m/s | 0°C | 0% | 0hPa | 0V | 00:00:00 | 00:00:00 | 00:00:00 | |
| SQ6EMJ | 2026-09-01 12:39:24 | 51.09095 | 17.81277 | 53° | 20km/h | 26385m | 6.3m/s | 0°C | 0% | 0hPa | 0V | 00:00:00 | 00:00:00 | 00:00:00 | |
| KRY50SP | 2026-09-01 12:39:19 | 51.09070 | 17.81262 | 24° | 4km/h | 26352m | 5.3m/s | 0°C | 0% | 0hPa | 0V | 00:00:00 | 00:00:00 | 00:00:00 | |
| SQ6EMJ | 2026-09-01 12:39:17 | 51.09070 | 17.81260 | 106° | 7km/h | 26347m | 5.2m/s | 0°C | 0% | 0hPa | 0V | 00:00:00 | 00:00:00 | 00:00:00 | |
| KRY50SP | 2026-09-01 12:39:12 | 51.09061 | 17.81231 | 54° | 15km/h | 26318m | 6.4m/s | 0°C | 0% | 0hPa | 0V | 00:00:00 | 00:00:00 | 00:00:00 | |
| PETON7-10 | 2026-09-01 12:39:11 | 51.09059 | 17.81228 | 15° | 18km/h | 26312m | 4.6m/s | 0°C | 0% | 0hPa | 0V | 00:00:00 | 00:00:00 | 00:00:00 | |
| POL1PZ | 2026-09-01 12:39:08 | 51.09037 | 17.81231 | 353° | 18km/h | 26289m | 4.9m/s | 0°C | 0% | 0hPa | 0V | 00:00:00 | 00:00:00 | 00:00:00 | |
| SQ6EMJ | 2026-09-01 12:39:06 | 51.09035 | 17.81232 | 360° | 5km/h | 26283m | 6.9m/s | 0°C | 0% | 0hPa | 0V | 00:00:00 | 00:00:00 | 00:00:00 | |
| SQ6EMJ | 2026-09-01 12:39:01 | 51.09024 | 17.81218 | 15° | 26km/h | 26255m | 5.0m/s | 0°C | 0% | 0hPa | 0V | 00:00:00 | 00:00:00 | 00:00:00 | |
| KRY50SP | 2026-09-01 12:39:00 | 51.09018 | 17.81217 | 1° | 26km/h | 26250m | 6.9m/s | 0°C | 0% | 0hPa | 0V | 00:00:00 | 00:00:00 | 00:00:00 | |
| PETON7-10 | 2026-09-01 12:38:56 | 51.08998 | 17.81227 | 1° | 11km/h | 26225m | 6.6m/s | 0°C | 0% | 0hPa | 0V | 00:00:00 | 00:00:00 | 00:00:00 | |
| SQ6EMJ | 2026-09-01 12:38:55 | 51.08995 | 17.81226 | 12° | 11km/h | 26220m | 4.9m/s | 0°C | 0% | 0hPa | 0V | 00:00:00 | 00:00:00 | 00:00:00 | |
| KRY50SP | 2026-09-01 12:38:52 | 51.08991 | 17.81221 | 87° | 5km/h | 26202m | 4.4m/s | 0°C | 0% | 0hPa | 0V | 00:00:00 | 00:00:00 | 00:00:00 | |
| SQ6EMJ | 2026-09-01 12:38:48 | 51.08974 | 17.81210 | 360° | 27km/h | 26180m | 3.9m/s | 0°C | 0% | 0hPa | 0V | 00:00:00 | 00:00:00 | 00:00:00 | |
| KRY50SP | 2026-09-01 12:38:47 | 51.08968 | 17.81212 | 345° | 20km/h | 26175m | 6.4m/s | 0°C | 0% | 0hPa | 0V | 00:00:00 | 00:00:00 | 00:00:00 | |
| POL1PZ | 2026-09-01 12:38:46 | 51.08965 | 17.81214 | 314° | 11km/h | 26168m | 7.3m/s | 0°C | 0% | 0hPa | 0V | 00:00:00 | 00:00:00 | 00:00:00 | |
| SQ6EMJ | 2026-09-01 12:38:43 | 51.08966 | 17.81214 | 100° | 11km/h | 26150m | 6.7m/s | 0°C | 0% | 0hPa | 0V | 00:00:00 | 00:00:00 | 00:00:00 | |
| KRY50SP | 2026-09-01 12:38:42 | 51.08966 | 17.81209 | 63° | 16km/h | 26145m | 4.9m/s | 0°C | 0% | 0hPa | 0V | 00:00:00 | 00:00:00 | 00:00:00 | |
| PETON7-10 | 2026-09-01 12:38:41 | 51.08962 | 17.81203 | 39° | 15km/h | 26140m | 4.3m/s | 0°C | 0% | 0hPa | 0V | 00:00:00 | 00:00:00 | 00:00:00 | |
| SQ6EMJ | 2026-09-01 12:38:38 | 51.08947 | 17.81207 | 328° | 29km/h | 26121m | 4.6m/s | 0°C | 0% | 0hPa | 0V | 00:00:00 | 00:00:00 | 00:00:00 | |
| KRY50SP | 2026-09-01 12:38:36 | 51.08936 | 17.81218 | 339° | 22km/h | 26112m | 5.3m/s | 0°C | 0% | 0hPa | 0V | 00:00:00 | 00:00:00 | 00:00:00 | |
| PG1ADW-2 | 2026-09-01 12:38:33 | 51.08928 | 17.81218 | 146° | 13km/h | 26095m | 7.7m/s | 0°C | 0% | 0hPa | 0V | 00:00:00 | 00:00:00 | 00:00:00 | |
| SQ6EMJ | 2026-09-01 12:38:32 | 51.08930 | 17.81218 | 176° | 7km/h | 26088m | 6.4m/s | 0°C | 0% | 0hPa | 0V | 00:00:00 | 00:00:00 | 00:00:00 | |
| KRY50SP | 2026-09-01 12:38:31 | 51.08931 | 17.81217 | 159° | 7km/h | 26083m | 4.7m/s | 0°C | 0% | 0hPa | 0V | 00:00:00 | 00:00:00 | 00:00:00 | |
| PETON7-10 | 2026-09-01 12:38:26 | 51.08923 | 17.81214 | 308° | 13km/h | 26054m | 6.2m/s | 0°C | 0% | 0hPa | 0V | 00:00:00 | 00:00:00 | 00:00:00 | |
| KRY50SP | 2026-09-01 12:38:20 | 51.08927 | 17.81228 | 128° | 20km/h | 26017m | 4.8m/s | 0°C | 0% | 0hPa | 0V | 00:00:00 | 00:00:00 | 00:00:00 | |
| SQ6EMJ | 2026-09-01 12:38:15 | 51.08930 | 17.81233 | 16° | 5km/h | 25981m | 6.3m/s | 0°C | 0% | 0hPa | 0V | 00:00:00 | 00:00:00 | 00:00:00 | |
| KRY50SP | 2026-09-01 12:38:14 | 51.08930 | 17.81233 | 16° | 5km/h | 25981m | 6.3m/s | 0°C | 0% | 0hPa | 0V | 00:00:00 | 00:00:00 | 00:00:00 | |
| SP3BTT-10 | 2026-09-01 12:38:10 | 51.08937 | 17.81232 | 196° | 13km/h | 25957m | 5.0m/s | 0°C | 0% | 0hPa | 0V | 00:00:00 | 00:00:00 | 00:00:00 | |
| PETON7-10 | 2026-09-01 12:38:08 | 51.08945 | 17.81235 | 168° | 13km/h | 25946m | 6.7m/s | 0°C | 0% | 0hPa | 0V | 00:00:00 | 00:00:00 | 00:00:00 | |
| POL1PZ | 2026-09-01 12:38:05 | 51.08948 | 17.81230 | 9° | 2km/h | 25928m | 6.3m/s | 0°C | 0% | 0hPa | 0V | 00:00:00 | 00:00:00 | 00:00:00 | |
| KRY50SP | 2026-09-01 12:38:02 | 51.08951 | 17.81239 | 213° | 13km/h | 25912m | 4.6m/s | 0°C | 0% | 0hPa | 0V | 00:00:00 | 00:00:00 | 00:00:00 | |
| KRY50SP | 2026-09-01 12:37:57 | 51.08974 | 17.81225 | 173° | 22km/h | 25882m | 6.3m/s | 0°C | 0% | 0hPa | 0V | 00:00:00 | 00:00:00 | 00:00:00 | |
| PETON7-10 | 2026-09-01 12:37:53 | 51.08980 | 17.81220 | 60° | 11km/h | 25858m | 4.9m/s | 0°C | 0% | 0hPa | 0V | 00:00:00 | 00:00:00 | 00:00:00 | |
| SQ6EMJ | 2026-09-01 12:37:52 | 51.08980 | 17.81218 | 81° | 5km/h | 25853m | 4.6m/s | 0°C | 0% | 0hPa | 0V | 00:00:00 | 00:00:00 | 00:00:00 | |
| KRY50SP | 2026-09-01 12:37:51 | 51.08980 | 17.81216 | 157° | 5km/h | 25847m | 7.0m/s | 0°C | 0% | 0hPa | 0V | 00:00:00 | 00:00:00 | 00:00:00 | |
| KRY50SP | 2026-09-01 12:37:46 | 51.08998 | 17.81195 | 111° | 22km/h | 25818m | 4.2m/s | 0°C | 0% | 0hPa | 0V | 00:00:00 | 00:00:00 | 00:00:00 | |
| SP3BTT-10 | 2026-09-01 12:37:41 | 51.09001 | 17.81177 | 96° | 11km/h | 25782m | 5.4m/s | 0°C | 0% | 0hPa | 0V | 00:00:00 | 00:00:00 | 00:00:00 | |
| PETON7-10 | 2026-09-01 12:37:38 | 51.09004 | 17.81168 | 135° | 7km/h | 25770m | 7.0m/s | 0°C | 0% | 0hPa | 0V | 00:00:00 | 00:00:00 | 00:00:00 | |
| KRY50SP | 2026-09-01 12:37:35 | 51.09011 | 17.81161 | 125° | 11km/h | 25753m | 6.5m/s | 0°C | 0% | 0hPa | 0V | 00:00:00 | 00:00:00 | 00:00:00 | |
| KRY50SP | 2026-09-01 12:37:30 | 51.09012 | 17.81151 | 253° | 4km/h | 25718m | 5.1m/s | 0°C | 0% | 0hPa | 0V | 00:00:00 | 00:00:00 | 00:00:00 | |
| KRY50SP | 2026-09-01 12:37:24 | 51.09011 | 17.81140 | 0° | 0km/h | 25688m | 7.3m/s | 0°C | 0% | 0hPa | 0V | 00:00:00 | 00:00:00 | 00:00:00 | |
| PETON7-10 | 2026-09-01 12:37:23 | 51.09010 | 17.81140 | 308° | 9km/h | 25681m | 5.6m/s | 0°C | 0% | 0hPa | 0V | 00:00:00 | 00:00:00 | 00:00:00 | |
| SQ6EMJ | 2026-09-01 12:37:20 | 51.09007 | 17.81134 | 44° | 15km/h | 25663m | 4.1m/s | 0°C | 0% | 0hPa | 0V | 00:00:00 | 00:00:00 | 00:00:00 | |
| SQ9EZE-15 | 2026-09-01 12:37:19 | 51.09004 | 17.81130 | 32° | 13km/h | 25658m | 5.3m/s | 0°C | 0% | 0hPa | 0V | 00:00:00 | 00:00:00 | 00:00:00 | |
| KRY50SP | 2026-09-01 12:37:18 | 51.09001 | 17.81129 | 10° | 9km/h | 25652m | 7.1m/s | 0°C | 0% | 0hPa | 0V | 00:00:00 | 00:00:00 | 00:00:00 | |
| POL1PZ | 2026-09-01 12:37:16 | 51.08999 | 17.81129 | 62° | 4km/h | 25640m | 5.5m/s | 0°C | 0% | 0hPa | 0V | 00:00:00 | 00:00:00 | 00:00:00 | |
| SQ6EMJ | 2026-09-01 12:37:15 | 51.08999 | 17.81125 | 84° | 9km/h | 25633m | 7.6m/s | 0°C | 0% | 0hPa | 0V | 00:00:00 | 00:00:00 | 00:00:00 | |
| KRY50SP | 2026-09-01 12:37:12 | 51.08997 | 17.81113 | 48° | 4km/h | 25616m | 7.1m/s | 0°C | 0% | 0hPa | 0V | 00:00:00 | 00:00:00 | 00:00:00 | |
| PETON7-10 | 2026-09-01 12:37:08 | 51.08987 | 17.81115 | 29° | 9km/h | 25590m | 6.0m/s | 0°C | 0% | 0hPa | 0V | 00:00:00 | 00:00:00 | 00:00:00 | |
| KRY50SP | 2026-09-01 12:37:06 | 51.08982 | 17.81108 | 45° | 11km/h | 25579m | 6.6m/s | 0°C | 0% | 0hPa | 0V | 00:00:00 | 00:00:00 | 00:00:00 | |
| SQ6EMJ | 2026-09-01 12:37:03 | 51.08979 | 17.81099 | 78° | 13km/h | 25554m | 6.6m/s | 0°C | 0% | 0hPa | 0V | 00:00:00 | 00:00:00 | 00:00:00 | |
| KRY50SP | 2026-09-01 12:37:01 | 51.08978 | 17.81094 | 71° | 15km/h | 25549m | 4.6m/s | 0°C | 0% | 0hPa | 0V | 00:00:00 | 00:00:00 | 00:00:00 | |
| KRY50SP | 2026-09-01 12:36:56 | 51.08971 | 17.81093 | 1° | 5km/h | 25521m | 6.4m/s | 0°C | 0% | 0hPa | 0V | 00:00:00 | 00:00:00 | 00:00:00 | |
| SQ6EMJ | 2026-09-01 12:36:54 | 51.08967 | 17.81086 | 64° | 16km/h | 25510m | 4.6m/s | 0°C | 0% | 0hPa | 0V | 00:00:00 | 00:00:00 | 00:00:00 | |
| POL1PZ | 2026-09-01 12:36:53 | 51.08965 | 17.81081 | 59° | 13km/h | 25505m | 4.7m/s | 0°C | 0% | 0hPa | 0V | 00:00:00 | 00:00:00 | 00:00:00 | |
| PETON7-10 | 2026-09-01 12:36:50 | 51.08959 | 17.81079 | 339° | 13km/h | 25488m | 4.3m/s | 0°C | 0% | 0hPa | 0V | 00:00:00 | 00:00:00 | 00:00:00 | |
| SQ6EMJ | 2026-09-01 12:36:49 | 51.08955 | 17.81080 | 353° | 16km/h | 25482m | 7.0m/s | 0°C | 0% | 0hPa | 0V | 00:00:00 | 00:00:00 | 00:00:00 | |
| KRY50SP | 2026-09-01 12:36:44 | 51.08940 | 17.81083 | 277° | 5km/h | 25452m | 4.9m/s | 0°C | 0% | 0hPa | 0V | 00:00:00 | 00:00:00 | 00:00:00 | |
| SQ6EMJ | 2026-09-01 12:36:42 | 51.08939 | 17.81083 | 45° | 7km/h | 25441m | 7.1m/s | 0°C | 0% | 0hPa | 0V | 00:00:00 | 00:00:00 | 00:00:00 | |
| OK1SLM-15 | 2026-09-01 12:36:41 | 51.08937 | 17.81080 | 44° | 15km/h | 25435m | 5.0m/s | 0°C | 0% | 0hPa | 0V | 00:00:00 | 00:00:00 | 00:00:00 | |
| KRY50SP | 2026-09-01 12:36:39 | 51.08930 | 17.81074 | 10° | 15km/h | 25425m | 6.4m/s | 0°C | 0% | 0hPa | 0V | 00:00:00 | 00:00:00 | 00:00:00 | |
| SQ6EMJ | 2026-09-01 12:36:37 | 51.08924 | 17.81077 | 331° | 13km/h | 25412m | 5.3m/s | 0°C | 0% | 0hPa | 0V | 00:00:00 | 00:00:00 | 00:00:00 | |
| OK1SLM-15 | 2026-09-01 12:36:36 | 51.08921 | 17.81079 | 349° | 11km/h | 25406m | 5.9m/s | 0°C | 0% | 0hPa | 0V | 00:00:00 | 00:00:00 | 00:00:00 | |
| PETON7-10 | 2026-09-01 12:36:35 | 51.08919 | 17.81078 | 29° | 9km/h | 25400m | 6.9m/s | 0°C | 0% | 0hPa | 0V | 00:00:00 | 00:00:00 | 00:00:00 | |
| KRY50SP | 2026-09-01 12:36:34 | 51.08917 | 17.81076 | 55° | 7km/h | 25394m | 4.5m/s | 0°C | 0% | 0hPa | 0V | 00:00:00 | 00:00:00 | 00:00:00 | |
| OK1SLM-15 | 2026-09-01 12:36:31 | 51.08914 | 17.81077 | 302° | 11km/h | 25376m | 5.4m/s | 0°C | 0% | 0hPa | 0V | 00:00:00 | 00:00:00 | 00:00:00 | |
| POL1PZ | 2026-09-01 12:36:30 | 51.08912 | 17.81080 | 325° | 13km/h | 25371m | 5.4m/s | 0°C | 0% | 0hPa | 0V | 00:00:00 | 00:00:00 | 00:00:00 | |
| KRY50SP | 2026-09-01 12:36:28 | 51.08906 | 17.81082 | 13° | 15km/h | 25359m | 4.6m/s | 0°C | 0% | 0hPa | 0V | 00:00:00 | 00:00:00 | 00:00:00 | |
| SP3BTT-10 | 2026-09-01 12:36:25 | 51.08899 | 17.81084 | 277° | 11km/h | 25342m | 6.8m/s | 0°C | 0% | 0hPa | 0V | 00:00:00 | 00:00:00 | 00:00:00 | |
| KRY50SP | 2026-09-01 12:36:23 | 51.08900 | 17.81089 | 209° | 5km/h | 25331m | 5.6m/s | 0°C | 0% | 0hPa | 0V | 00:00:00 | 00:00:00 | 00:00:00 | |
| PETON7-10 | 2026-09-01 12:36:20 | 51.08899 | 17.81081 | 43° | 11km/h | 25314m | 4.8m/s | 0°C | 0% | 0hPa | 0V | 00:00:00 | 00:00:00 | 00:00:00 | |
| KRY50SP | 2026-09-01 12:36:17 | 51.08888 | 17.81079 | 348° | 15km/h | 25297m | 4.3m/s | 0°C | 0% | 0hPa | 0V | 00:00:00 | 00:00:00 | 00:00:00 | |
| SQ6EMJ | 2026-09-01 12:36:15 | 51.08880 | 17.81076 | 59° | 5km/h | 25280m | 4.1m/s | 0°C | 0% | 0hPa | 0V | 00:00:00 | 00:00:00 | 00:00:00 | |
| KRY50SP | 2026-09-01 12:36:12 | 51.08881 | 17.81077 | 234° | 9km/h | 25269m | 8.0m/s | 0°C | 0% | 0hPa | 0V | 00:00:00 | 00:00:00 | 00:00:00 | |
| KRY50SP | 2026-09-01 12:36:06 | 51.08874 | 17.81073 | 22° | 16km/h | 25232m | 7.2m/s | 0°C | 0% | 0hPa | 0V | 00:00:00 | 00:00:00 | 00:00:00 | |
| PETON7-10 | 2026-09-01 12:36:05 | 51.08871 | 17.81071 | 18° | 7km/h | 25227m | 3.7m/s | 0°C | 0% | 0hPa | 0V | 00:00:00 | 00:00:00 | 00:00:00 | |
| KRY50SP | 2026-09-01 12:36:00 | 51.08870 | 17.81061 | 243° | 5km/h | 25200m | 8.0m/s | 0°C | 0% | 0hPa | 0V | 00:00:00 | 00:00:00 | 00:00:00 | |
| KRY50SP | 2026-09-01 12:35:55 | 51.08866 | 17.81064 | 59° | 9km/h | 25172m | 4.8m/s | 0°C | 0% | 0hPa | 0V | 00:00:00 | 00:00:00 | 00:00:00 | |
| POL1PZ | 2026-09-01 12:35:54 | 51.08865 | 17.81062 | 49° | 7km/h | 25166m | 6.7m/s | 0°C | 0% | 0hPa | 0V | 00:00:00 | 00:00:00 | 00:00:00 | |
| SQ6EMJ | 2026-09-01 12:35:51 | 51.08864 | 17.81058 | 122° | 7km/h | 25149m | 7.1m/s | 0°C | 0% | 0hPa | 0V | 00:00:00 | 00:00:00 | 00:00:00 | |
| PETON7-10 | 2026-09-01 12:35:49 | 51.08866 | 17.81053 | 130° | 7km/h | 25138m | 4.3m/s | 0°C | 0% | 0hPa | 0V | 00:00:00 | 00:00:00 | 00:00:00 | |
| SQ6EMJ | 2026-09-01 12:35:44 | 51.08865 | 17.81058 | 104° | 9km/h | 25110m | 6.1m/s | 0°C | 0% | 0hPa | 0V | 00:00:00 | 00:00:00 | 00:00:00 | |
| KRY50SP | 2026-09-01 12:35:43 | 51.08866 | 17.81054 | 99° | 13km/h | 25105m | 3.2m/s | 0°C | 0% | 0hPa | 0V | 00:00:00 | 00:00:00 | 00:00:00 | |
| SQ6EMJ | 2026-09-01 12:35:39 | 51.08860 | 17.81046 | 14° | 11km/h | 25081m | 6.3m/s | 0°C | 0% | 0hPa | 0V | 00:00:00 | 00:00:00 | 00:00:00 | |
| KRY50SP | 2026-09-01 12:35:37 | 51.08856 | 17.81042 | 40° | 11km/h | 25069m | 3.5m/s | 0°C | 0% | 0hPa | 0V | 00:00:00 | 00:00:00 | 00:00:00 | |
| PETON7-10 | 2026-09-01 12:35:34 | 51.08847 | 17.81040 | 339° | 7km/h | 25052m | 4.8m/s | 0°C | 0% | 0hPa | 0V | 00:00:00 | 00:00:00 | 00:00:00 | |
| SQ6EMJ | 2026-09-01 12:35:33 | 51.08845 | 17.81041 | 360° | 5km/h | 25046m | 5.8m/s | 0°C | 0% | 0hPa | 0V | 00:00:00 | 00:00:00 | 00:00:00 | |
| KRY50SP | 2026-09-01 12:35:32 | 51.08844 | 17.81040 | 66° | 5km/h | 25040m | 7.2m/s | 0°C | 0% | 0hPa | 0V | 00:00:00 | 00:00:00 | 00:00:00 | |
| POL1PZ | 2026-09-01 12:35:30 | 51.08844 | 17.81035 | 79° | 5km/h | 25029m | 5.5m/s | 0°C | 0% | 0hPa | 0V | 00:00:00 | 00:00:00 | 00:00:00 | |
| KRY50SP | 2026-09-01 12:35:26 | 51.08836 | 17.81032 | 25° | 13km/h | 25005m | 7.0m/s | 0°C | 0% | 0hPa | 0V | 00:00:00 | 00:00:00 | 00:00:00 | |
| SQ6EMJ | 2026-09-01 12:35:23 | 51.08827 | 17.81024 | 12° | 9km/h | 24988m | 6.9m/s | 0°C | 0% | 0hPa | 0V | 00:00:00 | 00:00:00 | 00:00:00 | |
| KRY50SP | 2026-09-01 12:35:20 | 51.08823 | 17.81028 | 333° | 4km/h | 24973m | 5.9m/s | 0°C | 0% | 0hPa | 0V | 00:00:00 | 00:00:00 | 00:00:00 | |
| PETON7-10 | 2026-09-01 12:35:19 | 51.08822 | 17.81028 | 63° | 13km/h | 24967m | 6.3m/s | 0°C | 0% | 0hPa | 0V | 00:00:00 | 00:00:00 | 00:00:00 | |
| KRY50SP | 2026-09-01 12:35:14 | 51.08802 | 17.81027 | 339° | 24km/h | 24938m | 4.2m/s | 0°C | 0% | 0hPa | 0V | 00:00:00 | 00:00:00 | 00:00:00 | |
| KRY50SP | 2026-09-01 12:35:10 | 51.08791 | 17.81026 | 340° | 5km/h | 24912m | 5.9m/s | 0°C | 0% | 0hPa | 0V | 00:00:00 | 00:00:00 | 00:00:00 | |
| SP3BTT-10 | 2026-09-01 12:35:09 | 51.08791 | 17.81026 | 340° | 18km/h | 24912m | 5.9m/s | 0°C | 0% | 0hPa | 0V | 00:00:00 | 00:00:00 | 00:00:00 | |
| POL1PZ | 2026-09-01 12:35:07 | 51.08786 | 17.81029 | 349° | 20km/h | 24900m | 5.3m/s | 0°C | 0% | 0hPa | 0V | 00:00:00 | 00:00:00 | 00:00:00 | |
| SQ6EMJ | 2026-09-01 12:35:05 | 51.08775 | 17.81030 | 6° | 20km/h | 24888m | 5.9m/s | 0°C | 0% | 0hPa | 0V | 00:00:00 | 00:00:00 | 00:00:00 | |
| PETON7-10 | 2026-09-01 12:35:04 | 51.08771 | 17.81030 | 354° | 16km/h | 24884m | 4.1m/s | 0°C | 0% | 0hPa | 0V | 00:00:00 | 00:00:00 | 00:00:00 | |
| KRY50SP | 2026-09-01 12:34:59 | 51.08754 | 17.81047 | 13° | 7km/h | 24855m | 7.5m/s | 0°C | 0% | 0hPa | 0V | 00:00:00 | 00:00:00 | 00:00:00 | |
| SQ6EMJ | 2026-09-01 12:34:53 | 51.08719 | 17.81053 | 333° | 26km/h | 24815m | 4.9m/s | 0°C | 0% | 0hPa | 0V | 00:00:00 | 00:00:00 | 00:00:00 | |
| PETON7-10 | 2026-09-01 12:34:49 | 51.08703 | 17.81069 | 328° | 18km/h | 24798m | 5.8m/s | 0°C | 0% | 0hPa | 0V | 00:00:00 | 00:00:00 | 00:00:00 | |
| KRY50SP | 2026-09-01 12:34:48 | 51.08698 | 17.81073 | 336° | 18km/h | 24793m | 4.0m/s | 0°C | 0% | 0hPa | 0V | 00:00:00 | 00:00:00 | 00:00:00 | |
| SQ6EMJ | 2026-09-01 12:34:46 | 51.08692 | 17.81073 | 47° | 11km/h | 24781m | 7.2m/s | 0°C | 0% | 0hPa | 0V | 00:00:00 | 00:00:00 | 00:00:00 | |
| KRY50SP | 2026-09-01 12:34:42 | 51.08678 | 17.81079 | 314° | 37km/h | 24759m | 5.9m/s | 0°C | 0% | 0hPa | 0V | 00:00:00 | 00:00:00 | 00:00:00 | |
| KRY50SP | 2026-09-01 12:34:37 | 51.08656 | 17.81120 | 10° | 13km/h | 24727m | 5.4m/s | 0°C | 0% | 0hPa | 0V | 00:00:00 | 00:00:00 | 00:00:00 | |
| SQ6EMJ | 2026-09-01 12:34:36 | 51.08652 | 17.81120 | 349° | 18km/h | 24721m | 5.2m/s | 0°C | 0% | 0hPa | 0V | 00:00:00 | 00:00:00 | 00:00:00 | |
| PETON7-10 | 2026-09-01 12:34:34 | 51.08647 | 17.81124 | 325° | 18km/h | 24716m | 5.2m/s | 0°C | 0% | 0hPa | 0V | 00:00:00 | 00:00:00 | 00:00:00 | |
| KRY50SP | 2026-09-01 12:34:31 | 51.08640 | 17.81149 | 279° | 27km/h | 24699m | 4.6m/s | 0°C | 0% | 0hPa | 0V | 00:00:00 | 00:00:00 | 00:00:00 | |
| SQ6EMJ | 2026-09-01 12:34:29 | 51.08635 | 17.81169 | 304° | 27km/h | 24689m | 7.2m/s | 0°C | 0% | 0hPa | 0V | 00:00:00 | 00:00:00 | 00:00:00 | |
| POL1PZ | 2026-09-01 12:34:25 | 51.08619 | 17.81182 | 332° | 4km/h | 24664m | 4.1m/s | 0°C | 0% | 0hPa | 0V | 00:00:00 | 00:00:00 | 00:00:00 | |
| SQ6EMJ | 2026-09-01 12:34:23 | 51.08618 | 17.81189 | 276° | 16km/h | 24654m | 6.9m/s | 0°C | 0% | 0hPa | 0V | 00:00:00 | 00:00:00 | 00:00:00 | |
| SQ6EMJ | 2026-09-01 12:34:18 | 51.08616 | 17.81239 | 288° | 16km/h | 24626m | 4.9m/s | 0°C | 0% | 0hPa | 0V | 00:00:00 | 00:00:00 | 00:00:00 | |
| PETON7-10 | 2026-09-01 12:34:16 | 51.08611 | 17.81250 | 323° | 16km/h | 24613m | 6.0m/s | 0°C | 0% | 0hPa | 0V | 00:00:00 | 00:00:00 | 00:00:00 | |
| KRY50SP | 2026-09-01 12:34:15 | 51.08607 | 17.81254 | 330° | 15km/h | 24608m | 4.3m/s | 0°C | 0% | 0hPa | 0V | 00:00:00 | 00:00:00 | 00:00:00 | |
| PG1ADW-2 | 2026-09-01 12:34:14 | 51.08605 | 17.81257 | 315° | 13km/h | 24603m | 6.0m/s | 0°C | 0% | 0hPa | 0V | 00:00:00 | 00:00:00 | 00:00:00 | |
| SQ6EMJ | 2026-09-01 12:34:12 | 51.08606 | 17.81266 | 254° | 20km/h | 24592m | 5.2m/s | 0°C | 0% | 0hPa | 0V | 00:00:00 | 00:00:00 | 00:00:00 | |
| SP3BTT-10 | 2026-09-01 12:34:09 | 51.08607 | 17.81299 | 273° | 18km/h | 24575m | 3.3m/s | 0°C | 0% | 0hPa | 0V | 00:00:00 | 00:00:00 | 00:00:00 | |
| SQ6EMJ | 2026-09-01 12:34:04 | 51.08610 | 17.81335 | 280° | 7km/h | 24539m | 4.2m/s | 0°C | 0% | 0hPa | 0V | 00:00:00 | 00:00:00 | 00:00:00 | |
| KRY50SP | 2026-09-01 12:34:03 | 51.08610 | 17.81335 | 280° | 7km/h | 24539m | 4.2m/s | 0°C | 0% | 0hPa | 0V | 00:00:00 | 00:00:00 | 00:00:00 | |
| KRY50SP | 2026-09-01 12:33:57 | 51.08622 | 17.81369 | 258° | 22km/h | 24506m | 4.6m/s | 0°C | 0% | 0hPa | 0V | 00:00:00 | 00:00:00 | 00:00:00 | |
| POL1PZ | 2026-09-01 12:33:56 | 51.08624 | 17.81377 | 248° | 16km/h | 24501m | 4.4m/s | 0°C | 0% | 0hPa | 0V | 00:00:00 | 00:00:00 | 00:00:00 | |
| PG1ADW-2 | 2026-09-01 12:33:54 | 51.08629 | 17.81383 | 180° | 18km/h | 24489m | 5.6m/s | 0°C | 0% | 0hPa | 0V | 00:00:00 | 00:00:00 | 00:00:00 | |
| PETON7-10 | 2026-09-01 12:33:53 | 51.08634 | 17.81381 | 164° | 16km/h | 24478m | 7.1m/s | 0°C | 0% | 0hPa | 0V | 00:00:00 | 00:00:00 | 00:00:00 | |
| SQ6EMJ | 2026-09-01 12:33:51 | 51.08635 | 17.81382 | 232° | 5km/h | 24472m | 4.5m/s | 0°C | 0% | 0hPa | 0V | 00:00:00 | 00:00:00 | 00:00:00 | |
| OE5DRO-10 | 2026-09-01 12:33:50 | 51.08644 | 17.81391 | 210° | 18km/h | 24457m | 5.4m/s | 0°C | 0% | 0hPa | 0V | 00:00:00 | 00:00:00 | 00:00:00 | |
| KRY50SP | 2026-09-01 12:33:47 | 51.08649 | 17.81395 | 205° | 22km/h | 24451m | 5.1m/s | 0°C | 0% | 0hPa | 0V | 00:00:00 | 00:00:00 | 00:00:00 | |
| SQ6EMJ | 2026-09-01 12:33:45 | 51.08657 | 17.81402 | 210° | 15km/h | 24439m | 5.8m/s | 0°C | 0% | 0hPa | 0V | 00:00:00 | 00:00:00 | 00:00:00 | |
| KRY50SP | 2026-09-01 12:33:41 | 51.08673 | 17.81412 | 201° | 16km/h | 24417m | 4.9m/s | 0°C | 0% | 0hPa | 0V | 00:00:00 | 00:00:00 | 00:00:00 | |
| SQ6EMJ | 2026-09-01 12:33:40 | 51.08677 | 17.81414 | 209° | 13km/h | 24411m | 6.9m/s | 0°C | 0% | 0hPa | 0V | 00:00:00 | 00:00:00 | 00:00:00 | |
| POL1PZ | 2026-09-01 12:33:36 | 51.08701 | 17.81414 | 174° | 31km/h | 24384m | 5.1m/s | 0°C | 0% | 0hPa | 0V | 00:00:00 | 00:00:00 | 00:00:00 | |
| PETON7-10 | 2026-09-01 12:33:34 | 51.08707 | 17.81413 | 178° | 20km/h | 24378m | 5.9m/s | 0°C | 0% | 0hPa | 0V | 00:00:00 | 00:00:00 | 00:00:00 | |
| SQ6EMJ | 2026-09-01 12:33:33 | 51.08713 | 17.81414 | 192° | 18km/h | 24372m | 5.3m/s | 0°C | 0% | 0hPa | 0V | 00:00:00 | 00:00:00 | 00:00:00 | |
| OE5DRO-10 | 2026-09-01 12:33:30 | 51.08729 | 17.81417 | 174° | 15km/h | 24350m | 5.0m/s | 0°C | 0% | 0hPa | 0V | 00:00:00 | 00:00:00 | 00:00:00 | |
| PG1ADW-2 | 2026-09-01 12:33:29 | 51.08729 | 17.81417 | 174° | 20km/h | 24350m | 5.0m/s | 0°C | 0% | 0hPa | 0V | 00:00:00 | 00:00:00 | 00:00:00 | |
| KRY50SP | 2026-09-01 12:33:25 | 51.08747 | 17.81424 | 212° | 18km/h | 24329m | 4.2m/s | 0°C | 0% | 0hPa | 0V | 00:00:00 | 00:00:00 | 00:00:00 | |
| SQ6EMJ | 2026-09-01 12:33:22 | 51.08763 | 17.81426 | 165° | 24km/h | 24313m | 4.8m/s | 0°C | 0% | 0hPa | 0V | 00:00:00 | 00:00:00 | 00:00:00 | |
| KRY50SP | 2026-09-01 12:33:19 | 51.08774 | 17.81422 | 207° | 7km/h | 24296m | 5.4m/s | 0°C | 0% | 0hPa | 0V | 00:00:00 | 00:00:00 | 00:00:00 | |
| SQ6EMJ | 2026-09-01 12:33:16 | 51.08781 | 17.81426 | 188° | 11km/h | 24280m | 5.5m/s | 0°C | 0% | 0hPa | 0V | 00:00:00 | 00:00:00 | 00:00:00 | |
| PETON7-10 | 2026-09-01 12:33:15 | 51.08783 | 17.81426 | 190° | 11km/h | 24275m | 4.6m/s | 0°C | 0% | 0hPa | 0V | 00:00:00 | 00:00:00 | 00:00:00 | |
| KRY50SP | 2026-09-01 12:33:14 | 51.08786 | 17.81428 | 212° | 9km/h | 24269m | 6.9m/s | 0°C | 0% | 0hPa | 0V | 00:00:00 | 00:00:00 | 00:00:00 | |
| KRY50SP | 2026-09-01 12:33:09 | 51.08803 | 17.81437 | 170° | 22km/h | 24240m | 4.5m/s | 0°C | 0% | 0hPa | 0V | 00:00:00 | 00:00:00 | 00:00:00 | |
| SQ6EMJ | 2026-09-01 12:33:07 | 51.08812 | 17.81434 | 159° | 9km/h | 24229m | 6.2m/s | 0°C | 0% | 0hPa | 0V | 00:00:00 | 00:00:00 | 00:00:00 | |
| KRY50SP | 2026-09-01 12:33:03 | 51.08817 | 17.81423 | 154° | 9km/h | 24207m | 3.8m/s | 0°C | 0% | 0hPa | 0V | 00:00:00 | 00:00:00 | 00:00:00 | |
| SQ6EMJ | 2026-09-01 12:33:01 | 51.08824 | 17.81429 | 226° | 16km/h | 24190m | 4.6m/s | 0°C | 0% | 0hPa | 0V | 00:00:00 | 00:00:00 | 00:00:00 | |
| PETON7-10 | 2026-09-01 12:33:00 | 51.08824 | 17.81429 | 226° | 15km/h | 24190m | 4.6m/s | 0°C | 0% | 0hPa | 0V | 00:00:00 | 00:00:00 | 00:00:00 | |
| KRY50SP | 2026-09-01 12:32:57 | 51.08837 | 17.81428 | 143° | 27km/h | 24174m | 5.4m/s | 0°C | 0% | 0hPa | 0V | 00:00:00 | 00:00:00 | 00:00:00 | |
| KRY50SP | 2026-09-01 12:32:52 | 51.08847 | 17.81403 | 128° | 4km/h | 24145m | 6.3m/s | 0°C | 0% | 0hPa | 0V | 00:00:00 | 00:00:00 | 00:00:00 | |
| SQ6EMJ | 2026-09-01 12:32:49 | 51.08853 | 17.81403 | 202° | 13km/h | 24128m | 6.6m/s | 0°C | 0% | 0hPa | 0V | 00:00:00 | 00:00:00 | 00:00:00 | |
| KRY50SP | 2026-09-01 12:32:47 | 51.08858 | 17.81404 | 141° | 9km/h | 24117m | 4.4m/s | 0°C | 0% | 0hPa | 0V | 00:00:00 | 00:00:00 | 00:00:00 | |
| POL1PZ | 2026-09-01 12:32:44 | 51.08864 | 17.81384 | 100° | 26km/h | 24099m | 3.8m/s | 0°C | 0% | 0hPa | 0V | 00:00:00 | 00:00:00 | 00:00:00 | |
| PETON7-10 | 2026-09-01 12:32:43 | 51.08864 | 17.81374 | 82° | 16km/h | 24095m | 5.0m/s | 0°C | 0% | 0hPa | 0V | 00:00:00 | 00:00:00 | 00:00:00 | |
| KRY50SP | 2026-09-01 12:32:41 | 51.08860 | 17.81363 | 27° | 13km/h | 24083m | 5.3m/s | 0°C | 0% | 0hPa | 0V | 00:00:00 | 00:00:00 | 00:00:00 | |
| SQ6EMJ | 2026-09-01 12:32:37 | 51.08862 | 17.81356 | 145° | 20km/h | 24063m | 4.4m/s | 0°C | 0% | 0hPa | 0V | 00:00:00 | 00:00:00 | 00:00:00 | |
| KRY50SP | 2026-09-01 12:32:35 | 51.08867 | 17.81345 | 116° | 16km/h | 24053m | 6.2m/s | 0°C | 0% | 0hPa | 0V | 00:00:00 | 00:00:00 | 00:00:00 | |
| SQ6EMJ | 2026-09-01 12:32:31 | 51.08867 | 17.81322 | 84° | 15km/h | 24030m | 4.9m/s | 0°C | 0% | 0hPa | 0V | 00:00:00 | 00:00:00 | 00:00:00 | |
| KRY50SP | 2026-09-01 12:32:30 | 51.08867 | 17.81317 | 71° | 11km/h | 24025m | 4.9m/s | 0°C | 0% | 0hPa | 0V | 00:00:00 | 00:00:00 | 00:00:00 | |
| SQ6EMJ | 2026-09-01 12:32:26 | 51.08863 | 17.81301 | 123° | 16km/h | 23996m | 5.0m/s | 0°C | 0% | 0hPa | 0V | 00:00:00 | 00:00:00 | 00:00:00 | |
| KRY50SP | 2026-09-01 12:32:24 | 51.08865 | 17.81294 | 113° | 18km/h | 23991m | 3.6m/s | 0°C | 0% | 0hPa | 0V | 00:00:00 | 00:00:00 | 00:00:00 | |
| PG1ADW-2 | 2026-09-01 12:32:23 | 51.08865 | 17.81281 | 60° | 13km/h | 23980m | 6.6m/s | 0°C | 0% | 0hPa | 0V | 00:00:00 | 00:00:00 | 00:00:00 | |
| KRY50SP | 2026-09-01 12:32:20 | 51.08858 | 17.81269 | 57° | 9km/h | 23963m | 5.5m/s | 0°C | 0% | 0hPa | 0V | 00:00:00 | 00:00:00 | 00:00:00 | |
| SQ6EMJ | 2026-09-01 12:32:18 | 51.08854 | 17.81263 | 35° | 13km/h | 23952m | 6.9m/s | 0°C | 0% | 0hPa | 0V | 00:00:00 | 00:00:00 | 00:00:00 | |
| KRY50SP | 2026-09-01 12:32:13 | 51.08851 | 17.81251 | 115° | 13km/h | 23930m | 5.8m/s | 0°C | 0% | 0hPa | 0V | 00:00:00 | 00:00:00 | 00:00:00 | |
| SQ6EMJ | 2026-09-01 12:32:11 | 51.08852 | 17.81240 | 73° | 15km/h | 23921m | 5.5m/s | 0°C | 0% | 0hPa | 0V | 00:00:00 | 00:00:00 | 00:00:00 | |
| KRY50SP | 2026-09-01 12:32:07 | 51.08836 | 17.81226 | 31° | 15km/h | 23898m | 6.1m/s | 0°C | 0% | 0hPa | 0V | 00:00:00 | 00:00:00 | 00:00:00 | |
| SQ6EMJ | 2026-09-01 12:32:06 | 51.08833 | 17.81220 | 67° | 7km/h | 23887m | 4.4m/s | 0°C | 0% | 0hPa | 0V | 00:00:00 | 00:00:00 | 00:00:00 | |
| PG1ADW-2 | 2026-09-01 12:32:01 | 51.08829 | 17.81209 | 93° | 11km/h | 23865m | 6.5m/s | 0°C | 0% | 0hPa | 0V | 00:00:00 | 00:00:00 | 00:00:00 | |
| SQ6EMJ | 2026-09-01 12:32:00 | 51.08830 | 17.81206 | 111° | 9km/h | 23859m | 5.2m/s | 0°C | 0% | 0hPa | 0V | 00:00:00 | 00:00:00 | 00:00:00 | |
| KRY50SP | 2026-09-01 12:31:56 | 51.08825 | 17.81205 | 344° | 11km/h | 23838m | 3.8m/s | 0°C | 0% | 0hPa | 0V | 00:00:00 | 00:00:00 | 00:00:00 | |
| SQ6EMJ | 2026-09-01 12:31:55 | 51.08823 | 17.81203 | 103° | 7km/h | 23827m | 6.3m/s | 0°C | 0% | 0hPa | 0V | 00:00:00 | 00:00:00 | 00:00:00 | |
| SP3BTT-10 | 2026-09-01 12:31:53 | 51.08823 | 17.81199 | 95° | 11km/h | 23822m | 4.1m/s | 0°C | 0% | 0hPa | 0V | 00:00:00 | 00:00:00 | 00:00:00 | |
| KRY50SP | 2026-09-01 12:31:50 | 51.08818 | 17.81188 | 2° | 15km/h | 23805m | 5.1m/s | 0°C | 0% | 0hPa | 0V | 00:00:00 | 00:00:00 | 00:00:00 | |
| SQ6EMJ | 2026-09-01 12:31:47 | 51.08809 | 17.81195 | 330° | 9km/h | 23789m | 4.1m/s | 0°C | 0% | 0hPa | 0V | 00:00:00 | 00:00:00 | 00:00:00 | |
| KRY50SP | 2026-09-01 12:31:45 | 51.08803 | 17.81197 | 1° | 15km/h | 23778m | 6.2m/s | 0°C | 0% | 0hPa | 0V | 00:00:00 | 00:00:00 | 00:00:00 | |
| KRY50SP | 2026-09-01 12:31:40 | 51.08798 | 17.81187 | 0° | 0km/h | 23753m | 4.3m/s | 0°C | 0% | 0hPa | 0V | 00:00:00 | 00:00:00 | 00:00:00 | |
| KRY50SP | 2026-09-01 12:31:34 | 51.08783 | 17.81201 | 38° | 7km/h | 23721m | 4.4m/s | 0°C | 0% | 0hPa | 0V | 00:00:00 | 00:00:00 | 00:00:00 | |
| KRY50SP | 2026-09-01 12:31:28 | 51.08780 | 17.81205 | 251° | 16km/h | 23688m | 4.2m/s | 0°C | 0% | 0hPa | 0V | 00:00:00 | 00:00:00 | 00:00:00 | |
| KRY50SP | 2026-09-01 12:31:23 | 51.08771 | 17.81208 | 87° | 18km/h | 23661m | 6.8m/s | 0°C | 0% | 0hPa | 0V | 00:00:00 | 00:00:00 | 00:00:00 | |
| SQ6EMJ | 2026-09-01 12:31:22 | 51.08771 | 17.81200 | 113° | 20km/h | 23656m | 3.8m/s | 0°C | 0% | 0hPa | 0V | 00:00:00 | 00:00:00 | 00:00:00 | |
| PETON7-10 | 2026-09-01 12:31:18 | 51.08776 | 17.81191 | 251° | 11km/h | 23635m | 5.3m/s | 0°C | 0% | 0hPa | 0V | 00:00:00 | 00:00:00 | 00:00:00 | |
| KRY50SP | 2026-09-01 12:31:17 | 51.08777 | 17.81194 | 245° | 9km/h | 23629m | 6.6m/s | 0°C | 0% | 0hPa | 0V | 00:00:00 | 00:00:00 | 00:00:00 | |
| SQ6EMJ | 2026-09-01 12:31:16 | 51.08778 | 17.81197 | 247° | 7km/h | 23623m | 4.4m/s | 0°C | 0% | 0hPa | 0V | 00:00:00 | 00:00:00 | 00:00:00 | |
| PG1ADW-2 | 2026-09-01 12:31:13 | 51.08775 | 17.81200 | 32° | 13km/h | 23608m | 3.8m/s | 0°C | 0% | 0hPa | 0V | 00:00:00 | 00:00:00 | 00:00:00 | |
| KRY50SP | 2026-09-01 12:31:11 | 51.08773 | 17.81192 | 110° | 15km/h | 23598m | 6.8m/s | 0°C | 0% | 0hPa | 0V | 00:00:00 | 00:00:00 | 00:00:00 | |
| SQ6EMJ | 2026-09-01 12:31:10 | 51.08776 | 17.81186 | 137° | 20km/h | 23592m | 4.8m/s | 0°C | 0% | 0hPa | 0V | 00:00:00 | 00:00:00 | 00:00:00 | |
| SP3BTT-10 | 2026-09-01 12:31:07 | 51.08783 | 17.81183 | 301° | 15km/h | 23577m | 6.3m/s | 0°C | 0% | 0hPa | 0V | 00:00:00 | 00:00:00 | 00:00:00 | |
| KRY50SP | 2026-09-01 12:31:06 | 51.08780 | 17.81186 | 334° | 16km/h | 23572m | 4.5m/s | 0°C | 0% | 0hPa | 0V | 00:00:00 | 00:00:00 | 00:00:00 | |
| SQ6EMJ | 2026-09-01 12:31:05 | 51.08776 | 17.81188 | 354° | 16km/h | 23568m | 4.2m/s | 0°C | 0% | 0hPa | 0V | 00:00:00 | 00:00:00 | 00:00:00 | |
| S52SK | 2026-09-01 12:31:03 | 51.08771 | 17.81183 | 79° | 13km/h | 23558m | 5.8m/s | 0°C | 0% | 0hPa | 0V | 00:00:00 | 00:00:00 | 00:00:00 | |
| SQ6EMJ | 2026-09-01 12:31:00 | 51.08777 | 17.81166 | 116° | 9km/h | 23536m | 3.4m/s | 0°C | 0% | 0hPa | 0V | 00:00:00 | 00:00:00 | 00:00:00 | |
| OE5DRO-10 | 2026-09-01 12:30:56 | 51.08775 | 17.81151 | 54° | 13km/h | 23521m | 4.4m/s | 0°C | 0% | 0hPa | 0V | 00:00:00 | 00:00:00 | 00:00:00 | |
| KRY50SP | 2026-09-01 12:30:55 | 51.08769 | 17.81145 | 4° | 11km/h | 23509m | 6.1m/s | 0°C | 0% | 0hPa | 0V | 00:00:00 | 00:00:00 | 00:00:00 | |
| SQ6EMJ | 2026-09-01 12:30:54 | 51.08767 | 17.81145 | 7° | 13km/h | 23504m | 4.5m/s | 0°C | 0% | 0hPa | 0V | 00:00:00 | 00:00:00 | 00:00:00 | |
| KRY50SP | 2026-09-01 12:30:50 | 51.08756 | 17.81129 | 59° | 15km/h | 23482m | 6.1m/s | 0°C | 0% | 0hPa | 0V | 00:00:00 | 00:00:00 | 00:00:00 | |
| SQ6EMJ | 2026-09-01 12:30:49 | 51.08754 | 17.81124 | 47° | 11km/h | 23477m | 5.1m/s | 0°C | 0% | 0hPa | 0V | 00:00:00 | 00:00:00 | 00:00:00 | |
| PETON7-10 | 2026-09-01 12:30:43 | 51.08736 | 17.81095 | 37° | 18km/h | 23451m | 4.8m/s | 0°C | 0% | 0hPa | 0V | 00:00:00 | 00:00:00 | 00:00:00 | |
| SQ6EMJ | 2026-09-01 12:30:42 | 51.08733 | 17.81092 | 11° | 13km/h | 23445m | 6.6m/s | 0°C | 0% | 0hPa | 0V | 00:00:00 | 00:00:00 | 00:00:00 | |
| KRY50SP | 2026-09-01 12:30:38 | 51.08725 | 17.81093 | 50° | 13km/h | 23422m | 4.7m/s | 0°C | 0% | 0hPa | 0V | 00:00:00 | 00:00:00 | 00:00:00 | |
| SQ6EMJ | 2026-09-01 12:30:37 | 51.08722 | 17.81089 | 47° | 16km/h | 23418m | 4.2m/s | 0°C | 0% | 0hPa | 0V | 00:00:00 | 00:00:00 | 00:00:00 | |
| OE5DRO-10 | 2026-09-01 12:30:34 | 51.08712 | 17.81080 | 13° | 11km/h | 23401m | 5.2m/s | 0°C | 0% | 0hPa | 0V | 00:00:00 | 00:00:00 | 00:00:00 | |
| KRY50SP | 2026-09-01 12:30:32 | 51.08703 | 17.81075 | 28° | 18km/h | 23390m | 4.6m/s | 0°C | 0% | 0hPa | 0V | 00:00:00 | 00:00:00 | 00:00:00 | |
| SQ6EMJ | 2026-09-01 12:30:31 | 51.08700 | 17.81073 | 27° | 11km/h | 23386m | 4.3m/s | 0°C | 0% | 0hPa | 0V | 00:00:00 | 00:00:00 | 00:00:00 | |
| SQ6EMJ | 2026-09-01 12:30:26 | 51.08697 | 17.81068 | 71° | 16km/h | 23359m | 6.4m/s | 0°C | 0% | 0hPa | 0V | 00:00:00 | 00:00:00 | 00:00:00 | |
| SQ6EMJ | 2026-09-01 12:30:21 | 51.08678 | 17.81056 | 350° | 22km/h | 23331m | 6.1m/s | 0°C | 0% | 0hPa | 0V | 00:00:00 | 00:00:00 | 00:00:00 | |
| KRY50SP | 2026-09-01 12:30:20 | 51.08673 | 17.81057 | 356° | 20km/h | 23326m | 4.9m/s | 0°C | 0% | 0hPa | 0V | 00:00:00 | 00:00:00 | 00:00:00 | |
| OE5DRO-10 | 2026-09-01 12:30:18 | 51.08664 | 17.81056 | 70° | 11km/h | 23300m | 5.8m/s | 0°C | 0% | 0hPa | 0V | 00:00:00 | 00:00:00 | 00:00:00 | |
| KRY50SP | 2026-09-01 12:30:14 | 51.08662 | 17.81051 | 57° | 20km/h | 23293m | 6.3m/s | 0°C | 0% | 0hPa | 0V | 00:00:00 | 00:00:00 | 00:00:00 | |
| KRY50SP | 2026-09-01 12:30:10 | 51.08638 | 17.81042 | 336° | 22km/h | 23265m | 5.6m/s | 0°C | 0% | 0hPa | 0V | 00:00:00 | 00:00:00 | 00:00:00 | |
| PETON7-10 | 2026-09-01 12:30:08 | 51.08633 | 17.81045 | 350° | 13km/h | 23259m | 7.4m/s | 0°C | 0% | 0hPa | 0V | 00:00:00 | 00:00:00 | 00:00:00 | |
| SP3BTT-10 | 2026-09-01 12:30:06 | 51.08625 | 17.81044 | 9° | 7km/h | 23249m | 4.3m/s | 0°C | 0% | 0hPa | 0V | 00:00:00 | 00:00:00 | 00:00:00 | |
| SQ6EMJ | 2026-09-01 12:30:04 | 51.08621 | 17.81045 | 327° | 2km/h | 23236m | 5.2m/s | 0°C | 0% | 0hPa | 0V | 00:00:00 | 00:00:00 | 00:00:00 | |
| SQ6EMJ | 2026-09-01 12:29:58 | 51.08613 | 17.81048 | 299° | 18km/h | 23204m | 5.0m/s | 0°C | 0% | 0hPa | 0V | 00:00:00 | 00:00:00 | 00:00:00 | |
| KRY50SP | 2026-09-01 12:29:57 | 51.08611 | 17.81054 | 300° | 16km/h | 23200m | 3.8m/s | 0°C | 0% | 0hPa | 0V | 00:00:00 | 00:00:00 | 00:00:00 | |
| OE5DRO-10 | 2026-09-01 12:29:55 | 51.08607 | 17.81058 | 16° | 16km/h | 23189m | 5.6m/s | 0°C | 0% | 0hPa | 0V | 00:00:00 | 00:00:00 | 00:00:00 | |
| SQ6EMJ | 2026-09-01 12:29:54 | 51.08603 | 17.81054 | 48° | 7km/h | 23180m | 5.4m/s | 0°C | 0% | 0hPa | 0V | 00:00:00 | 00:00:00 | 00:00:00 | |
| PETON7-10 | 2026-09-01 12:29:51 | 51.08603 | 17.81054 | 250° | 7km/h | 23168m | 5.3m/s | 0°C | 0% | 0hPa | 0V | 00:00:00 | 00:00:00 | 00:00:00 | |
| SQ6EMJ | 2026-09-01 12:29:48 | 51.08602 | 17.81066 | 299° | 15km/h | 23152m | 4.7m/s | 0°C | 0% | 0hPa | 0V | 00:00:00 | 00:00:00 | 00:00:00 | |
| KRY50SP | 2026-09-01 12:29:45 | 51.08601 | 17.81081 | 245° | 11km/h | 23136m | 4.3m/s | 0°C | 0% | 0hPa | 0V | 00:00:00 | 00:00:00 | 00:00:00 | |
| SQ6EMJ | 2026-09-01 12:29:43 | 51.08603 | 17.81083 | 113° | 4km/h | 23125m | 6.4m/s | 0°C | 0% | 0hPa | 0V | 00:00:00 | 00:00:00 | 00:00:00 | |
| KRY50SP | 2026-09-01 12:29:40 | 51.08606 | 17.81079 | 195° | 9km/h | 23108m | 6.2m/s | 0°C | 0% | 0hPa | 0V | 00:00:00 | 00:00:00 | 00:00:00 | |
| SQ6EMJ | 2026-09-01 12:29:38 | 51.08610 | 17.81085 | 243° | 11km/h | 23097m | 5.5m/s | 0°C | 0% | 0hPa | 0V | 00:00:00 | 00:00:00 | 00:00:00 | |
| KRY50SP | 2026-09-01 12:29:35 | 51.08612 | 17.81094 | 258° | 7km/h | 23082m | 4.4m/s | 0°C | 0% | 0hPa | 0V | 00:00:00 | 00:00:00 | 00:00:00 | |
| PETON7-10 | 2026-09-01 12:29:33 | 51.08617 | 17.81102 | 193° | 13km/h | 23063m | 4.9m/s | 0°C | 0% | 0hPa | 0V | 00:00:00 | 00:00:00 | 00:00:00 | |
| KRY50SP | 2026-09-01 12:29:29 | 51.08623 | 17.81099 | 161° | 11km/h | 23046m | 5.1m/s | 0°C | 0% | 0hPa | 0V | 00:00:00 | 00:00:00 | 00:00:00 | |
| SQ6EMJ | 2026-09-01 12:29:27 | 51.08628 | 17.81099 | 193° | 13km/h | 23035m | 5.1m/s | 0°C | 0% | 0hPa | 0V | 00:00:00 | 00:00:00 | 00:00:00 | |
| KRY50SP | 2026-09-01 12:29:24 | 51.08633 | 17.81099 | 0° | 0km/h | 23019m | 3.7m/s | 0°C | 0% | 0hPa | 0V | 00:00:00 | 00:00:00 | 00:00:00 | |
| POL1PZ | 2026-09-01 12:29:23 | 51.08633 | 17.81099 | 0° | 0km/h | 23015m | 5.6m/s | 0°C | 0% | 0hPa | 0V | 00:00:00 | 00:00:00 | 00:00:00 | |
| SP3BTT-10 | 2026-09-01 12:29:21 | 51.08636 | 17.81100 | 170° | 18km/h | 23003m | 3.5m/s | 0°C | 0% | 0hPa | 0V | 00:00:00 | 00:00:00 | 00:00:00 | |
| KRY50SP | 2026-09-01 12:29:18 | 51.08639 | 17.81088 | 95° | 16km/h | 22987m | 4.5m/s | 0°C | 0% | 0hPa | 0V | 00:00:00 | 00:00:00 | 00:00:00 | |
| SQ6EMJ | 2026-09-01 12:29:15 | 51.08643 | 17.81077 | 183° | 7km/h | 22971m | 4.3m/s | 0°C | 0% | 0hPa | 0V | 00:00:00 | 00:00:00 | 00:00:00 | |
| KRY50SP | 2026-09-01 12:29:12 | 51.08643 | 17.81080 | 2° | 7km/h | 22954m | 5.2m/s | 0°C | 0% | 0hPa | 0V | 00:00:00 | 00:00:00 | 00:00:00 | |
| SQ6EMJ | 2026-09-01 12:29:09 | 51.08641 | 17.81074 | 98° | 11km/h | 22937m | 4.5m/s | 0°C | 0% | 0hPa | 0V | 00:00:00 | 00:00:00 | 00:00:00 | |
| KRY50SP | 2026-09-01 12:29:06 | 51.08639 | 17.81057 | 58° | 15km/h | 22921m | 4.6m/s | 0°C | 0% | 0hPa | 0V | 00:00:00 | 00:00:00 | 00:00:00 | |
| SQ6EMJ | 2026-09-01 12:29:03 | 51.08636 | 17.81053 | 250° | 5km/h | 22904m | 5.6m/s | 0°C | 0% | 0hPa | 0V | 00:00:00 | 00:00:00 | 00:00:00 | |
| POL1PZ | 2026-09-01 12:29:02 | 51.08636 | 17.81055 | 286° | 7km/h | 22898m | 5.3m/s | 0°C | 0% | 0hPa | 0V | 00:00:00 | 00:00:00 | 00:00:00 | |
| KRY50SP | 2026-09-01 12:29:00 | 51.08632 | 17.81056 | 20° | 13km/h | 22887m | 4.7m/s | 0°C | 0% | 0hPa | 0V | 00:00:00 | 00:00:00 | 00:00:00 | |
| SQ6EMJ | 2026-09-01 12:28:57 | 51.08626 | 17.81046 | 60° | 13km/h | 22869m | 4.4m/s | 0°C | 0% | 0hPa | 0V | 00:00:00 | 00:00:00 | 00:00:00 | |
| KRY50SP | 2026-09-01 12:28:54 | 51.08616 | 17.81036 | 8° | 18km/h | 22853m | 4.7m/s | 0°C | 0% | 0hPa | 0V | 00:00:00 | 00:00:00 | 00:00:00 | |
| SQ6EMJ | 2026-09-01 12:28:52 | 51.08608 | 17.81038 | 338° | 11km/h | 22842m | 6.4m/s | 0°C | 0% | 0hPa | 0V | 00:00:00 | 00:00:00 | 00:00:00 | |
| KRY50SP | 2026-09-01 12:28:48 | 51.08597 | 17.81034 | 31° | 26km/h | 22820m | 5.9m/s | 0°C | 0% | 0hPa | 0V | 00:00:00 | 00:00:00 | 00:00:00 | |
| PETON7-10 | 2026-09-01 12:28:45 | 51.08575 | 17.81014 | 11° | 27km/h | 22798m | 5.0m/s | 0°C | 0% | 0hPa | 0V | 00:00:00 | 00:00:00 | 00:00:00 | |
| KRY50SP | 2026-09-01 12:28:43 | 51.08569 | 17.81013 | 3° | 24km/h | 22792m | 6.9m/s | 0°C | 0% | 0hPa | 0V | 00:00:00 | 00:00:00 | 00:00:00 | |
| POL1PZ | 2026-09-01 12:28:42 | 51.08563 | 17.81013 | 353° | 26km/h | 22786m | 5.0m/s | 0°C | 0% | 0hPa | 0V | 00:00:00 | 00:00:00 | 00:00:00 | |
| SQ6EMJ | 2026-09-01 12:28:40 | 51.08552 | 17.81019 | 335° | 20km/h | 22775m | 6.7m/s | 0°C | 0% | 0hPa | 0V | 00:00:00 | 00:00:00 | 00:00:00 | |
| KRY50SP | 2026-09-01 12:28:37 | 51.08536 | 17.81022 | 11° | 27km/h | 22760m | 7.0m/s | 0°C | 0% | 0hPa | 0V | 00:00:00 | 00:00:00 | 00:00:00 | |
| SQ6EMJ | 2026-09-01 12:28:35 | 51.08521 | 17.81013 | 31° | 31km/h | 22750m | 4.0m/s | 0°C | 0% | 0hPa | 0V | 00:00:00 | 00:00:00 | 00:00:00 | |
| KRY50SP | 2026-09-01 12:28:32 | 51.08508 | 17.81003 | 347° | 15km/h | 22734m | 4.6m/s | 0°C | 0% | 0hPa | 0V | 00:00:00 | 00:00:00 | 00:00:00 | |
| SQ6EMJ | 2026-09-01 12:28:30 | 51.08497 | 17.81010 | 337° | 27km/h | 22722m | 4.9m/s | 0°C | 0% | 0hPa | 0V | 00:00:00 | 00:00:00 | 00:00:00 | |
| SQ6EMJ | 2026-09-01 12:28:25 | 51.08471 | 17.81018 | 15° | 24km/h | 22694m | 6.6m/s | 0°C | 0% | 0hPa | 0V | 00:00:00 | 00:00:00 | 00:00:00 | |
| KRY50SP | 2026-09-01 12:28:24 | 51.08464 | 17.81015 | 16° | 26km/h | 22688m | 3.9m/s | 0°C | 0% | 0hPa | 0V | 00:00:00 | 00:00:00 | 00:00:00 | |
| SP3BTT-10 | 2026-09-01 12:28:21 | 51.08451 | 17.81011 | 342° | 18km/h | 22674m | 5.6m/s | 0°C | 0% | 0hPa | 0V | 00:00:00 | 00:00:00 | 00:00:00 | |
| SQ6EMJ | 2026-09-01 12:28:19 | 51.08446 | 17.81016 | 332° | 16km/h | 22664m | 4.9m/s | 0°C | 0% | 0hPa | 0V | 00:00:00 | 00:00:00 | 00:00:00 | |
| KRY50SP | 2026-09-01 12:28:18 | 51.08441 | 17.81019 | 344° | 26km/h | 22658m | 6.8m/s | 0°C | 0% | 0hPa | 0V | 00:00:00 | 00:00:00 | 00:00:00 | |
| SQ6EMJ | 2026-09-01 12:28:14 | 51.08414 | 17.81020 | 18° | 16km/h | 22637m | 5.9m/s | 0°C | 0% | 0hPa | 0V | 00:00:00 | 00:00:00 | 00:00:00 | |
| KRY50SP | 2026-09-01 12:28:12 | 51.08409 | 17.81018 | 348° | 9km/h | 22628m | 4.2m/s | 0°C | 0% | 0hPa | 0V | 00:00:00 | 00:00:00 | 00:00:00 | |
| SQ6EMJ | 2026-09-01 12:28:08 | 51.08387 | 17.81040 | 322° | 31km/h | 22607m | 3.9m/s | 0°C | 0% | 0hPa | 0V | 00:00:00 | 00:00:00 | 00:00:00 | |
| KRY50SP | 2026-09-01 12:28:06 | 51.08379 | 17.81051 | 325° | 11km/h | 22597m | 5.8m/s | 0°C | 0% | 0hPa | 0V | 00:00:00 | 00:00:00 | 00:00:00 | |
| SQ6EMJ | 2026-09-01 12:28:03 | 51.08364 | 17.81047 | 3° | 22km/h | 22576m | 4.1m/s | 0°C | 0% | 0hPa | 0V | 00:00:00 | 00:00:00 | 00:00:00 | |
| KRY50SP | 2026-09-01 12:28:01 | 51.08359 | 17.81047 | 348° | 22km/h | 22571m | 6.4m/s | 0°C | 0% | 0hPa | 0V | 00:00:00 | 00:00:00 | 00:00:00 | |
| POL1PZ | 2026-09-01 12:28:00 | 51.08355 | 17.81051 | 327° | 18km/h | 22564m | 7.2m/s | 0°C | 0% | 0hPa | 0V | 00:00:00 | 00:00:00 | 00:00:00 | |
| SQ6EMJ | 2026-09-01 12:27:57 | 51.08343 | 17.81066 | 329° | 22km/h | 22547m | 4.8m/s | 0°C | 0% | 0hPa | 0V | 00:00:00 | 00:00:00 | 00:00:00 | |
| KRY50SP | 2026-09-01 12:27:55 | 51.08335 | 17.81072 | 347° | 13km/h | 22536m | 6.3m/s | 0°C | 0% | 0hPa | 0V | 00:00:00 | 00:00:00 | 00:00:00 | |
| OE5DRO-10 | 2026-09-01 12:27:54 | 51.08333 | 17.81072 | 5° | 16km/h | 22531m | 5.6m/s | 0°C | 0% | 0hPa | 0V | 00:00:00 | 00:00:00 | 00:00:00 | |
| SQ6EMJ | 2026-09-01 12:27:51 | 51.08324 | 17.81069 | 7° | 20km/h | 22515m | 5.6m/s | 0°C | 0% | 0hPa | 0V | 00:00:00 | 00:00:00 | 00:00:00 | |
| KRY50SP | 2026-09-01 12:27:50 | 51.08319 | 17.81069 | 357° | 22km/h | 22510m | 3.9m/s | 0°C | 0% | 0hPa | 0V | 00:00:00 | 00:00:00 | 00:00:00 | |
| KRY50SP | 2026-09-01 12:27:44 | 51.08298 | 17.81091 | 332° | 18km/h | 22478m | 4.7m/s | 0°C | 0% | 0hPa | 0V | 00:00:00 | 00:00:00 | 00:00:00 | |
| SQ6EMJ | 2026-09-01 12:27:41 | 51.08282 | 17.81104 | 346° | 22km/h | 22456m | 7.5m/s | 0°C | 0% | 0hPa | 0V | 00:00:00 | 00:00:00 | 00:00:00 | |
| POL1PZ | 2026-09-01 12:27:40 | 51.08282 | 17.81104 | 346° | 22km/h | 22456m | 7.5m/s | 0°C | 0% | 0hPa | 0V | 00:00:00 | 00:00:00 | 00:00:00 | |
| KRY50SP | 2026-09-01 12:27:38 | 51.08271 | 17.81110 | 333° | 22km/h | 22445m | 4.2m/s | 0°C | 0% | 0hPa | 0V | 00:00:00 | 00:00:00 | 00:00:00 | |
| SP3BTT-10 | 2026-09-01 12:27:36 | 51.08264 | 17.81123 | 285° | 16km/h | 22434m | 5.6m/s | 0°C | 0% | 0hPa | 0V | 00:00:00 | 00:00:00 | 00:00:00 | |
| SQ6EMJ | 2026-09-01 12:27:34 | 51.08261 | 17.81139 | 300° | 20km/h | 22424m | 5.9m/s | 0°C | 0% | 0hPa | 0V | 00:00:00 | 00:00:00 | 00:00:00 | |
| KRY50SP | 2026-09-01 12:27:33 | 51.08258 | 17.81146 | 322° | 24km/h | 22418m | 5.6m/s | 0°C | 0% | 0hPa | 0V | 00:00:00 | 00:00:00 | 00:00:00 | |
| OE5DRO-10 | 2026-09-01 12:27:32 | 51.08252 | 17.81151 | 329° | 16km/h | 22413m | 5.1m/s | 0°C | 0% | 0hPa | 0V | 00:00:00 | 00:00:00 | 00:00:00 | |
| SQ6EMJ | 2026-09-01 12:27:28 | 51.08236 | 17.81169 | 347° | 9km/h | 22390m | 6.4m/s | 0°C | 0% | 0hPa | 0V | 00:00:00 | 00:00:00 | 00:00:00 | |
| KRY50SP | 2026-09-01 12:27:27 | 51.08234 | 17.81169 | 2° | 4km/h | 22385m | 4.8m/s | 0°C | 0% | 0hPa | 0V | 00:00:00 | 00:00:00 | 00:00:00 | |
| KRY50SP | 2026-09-01 12:27:22 | 51.08233 | 17.81194 | 309° | 20km/h | 22360m | 5.5m/s | 0°C | 0% | 0hPa | 0V | 00:00:00 | 00:00:00 | 00:00:00 | |
| POL1PZ | 2026-09-01 12:27:20 | 51.08225 | 17.81199 | 12° | 13km/h | 22350m | 4.7m/s | 0°C | 0% | 0hPa | 0V | 00:00:00 | 00:00:00 | 00:00:00 | |
| KRY50SP | 2026-09-01 12:27:18 | 51.08225 | 17.81199 | 222° | 13km/h | 22335m | 5.2m/s | 0°C | 0% | 0hPa | 0V | 00:00:00 | 00:00:00 | 00:00:00 | |
| SQ6EMJ | 2026-09-01 12:27:17 | 51.08227 | 17.81204 | 243° | 18km/h | 22330m | 5.0m/s | 0°C | 0% | 0hPa | 0V | 00:00:00 | 00:00:00 | 00:00:00 | |
| OE5DRO-10 | 2026-09-01 12:27:13 | 51.08227 | 17.81224 | 317° | 11km/h | 22310m | 6.1m/s | 0°C | 0% | 0hPa | 0V | 00:00:00 | 00:00:00 | 00:00:00 | |
| SQ6EMJ | 2026-09-01 12:27:11 | 51.08227 | 17.81224 | 0° | 0km/h | 22304m | 5.2m/s | 0°C | 0% | 0hPa | 0V | 00:00:00 | 00:00:00 | 00:00:00 | |
| SQ6EMJ | 2026-09-01 12:27:06 | 51.08227 | 17.81242 | 270° | 9km/h | 22278m | 6.0m/s | 0°C | 0% | 0hPa | 0V | 00:00:00 | 00:00:00 | 00:00:00 | |
| POL1PZ | 2026-09-01 12:27:00 | 51.08236 | 17.81260 | 219° | 9km/h | 22245m | 7.2m/s | 0°C | 0% | 0hPa | 0V | 00:00:00 | 00:00:00 | 00:00:00 | |
| KRY50SP | 2026-09-01 12:26:54 | 51.08246 | 17.81276 | 200° | 16km/h | 22211m | 7.5m/s | 0°C | 0% | 0hPa | 0V | 00:00:00 | 00:00:00 | 00:00:00 | |
| OE5DRO-10 | 2026-09-01 12:26:51 | 51.08259 | 17.81278 | 169° | 13km/h | 22185m | 5.3m/s | 0°C | 0% | 0hPa | 0V | 00:00:00 | 00:00:00 | 00:00:00 | |
| KRY50SP | 2026-09-01 12:26:49 | 51.08259 | 17.81277 | 169° | 5km/h | 22185m | 5.3m/s | 0°C | 0% | 0hPa | 0V | 00:00:00 | 00:00:00 | 00:00:00 | |
| SQ6EMJ | 2026-09-01 12:26:44 | 51.08273 | 17.81277 | 216° | 15km/h | 22157m | 4.2m/s | 0°C | 0% | 0hPa | 0V | 00:00:00 | 00:00:00 | 00:00:00 | |
| KRY50SP | 2026-09-01 12:26:43 | 51.08276 | 17.81280 | 205° | 15km/h | 22153m | 4.5m/s | 0°C | 0% | 0hPa | 0V | 00:00:00 | 00:00:00 | 00:00:00 | |
| KRY50SP | 2026-09-01 12:26:38 | 51.08296 | 17.81269 | 161° | 11km/h | 22124m | 5.0m/s | 0°C | 0% | 0hPa | 0V | 00:00:00 | 00:00:00 | 00:00:00 | |
| SP3BTT-10 | 2026-09-01 12:26:35 | 51.08305 | 17.81263 | 163° | 16km/h | 22108m | 5.6m/s | 0°C | 0% | 0hPa | 0V | 00:00:00 | 00:00:00 | 00:00:00 | |
| KRY50SP | 2026-09-01 12:26:33 | 51.08315 | 17.81262 | 190° | 20km/h | 22097m | 6.5m/s | 0°C | 0% | 0hPa | 0V | 00:00:00 | 00:00:00 | 00:00:00 | |
| KRY50SP | 2026-09-01 12:26:28 | 51.08345 | 17.81247 | 140° | 31km/h | 22071m | 4.7m/s | 0°C | 0% | 0hPa | 0V | 00:00:00 | 00:00:00 | 00:00:00 | |
| SQ6EMJ | 2026-09-01 12:26:27 | 51.08350 | 17.81240 | 145° | 26km/h | 22066m | 5.7m/s | 0°C | 0% | 0hPa | 0V | 00:00:00 | 00:00:00 | 00:00:00 | |
| KRY50SP | 2026-09-01 12:26:23 | 51.08380 | 17.81221 | 153° | 29km/h | 22040m | 4.2m/s | 0°C | 0% | 0hPa | 0V | 00:00:00 | 00:00:00 | 00:00:00 | |
| SQ6EMJ | 2026-09-01 12:26:20 | 51.08390 | 17.81210 | 139° | 16km/h | 22029m | 5.8m/s | 0°C | 0% | 0hPa | 0V | 00:00:00 | 00:00:00 | 00:00:00 | |
| POL1PZ | 2026-09-01 12:26:18 | 51.08394 | 17.81198 | 112° | 24km/h | 22019m | 5.9m/s | 0°C | 0% | 0hPa | 0V | 00:00:00 | 00:00:00 | 00:00:00 | |
| KRY50SP | 2026-09-01 12:26:16 | 51.08401 | 17.81179 | 129° | 27km/h | 22008m | 4.1m/s | 0°C | 0% | 0hPa | 0V | 00:00:00 | 00:00:00 | 00:00:00 | |
| SQ6EMJ | 2026-09-01 12:26:14 | 51.08410 | 17.81167 | 157° | 22km/h | 21998m | 5.4m/s | 0°C | 0% | 0hPa | 0V | 00:00:00 | 00:00:00 | 00:00:00 | |
| KRY50SP | 2026-09-01 12:26:11 | 51.08428 | 17.81156 | 149° | 29km/h | 21982m | 4.9m/s | 0°C | 0% | 0hPa | 0V | 00:00:00 | 00:00:00 | 00:00:00 | |
| OE5DRO-10 | 2026-09-01 12:26:10 | 51.08433 | 17.81149 | 136° | 22km/h | 21977m | 4.3m/s | 0°C | 0% | 0hPa | 0V | 00:00:00 | 00:00:00 | 00:00:00 | |
| KRY50SP | 2026-09-01 12:26:06 | 51.08442 | 17.81116 | 108° | 26km/h | 21955m | 6.5m/s | 0°C | 0% | 0hPa | 0V | 00:00:00 | 00:00:00 | 00:00:00 | |
| SQ6EMJ | 2026-09-01 12:26:05 | 51.08444 | 17.81106 | 121° | 27km/h | 21949m | 5.6m/s | 0°C | 0% | 0hPa | 0V | 00:00:00 | 00:00:00 | 00:00:00 | |
| KRY50SP | 2026-09-01 12:26:00 | 51.08464 | 17.81071 | 127° | 27km/h | 21923m | 6.9m/s | 0°C | 0% | 0hPa | 0V | 00:00:00 | 00:00:00 | 00:00:00 | |
| POL1PZ | 2026-09-01 12:25:57 | 51.08472 | 17.81039 | 97° | 24km/h | 21907m | 6.6m/s | 0°C | 0% | 0hPa | 0V | 00:00:00 | 00:00:00 | 00:00:00 | |
| SQ6EMJ | 2026-09-01 12:25:54 | 51.08472 | 17.81013 | 101° | 24km/h | 21891m | 6.1m/s | 0°C | 0% | 0hPa | 0V | 00:00:00 | 00:00:00 | 00:00:00 | |
| OE5DRO-10 | 2026-09-01 12:25:51 | 51.08482 | 17.80987 | 127° | 16km/h | 21869m | 3.3m/s | 0°C | 0% | 0hPa | 0V | 00:00:00 | 00:00:00 | 00:00:00 | |
| SQ6EMJ | 2026-09-01 12:25:49 | 51.08487 | 17.80972 | 112° | 26km/h | 21858m | 5.7m/s | 0°C | 0% | 0hPa | 0V | 00:00:00 | 00:00:00 | 00:00:00 | |
| KRY50SP | 2026-09-01 12:25:48 | 51.08487 | 17.80972 | 112° | 26km/h | 21858m | 5.7m/s | 0°C | 0% | 0hPa | 0V | 00:00:00 | 00:00:00 | 00:00:00 | |
| KRY50SP | 2026-09-01 12:25:43 | 51.08486 | 17.80931 | 84° | 22km/h | 21831m | 6.6m/s | 0°C | 0% | 0hPa | 0V | 00:00:00 | 00:00:00 | 00:00:00 | |
| SQ6EMJ | 2026-09-01 12:25:42 | 51.08486 | 17.80923 | 99° | 20km/h | 21825m | 4.7m/s | 0°C | 0% | 0hPa | 0V | 00:00:00 | 00:00:00 | 00:00:00 | |
| KRY50SP | 2026-09-01 12:25:38 | 51.08492 | 17.80902 | 113° | 15km/h | 21804m | 5.9m/s | 0°C | 0% | 0hPa | 0V | 00:00:00 | 00:00:00 | 00:00:00 | |
| POL1PZ | 2026-09-01 12:25:36 | 51.08493 | 17.80886 | 87° | 24km/h | 21794m | 4.4m/s | 0°C | 0% | 0hPa | 0V | 00:00:00 | 00:00:00 | 00:00:00 | |
| SQ6EMJ | 2026-09-01 12:25:35 | 51.08492 | 17.80877 | 74° | 20km/h | 21789m | 5.4m/s | 0°C | 0% | 0hPa | 0V | 00:00:00 | 00:00:00 | 00:00:00 | |
| KRY50SP | 2026-09-01 12:25:32 | 51.08486 | 17.80861 | 74° | 13km/h | 21773m | 4.9m/s | 0°C | 0% | 0hPa | 0V | 00:00:00 | 00:00:00 | 00:00:00 | |
| SQ6EMJ | 2026-09-01 12:25:29 | 51.08486 | 17.80839 | 90° | 20km/h | 21757m | 4.5m/s | 0°C | 0% | 0hPa | 0V | 00:00:00 | 00:00:00 | 00:00:00 | |
| KRY50SP | 2026-09-01 12:25:27 | 51.08484 | 17.80827 | 39° | 13km/h | 21746m | 5.5m/s | 0°C | 0% | 0hPa | 0V | 00:00:00 | 00:00:00 | 00:00:00 | |
| SQ6EMJ | 2026-09-01 12:25:25 | 51.08477 | 17.80819 | 65° | 13km/h | 21730m | 6.4m/s | 0°C | 0% | 0hPa | 0V | 00:00:00 | 00:00:00 | 00:00:00 | |
| KRY50SP | 2026-09-01 12:25:21 | 51.08475 | 17.80807 | 62° | 5km/h | 21713m | 5.3m/s | 0°C | 0% | 0hPa | 0V | 00:00:00 | 00:00:00 | 00:00:00 | |
| SP3BTT-10 | 2026-09-01 12:25:20 | 51.08474 | 17.80805 | 56° | 18km/h | 21708m | 4.4m/s | 0°C | 0% | 0hPa | 0V | 00:00:00 | 00:00:00 | 00:00:00 | |
| SQ6EMJ | 2026-09-01 12:25:18 | 51.08472 | 17.80797 | 67° | 15km/h | 21696m | 5.4m/s | 0°C | 0% | 0hPa | 0V | 00:00:00 | 00:00:00 | 00:00:00 | |
| POL1PZ | 2026-09-01 12:25:16 | 51.08466 | 17.80789 | 29° | 16km/h | 21685m | 6.9m/s | 0°C | 0% | 0hPa | 0V | 00:00:00 | 00:00:00 | 00:00:00 | |
| KRY50SP | 2026-09-01 12:25:15 | 51.08462 | 17.80786 | 17° | 18km/h | 21680m | 4.3m/s | 0°C | 0% | 0hPa | 0V | 00:00:00 | 00:00:00 | 00:00:00 | |
| SQ6EMJ | 2026-09-01 12:25:13 | 51.08453 | 17.80779 | 50° | 11km/h | 21664m | 5.3m/s | 0°C | 0% | 0hPa | 0V | 00:00:00 | 00:00:00 | 00:00:00 | |
| KRY50SP | 2026-09-01 12:25:09 | 51.08447 | 17.80775 | 355° | 9km/h | 21648m | 3.8m/s | 0°C | 0% | 0hPa | 0V | 00:00:00 | 00:00:00 | 00:00:00 | |
| SQ6EMJ | 2026-09-01 12:25:08 | 51.08442 | 17.80774 | 32° | 9km/h | 21638m | 5.4m/s | 0°C | 0% | 0hPa | 0V | 00:00:00 | 00:00:00 | 00:00:00 | |
| KRY50SP | 2026-09-01 12:25:04 | 51.08433 | 17.80773 | 340° | 20km/h | 21622m | 5.3m/s | 0°C | 0% | 0hPa | 0V | 00:00:00 | 00:00:00 | 00:00:00 | |
| SQ6EMJ | 2026-09-01 12:25:01 | 51.08421 | 17.80780 | 6° | 11km/h | 21608m | 6.0m/s | 0°C | 0% | 0hPa | 0V | 00:00:00 | 00:00:00 | 00:00:00 | |
| OE5DRO-10 | 2026-09-01 12:24:58 | 51.08409 | 17.80777 | 359° | 20km/h | 21587m | 4.9m/s | 0°C | 0% | 0hPa | 0V | 00:00:00 | 00:00:00 | 00:00:00 | |
| SQ6EMJ | 2026-09-01 12:24:56 | 51.08406 | 17.80777 | 5° | 15km/h | 21581m | 6.4m/s | 0°C | 0% | 0hPa | 0V | 00:00:00 | 00:00:00 | 00:00:00 | |
| POL1PZ | 2026-09-01 12:24:55 | 51.08402 | 17.80776 | 17° | 13km/h | 21575m | 6.0m/s | 0°C | 0% | 0hPa | 0V | 00:00:00 | 00:00:00 | 00:00:00 | |
| KRY50SP | 2026-09-01 12:24:52 | 51.08390 | 17.80777 | 345° | 24km/h | 21560m | 6.3m/s | 0°C | 0% | 0hPa | 0V | 00:00:00 | 00:00:00 | 00:00:00 | |
| SQ6EMJ | 2026-09-01 12:24:50 | 51.08378 | 17.80782 | 353° | 22km/h | 21549m | 6.3m/s | 0°C | 0% | 0hPa | 0V | 00:00:00 | 00:00:00 | 00:00:00 | |
| KRY50SP | 2026-09-01 12:24:47 | 51.08358 | 17.80773 | 19° | 24km/h | 21528m | 5.5m/s | 0°C | 0% | 0hPa | 0V | 00:00:00 | 00:00:00 | 00:00:00 | |
| SQ6EMJ | 2026-09-01 12:24:46 | 51.08352 | 17.80770 | 19° | 22km/h | 21523m | 3.7m/s | 0°C | 0% | 0hPa | 0V | 00:00:00 | 00:00:00 | 00:00:00 | |
| KRY50SP | 2026-09-01 12:24:40 | 51.08335 | 17.80756 | 13° | 20km/h | 21496m | 5.4m/s | 0°C | 0% | 0hPa | 0V | 00:00:00 | 00:00:00 | 00:00:00 | |
| SQ6EMJ | 2026-09-01 12:24:39 | 51.08329 | 17.80754 | 21° | 24km/h | 21491m | 4.1m/s | 0°C | 0% | 0hPa | 0V | 00:00:00 | 00:00:00 | 00:00:00 | |
| OE5DRO-10 | 2026-09-01 12:24:38 | 51.08323 | 17.80749 | 31° | 26km/h | 21486m | 5.9m/s | 0°C | 0% | 0hPa | 0V | 00:00:00 | 00:00:00 | 00:00:00 | |
| SP3BTT-10 | 2026-09-01 12:24:35 | 51.08310 | 17.80727 | 45° | 18km/h | 21470m | 5.7m/s | 0°C | 0% | 0hPa | 0V | 00:00:00 | 00:00:00 | 00:00:00 | |
| POL1PZ | 2026-09-01 12:24:34 | 51.08306 | 17.80722 | 29° | 18km/h | 21465m | 5.5m/s | 0°C | 0% | 0hPa | 0V | 00:00:00 | 00:00:00 | 00:00:00 | |
| SQ6EMJ | 2026-09-01 12:24:33 | 51.08302 | 17.80719 | 21° | 16km/h | 21459m | 4.7m/s | 0°C | 0% | 0hPa | 0V | 00:00:00 | 00:00:00 | 00:00:00 | |
| KRY50SP | 2026-09-01 12:24:28 | 51.08284 | 17.80692 | 40° | 26km/h | 21434m | 5.7m/s | 0°C | 0% | 0hPa | 0V | 00:00:00 | 00:00:00 | 00:00:00 | |
| SQ6EMJ | 2026-09-01 12:24:27 | 51.08279 | 17.80687 | 30° | 22km/h | 21429m | 4.9m/s | 0°C | 0% | 0hPa | 0V | 00:00:00 | 00:00:00 | 00:00:00 | |
| KRY50SP | 2026-09-01 12:24:23 | 51.08267 | 17.80663 | 63° | 24km/h | 21408m | 4.3m/s | 0°C | 0% | 0hPa | 0V | 00:00:00 | 00:00:00 | 00:00:00 | |
| SQ6EMJ | 2026-09-01 12:24:22 | 51.08263 | 17.80655 | 52° | 24km/h | 21403m | 6.3m/s | 0°C | 0% | 0hPa | 0V | 00:00:00 | 00:00:00 | 00:00:00 | |
| KRY50SP | 2026-09-01 12:24:17 | 51.08243 | 17.80619 | 61° | 20km/h | 21376m | 5.4m/s | 0°C | 0% | 0hPa | 0V | 00:00:00 | 00:00:00 | 00:00:00 | |
| POL1PZ | 2026-09-01 12:24:14 | 51.08237 | 17.80606 | 42° | 11km/h | 21360m | 3.5m/s | 0°C | 0% | 0hPa | 0V | 00:00:00 | 00:00:00 | 00:00:00 | |
| SQ6EMJ | 2026-09-01 12:24:11 | 51.08229 | 17.80591 | 47° | 22km/h | 21344m | 4.5m/s | 0°C | 0% | 0hPa | 0V | 00:00:00 | 00:00:00 | 00:00:00 | |
| KRY50SP | 2026-09-01 12:24:06 | 51.08205 | 17.80569 | 40° | 18km/h | 21317m | 5.0m/s | 0°C | 0% | 0hPa | 0V | 00:00:00 | 00:00:00 | 00:00:00 | |
| SQ6EMJ | 2026-09-01 12:24:05 | 51.08201 | 17.80565 | 36° | 16km/h | 21311m | 5.8m/s | 0°C | 0% | 0hPa | 0V | 00:00:00 | 00:00:00 | 00:00:00 | |
| KRY50SP | 2026-09-01 12:24:01 | 51.08191 | 17.80549 | 80° | 15km/h | 21290m | 6.0m/s | 0°C | 0% | 0hPa | 0V | 00:00:00 | 00:00:00 | 00:00:00 | |
| SQ6EMJ | 2026-09-01 12:24:00 | 51.08190 | 17.80542 | 71° | 16km/h | 21285m | 3.8m/s | 0°C | 0% | 0hPa | 0V | 00:00:00 | 00:00:00 | 00:00:00 | |
| KRY50SP | 2026-09-01 12:23:55 | 51.08170 | 17.80511 | 57° | 29km/h | 21259m | 4.7m/s | 0°C | 0% | 0hPa | 0V | 00:00:00 | 00:00:00 | 00:00:00 | |
| SQ6EMJ | 2026-09-01 12:23:54 | 51.08166 | 17.80502 | 60° | 27km/h | 21254m | 4.2m/s | 0°C | 0% | 0hPa | 0V | 00:00:00 | 00:00:00 | 00:00:00 | |
| POL1PZ | 2026-09-01 12:23:53 | 51.08163 | 17.80493 | 53° | 24km/h | 21249m | 5.7m/s | 0°C | 0% | 0hPa | 0V | 00:00:00 | 00:00:00 | 00:00:00 | |
| OE5DRO-10 | 2026-09-01 12:23:50 | 51.08149 | 17.80468 | 70° | 15km/h | 21227m | 5.5m/s | 0°C | 0% | 0hPa | 0V | 00:00:00 | 00:00:00 | 00:00:00 | |
| SQ6EMJ | 2026-09-01 12:23:47 | 51.08145 | 17.80455 | 53° | 15km/h | 21217m | 7.2m/s | 0°C | 0% | 0hPa | 0V | 00:00:00 | 00:00:00 | 00:00:00 | |
| KRY50SP | 2026-09-01 12:23:44 | 51.08134 | 17.80446 | 30° | 20km/h | 21200m | 5.9m/s | 0°C | 0% | 0hPa | 0V | 00:00:00 | 00:00:00 | 00:00:00 | |
| SQ6EMJ | 2026-09-01 12:23:42 | 51.08125 | 17.80436 | 35° | 20km/h | 21190m | 5.2m/s | 0°C | 0% | 0hPa | 0V | 00:00:00 | 00:00:00 | 00:00:00 | |
| KRY50SP | 2026-09-01 12:23:38 | 51.08111 | 17.80420 | 53° | 18km/h | 21168m | 5.1m/s | 0°C | 0% | 0hPa | 0V | 00:00:00 | 00:00:00 | 00:00:00 | |
| SQ6EMJ | 2026-09-01 12:23:36 | 51.08106 | 17.80410 | 39° | 13km/h | 21158m | 6.0m/s | 0°C | 0% | 0hPa | 0V | 00:00:00 | 00:00:00 | 00:00:00 | |
| SP3BTT-10 | 2026-09-01 12:23:34 | 51.08099 | 17.80410 | 340° | 18km/h | 21148m | 4.3m/s | 0°C | 0% | 0hPa | 0V | 00:00:00 | 00:00:00 | 00:00:00 | |
| KRY50SP | 2026-09-01 12:23:33 | 51.08091 | 17.80413 | 4° | 18km/h | 21137m | 5.9m/s | 0°C | 0% | 0hPa | 0V | 00:00:00 | 00:00:00 | 00:00:00 | |
| SQ6EMJ | 2026-09-01 12:23:30 | 51.08084 | 17.80410 | 26° | 11km/h | 21127m | 5.4m/s | 0°C | 0% | 0hPa | 0V | 00:00:00 | 00:00:00 | 00:00:00 | |
| KRY50SP | 2026-09-01 12:23:26 | 51.08079 | 17.80396 | 60° | 18km/h | 21104m | 6.4m/s | 0°C | 0% | 0hPa | 0V | 00:00:00 | 00:00:00 | 00:00:00 | |
| OE5DRO-10 | 2026-09-01 12:23:25 | 51.08076 | 17.80390 | 51° | 18km/h | 21099m | 4.2m/s | 0°C | 0% | 0hPa | 0V | 00:00:00 | 00:00:00 | 00:00:00 | |
| SQ6EMJ | 2026-09-01 12:23:24 | 51.08073 | 17.80385 | 39° | 16km/h | 21093m | 6.6m/s | 0°C | 0% | 0hPa | 0V | 00:00:00 | 00:00:00 | 00:00:00 | |
| KRY50SP | 2026-09-01 12:23:20 | 51.08060 | 17.80372 | 52° | 18km/h | 21073m | 5.2m/s | 0°C | 0% | 0hPa | 0V | 00:00:00 | 00:00:00 | 00:00:00 | |
| SQ6EMJ | 2026-09-01 12:23:18 | 51.08056 | 17.80361 | 75° | 11km/h | 21062m | 6.4m/s | 0°C | 0% | 0hPa | 0V | 00:00:00 | 00:00:00 | 00:00:00 | |
| KRY50SP | 2026-09-01 12:23:15 | 51.08048 | 17.80347 | 40° | 24km/h | 21040m | 5.8m/s | 0°C | 0% | 0hPa | 0V | 00:00:00 | 00:00:00 | 00:00:00 | |
| SQ6EMJ | 2026-09-01 12:23:14 | 51.08043 | 17.80341 | 37° | 26km/h | 21035m | 4.5m/s | 0°C | 0% | 0hPa | 0V | 00:00:00 | 00:00:00 | 00:00:00 | |
| POL1PZ | 2026-09-01 12:23:12 | 51.08038 | 17.80336 | 37° | 22km/h | 21030m | 5.9m/s | 0°C | 0% | 0hPa | 0V | 00:00:00 | 00:00:00 | 00:00:00 | |
| KRY50SP | 2026-09-01 12:23:08 | 51.08029 | 17.80307 | 83° | 27km/h | 21008m | 5.2m/s | 0°C | 0% | 0hPa | 0V | 00:00:00 | 00:00:00 | 00:00:00 | |
| OE5DRO-10 | 2026-09-01 12:23:03 | 51.08018 | 17.80271 | 54° | 26km/h | 20976m | 4.5m/s | 0°C | 0% | 0hPa | 0V | 00:00:00 | 00:00:00 | 00:00:00 | |
| SQ6EMJ | 2026-09-01 12:23:02 | 51.08018 | 17.80271 | 55° | 24km/h | 20976m | 4.5m/s | 0°C | 0% | 0hPa | 0V | 00:00:00 | 00:00:00 | 00:00:00 | |
| KRY50SP | 2026-09-01 12:22:57 | 51.08007 | 17.80225 | 70° | 27km/h | 20949m | 6.2m/s | 0°C | 0% | 0hPa | 0V | 00:00:00 | 00:00:00 | 00:00:00 | |
| KRY50SP | 2026-09-01 12:22:52 | 51.07996 | 17.80187 | 68° | 20km/h | 20922m | 6.1m/s | 0°C | 0% | 0hPa | 0V | 00:00:00 | 00:00:00 | 00:00:00 | |
| POL1PZ | 2026-09-01 12:22:51 | 51.07993 | 17.80178 | 67° | 29km/h | 20916m | 5.6m/s | 0°C | 0% | 0hPa | 0V | 00:00:00 | 00:00:00 | 00:00:00 | |
| KRY50SP | 2026-09-01 12:22:46 | 51.07980 | 17.80120 | 63° | 29km/h | 20889m | 6.1m/s | 0°C | 0% | 0hPa | 0V | 00:00:00 | 00:00:00 | 00:00:00 | |
| SQ6EMJ | 2026-09-01 12:22:45 | 51.07976 | 17.80109 | 62° | 35km/h | 20883m | 5.1m/s | 0°C | 0% | 0hPa | 0V | 00:00:00 | 00:00:00 | 00:00:00 | |
| OE5DRO-10 | 2026-09-01 12:22:44 | 51.07968 | 17.80086 | 68° | 26km/h | 20873m | 6.5m/s | 0°C | 0% | 0hPa | 0V | 00:00:00 | 00:00:00 | 00:00:00 | |
| KRY50SP | 2026-09-01 12:22:41 | 51.07965 | 17.80066 | 79° | 22km/h | 20862m | 5.2m/s | 0°C | 0% | 0hPa | 0V | 00:00:00 | 00:00:00 | 00:00:00 | |
| SQ6EMJ | 2026-09-01 12:22:38 | 51.07958 | 17.80037 | 70° | 27km/h | 20845m | 3.7m/s | 0°C | 0% | 0hPa | 0V | 00:00:00 | 00:00:00 | 00:00:00 | |
| KRY50SP | 2026-09-01 12:22:36 | 51.07955 | 17.80017 | 83° | 24km/h | 20834m | 6.2m/s | 0°C | 0% | 0hPa | 0V | 00:00:00 | 00:00:00 | 00:00:00 | |
| SQ6EMJ | 2026-09-01 12:22:33 | 51.07950 | 17.79976 | 72° | 24km/h | 20811m | 5.1m/s | 0°C | 0% | 0hPa | 0V | 00:00:00 | 00:00:00 | 00:00:00 | |
| POL1PZ | 2026-09-01 12:22:32 | 51.07949 | 17.79968 | 72° | 18km/h | 20806m | 6.5m/s | 0°C | 0% | 0hPa | 0V | 00:00:00 | 00:00:00 | 00:00:00 | |
| SQ6EMJ | 2026-09-01 12:22:27 | 51.07942 | 17.79937 | 70° | 24km/h | 20785m | 4.1m/s | 0°C | 0% | 0hPa | 0V | 00:00:00 | 00:00:00 | 00:00:00 | |
| KRY50SP | 2026-09-01 12:22:25 | 51.07940 | 17.79922 | 82° | 15km/h | 20774m | 5.8m/s | 0°C | 0% | 0hPa | 0V | 00:00:00 | 00:00:00 | 00:00:00 | |
| OE5DRO-10 | 2026-09-01 12:22:24 | 51.07936 | 17.79902 | 68° | 11km/h | 20756m | 5.5m/s | 0°C | 0% | 0hPa | 0V | 00:00:00 | 00:00:00 | 00:00:00 | |
| SQ6EMJ | 2026-09-01 12:22:23 | 51.07936 | 17.79902 | 69° | 22km/h | 20756m | 5.5m/s | 0°C | 0% | 0hPa | 0V | 00:00:00 | 00:00:00 | 00:00:00 | |
| SP3BTT-10 | 2026-09-01 12:22:19 | 51.07931 | 17.79884 | 66° | 13km/h | 20740m | 5.0m/s | 0°C | 0% | 0hPa | 0V | 00:00:00 | 00:00:00 | 00:00:00 | |
| SQ6EMJ | 2026-09-01 12:22:16 | 51.07928 | 17.79866 | 83° | 20km/h | 20723m | 4.2m/s | 0°C | 0% | 0hPa | 0V | 00:00:00 | 00:00:00 | 00:00:00 | |
| KRY50SP | 2026-09-01 12:22:13 | 51.07927 | 17.79850 | 58° | 7km/h | 20707m | 4.1m/s | 0°C | 0% | 0hPa | 0V | 00:00:00 | 00:00:00 | 00:00:00 | |
| POL1PZ | 2026-09-01 12:22:11 | 51.07919 | 17.79839 | 39° | 18km/h | 20690m | 4.8m/s | 0°C | 0% | 0hPa | 0V | 00:00:00 | 00:00:00 | 00:00:00 | |
| KRY50SP | 2026-09-01 12:22:08 | 51.07914 | 17.79832 | 69° | 9km/h | 20678m | 5.4m/s | 0°C | 0% | 0hPa | 0V | 00:00:00 | 00:00:00 | 00:00:00 | |
| SQ6EMJ | 2026-09-01 12:22:05 | 51.07912 | 17.79820 | 58° | 5km/h | 20658m | 4.5m/s | 0°C | 0% | 0hPa | 0V | 00:00:00 | 00:00:00 | 00:00:00 | |
| KRY50SP | 2026-09-01 12:22:02 | 51.07911 | 17.79820 | 292° | 5km/h | 20647m | 5.3m/s | 0°C | 0% | 0hPa | 0V | 00:00:00 | 00:00:00 | 00:00:00 | |
| KRY50SP | 2026-09-01 12:21:57 | 51.07902 | 17.79815 | 73° | 9km/h | 20622m | 5.8m/s | 0°C | 0% | 0hPa | 0V | 00:00:00 | 00:00:00 | 00:00:00 | |
| SQ6EMJ | 2026-09-01 12:21:54 | 51.07904 | 17.79810 | 150° | 5km/h | 20607m | 5.4m/s | 0°C | 0% | 0hPa | 0V | 00:00:00 | 00:00:00 | 00:00:00 | |
| KRY50SP | 2026-09-01 12:21:51 | 51.07903 | 17.79810 | 308° | 7km/h | 20591m | 6.4m/s | 0°C | 0% | 0hPa | 0V | 00:00:00 | 00:00:00 | 00:00:00 | |
| POL1PZ | 2026-09-01 12:21:49 | 51.07901 | 17.79817 | 311° | 11km/h | 20580m | 4.5m/s | 0°C | 0% | 0hPa | 0V | 00:00:00 | 00:00:00 | 00:00:00 | |
| KRY50SP | 2026-09-01 12:21:45 | 51.07891 | 17.79825 | 319° | 5km/h | 20560m | 6.0m/s | 0°C | 0% | 0hPa | 0V | 00:00:00 | 00:00:00 | 00:00:00 | |
| SQ6EMJ | 2026-09-01 12:21:43 | 51.07891 | 17.79828 | 230° | 7km/h | 20549m | 4.5m/s | 0°C | 0% | 0hPa | 0V | 00:00:00 | 00:00:00 | 00:00:00 | |
| KRY50SP | 2026-09-01 12:21:40 | 51.07890 | 17.79837 | 317° | 11km/h | 20535m | 3.2m/s | 0°C | 0% | 0hPa | 0V | 00:00:00 | 00:00:00 | 00:00:00 | |
| SQ6EMJ | 2026-09-01 12:21:37 | 51.07889 | 17.79845 | 235° | 4km/h | 20520m | 3.9m/s | 0°C | 0% | 0hPa | 0V | 00:00:00 | 00:00:00 | 00:00:00 | |
| KRY50SP | 2026-09-01 12:21:35 | 51.07889 | 17.79847 | 320° | 2km/h | 20509m | 5.7m/s | 0°C | 0% | 0hPa | 0V | 00:00:00 | 00:00:00 | 00:00:00 | |
| SQ6EMJ | 2026-09-01 12:21:31 | 51.07888 | 17.79838 | 62° | 9km/h | 20489m | 4.9m/s | 0°C | 0% | 0hPa | 0V | 00:00:00 | 00:00:00 | 00:00:00 | |
| KRY50SP | 2026-09-01 12:21:30 | 51.07886 | 17.79835 | 29° | 13km/h | 20483m | 6.4m/s | 0°C | 0% | 0hPa | 0V | 00:00:00 | 00:00:00 | 00:00:00 | |
| POL1PZ | 2026-09-01 12:21:28 | 51.07879 | 17.79833 | 360° | 11km/h | 20473m | 5.4m/s | 0°C | 0% | 0hPa | 0V | 00:00:00 | 00:00:00 | 00:00:00 | |
| SQ6EMJ | 2026-09-01 12:21:26 | 51.07875 | 17.79835 | 323° | 5km/h | 20458m | 5.6m/s | 0°C | 0% | 0hPa | 0V | 00:00:00 | 00:00:00 | 00:00:00 | |
| KRY50SP | 2026-09-01 12:21:24 | 51.07874 | 17.79836 | 2° | 9km/h | 20452m | 5.5m/s | 0°C | 0% | 0hPa | 0V | 00:00:00 | 00:00:00 | 00:00:00 | |
| SP3BTT-10 | 2026-09-01 12:21:19 | 51.07863 | 17.79810 | 49° | 22km/h | 20427m | 6.4m/s | 0°C | 0% | 0hPa | 0V | 00:00:00 | 00:00:00 | 00:00:00 | |
| KRY50SP | 2026-09-01 12:21:18 | 51.07859 | 17.79805 | 33° | 20km/h | 20422m | 5.2m/s | 0°C | 0% | 0hPa | 0V | 00:00:00 | 00:00:00 | 00:00:00 | |
| KRY50SP | 2026-09-01 12:21:13 | 51.07847 | 17.79794 | 41° | 9km/h | 20395m | 5.5m/s | 0°C | 0% | 0hPa | 0V | 00:00:00 | 00:00:00 | 00:00:00 | |
| SQ6EMJ | 2026-09-01 12:21:12 | 51.07846 | 17.79790 | 52° | 16km/h | 20390m | 4.2m/s | 0°C | 0% | 0hPa | 0V | 00:00:00 | 00:00:00 | 00:00:00 | |
| KRY50SP | 2026-09-01 12:21:08 | 51.07838 | 17.79760 | 63° | 26km/h | 20369m | 6.7m/s | 0°C | 0% | 0hPa | 0V | 00:00:00 | 00:00:00 | 00:00:00 | |
| POL1PZ | 2026-09-01 12:21:07 | 51.07834 | 17.79752 | 49° | 26km/h | 20364m | 5.1m/s | 0°C | 0% | 0hPa | 0V | 00:00:00 | 00:00:00 | 00:00:00 | |
| SQ6EMJ | 2026-09-01 12:21:04 | 51.07821 | 17.79729 | 58° | 13km/h | 20344m | 4.6m/s | 0°C | 0% | 0hPa | 0V | 00:00:00 | 00:00:00 | 00:00:00 | |
| KRY50SP | 2026-09-01 12:21:03 | 51.07819 | 17.79724 | 48° | 16km/h | 20338m | 5.8m/s | 0°C | 0% | 0hPa | 0V | 00:00:00 | 00:00:00 | 00:00:00 | |
| OE5DRO-10 | 2026-09-01 12:20:59 | 51.07797 | 17.79675 | 51° | 27km/h | 20309m | 5.3m/s | 0°C | 0% | 0hPa | 0V | 00:00:00 | 00:00:00 | 00:00:00 | |
| KRY50SP | 2026-09-01 12:20:56 | 51.07797 | 17.79675 | 51° | 24km/h | 20309m | 5.4m/s | 0°C | 0% | 0hPa | 0V | 00:00:00 | 00:00:00 | 00:00:00 | |
| SQ6EMJ | 2026-09-01 12:20:52 | 51.07777 | 17.79646 | 57° | 26km/h | 20289m | 5.2m/s | 0°C | 0% | 0hPa | 0V | 00:00:00 | 00:00:00 | 00:00:00 | |
| KRY50SP | 2026-09-01 12:20:51 | 51.07773 | 17.79637 | 66° | 27km/h | 20284m | 4.4m/s | 0°C | 0% | 0hPa | 0V | 00:00:00 | 00:00:00 | 00:00:00 | |
| POL1PZ | 2026-09-01 12:20:47 | 51.07755 | 17.79598 | 36° | 29km/h | 20265m | 3.8m/s | 0°C | 0% | 0hPa | 0V | 00:00:00 | 00:00:00 | 00:00:00 | |
| KRY50SP | 2026-09-01 12:20:46 | 51.07749 | 17.79593 | 28° | 22km/h | 20259m | 6.4m/s | 0°C | 0% | 0hPa | 0V | 00:00:00 | 00:00:00 | 00:00:00 | |
| KRY50SP | 2026-09-01 12:20:40 | 51.07717 | 17.79565 | 51° | 27km/h | 20229m | 5.6m/s | 0°C | 0% | 0hPa | 0V | 00:00:00 | 00:00:00 | 00:00:00 | |
| KRY50SP | 2026-09-01 12:20:36 | 51.07690 | 17.79540 | 361° | 20km/h | 20204m | 6.6m/s | 0°C | 0% | 0hPa | 0V | 00:00:00 | 00:00:00 | 00:00:00 | |
| SP3BTT-10 | 2026-09-01 12:20:33 | 51.07681 | 17.79539 | 12° | 18km/h | 20194m | 4.2m/s | 0°C | 0% | 0hPa | 0V | 00:00:00 | 00:00:00 | 00:00:00 | |
| KRY50SP | 2026-09-01 12:20:31 | 51.07663 | 17.79523 | 43° | 31km/h | 20177m | 5.2m/s | 0°C | 0% | 0hPa | 0V | 00:00:00 | 00:00:00 | 00:00:00 | |
| POL1PZ | 2026-09-01 12:20:26 | 51.07643 | 17.79498 | 17° | 26km/h | 20157m | 5.5m/s | 0°C | 0% | 0hPa | 0V | 00:00:00 | 00:00:00 | 00:00:00 | |
| KRY50SP | 2026-09-01 12:20:24 | 51.07632 | 17.79496 | 360° | 20km/h | 20147m | 5.0m/s | 0°C | 0% | 0hPa | 0V | 00:00:00 | 00:00:00 | 00:00:00 | |
| KRY50SP | 2026-09-01 12:20:18 | 51.07604 | 17.79475 | 44° | 26km/h | 20120m | 6.0m/s | 0°C | 0% | 0hPa | 0V | 00:00:00 | 00:00:00 | 00:00:00 | |
| KRY50SP | 2026-09-01 12:20:13 | 51.07583 | 17.79458 | 10° | 18km/h | 20096m | 4.4m/s | 0°C | 0% | 0hPa | 0V | 00:00:00 | 00:00:00 | 00:00:00 | |
| KRY50SP | 2026-09-01 12:20:08 | 51.07564 | 17.79440 | 36° | 22km/h | 20070m | 3.6m/s | 0°C | 0% | 0hPa | 0V | 00:00:00 | 00:00:00 | 00:00:00 | |
| POL1PZ | 2026-09-01 12:20:05 | 51.07555 | 17.79430 | 23° | 11km/h | 20057m | 3.9m/s | 0°C | 0% | 0hPa | 0V | 00:00:00 | 00:00:00 | 00:00:00 | |
| KRY50SP | 2026-09-01 12:20:02 | 51.07545 | 17.79430 | 352° | 16km/h | 20042m | 4.4m/s | 0°C | 0% | 0hPa | 0V | 00:00:00 | 00:00:00 | 00:00:00 | |
| KRY50SP | 2026-09-01 12:19:57 | 51.07527 | 17.79426 | 22° | 18km/h | 20017m | 4.1m/s | 0°C | 0% | 0hPa | 0V | 00:00:00 | 00:00:00 | 00:00:00 | |
| KRY50SP | 2026-09-01 12:19:51 | 51.07506 | 17.79415 | 13° | 15km/h | 19988m | 4.5m/s | 0°C | 0% | 0hPa | 0V | 00:00:00 | 00:00:00 | 00:00:00 | |
| KRY50SP | 2026-09-01 12:19:46 | 51.07494 | 17.79406 | 11° | 15km/h | 19963m | 3.8m/s | 0°C | 0% | 0hPa | 0V | 00:00:00 | 00:00:00 | 00:00:00 | |
| POL1PZ | 2026-09-01 12:19:45 | 51.07491 | 17.79406 | 3° | 11km/h | 19960m | 6.0m/s | 0°C | 0% | 0hPa | 0V | 00:00:00 | 00:00:00 | 00:00:00 | |
| KRY50SP | 2026-09-01 12:19:40 | 51.07474 | 17.79409 | 9° | 16km/h | 19935m | 5.7m/s | 0°C | 0% | 0hPa | 0V | 00:00:00 | 00:00:00 | 00:00:00 | |
| OE5DRO-10 | 2026-09-01 12:19:38 | 51.07467 | 17.79406 | 31° | 13km/h | 19924m | 3.8m/s | 0°C | 0% | 0hPa | 0V | 00:00:00 | 00:00:00 | 00:00:00 | |
| KRY50SP | 2026-09-01 12:19:34 | 51.07453 | 17.79394 | 17° | 11km/h | 19906m | 5.9m/s | 0°C | 0% | 0hPa | 0V | 00:00:00 | 00:00:00 | 00:00:00 | |
| SP3BTT-10 | 2026-09-01 12:19:33 | 51.07451 | 17.79393 | 352° | 16km/h | 19899m | 6.6m/s | 0°C | 0% | 0hPa | 0V | 00:00:00 | 00:00:00 | 00:00:00 | |
| KRY50SP | 2026-09-01 12:19:29 | 51.07439 | 17.79396 | 361° | 15km/h | 19878m | 5.2m/s | 0°C | 0% | 0hPa | 0V | 00:00:00 | 00:00:00 | 00:00:00 | |
| POL1PZ | 2026-09-01 12:19:24 | 51.07425 | 17.79379 | 42° | 16km/h | 19853m | 4.6m/s | 0°C | 0% | 0hPa | 0V | 00:00:00 | 00:00:00 | 00:00:00 | |
| KRY50SP | 2026-09-01 12:19:23 | 51.07422 | 17.79376 | 43° | 9km/h | 19847m | 6.0m/s | 0°C | 0% | 0hPa | 0V | 00:00:00 | 00:00:00 | 00:00:00 | |
| KRY50SP | 2026-09-01 12:19:17 | 51.07415 | 17.79369 | 60° | 7km/h | 19818m | 5.6m/s | 0°C | 0% | 0hPa | 0V | 00:00:00 | 00:00:00 | 00:00:00 | |
| KRY50SP | 2026-09-01 12:19:11 | 51.07405 | 17.79333 | 93° | 15km/h | 19788m | 5.1m/s | 0°C | 0% | 0hPa | 0V | 00:00:00 | 00:00:00 | 00:00:00 | |
| OE5DRO-10 | 2026-09-01 12:19:08 | 51.07404 | 17.79320 | 53° | 20km/h | 19774m | 6.0m/s | 0°C | 0% | 0hPa | 0V | 00:00:00 | 00:00:00 | 00:00:00 | |
| KRY50SP | 2026-09-01 12:19:05 | 51.07398 | 17.79305 | 68° | 20km/h | 19759m | 4.5m/s | 0°C | 0% | 0hPa | 0V | 00:00:00 | 00:00:00 | 00:00:00 | |
| POL1PZ | 2026-09-01 12:19:03 | 51.07393 | 17.79288 | 60° | 27km/h | 19749m | 5.9m/s | 0°C | 0% | 0hPa | 0V | 00:00:00 | 00:00:00 | 00:00:00 | |
| KRY50SP | 2026-09-01 12:19:00 | 51.07386 | 17.79263 | 80° | 15km/h | 19734m | 5.4m/s | 0°C | 0% | 0hPa | 0V | 00:00:00 | 00:00:00 | 00:00:00 | |
| KRY50SP | 2026-09-01 12:18:54 | 51.07377 | 17.79231 | 63° | 24km/h | 19705m | 5.3m/s | 0°C | 0% | 0hPa | 0V | 00:00:00 | 00:00:00 | 00:00:00 | |
| KRY50SP | 2026-09-01 12:18:48 | 51.07359 | 17.79192 | 55° | 13km/h | 19674m | 5.5m/s | 0°C | 0% | 0hPa | 0V | 00:00:00 | 00:00:00 | 00:00:00 | |
| POL1PZ | 2026-09-01 12:18:43 | 51.07351 | 17.79163 | 76° | 18km/h | 19651m | 3.9m/s | 0°C | 0% | 0hPa | 0V | 00:00:00 | 00:00:00 | 00:00:00 | |
| KRY50SP | 2026-09-01 12:18:38 | 51.07339 | 17.79135 | 70° | 18km/h | 19627m | 4.1m/s | 0°C | 0% | 0hPa | 0V | 00:00:00 | 00:00:00 | 00:00:00 | |
| SQ6EMJ | 2026-09-01 12:18:35 | 51.07330 | 17.79113 | 59° | 20km/h | 19611m | 4.4m/s | 0°C | 0% | 0hPa | 0V | 00:00:00 | 00:00:00 | 00:00:00 | |
| KRY50SP | 2026-09-01 12:18:32 | 51.07324 | 17.79093 | 60° | 16km/h | 19597m | 5.0m/s | 0°C | 0% | 0hPa | 0V | 00:00:00 | 00:00:00 | 00:00:00 | |
| KRY50SP | 2026-09-01 12:18:27 | 51.07311 | 17.79067 | 69° | 18km/h | 19572m | 3.6m/s | 0°C | 0% | 0hPa | 0V | 00:00:00 | 00:00:00 | 00:00:00 | |
| POL1PZ | 2026-09-01 12:18:23 | 51.07300 | 17.79038 | 61° | 24km/h | 19552m | 7.6m/s | 0°C | 0% | 0hPa | 0V | 00:00:00 | 00:00:00 | 00:00:00 | |
| KRY50SP | 2026-09-01 12:18:22 | 51.07297 | 17.79030 | 64° | 18km/h | 19546m | 5.2m/s | 0°C | 0% | 0hPa | 0V | 00:00:00 | 00:00:00 | 00:00:00 | |
| SP3BTT-10 | 2026-09-01 12:18:18 | 51.07285 | 17.79007 | 56° | 16km/h | 19525m | 5.4m/s | 0°C | 0% | 0hPa | 0V | 00:00:00 | 00:00:00 | 00:00:00 | |
| KRY50SP | 2026-09-01 12:18:17 | 51.07282 | 17.79001 | 63° | 16km/h | 19519m | 5.0m/s | 0°C | 0% | 0hPa | 0V | 00:00:00 | 00:00:00 | 00:00:00 | |
| SQ6EMJ | 2026-09-01 12:18:16 | 51.07280 | 17.78995 | 58° | 20km/h | 19515m | 4.9m/s | 0°C | 0% | 0hPa | 0V | 00:00:00 | 00:00:00 | 00:00:00 | |
| KRY50SP | 2026-09-01 12:18:11 | 51.07264 | 17.78948 | 68° | 27km/h | 19488m | 4.4m/s | 0°C | 0% | 0hPa | 0V | 00:00:00 | 00:00:00 | 00:00:00 | |
| KRY50SP | 2026-09-01 12:18:05 | 51.07247 | 17.78904 | 56° | 18km/h | 19459m | 4.4m/s | 0°C | 0% | 0hPa | 0V | 00:00:00 | 00:00:00 | 00:00:00 | |
| POL1PZ | 2026-09-01 12:18:02 | 51.07233 | 17.78880 | 48° | 35km/h | 19445m | 5.0m/s | 0°C | 0% | 0hPa | 0V | 00:00:00 | 00:00:00 | 00:00:00 | |
| KRY50SP | 2026-09-01 12:18:00 | 51.07223 | 17.78859 | 60° | 29km/h | 19436m | 2.6m/s | 0°C | 0% | 0hPa | 0V | 00:00:00 | 00:00:00 | 00:00:00 | |
| SQ6EMJ | 2026-09-01 12:17:58 | 51.07214 | 17.78842 | 41° | 27km/h | 19427m | 5.4m/s | 0°C | 0% | 0hPa | 0V | 00:00:00 | 00:00:00 | 00:00:00 | |
| KRY50SP | 2026-09-01 12:17:54 | 51.07195 | 17.78819 | 38° | 24km/h | 19408m | 4.9m/s | 0°C | 0% | 0hPa | 0V | 00:00:00 | 00:00:00 | 00:00:00 | |
| KRY50SP | 2026-09-01 12:17:48 | 51.07167 | 17.78780 | 40° | 20km/h | 19378m | 5.8m/s | 0°C | 0% | 0hPa | 0V | 00:00:00 | 00:00:00 | 00:00:00 | |
| POL1PZ | 2026-09-01 12:17:42 | 51.07145 | 17.78749 | 35° | 22km/h | 19350m | 5.9m/s | 0°C | 0% | 0hPa | 0V | 00:00:00 | 00:00:00 | 00:00:00 | |
| KRY50SP | 2026-09-01 12:17:38 | 51.07118 | 17.78719 | 36° | 22km/h | 19327m | 6.4m/s | 0°C | 0% | 0hPa | 0V | 00:00:00 | 00:00:00 | 00:00:00 | |
| KRY50SP | 2026-09-01 12:17:33 | 51.07095 | 17.78700 | 34° | 27km/h | 19303m | 4.4m/s | 0°C | 0% | 0hPa | 0V | 00:00:00 | 00:00:00 | 00:00:00 | |
| SQ6EMJ | 2026-09-01 12:17:30 | 51.07077 | 17.78686 | 28° | 26km/h | 19287m | 3.8m/s | 0°C | 0% | 0hPa | 0V | 00:00:00 | 00:00:00 | 00:00:00 | |
| KRY50SP | 2026-09-01 12:17:27 | 51.07064 | 17.78667 | 40° | 20km/h | 19272m | 6.2m/s | 0°C | 0% | 0hPa | 0V | 00:00:00 | 00:00:00 | 00:00:00 | |
| POL1PZ | 2026-09-01 12:17:22 | 51.07047 | 17.78652 | 36° | 20km/h | 19249m | 4.7m/s | 0°C | 0% | 0hPa | 0V | 00:00:00 | 00:00:00 | 00:00:00 | |
| KRY50SP | 2026-09-01 12:17:20 | 51.07038 | 17.78644 | 23° | 20km/h | 19240m | 6.5m/s | 0°C | 0% | 0hPa | 0V | 00:00:00 | 00:00:00 | 00:00:00 | |
| SQ6EMJ | 2026-09-01 12:17:17 | 51.07019 | 17.78625 | 34° | 16km/h | 19214m | 6.6m/s | 0°C | 0% | 0hPa | 0V | 00:00:00 | 00:00:00 | 00:00:00 | |
| SQ6EMJ | 2026-09-01 12:17:10 | 51.07001 | 17.78604 | 46° | 18km/h | 19189m | 4.9m/s | 0°C | 0% | 0hPa | 0V | 00:00:00 | 00:00:00 | 00:00:00 | |
| KRY50SP | 2026-09-01 12:17:09 | 51.06997 | 17.78599 | 31° | 18km/h | 19183m | 5.9m/s | 0°C | 0% | 0hPa | 0V | 00:00:00 | 00:00:00 | 00:00:00 | |
| SQ6EMJ | 2026-09-01 12:17:06 | 51.06987 | 17.78588 | 55° | 7km/h | 19163m | 4.3m/s | 0°C | 0% | 0hPa | 0V | 00:00:00 | 00:00:00 | 00:00:00 | |
| KRY50SP | 2026-09-01 12:17:05 | 51.06985 | 17.78586 | 32° | 9km/h | 19158m | 7.1m/s | 0°C | 0% | 0hPa | 0V | 00:00:00 | 00:00:00 | 00:00:00 | |
| SP3BTT-10 | 2026-09-01 12:17:02 | 51.06980 | 17.78583 | 23° | 15km/h | 19147m | 4.6m/s | 0°C | 0% | 0hPa | 0V | 00:00:00 | 00:00:00 | 00:00:00 | |
| POL1PZ | 2026-09-01 12:17:01 | 51.06977 | 17.78580 | 39° | 13km/h | 19141m | 5.4m/s | 0°C | 0% | 0hPa | 0V | 00:00:00 | 00:00:00 | 00:00:00 | |
| SQ6EMJ | 2026-09-01 12:16:58 | 51.06966 | 17.78567 | 36° | 11km/h | 19121m | 3.4m/s | 0°C | 0% | 0hPa | 0V | 00:00:00 | 00:00:00 | 00:00:00 | |
| KRY50SP | 2026-09-01 12:16:52 | 51.06964 | 17.78566 | 314° | 7km/h | 19096m | 3.5m/s | 0°C | 0% | 0hPa | 0V | 00:00:00 | 00:00:00 | 00:00:00 | |
| SQ6EMJ | 2026-09-01 12:16:51 | 51.06963 | 17.78567 | 324° | 4km/h | 19091m | 5.2m/s | 0°C | 0% | 0hPa | 0V | 00:00:00 | 00:00:00 | 00:00:00 | |
| KRY50SP | 2026-09-01 12:16:47 | 51.06958 | 17.78563 | 25° | 15km/h | 19070m | 4.9m/s | 0°C | 0% | 0hPa | 0V | 00:00:00 | 00:00:00 | 00:00:00 | |
| SQ6EMJ | 2026-09-01 12:16:41 | 51.06950 | 17.78556 | 48° | 4km/h | 19037m | 4.2m/s | 0°C | 0% | 0hPa | 0V | 00:00:00 | 00:00:00 | 00:00:00 | |
| POL1PZ | 2026-09-01 12:16:40 | 51.06950 | 17.78556 | 48° | 4km/h | 19037m | 4.2m/s | 0°C | 0% | 0hPa | 0V | 00:00:00 | 00:00:00 | 00:00:00 | |
| KRY50SP | 2026-09-01 12:16:36 | 51.06947 | 17.78545 | 32° | 13km/h | 19016m | 5.7m/s | 0°C | 0% | 0hPa | 0V | 00:00:00 | 00:00:00 | 00:00:00 | |
| KRY50SP | 2026-09-01 12:16:31 | 51.06942 | 17.78543 | 0° | 0km/h | 18986m | 4.0m/s | 0°C | 0% | 0hPa | 0V | 00:00:00 | 00:00:00 | 00:00:00 | |
| KRY50SP | 2026-09-01 12:16:25 | 51.06943 | 17.78527 | 61° | 16km/h | 18963m | 6.3m/s | 0°C | 0% | 0hPa | 0V | 00:00:00 | 00:00:00 | 00:00:00 | |
| KRY50SP | 2026-09-01 12:16:19 | 51.06939 | 17.78512 | 172° | 7km/h | 18933m | 4.1m/s | 0°C | 0% | 0hPa | 0V | 00:00:00 | 00:00:00 | 00:00:00 | |
| KRY50SP | 2026-09-01 12:16:13 | 51.06941 | 17.78481 | 27° | 18km/h | 18905m | 5.9m/s | 0°C | 0% | 0hPa | 0V | 00:00:00 | 00:00:00 | 00:00:00 | |
| KRY50SP | 2026-09-01 12:16:07 | 51.06940 | 17.78455 | 106° | 20km/h | 18877m | 4.9m/s | 0°C | 0% | 0hPa | 0V | 00:00:00 | 00:00:00 | 00:00:00 | |
| SQ6EMJ | 2026-09-01 12:16:04 | 51.06939 | 17.78433 | 101° | 13km/h | 18856m | 6.6m/s | 0°C | 0% | 0hPa | 0V | 00:00:00 | 00:00:00 | 00:00:00 | |
| SP3BTT-10 | 2026-09-01 12:16:03 | 51.06940 | 17.78427 | 120° | 37km/h | 18851m | 4.6m/s | 0°C | 0% | 0hPa | 0V | 00:00:00 | 00:00:00 | 00:00:00 | |
| POL1PZ | 2026-09-01 12:16:00 | 51.06943 | 17.78410 | 93° | 26km/h | 18842m | 6.4m/s | 0°C | 0% | 0hPa | 0V | 00:00:00 | 00:00:00 | 00:00:00 | |
| KRY50SP | 2026-09-01 12:15:57 | 51.06934 | 17.78370 | 80° | 22km/h | 18825m | 4.6m/s | 0°C | 0% | 0hPa | 0V | 00:00:00 | 00:00:00 | 00:00:00 | |
| SQ6EMJ | 2026-09-01 12:15:54 | 51.06933 | 17.78350 | 86° | 16km/h | 18810m | 4.8m/s | 0°C | 0% | 0hPa | 0V | 00:00:00 | 00:00:00 | 00:00:00 | |
| KRY50SP | 2026-09-01 12:15:50 | 51.06930 | 17.78322 | 86° | 31km/h | 18797m | 4.7m/s | 0°C | 0% | 0hPa | 0V | 00:00:00 | 00:00:00 | 00:00:00 | |
| SQ6EMJ | 2026-09-01 12:15:46 | 51.06923 | 17.78276 | 62° | 26km/h | 18778m | 5.5m/s | 0°C | 0% | 0hPa | 0V | 00:00:00 | 00:00:00 | 00:00:00 | |
| KRY50SP | 2026-09-01 12:15:45 | 51.06920 | 17.78267 | 71° | 24km/h | 18772m | 5.8m/s | 0°C | 0% | 0hPa | 0V | 00:00:00 | 00:00:00 | 00:00:00 | |
| SQ6EMJ | 2026-09-01 12:15:40 | 51.06909 | 17.78215 | 82° | 37km/h | 18746m | 5.4m/s | 0°C | 0% | 0hPa | 0V | 00:00:00 | 00:00:00 | 00:00:00 | |
| POL1PZ | 2026-09-01 12:15:39 | 51.06908 | 17.78200 | 82° | 40km/h | 18742m | 3.1m/s | 0°C | 0% | 0hPa | 0V | 00:00:00 | 00:00:00 | 00:00:00 | |
| SQ6EMJ | 2026-09-01 12:15:34 | 51.06893 | 17.78137 | 80° | 26km/h | 18718m | 5.1m/s | 0°C | 0% | 0hPa | 0V | 00:00:00 | 00:00:00 | 00:00:00 | |
| KRY50SP | 2026-09-01 12:15:33 | 51.06892 | 17.78127 | 88° | 27km/h | 18713m | 3.9m/s | 0°C | 0% | 0hPa | 0V | 00:00:00 | 00:00:00 | 00:00:00 | |
| KRY50SP | 2026-09-01 12:15:28 | 51.06881 | 17.78058 | 78° | 40km/h | 18691m | 5.9m/s | 0°C | 0% | 0hPa | 0V | 00:00:00 | 00:00:00 | 00:00:00 | |
| SQ6EMJ | 2026-09-01 12:15:21 | 51.06855 | 17.77943 | 67° | 38km/h | 18650m | 5.2m/s | 0°C | 0% | 0hPa | 0V | 00:00:00 | 00:00:00 | 00:00:00 | |
| KRY50SP | 2026-09-01 12:15:19 | 51.06845 | 17.77900 | 77° | 38km/h | 18635m | 3.2m/s | 0°C | 0% | 0hPa | 0V | 00:00:00 | 00:00:00 | 00:00:00 | |
| SQ6EMJ | 2026-09-01 12:15:18 | 51.06840 | 17.77871 | 71° | 37km/h | 18625m | 4.7m/s | 0°C | 0% | 0hPa | 0V | 00:00:00 | 00:00:00 | 00:00:00 | |
| KRY50SP | 2026-09-01 12:15:11 | 51.06825 | 17.77812 | 64° | 44km/h | 18607m | 6.8m/s | 0°C | 0% | 0hPa | 0V | 00:00:00 | 00:00:00 | 00:00:00 | |
| KRY50SP | 2026-09-01 12:15:06 | 51.06804 | 17.77731 | 69° | 40km/h | 18580m | 6.6m/s | 0°C | 0% | 0hPa | 0V | 00:00:00 | 00:00:00 | 00:00:00 | |
| SQ6EMJ | 2026-09-01 12:15:05 | 51.06800 | 17.77717 | 66° | 40km/h | 18574m | 5.6m/s | 0°C | 0% | 0hPa | 0V | 00:00:00 | 00:00:00 | 00:00:00 | |
| KRY50SP | 2026-09-01 12:15:01 | 51.06780 | 17.77658 | 58° | 44km/h | 18553m | 5.7m/s | 0°C | 0% | 0hPa | 0V | 00:00:00 | 00:00:00 | 00:00:00 | |
| POL1PZ | 2026-09-01 12:15:00 | 51.06768 | 17.77629 | 60° | 44km/h | 18544m | 4.5m/s | 0°C | 0% | 0hPa | 0V | 00:00:00 | 00:00:00 | 00:00:00 | |
| SQ6EMJ | 2026-09-01 12:14:59 | 51.06763 | 17.77614 | 72° | 44km/h | 18539m | 5.4m/s | 0°C | 0% | 0hPa | 0V | 00:00:00 | 00:00:00 | 00:00:00 | |
| KRY50SP | 2026-09-01 12:14:55 | 51.06751 | 17.77563 | 65° | 46km/h | 18525m | 4.6m/s | 0°C | 0% | 0hPa | 0V | 00:00:00 | 00:00:00 | 00:00:00 | |
| SQ6EMJ | 2026-09-01 12:14:51 | 51.06732 | 17.77499 | 61° | 40km/h | 18508m | 2.4m/s | 0°C | 0% | 0hPa | 0V | 00:00:00 | 00:00:00 | 00:00:00 | |
| KRY50SP | 2026-09-01 12:14:49 | 51.06721 | 17.77475 | 48° | 38km/h | 18499m | 5.4m/s | 0°C | 0% | 0hPa | 0V | 00:00:00 | 00:00:00 | 00:00:00 | |
| SP3BTT-10 | 2026-09-01 12:14:46 | 51.06706 | 17.77436 | 71° | 35km/h | 18484m | 3.9m/s | 0°C | 0% | 0hPa | 0V | 00:00:00 | 00:00:00 | 00:00:00 | |
| SQ6EMJ | 2026-09-01 12:14:45 | 51.06702 | 17.77420 | 72° | 44km/h | 18480m | 4.5m/s | 0°C | 0% | 0hPa | 0V | 00:00:00 | 00:00:00 | 00:00:00 | |
| KRY50SP | 2026-09-01 12:14:43 | 51.06693 | 17.77385 | 66° | 47km/h | 18471m | 4.2m/s | 0°C | 0% | 0hPa | 0V | 00:00:00 | 00:00:00 | 00:00:00 | |
| SQ6EMJ | 2026-09-01 12:14:40 | 51.06682 | 17.77342 | 83° | 29km/h | 18456m | 5.4m/s | 0°C | 0% | 0hPa | 0V | 00:00:00 | 00:00:00 | 00:00:00 | |
| POL1PZ | 2026-09-01 12:14:38 | 51.06680 | 17.77320 | 71° | 29km/h | 18446m | 6.2m/s | 0°C | 0% | 0hPa | 0V | 00:00:00 | 00:00:00 | 00:00:00 | |
| KRY50SP | 2026-09-01 12:14:37 | 51.06676 | 17.77308 | 58° | 38km/h | 18440m | 6.9m/s | 0°C | 0% | 0hPa | 0V | 00:00:00 | 00:00:00 | 00:00:00 | |
| SQ6EMJ | 2026-09-01 12:14:33 | 51.06656 | 17.77245 | 79° | 44km/h | 18420m | 4.9m/s | 0°C | 0% | 0hPa | 0V | 00:00:00 | 00:00:00 | 00:00:00 | |
| KRY50SP | 2026-09-01 12:14:32 | 51.06654 | 17.77229 | 79° | 37km/h | 18415m | 4.6m/s | 0°C | 0% | 0hPa | 0V | 00:00:00 | 00:00:00 | 00:00:00 | |
| KRY50SP | 2026-09-01 12:14:26 | 51.06637 | 17.77161 | 77° | 29km/h | 18383m | 4.3m/s | 0°C | 0% | 0hPa | 0V | 00:00:00 | 00:00:00 | 00:00:00 | |
| KRY50SP | 2026-09-01 12:14:21 | 51.06623 | 17.77100 | 74° | 31km/h | 18359m | 3.4m/s | 0°C | 0% | 0hPa | 0V | 00:00:00 | 00:00:00 | 00:00:00 | |
| SQ6EMJ | 2026-09-01 12:14:19 | 51.06616 | 17.77078 | 57° | 31km/h | 18350m | 4.3m/s | 0°C | 0% | 0hPa | 0V | 00:00:00 | 00:00:00 | 00:00:00 | |
| POL1PZ | 2026-09-01 12:14:18 | 51.06612 | 17.77068 | 57° | 31km/h | 18346m | 4.5m/s | 0°C | 0% | 0hPa | 0V | 00:00:00 | 00:00:00 | 00:00:00 | |
| KRY50SP | 2026-09-01 12:14:15 | 51.06605 | 17.77036 | 77° | 27km/h | 18335m | 4.0m/s | 0°C | 0% | 0hPa | 0V | 00:00:00 | 00:00:00 | 00:00:00 | |
| SQ6EMJ | 2026-09-01 12:14:14 | 51.06603 | 17.77025 | 65° | 29km/h | 18330m | 6.2m/s | 0°C | 0% | 0hPa | 0V | 00:00:00 | 00:00:00 | 00:00:00 | |
| KRY50SP | 2026-09-01 12:14:10 | 51.06591 | 17.76983 | 76° | 29km/h | 18309m | 3.9m/s | 0°C | 0% | 0hPa | 0V | 00:00:00 | 00:00:00 | 00:00:00 | |
| SQ6EMJ | 2026-09-01 12:14:07 | 51.06584 | 17.76941 | 81° | 27km/h | 18290m | 5.9m/s | 0°C | 0% | 0hPa | 0V | 00:00:00 | 00:00:00 | 00:00:00 | |
| KRY50SP | 2026-09-01 12:14:04 | 51.06581 | 17.76920 | 83° | 26km/h | 18278m | 5.1m/s | 0°C | 0% | 0hPa | 0V | 00:00:00 | 00:00:00 | 00:00:00 | |
| KRY50SP | 2026-09-01 12:13:58 | 51.06573 | 17.76861 | 72° | 27km/h | 18250m | 5.3m/s | 0°C | 0% | 0hPa | 0V | 00:00:00 | 00:00:00 | 00:00:00 | |
| POL1PZ | 2026-09-01 12:13:57 | 51.06570 | 17.76851 | 61° | 29km/h | 18244m | 4.7m/s | 0°C | 0% | 0hPa | 0V | 00:00:00 | 00:00:00 | 00:00:00 | |
| SQ6EMJ | 2026-09-01 12:13:54 | 51.06560 | 17.76821 | 72° | 27km/h | 18230m | 4.2m/s | 0°C | 0% | 0hPa | 0V | 00:00:00 | 00:00:00 | 00:00:00 | |
| KRY50SP | 2026-09-01 12:13:53 | 51.06558 | 17.76810 | 73° | 27km/h | 18226m | 5.1m/s | 0°C | 0% | 0hPa | 0V | 00:00:00 | 00:00:00 | 00:00:00 | |
| SQ6EMJ | 2026-09-01 12:13:48 | 51.06548 | 17.76758 | 89° | 27km/h | 18201m | 4.1m/s | 0°C | 0% | 0hPa | 0V | 00:00:00 | 00:00:00 | 00:00:00 | |
| KRY50SP | 2026-09-01 12:13:46 | 51.06546 | 17.76736 | 72° | 27km/h | 18191m | 4.6m/s | 0°C | 0% | 0hPa | 0V | 00:00:00 | 00:00:00 | 00:00:00 | |
| SQ6EMJ | 2026-09-01 12:13:42 | 51.06538 | 17.76695 | 76° | 27km/h | 18172m | 4.3m/s | 0°C | 0% | 0hPa | 0V | 00:00:00 | 00:00:00 | 00:00:00 | |
| KRY50SP | 2026-09-01 12:13:41 | 51.06536 | 17.76684 | 64° | 31km/h | 18167m | 6.2m/s | 0°C | 0% | 0hPa | 0V | 00:00:00 | 00:00:00 | 00:00:00 | |
| POL1PZ | 2026-09-01 12:13:36 | 51.06525 | 17.76619 | 83° | 31km/h | 18142m | 5.3m/s | 0°C | 0% | 0hPa | 0V | 00:00:00 | 00:00:00 | 00:00:00 | |
| KRY50SP | 2026-09-01 12:13:35 | 51.06524 | 17.76607 | 75° | 29km/h | 18138m | 4.5m/s | 0°C | 0% | 0hPa | 0V | 00:00:00 | 00:00:00 | 00:00:00 | |
| SQ6EMJ | 2026-09-01 12:13:31 | 51.06520 | 17.76563 | 93° | 29km/h | 18120m | 3.6m/s | 0°C | 0% | 0hPa | 0V | 00:00:00 | 00:00:00 | 00:00:00 | |
| SP3BTT-10 | 2026-09-01 12:13:30 | 51.06519 | 17.76552 | 83° | 31km/h | 18116m | 5.3m/s | 0°C | 0% | 0hPa | 0V | 00:00:00 | 00:00:00 | 00:00:00 | |
| KRY50SP | 2026-09-01 12:13:29 | 51.06518 | 17.76542 | 71° | 24km/h | 18110m | 5.7m/s | 0°C | 0% | 0hPa | 0V | 00:00:00 | 00:00:00 | 00:00:00 | |
| SQ6EMJ | 2026-09-01 12:13:24 | 51.06512 | 17.76492 | 84° | 27km/h | 18086m | 6.2m/s | 0°C | 0% | 0hPa | 0V | 00:00:00 | 00:00:00 | 00:00:00 | |
| KRY50SP | 2026-09-01 12:13:23 | 51.06510 | 17.76480 | 78° | 31km/h | 18080m | 4.6m/s | 0°C | 0% | 0hPa | 0V | 00:00:00 | 00:00:00 | 00:00:00 | |
| SQ6EMJ | 2026-09-01 12:13:19 | 51.06504 | 17.76427 | 81° | 31km/h | 18062m | 4.0m/s | 0°C | 0% | 0hPa | 0V | 00:00:00 | 00:00:00 | 00:00:00 | |
| KRY50SP | 2026-09-01 12:13:16 | 51.06499 | 17.76398 | 70° | 24km/h | 18048m | 5.1m/s | 0°C | 0% | 0hPa | 0V | 00:00:00 | 00:00:00 | 00:00:00 | |
| POL1PZ | 2026-09-01 12:13:15 | 51.06497 | 17.76389 | 82° | 24km/h | 18043m | 4.8m/s | 0°C | 0% | 0hPa | 0V | 00:00:00 | 00:00:00 | 00:00:00 | |
| SQ6EMJ | 2026-09-01 12:13:14 | 51.06496 | 17.76379 | 88° | 24km/h | 18038m | 4.8m/s | 0°C | 0% | 0hPa | 0V | 00:00:00 | 00:00:00 | 00:00:00 | |
| KRY50SP | 2026-09-01 12:13:12 | 51.06495 | 17.76350 | 87° | 29km/h | 18023m | 5.3m/s | 0°C | 0% | 0hPa | 0V | 00:00:00 | 00:00:00 | 00:00:00 | |
| SQ6EMJ | 2026-09-01 12:13:08 | 51.06494 | 17.76308 | 84° | 35km/h | 18008m | 5.3m/s | 0°C | 0% | 0hPa | 0V | 00:00:00 | 00:00:00 | 00:00:00 | |
| KRY50SP | 2026-09-01 12:13:07 | 51.06490 | 17.76285 | 77° | 27km/h | 17997m | 4.5m/s | 0°C | 0% | 0hPa | 0V | 00:00:00 | 00:00:00 | 00:00:00 | |
| SQ6EMJ | 2026-09-01 12:13:01 | 51.06491 | 17.76219 | 109° | 35km/h | 17974m | 5.7m/s | 0°C | 0% | 0hPa | 0V | 00:00:00 | 00:00:00 | 00:00:00 | |
| SP3BTT-10 | 2026-09-01 12:13:00 | 51.06494 | 17.76206 | 106° | 49km/h | 17969m | 4.1m/s | 0°C | 0% | 0hPa | 0V | 00:00:00 | 00:00:00 | 00:00:00 | |
| SQ6EMJ | 2026-09-01 12:12:57 | 51.06497 | 17.76145 | 87° | 35km/h | 17950m | 5.4m/s | 0°C | 0% | 0hPa | 0V | 00:00:00 | 00:00:00 | 00:00:00 | |
| POL1PZ | 2026-09-01 12:12:54 | 51.06497 | 17.76121 | 103° | 29km/h | 17941m | 4.1m/s | 0°C | 0% | 0hPa | 0V | 00:00:00 | 00:00:00 | 00:00:00 | |
| SQ6EMJ | 2026-09-01 12:12:51 | 51.06505 | 17.76080 | 108° | 40km/h | 17927m | 3.9m/s | 0°C | 0% | 0hPa | 0V | 00:00:00 | 00:00:00 | 00:00:00 | |
| KRY50SP | 2026-09-01 12:12:49 | 51.06509 | 17.76051 | 96° | 33km/h | 17918m | 4.1m/s | 0°C | 0% | 0hPa | 0V | 00:00:00 | 00:00:00 | 00:00:00 | |
| SQ6EMJ | 2026-09-01 12:12:46 | 51.06510 | 17.75990 | 94° | 42km/h | 17901m | 4.7m/s | 0°C | 0% | 0hPa | 0V | 00:00:00 | 00:00:00 | 00:00:00 | |
| KRY50SP | 2026-09-01 12:12:43 | 51.06512 | 17.75960 | 105° | 35km/h | 17890m | 4.6m/s | 0°C | 0% | 0hPa | 0V | 00:00:00 | 00:00:00 | 00:00:00 | |
| SQ6EMJ | 2026-09-01 12:12:39 | 51.06525 | 17.75898 | 99° | 42km/h | 17871m | 5.2m/s | 0°C | 0% | 0hPa | 0V | 00:00:00 | 00:00:00 | 00:00:00 | |
| KRY50SP | 2026-09-01 12:12:38 | 51.06523 | 17.75864 | 80° | 47km/h | 17861m | 4.2m/s | 0°C | 0% | 0hPa | 0V | 00:00:00 | 00:00:00 | 00:00:00 | |
| POL1PZ | 2026-09-01 12:12:34 | 51.06519 | 17.75805 | 90° | 46km/h | 17848m | 4.4m/s | 0°C | 0% | 0hPa | 0V | 00:00:00 | 00:00:00 | 00:00:00 | |
| KRY50SP | 2026-09-01 12:12:32 | 51.06519 | 17.75773 | 96° | 35km/h | 17838m | 4.0m/s | 0°C | 0% | 0hPa | 0V | 00:00:00 | 00:00:00 | 00:00:00 | |
| SQ6EMJ | 2026-09-01 12:12:27 | 51.06518 | 17.75687 | 78° | 46km/h | 17813m | 5.1m/s | 0°C | 0% | 0hPa | 0V | 00:00:00 | 00:00:00 | 00:00:00 | |
| KRY50SP | 2026-09-01 12:12:26 | 51.06516 | 17.75670 | 80° | 44km/h | 17809m | 3.6m/s | 0°C | 0% | 0hPa | 0V | 00:00:00 | 00:00:00 | 00:00:00 | |
| KRY50SP | 2026-09-01 12:12:21 | 51.06515 | 17.75568 | 86° | 42km/h | 17780m | 5.1m/s | 0°C | 0% | 0hPa | 0V | 00:00:00 | 00:00:00 | 00:00:00 | |
| SQ6EMJ | 2026-09-01 12:12:15 | 51.06498 | 17.75476 | 77° | 53km/h | 17757m | 5.3m/s | 0°C | 0% | 0hPa | 0V | 00:00:00 | 00:00:00 | 00:00:00 | |
| POL1PZ | 2026-09-01 12:12:13 | 51.06495 | 17.75436 | 89° | 46km/h | 17748m | 5.9m/s | 0°C | 0% | 0hPa | 0V | 00:00:00 | 00:00:00 | 00:00:00 | |
| KRY50SP | 2026-09-01 12:12:11 | 51.06496 | 17.75386 | 89° | 42km/h | 17734m | 4.7m/s | 0°C | 0% | 0hPa | 0V | 00:00:00 | 00:00:00 | 00:00:00 | |
| KRY50SP | 2026-09-01 12:11:59 | 51.06470 | 17.75187 | 70° | 31km/h | 17684m | 4.6m/s | 0°C | 0% | 0hPa | 0V | 00:00:00 | 00:00:00 | 00:00:00 | |
| PETON7-10 | 2026-09-01 12:11:55 | 51.06447 | 17.75114 | 69° | 49km/h | 17662m | 5.4m/s | 0°C | 0% | 0hPa | 0V | 00:00:00 | 00:00:00 | 00:00:00 | |
| KRY50SP | 2026-09-01 12:11:54 | 51.06442 | 17.75091 | 73° | 58km/h | 17656m | 5.0m/s | 0°C | 0% | 0hPa | 0V | 00:00:00 | 00:00:00 | 00:00:00 | |
| POL1PZ | 2026-09-01 12:11:53 | 51.06433 | 17.75048 | 72° | 55km/h | 17647m | 5.2m/s | 0°C | 0% | 0hPa | 0V | 00:00:00 | 00:00:00 | 00:00:00 | |
| KRY50SP | 2026-09-01 12:11:49 | 51.06416 | 17.74995 | 59° | 44km/h | 17632m | 5.3m/s | 0°C | 0% | 0hPa | 0V | 00:00:00 | 00:00:00 | 00:00:00 | |
| SQ6EMJ | 2026-09-01 12:11:48 | 51.06410 | 17.74980 | 60° | 44km/h | 17627m | 4.2m/s | 0°C | 0% | 0hPa | 0V | 00:00:00 | 00:00:00 | 00:00:00 | |
| SP3BTT-10 | 2026-09-01 12:11:45 | 51.06388 | 17.74933 | 53° | 42km/h | 17612m | 4.6m/s | 0°C | 0% | 0hPa | 0V | 00:00:00 | 00:00:00 | 00:00:00 | |
| KRY50SP | 2026-09-01 12:11:43 | 51.06374 | 17.74897 | 67° | 53km/h | 17602m | 4.8m/s | 0°C | 0% | 0hPa | 0V | 00:00:00 | 00:00:00 | 00:00:00 | |
| PETON7-10 | 2026-09-01 12:11:37 | 51.06338 | 17.74787 | 54° | 46km/h | 17573m | 4.0m/s | 0°C | 0% | 0hPa | 0V | 00:00:00 | 00:00:00 | 00:00:00 | |
| KRY50SP | 2026-09-01 12:11:32 | 51.06301 | 17.74716 | 63° | 46km/h | 17549m | 4.7m/s | 0°C | 0% | 0hPa | 0V | 00:00:00 | 00:00:00 | 00:00:00 | |
| POL1PZ | 2026-09-01 12:11:31 | 51.06296 | 17.74699 | 67° | 47km/h | 17545m | 3.8m/s | 0°C | 0% | 0hPa | 0V | 00:00:00 | 00:00:00 | 00:00:00 | |
| KRY50SP | 2026-09-01 12:11:27 | 51.06268 | 17.74632 | 51° | 46km/h | 17524m | 5.3m/s | 0°C | 0% | 0hPa | 0V | 00:00:00 | 00:00:00 | 00:00:00 | |
| PETON7-10 | 2026-09-01 12:11:22 | 51.06224 | 17.74564 | 42° | 29km/h | 17500m | 5.3m/s | 0°C | 0% | 0hPa | 0V | 00:00:00 | 00:00:00 | 00:00:00 | |
| KRY50SP | 2026-09-01 12:11:21 | 51.06215 | 17.74552 | 44° | 46km/h | 17495m | 4.6m/s | 0°C | 0% | 0hPa | 0V | 00:00:00 | 00:00:00 | 00:00:00 | |
| SQ6EMJ | 2026-09-01 12:11:20 | 51.06207 | 17.74539 | 50° | 44km/h | 17491m | 4.0m/s | 0°C | 0% | 0hPa | 0V | 00:00:00 | 00:00:00 | 00:00:00 | |
| SQ6EMJ | 2026-09-01 12:11:15 | 51.06165 | 17.74465 | 45° | 42km/h | 17462m | 5.7m/s | 0°C | 0% | 0hPa | 0V | 00:00:00 | 00:00:00 | 00:00:00 | |
| POL1PZ | 2026-09-01 12:11:10 | 51.06131 | 17.74417 | 40° | 42km/h | 17442m | 3.8m/s | 0°C | 0% | 0hPa | 0V | 00:00:00 | 00:00:00 | 00:00:00 | |
| KRY50SP | 2026-09-01 12:11:09 | 51.06123 | 17.74406 | 40° | 44km/h | 17437m | 5.4m/s | 0°C | 0% | 0hPa | 0V | 00:00:00 | 00:00:00 | 00:00:00 | |
| SQ6EMJ | 2026-09-01 12:11:08 | 51.06114 | 17.74395 | 39° | 44km/h | 17432m | 5.5m/s | 0°C | 0% | 0hPa | 0V | 00:00:00 | 00:00:00 | 00:00:00 | |
| KRY50SP | 2026-09-01 12:11:04 | 51.06083 | 17.74360 | 37° | 35km/h | 17414m | 4.5m/s | 0°C | 0% | 0hPa | 0V | 00:00:00 | 00:00:00 | 00:00:00 | |
| SQ6EMJ | 2026-09-01 12:11:03 | 51.06076 | 17.74350 | 39° | 42km/h | 17409m | 6.2m/s | 0°C | 0% | 0hPa | 0V | 00:00:00 | 00:00:00 | 00:00:00 | |
| KRY50SP | 2026-09-01 12:10:59 | 51.06043 | 17.74299 | 47° | 40km/h | 17389m | 4.3m/s | 0°C | 0% | 0hPa | 0V | 00:00:00 | 00:00:00 | 00:00:00 | |
| SQ6EMJ | 2026-09-01 12:10:58 | 51.06029 | 17.74277 | 44° | 38km/h | 17379m | 4.6m/s | 0°C | 0% | 0hPa | 0V | 00:00:00 | 00:00:00 | 00:00:00 | |
| KRY50SP | 2026-09-01 12:10:53 | 51.06004 | 17.74244 | 38° | 33km/h | 17360m | 5.0m/s | 0°C | 0% | 0hPa | 0V | 00:00:00 | 00:00:00 | 00:00:00 | |
| SQ6EMJ | 2026-09-01 12:10:51 | 51.05988 | 17.74224 | 37° | 47km/h | 17350m | 4.1m/s | 0°C | 0% | 0hPa | 0V | 00:00:00 | 00:00:00 | 00:00:00 | |
| POL1PZ | 2026-09-01 12:10:50 | 51.05978 | 17.74213 | 40° | 46km/h | 17345m | 5.9m/s | 0°C | 0% | 0hPa | 0V | 00:00:00 | 00:00:00 | 00:00:00 | |
| KRY50SP | 2026-09-01 12:10:48 | 51.05961 | 17.74191 | 42° | 38km/h | 17334m | 4.6m/s | 0°C | 0% | 0hPa | 0V | 00:00:00 | 00:00:00 | 00:00:00 | |
| SQ6EMJ | 2026-09-01 12:10:45 | 51.05938 | 17.74163 | 37° | 38km/h | 17318m | 5.2m/s | 0°C | 0% | 0hPa | 0V | 00:00:00 | 00:00:00 | 00:00:00 | |
| SP3BTT-10 | 2026-09-01 12:10:44 | 51.05931 | 17.74154 | 39° | 22km/h | 17312m | 4.9m/s | 0°C | 0% | 0hPa | 0V | 00:00:00 | 00:00:00 | 00:00:00 | |
| KRY50SP | 2026-09-01 12:10:43 | 51.05922 | 17.74141 | 40° | 16km/h | 17300m | 4.8m/s | 0°C | 0% | 0hPa | 0V | 00:00:00 | 00:00:00 | 00:00:00 | |
| SQ6EMJ | 2026-09-01 12:10:39 | 51.05906 | 17.74132 | 13° | 33km/h | 17286m | 4.4m/s | 0°C | 0% | 0hPa | 0V | 00:00:00 | 00:00:00 | 00:00:00 | |
| KRY50SP | 2026-09-01 12:10:37 | 51.05890 | 17.74124 | 25° | 33km/h | 17274m | 5.7m/s | 0°C | 0% | 0hPa | 0V | 00:00:00 | 00:00:00 | 00:00:00 | |
| SQ6EMJ | 2026-09-01 12:10:33 | 51.05859 | 17.74096 | 24° | 37km/h | 17253m | 5.2m/s | 0°C | 0% | 0hPa | 0V | 00:00:00 | 00:00:00 | 00:00:00 | |
| KRY50SP | 2026-09-01 12:10:32 | 51.05851 | 17.74090 | 24° | 38km/h | 17248m | 4.3m/s | 0°C | 0% | 0hPa | 0V | 00:00:00 | 00:00:00 | 00:00:00 | |
| POL1PZ | 2026-09-01 12:10:29 | 51.05828 | 17.74063 | 54° | 37km/h | 17233m | 3.5m/s | 0°C | 0% | 0hPa | 0V | 00:00:00 | 00:00:00 | 00:00:00 | |
| SQ6EMJ | 2026-09-01 12:10:28 | 51.05823 | 17.74052 | 54° | 31km/h | 17229m | 5.1m/s | 0°C | 0% | 0hPa | 0V | 00:00:00 | 00:00:00 | 00:00:00 | |
| KRY50SP | 2026-09-01 12:10:26 | 51.05813 | 17.74040 | 18° | 24km/h | 17217m | 4.2m/s | 0°C | 0% | 0hPa | 0V | 00:00:00 | 00:00:00 | 00:00:00 | |
| SQ6EMJ | 2026-09-01 12:10:22 | 51.05783 | 17.74027 | 17° | 37km/h | 17196m | 5.4m/s | 0°C | 0% | 0hPa | 0V | 00:00:00 | 00:00:00 | 00:00:00 | |
| KRY50SP | 2026-09-01 12:10:21 | 51.05774 | 17.74023 | 17° | 38km/h | 17190m | 5.8m/s | 0°C | 0% | 0hPa | 0V | 00:00:00 | 00:00:00 | 00:00:00 | |
| SQ6EMJ | 2026-09-01 12:10:16 | 51.05737 | 17.73969 | 64° | 33km/h | 17167m | 6.1m/s | 0°C | 0% | 0hPa | 0V | 00:00:00 | 00:00:00 | 00:00:00 | |
| KRY50SP | 2026-09-01 12:10:15 | 51.05734 | 17.73960 | 49° | 18km/h | 17161m | 6.2m/s | 0°C | 0% | 0hPa | 0V | 00:00:00 | 00:00:00 | 00:00:00 | |
| SQ6EMJ | 2026-09-01 12:10:11 | 51.05703 | 17.73945 | 29° | 42km/h | 17136m | 5.3m/s | 0°C | 0% | 0hPa | 0V | 00:00:00 | 00:00:00 | 00:00:00 | |
| POL1PZ | 2026-09-01 12:10:10 | 51.05694 | 17.73937 | 31° | 42km/h | 17131m | 3.7m/s | 0°C | 0% | 0hPa | 0V | 00:00:00 | 00:00:00 | 00:00:00 | |
| SQ6EMJ | 2026-09-01 12:10:05 | 51.05670 | 17.73918 | 46° | 13km/h | 17110m | 5.4m/s | 0°C | 0% | 0hPa | 0V | 00:00:00 | 00:00:00 | 00:00:00 | |
| KRY50SP | 2026-09-01 12:10:03 | 51.05667 | 17.73906 | 70° | 24km/h | 17100m | 3.0m/s | 0°C | 0% | 0hPa | 0V | 00:00:00 | 00:00:00 | 00:00:00 | |
| SQ6EMJ | 2026-09-01 12:10:00 | 51.05650 | 17.73881 | 19° | 37km/h | 17084m | 5.7m/s | 0°C | 0% | 0hPa | 0V | 00:00:00 | 00:00:00 | 00:00:00 | |
| SQ6EMJ | 2026-09-01 12:09:55 | 51.05612 | 17.73837 | 50° | 24km/h | 17051m | 6.2m/s | 0°C | 0% | 0hPa | 0V | 00:00:00 | 00:00:00 | 00:00:00 | |
| POL1PZ | 2026-09-01 12:09:48 | 51.05588 | 17.73799 | 41° | 20km/h | 17018m | 3.2m/s | 0°C | 0% | 0hPa | 0V | 00:00:00 | 00:00:00 | 00:00:00 | |
| KRY50SP | 2026-09-01 12:09:43 | 51.05570 | 17.73758 | 56° | 22km/h | 16992m | 4.1m/s | 0°C | 0% | 0hPa | 0V | 00:00:00 | 00:00:00 | 00:00:00 | |
| SQ6EMJ | 2026-09-01 12:09:42 | 51.05567 | 17.73751 | 56° | 22km/h | 16987m | 4.6m/s | 0°C | 0% | 0hPa | 0V | 00:00:00 | 00:00:00 | 00:00:00 | |
| KRY50SP | 2026-09-01 12:09:38 | 51.05558 | 17.73729 | 58° | 11km/h | 16967m | 3.7m/s | 0°C | 0% | 0hPa | 0V | 00:00:00 | 00:00:00 | 00:00:00 | |
| SQ6EMJ | 2026-09-01 12:09:36 | 51.05553 | 17.73716 | 61° | 27km/h | 16957m | 6.2m/s | 0°C | 0% | 0hPa | 0V | 00:00:00 | 00:00:00 | 00:00:00 | |
| KRY50SP | 2026-09-01 12:09:32 | 51.05534 | 17.73675 | 47° | 24km/h | 16937m | 4.7m/s | 0°C | 0% | 0hPa | 0V | 00:00:00 | 00:00:00 | 00:00:00 | |
| SQ6EMJ | 2026-09-01 12:09:30 | 51.05527 | 17.73662 | 53° | 18km/h | 16926m | 5.2m/s | 0°C | 0% | 0hPa | 0V | 00:00:00 | 00:00:00 | 00:00:00 | |
| SP3BTT-10 | 2026-09-01 12:09:29 | 51.05525 | 17.73656 | 63° | 42km/h | 16921m | 4.0m/s | 0°C | 0% | 0hPa | 0V | 00:00:00 | 00:00:00 | 00:00:00 | |
| POL1PZ | 2026-09-01 12:09:28 | 51.05522 | 17.73648 | 59° | 22km/h | 16917m | 4.7m/s | 0°C | 0% | 0hPa | 0V | 00:00:00 | 00:00:00 | 00:00:00 | |
| SQ6EMJ | 2026-09-01 12:09:24 | 51.05507 | 17.73614 | 63° | 35km/h | 16896m | 4.4m/s | 0°C | 0% | 0hPa | 0V | 00:00:00 | 00:00:00 | 00:00:00 | |
| KRY50SP | 2026-09-01 12:09:23 | 51.05503 | 17.73601 | 68° | 35km/h | 16892m | 3.8m/s | 0°C | 0% | 0hPa | 0V | 00:00:00 | 00:00:00 | 00:00:00 | |
| SQ6EMJ | 2026-09-01 12:09:19 | 51.05499 | 17.73567 | 100° | 20km/h | 16873m | 4.8m/s | 0°C | 0% | 0hPa | 0V | 00:00:00 | 00:00:00 | 00:00:00 | |
| KRY50SP | 2026-09-01 12:09:18 | 51.05499 | 17.73559 | 83° | 22km/h | 16869m | 4.8m/s | 0°C | 0% | 0hPa | 0V | 00:00:00 | 00:00:00 | 00:00:00 | |
| SQ6EMJ | 2026-09-01 12:09:14 | 51.05483 | 17.73510 | 78° | 29km/h | 16846m | 4.8m/s | 0°C | 0% | 0hPa | 0V | 00:00:00 | 00:00:00 | 00:00:00 | |
| KRY50SP | 2026-09-01 12:09:13 | 51.05483 | 17.73510 | 78° | 29km/h | 16846m | 4.8m/s | 0°C | 0% | 0hPa | 0V | 00:00:00 | 00:00:00 | 00:00:00 | |
| POL1PZ | 2026-09-01 12:09:08 | 51.05486 | 17.73450 | 98° | 20km/h | 16821m | 3.7m/s | 0°C | 0% | 0hPa | 0V | 00:00:00 | 00:00:00 | 00:00:00 | |
| SQ6EMJ | 2026-09-01 12:09:07 | 51.05486 | 17.73442 | 80° | 18km/h | 16816m | 6.2m/s | 0°C | 0% | 0hPa | 0V | 00:00:00 | 00:00:00 | 00:00:00 | |
| KRY50SP | 2026-09-01 12:09:02 | 51.05477 | 17.73393 | 96° | 29km/h | 16791m | 4.8m/s | 0°C | 0% | 0hPa | 0V | 00:00:00 | 00:00:00 | 00:00:00 | |
| SQ6EMJ | 2026-09-01 12:09:01 | 51.05477 | 17.73381 | 92° | 33km/h | 16786m | 6.0m/s | 0°C | 0% | 0hPa | 0V | 00:00:00 | 00:00:00 | 00:00:00 | |
| KRY50SP | 2026-09-01 12:08:56 | 51.05482 | 17.73318 | 103° | 29km/h | 16762m | 3.9m/s | 0°C | 0% | 0hPa | 0V | 00:00:00 | 00:00:00 | 00:00:00 | |
| SQ6EMJ | 2026-09-01 12:08:51 | 51.05474 | 17.73227 | 96° | 40km/h | 16733m | 4.0m/s | 0°C | 0% | 0hPa | 0V | 00:00:00 | 00:00:00 | 00:00:00 | |
| POL1PZ | 2026-09-01 12:08:47 | 51.05477 | 17.73184 | 95° | 35km/h | 16720m | 2.7m/s | 0°C | 0% | 0hPa | 0V | 00:00:00 | 00:00:00 | 00:00:00 | |
| SQ6EMJ | 2026-09-01 12:08:45 | 51.05478 | 17.73137 | 87° | 40km/h | 16706m | 5.7m/s | 0°C | 0% | 0hPa | 0V | 00:00:00 | 00:00:00 | 00:00:00 | |
| SQ6EMJ | 2026-09-01 12:08:40 | 51.05469 | 17.73047 | 91° | 49km/h | 16684m | 2.8m/s | 0°C | 0% | 0hPa | 0V | 00:00:00 | 00:00:00 | 00:00:00 | |
| KRY50SP | 2026-09-01 12:08:37 | 51.05468 | 17.73010 | 86° | 42km/h | 16674m | 5.4m/s | 0°C | 0% | 0hPa | 0V | 00:00:00 | 00:00:00 | 00:00:00 | |
| SQ6EMJ | 2026-09-01 12:08:33 | 51.05463 | 17.72934 | 89° | 55km/h | 16655m | 5.2m/s | 0°C | 0% | 0hPa | 0V | 00:00:00 | 00:00:00 | 00:00:00 | |
| SQ6EMJ | 2026-09-01 12:08:28 | 51.05454 | 17.72835 | 82° | 47km/h | 16633m | 4.5m/s | 0°C | 0% | 0hPa | 0V | 00:00:00 | 00:00:00 | 00:00:00 | |
| POL1PZ | 2026-09-01 12:08:26 | 51.05452 | 17.72795 | 87° | 55km/h | 16623m | 4.7m/s | 0°C | 0% | 0hPa | 0V | 00:00:00 | 00:00:00 | 00:00:00 | |
| KRY50SP | 2026-09-01 12:08:24 | 51.05448 | 17.72750 | 80° | 55km/h | 16614m | 3.5m/s | 0°C | 0% | 0hPa | 0V | 00:00:00 | 00:00:00 | 00:00:00 | |
| SQ6EMJ | 2026-09-01 12:08:23 | 51.05443 | 17.72710 | 85° | 47km/h | 16606m | 5.9m/s | 0°C | 0% | 0hPa | 0V | 00:00:00 | 00:00:00 | 00:00:00 | |
| KRY50SP | 2026-09-01 12:08:20 | 51.05442 | 17.72651 | 90° | 51km/h | 16591m | 3.3m/s | 0°C | 0% | 0hPa | 0V | 00:00:00 | 00:00:00 | 00:00:00 | |
| SQ6EMJ | 2026-09-01 12:08:18 | 51.05441 | 17.72612 | 91° | 47km/h | 16584m | 4.9m/s | 0°C | 0% | 0hPa | 0V | 00:00:00 | 00:00:00 | 00:00:00 | |
| KRY50SP | 2026-09-01 12:08:14 | 51.05440 | 17.72556 | 82° | 49km/h | 16569m | 4.4m/s | 0°C | 0% | 0hPa | 0V | 00:00:00 | 00:00:00 | 00:00:00 | |
| SP3BTT-10 | 2026-09-01 12:08:13 | 51.05438 | 17.72535 | 85° | 37km/h | 16565m | 4.3m/s | 0°C | 0% | 0hPa | 0V | 00:00:00 | 00:00:00 | 00:00:00 | |
| SQ6EMJ | 2026-09-01 12:08:12 | 51.05437 | 17.72515 | 85° | 51km/h | 16561m | 4.4m/s | 0°C | 0% | 0hPa | 0V | 00:00:00 | 00:00:00 | 00:00:00 | |
| KRY50SP | 2026-09-01 12:08:09 | 51.05440 | 17.72442 | 97° | 47km/h | 16543m | 4.8m/s | 0°C | 0% | 0hPa | 0V | 00:00:00 | 00:00:00 | 00:00:00 | |
| SQ6EMJ | 2026-09-01 12:08:08 | 51.05442 | 17.72423 | 95° | 47km/h | 16538m | 3.5m/s | 0°C | 0% | 0hPa | 0V | 00:00:00 | 00:00:00 | 00:00:00 | |
| SQ6EMJ | 2026-09-01 12:08:01 | 51.05443 | 17.72321 | 88° | 40km/h | 16513m | 2.0m/s | 0°C | 0% | 0hPa | 0V | 00:00:00 | 00:00:00 | 00:00:00 | |
| SQ6EMJ | 2026-09-01 12:07:56 | 51.05449 | 17.72251 | 96° | 37km/h | 16489m | 3.7m/s | 0°C | 0% | 0hPa | 0V | 00:00:00 | 00:00:00 | 00:00:00 | |
| SQ6EMJ | 2026-09-01 12:07:51 | 51.05449 | 17.72165 | 78° | 29km/h | 16463m | 4.4m/s | 0°C | 0% | 0hPa | 0V | 00:00:00 | 00:00:00 | 00:00:00 | |
| POL1PZ | 2026-09-01 12:07:46 | 51.05451 | 17.72118 | 95° | 35km/h | 16444m | 5.8m/s | 0°C | 0% | 0hPa | 0V | 00:00:00 | 00:00:00 | 00:00:00 | |
| SP3BTT-10 | 2026-09-01 12:07:43 | 51.05449 | 17.72075 | 86° | 16km/h | 16430m | 6.3m/s | 0°C | 0% | 0hPa | 0V | 00:00:00 | 00:00:00 | 00:00:00 | |
| KRY50SP | 2026-09-01 12:07:39 | 51.05447 | 17.72032 | 85° | 24km/h | 16409m | 4.2m/s | 0°C | 0% | 0hPa | 0V | 00:00:00 | 00:00:00 | 00:00:00 | |
| SQ6EMJ | 2026-09-01 12:07:38 | 51.05446 | 17.72024 | 82° | 20km/h | 16404m | 6.3m/s | 0°C | 0% | 0hPa | 0V | 00:00:00 | 00:00:00 | 00:00:00 | |
| KRY50SP | 2026-09-01 12:07:34 | 51.05441 | 17.71968 | 88° | 37km/h | 16381m | 4.6m/s | 0°C | 0% | 0hPa | 0V | 00:00:00 | 00:00:00 | 00:00:00 | |
| KRY50SP | 2026-09-01 12:07:27 | 51.05436 | 17.71907 | 64° | 26km/h | 16351m | 3.1m/s | 0°C | 0% | 0hPa | 0V | 00:00:00 | 00:00:00 | 00:00:00 | |
| POL1PZ | 2026-09-01 12:07:25 | 51.05431 | 17.71889 | 73° | 20km/h | 16342m | 5.2m/s | 0°C | 0% | 0hPa | 0V | 00:00:00 | 00:00:00 | 00:00:00 | |
| KRY50SP | 2026-09-01 12:07:22 | 51.05426 | 17.71868 | 67° | 22km/h | 16328m | 4.8m/s | 0°C | 0% | 0hPa | 0V | 00:00:00 | 00:00:00 | 00:00:00 | |
| SQ6EMJ | 2026-09-01 12:07:21 | 51.05424 | 17.71859 | 68° | 26km/h | 16324m | 3.4m/s | 0°C | 0% | 0hPa | 0V | 00:00:00 | 00:00:00 | 00:00:00 | |
| KRY50SP | 2026-09-01 12:07:17 | 51.05414 | 17.71830 | 40° | 20km/h | 16306m | 4.6m/s | 0°C | 0% | 0hPa | 0V | 00:00:00 | 00:00:00 | 00:00:00 | |
| SQ6EMJ | 2026-09-01 12:07:15 | 51.05406 | 17.71816 | 51° | 27km/h | 16297m | 3.5m/s | 0°C | 0% | 0hPa | 0V | 00:00:00 | 00:00:00 | 00:00:00 | |
| KRY50SP | 2026-09-01 12:07:12 | 51.05393 | 17.71787 | 69° | 18km/h | 16278m | 4.7m/s | 0°C | 0% | 0hPa | 0V | 00:00:00 | 00:00:00 | 00:00:00 | |
| SQ6EMJ | 2026-09-01 12:07:11 | 51.05392 | 17.71780 | 78° | 20km/h | 16274m | 3.1m/s | 0°C | 0% | 0hPa | 0V | 00:00:00 | 00:00:00 | 00:00:00 | |
| SQ6EMJ | 2026-09-01 12:07:07 | 51.05381 | 17.71751 | 55° | 22km/h | 16252m | 4.2m/s | 0°C | 0% | 0hPa | 0V | 00:00:00 | 00:00:00 | 00:00:00 | |
| POL1PZ | 2026-09-01 12:07:05 | 51.05378 | 17.71743 | 60° | 24km/h | 16248m | 3.5m/s | 0°C | 0% | 0hPa | 0V | 00:00:00 | 00:00:00 | 00:00:00 | |
| KRY50SP | 2026-09-01 12:07:01 | 51.05373 | 17.71717 | 95° | 20km/h | 16229m | 4.5m/s | 0°C | 0% | 0hPa | 0V | 00:00:00 | 00:00:00 | 00:00:00 | |
| SQ6EMJ | 2026-09-01 12:06:59 | 51.05373 | 17.71709 | 93° | 18km/h | 16225m | 4.0m/s | 0°C | 0% | 0hPa | 0V | 00:00:00 | 00:00:00 | 00:00:00 | |
| KRY50SP | 2026-09-01 12:06:56 | 51.05364 | 17.71688 | 40° | 24km/h | 16206m | 5.1m/s | 0°C | 0% | 0hPa | 0V | 00:00:00 | 00:00:00 | 00:00:00 | |
| SQ6EMJ | 2026-09-01 12:06:55 | 51.05360 | 17.71682 | 52° | 24km/h | 16202m | 4.0m/s | 0°C | 0% | 0hPa | 0V | 00:00:00 | 00:00:00 | 00:00:00 | |
| SQ6EMJ | 2026-09-01 12:06:49 | 51.05358 | 17.71650 | 119° | 11km/h | 16175m | 4.2m/s | 0°C | 0% | 0hPa | 0V | 00:00:00 | 00:00:00 | 00:00:00 | |
| POL1PZ | 2026-09-01 12:06:44 | 51.05349 | 17.71631 | 52° | 26km/h | 16158m | 3.7m/s | 0°C | 0% | 0hPa | 0V | 00:00:00 | 00:00:00 | 00:00:00 | |
| KRY50SP | 2026-09-01 12:06:43 | 51.05345 | 17.71623 | 53° | 24km/h | 16154m | 3.1m/s | 0°C | 0% | 0hPa | 0V | 00:00:00 | 00:00:00 | 00:00:00 | |
| SQ6EMJ | 2026-09-01 12:06:42 | 51.05342 | 17.71616 | 61° | 18km/h | 16150m | 6.2m/s | 0°C | 0% | 0hPa | 0V | 00:00:00 | 00:00:00 | 00:00:00 | |
| KRY50SP | 2026-09-01 12:06:37 | 51.05344 | 17.71589 | 92° | 13km/h | 16127m | 4.5m/s | 0°C | 0% | 0hPa | 0V | 00:00:00 | 00:00:00 | 00:00:00 | |
| KRY50SP | 2026-09-01 12:06:33 | 51.05336 | 17.71565 | 70° | 18km/h | 16103m | 3.4m/s | 0°C | 0% | 0hPa | 0V | 00:00:00 | 00:00:00 | 00:00:00 | |
| SQ6EMJ | 2026-09-01 12:06:32 | 51.05335 | 17.71558 | 88° | 11km/h | 16098m | 5.0m/s | 0°C | 0% | 0hPa | 0V | 00:00:00 | 00:00:00 | 00:00:00 | |
| SP3BTT-10 | 2026-09-01 12:06:28 | 51.05338 | 17.71545 | 104° | 26km/h | 16086m | 5.6m/s | 0°C | 0% | 0hPa | 0V | 00:00:00 | 00:00:00 | 00:00:00 | |
| KRY50SP | 2026-09-01 12:06:26 | 51.05338 | 17.71532 | 88° | 16km/h | 16076m | 5.4m/s | 0°C | 0% | 0hPa | 0V | 00:00:00 | 00:00:00 | 00:00:00 | |
| SQ6EMJ | 2026-09-01 12:06:25 | 51.05337 | 17.71526 | 71° | 13km/h | 16071m | 5.0m/s | 0°C | 0% | 0hPa | 0V | 00:00:00 | 00:00:00 | 00:00:00 | |
| POL1PZ | 2026-09-01 12:06:23 | 51.05335 | 17.71518 | 57° | 11km/h | 16060m | 5.3m/s | 0°C | 0% | 0hPa | 0V | 00:00:00 | 00:00:00 | 00:00:00 | |
| KRY50SP | 2026-09-01 12:06:20 | 51.05331 | 17.71508 | 31° | 7km/h | 16047m | 5.7m/s | 0°C | 0% | 0hPa | 0V | 00:00:00 | 00:00:00 | 00:00:00 | |
| SQ6EMJ | 2026-09-01 12:06:19 | 51.05330 | 17.71506 | 31° | 4km/h | 16042m | 3.3m/s | 0°C | 0% | 0hPa | 0V | 00:00:00 | 00:00:00 | 00:00:00 | |
| SQ6EMJ | 2026-09-01 12:06:16 | 51.05331 | 17.71480 | 103° | 11km/h | 16018m | 5.8m/s | 0°C | 0% | 0hPa | 0V | 00:00:00 | 00:00:00 | 00:00:00 | |
| KRY50SP | 2026-09-01 12:06:15 | 51.05331 | 17.71480 | 103° | 11km/h | 16018m | 5.8m/s | 0°C | 0% | 0hPa | 0V | 00:00:00 | 00:00:00 | 00:00:00 | |
| KRY50SP | 2026-09-01 12:06:09 | 51.05330 | 17.71462 | 70° | 13km/h | 15993m | 7.3m/s | 0°C | 0% | 0hPa | 0V | 00:00:00 | 00:00:00 | 00:00:00 | |
| SQ6EMJ | 2026-09-01 12:06:04 | 51.05326 | 17.71434 | 107° | 22km/h | 15970m | 2.5m/s | 0°C | 0% | 0hPa | 0V | 00:00:00 | 00:00:00 | 00:00:00 | |
| KRY50SP | 2026-09-01 12:06:03 | 51.05328 | 17.71426 | 116° | 20km/h | 15966m | 5.1m/s | 0°C | 0% | 0hPa | 0V | 00:00:00 | 00:00:00 | 00:00:00 | |
| POL1PZ | 2026-09-01 12:06:02 | 51.05330 | 17.71420 | 130° | 15km/h | 15961m | 5.5m/s | 0°C | 0% | 0hPa | 0V | 00:00:00 | 00:00:00 | 00:00:00 | |
| KRY50SP | 2026-09-01 12:05:58 | 51.05333 | 17.71397 | 94° | 18km/h | 15942m | 3.6m/s | 0°C | 0% | 0hPa | 0V | 00:00:00 | 00:00:00 | 00:00:00 | |
| SQ6EMJ | 2026-09-01 12:05:57 | 51.05333 | 17.71390 | 105° | 16km/h | 15937m | 5.5m/s | 0°C | 0% | 0hPa | 0V | 00:00:00 | 00:00:00 | 00:00:00 | |
| SQ6EMJ | 2026-09-01 12:05:52 | 51.05343 | 17.71365 | 109° | 16km/h | 15913m | 2.9m/s | 0°C | 0% | 0hPa | 0V | 00:00:00 | 00:00:00 | 00:00:00 | |
| KRY50SP | 2026-09-01 12:05:51 | 51.05345 | 17.71360 | 127° | 15km/h | 15908m | 5.5m/s | 0°C | 0% | 0hPa | 0V | 00:00:00 | 00:00:00 | 00:00:00 | |
| SQ6EMJ | 2026-09-01 12:05:46 | 51.05350 | 17.71322 | 106° | 22km/h | 15884m | 6.2m/s | 0°C | 0% | 0hPa | 0V | 00:00:00 | 00:00:00 | 00:00:00 | |
| PETON7-10 | 2026-09-01 12:05:45 | 51.05352 | 17.71314 | 124° | 24km/h | 15879m | 4.8m/s | 0°C | 0% | 0hPa | 0V | 00:00:00 | 00:00:00 | 00:00:00 | |
| POL1PZ | 2026-09-01 12:05:42 | 51.05360 | 17.71296 | 123° | 18km/h | 15864m | 4.4m/s | 0°C | 0% | 0hPa | 0V | 00:00:00 | 00:00:00 | 00:00:00 | |
| KRY50SP | 2026-09-01 12:05:40 | 51.05369 | 17.71275 | 113° | 26km/h | 15850m | 5.3m/s | 0°C | 0% | 0hPa | 0V | 00:00:00 | 00:00:00 | 00:00:00 | |
| SQ6EMJ | 2026-09-01 12:05:35 | 51.05379 | 17.71229 | 130° | 29km/h | 15832m | 4.1m/s | 0°C | 0% | 0hPa | 0V | 00:00:00 | 00:00:00 | 00:00:00 | |
| KRY50SP | 2026-09-01 12:05:33 | 51.05388 | 17.71212 | 128° | 26km/h | 15824m | 4.8m/s | 0°C | 0% | 0hPa | 0V | 00:00:00 | 00:00:00 | 00:00:00 | |
| PETON7-10 | 2026-09-01 12:05:31 | 51.05392 | 17.71180 | 90° | 55km/h | 15808m | 5.3m/s | 0°C | 0% | 0hPa | 0V | 00:00:00 | 00:00:00 | 00:00:00 | |
| SP3BTT-10 | 2026-09-01 12:05:27 | 51.05395 | 17.71143 | 106° | 49km/h | 15795m | 6.1m/s | 0°C | 0% | 0hPa | 0V | 00:00:00 | 00:00:00 | 00:00:00 | |
| POL1PZ | 2026-09-01 12:05:22 | 51.05410 | 17.71069 | 99° | 40km/h | 15771m | 5.3m/s | 0°C | 0% | 0hPa | 0V | 00:00:00 | 00:00:00 | 00:00:00 | |
| KRY50SP | 2026-09-01 12:05:21 | 51.05411 | 17.71052 | 93° | 42km/h | 15766m | 5.0m/s | 0°C | 0% | 0hPa | 0V | 00:00:00 | 00:00:00 | 00:00:00 | |
| KRY50SP | 2026-09-01 12:05:16 | 51.05425 | 17.70958 | 116° | 51km/h | 15741m | 4.3m/s | 0°C | 0% | 0hPa | 0V | 00:00:00 | 00:00:00 | 00:00:00 | |
| SQ6EMJ | 2026-09-01 12:05:10 | 51.05436 | 17.70882 | 87° | 38km/h | 15716m | 4.4m/s | 0°C | 0% | 0hPa | 0V | 00:00:00 | 00:00:00 | 00:00:00 | |
| KRY50SP | 2026-09-01 12:05:05 | 51.05443 | 17.70798 | 99° | 40km/h | 15693m | 4.8m/s | 0°C | 0% | 0hPa | 0V | 00:00:00 | 00:00:00 | 00:00:00 | |
| SQ6EMJ | 2026-09-01 12:05:04 | 51.05445 | 17.70781 | 102° | 46km/h | 15688m | 5.4m/s | 0°C | 0% | 0hPa | 0V | 00:00:00 | 00:00:00 | 00:00:00 | |
| POL1PZ | 2026-09-01 12:05:02 | 51.05449 | 17.70725 | 94° | 46km/h | 15675m | 5.9m/s | 0°C | 0% | 0hPa | 0V | 00:00:00 | 00:00:00 | 00:00:00 | |
| KRY50SP | 2026-09-01 12:04:58 | 51.05451 | 17.70672 | 97° | 46km/h | 15662m | 4.4m/s | 0°C | 0% | 0hPa | 0V | 00:00:00 | 00:00:00 | 00:00:00 | |
| SQ6EMJ | 2026-09-01 12:04:53 | 51.05460 | 17.70576 | 100° | 53km/h | 15639m | 5.5m/s | 0°C | 0% | 0hPa | 0V | 00:00:00 | 00:00:00 | 00:00:00 | |
| KRY50SP | 2026-09-01 12:04:52 | 51.05462 | 17.70554 | 96° | 57km/h | 15634m | 5.2m/s | 0°C | 0% | 0hPa | 0V | 00:00:00 | 00:00:00 | 00:00:00 | |
| SQ6EMJ | 2026-09-01 12:04:48 | 51.05462 | 17.70469 | 91° | 51km/h | 15615m | 5.3m/s | 0°C | 0% | 0hPa | 0V | 00:00:00 | 00:00:00 | 00:00:00 | |
| KRY50SP | 2026-09-01 12:04:46 | 51.05464 | 17.70426 | 97° | 53km/h | 15605m | 5.7m/s | 0°C | 0% | 0hPa | 0V | 00:00:00 | 00:00:00 | 00:00:00 | |
| SP3BTT-10 | 2026-09-01 12:04:42 | 51.05472 | 17.70344 | 102° | 69km/h | 15586m | 4.7m/s | 0°C | 0% | 0hPa | 0V | 00:00:00 | 00:00:00 | 00:00:00 | |
| KRY50SP | 2026-09-01 12:04:40 | 51.05477 | 17.70298 | 100° | 55km/h | 15577m | 4.8m/s | 0°C | 0% | 0hPa | 0V | 00:00:00 | 00:00:00 | 00:00:00 | |
| KRY50SP | 2026-09-01 12:04:35 | 51.05484 | 17.70186 | 99° | 51km/h | 15553m | 3.5m/s | 0°C | 0% | 0hPa | 0V | 00:00:00 | 00:00:00 | 00:00:00 | |
| SQ6EMJ | 2026-09-01 12:04:34 | 51.05486 | 17.70166 | 101° | 51km/h | 15550m | 4.3m/s | 0°C | 0% | 0hPa | 0V | 00:00:00 | 00:00:00 | 00:00:00 | |
| KRY50SP | 2026-09-01 12:04:29 | 51.05504 | 17.70045 | 104° | 66km/h | 15528m | 3.2m/s | 0°C | 0% | 0hPa | 0V | 00:00:00 | 00:00:00 | 00:00:00 | |
| SQ6EMJ | 2026-09-01 12:04:28 | 51.05508 | 17.70019 | 103° | 69km/h | 15524m | 5.8m/s | 0°C | 0% | 0hPa | 0V | 00:00:00 | 00:00:00 | 00:00:00 | |
| KRY50SP | 2026-09-01 12:04:23 | 51.05518 | 17.69891 | 92° | 62km/h | 15505m | 3.8m/s | 0°C | 0% | 0hPa | 0V | 00:00:00 | 00:00:00 | 00:00:00 | |
| POL1PZ | 2026-09-01 12:04:20 | 51.05521 | 17.69814 | 93° | 60km/h | 15493m | 5.0m/s | 0°C | 0% | 0hPa | 0V | 00:00:00 | 00:00:00 | 00:00:00 | |
| KRY50SP | 2026-09-01 12:04:18 | 51.05522 | 17.69765 | 96° | 62km/h | 15481m | 5.8m/s | 0°C | 0% | 0hPa | 0V | 00:00:00 | 00:00:00 | 00:00:00 | |
| SQ6EMJ | 2026-09-01 12:04:17 | 51.05524 | 17.69739 | 100° | 66km/h | 15476m | 4.5m/s | 0°C | 0% | 0hPa | 0V | 00:00:00 | 00:00:00 | 00:00:00 | |
| KRY50SP | 2026-09-01 12:04:12 | 51.05536 | 17.69621 | 93° | 57km/h | 15457m | 4.2m/s | 0°C | 0% | 0hPa | 0V | 00:00:00 | 00:00:00 | 00:00:00 | |
| SQ6EMJ | 2026-09-01 12:04:11 | 51.05536 | 17.69598 | 92° | 58km/h | 15453m | 3.9m/s | 0°C | 0% | 0hPa | 0V | 00:00:00 | 00:00:00 | 00:00:00 | |
| KRY50SP | 2026-09-01 12:04:07 | 51.05542 | 17.69500 | 99° | 69km/h | 15435m | 4.7m/s | 0°C | 0% | 0hPa | 0V | 00:00:00 | 00:00:00 | 00:00:00 | |
| SQ6EMJ | 2026-09-01 12:04:05 | 51.05548 | 17.69445 | 104° | 68km/h | 15425m | 5.3m/s | 0°C | 0% | 0hPa | 0V | 00:00:00 | 00:00:00 | 00:00:00 | |
| KRY50SP | 2026-09-01 12:04:02 | 51.05553 | 17.69371 | 91° | 60km/h | 15413m | 5.7m/s | 0°C | 0% | 0hPa | 0V | 00:00:00 | 00:00:00 | 00:00:00 | |
| POL1PZ | 2026-09-01 12:04:00 | 51.05554 | 17.69319 | 94° | 68km/h | 15405m | 3.9m/s | 0°C | 0% | 0hPa | 0V | 00:00:00 | 00:00:00 | 00:00:00 | |
| KRY50SP | 2026-09-01 12:03:56 | 51.05560 | 17.69207 | 97° | 75km/h | 15388m | 3.6m/s | 0°C | 0% | 0hPa | 0V | 00:00:00 | 00:00:00 | 00:00:00 | |
| SQ6EMJ | 2026-09-01 12:03:53 | 51.05565 | 17.69124 | 94° | 64km/h | 15375m | 3.5m/s | 0°C | 0% | 0hPa | 0V | 00:00:00 | 00:00:00 | 00:00:00 | |
| KRY50SP | 2026-09-01 12:03:51 | 51.05566 | 17.69071 | 91° | 69km/h | 15366m | 3.8m/s | 0°C | 0% | 0hPa | 0V | 00:00:00 | 00:00:00 | 00:00:00 | |
| KRY50SP | 2026-09-01 12:03:46 | 51.05574 | 17.68924 | 97° | 78km/h | 15345m | 5.5m/s | 0°C | 0% | 0hPa | 0V | 00:00:00 | 00:00:00 | 00:00:00 | |
| SP3BTT-10 | 2026-09-01 12:03:43 | 51.05580 | 17.68796 | 96° | 75km/h | 15329m | 3.6m/s | 0°C | 0% | 0hPa | 0V | 00:00:00 | 00:00:00 | 00:00:00 | |
| KRY50SP | 2026-09-01 12:03:40 | 51.05582 | 17.68735 | 90° | 73km/h | 15320m | 4.3m/s | 0°C | 0% | 0hPa | 0V | 00:00:00 | 00:00:00 | 00:00:00 | |
| POL1PZ | 2026-09-01 12:03:37 | 51.05582 | 17.68651 | 93° | 69km/h | 15306m | 4.0m/s | 0°C | 0% | 0hPa | 0V | 00:00:00 | 00:00:00 | 00:00:00 | |
| KRY50SP | 2026-09-01 12:03:34 | 51.05581 | 17.68562 | 88° | 75km/h | 15293m | 4.5m/s | 0°C | 0% | 0hPa | 0V | 00:00:00 | 00:00:00 | 00:00:00 | |
| KRY50SP | 2026-09-01 12:03:29 | 51.05572 | 17.68423 | 81° | 69km/h | 15273m | 2.1m/s | 0°C | 0% | 0hPa | 0V | 00:00:00 | 00:00:00 | 00:00:00 | |
| KRY50SP | 2026-09-01 12:03:21 | 51.05562 | 17.68203 | 85° | 68km/h | 15241m | 4.4m/s | 0°C | 0% | 0hPa | 0V | 00:00:00 | 00:00:00 | 00:00:00 | |
| KRY50SP | 2026-09-01 12:03:16 | 51.05547 | 17.68042 | 84° | 64km/h | 15217m | 4.3m/s | 0°C | 0% | 0hPa | 0V | 00:00:00 | 00:00:00 | 00:00:00 | |
| SQ6EMJ | 2026-09-01 12:03:12 | 51.05541 | 17.67962 | 85° | 71km/h | 15205m | 4.1m/s | 0°C | 0% | 0hPa | 0V | 00:00:00 | 00:00:00 | 00:00:00 | |
| KRY50SP | 2026-09-01 12:03:10 | 51.05532 | 17.67878 | 82° | 73km/h | 15191m | 5.9m/s | 0°C | 0% | 0hPa | 0V | 00:00:00 | 00:00:00 | 00:00:00 | |
| SQ6EMJ | 2026-09-01 12:03:04 | 51.05519 | 17.67741 | 84° | 69km/h | 15166m | 4.4m/s | 0°C | 0% | 0hPa | 0V | 00:00:00 | 00:00:00 | 00:00:00 | |
| KRY50SP | 2026-09-01 12:03:03 | 51.05516 | 17.67714 | 83° | 68km/h | 15162m | 4.4m/s | 0°C | 0% | 0hPa | 0V | 00:00:00 | 00:00:00 | 00:00:00 | |
| KRY50SP | 2026-09-01 12:02:57 | 51.05498 | 17.67549 | 79° | 68km/h | 15134m | 5.0m/s | 0°C | 0% | 0hPa | 0V | 00:00:00 | 00:00:00 | 00:00:00 | |
| POL1PZ | 2026-09-01 12:02:56 | 51.05494 | 17.67522 | 79° | 68km/h | 15130m | 3.7m/s | 0°C | 0% | 0hPa | 0V | 00:00:00 | 00:00:00 | 00:00:00 | |
| SQ6EMJ | 2026-09-01 12:02:54 | 51.05489 | 17.67468 | 83° | 68km/h | 15121m | 3.1m/s | 0°C | 0% | 0hPa | 0V | 00:00:00 | 00:00:00 | 00:00:00 | |
| KRY50SP | 2026-09-01 12:02:51 | 51.05479 | 17.67386 | 81° | 73km/h | 15109m | 3.4m/s | 0°C | 0% | 0hPa | 0V | 00:00:00 | 00:00:00 | 00:00:00 | |
| SQ6EMJ | 2026-09-01 12:02:48 | 51.05469 | 17.67294 | 80° | 78km/h | 15097m | 4.0m/s | 0°C | 0% | 0hPa | 0V | 00:00:00 | 00:00:00 | 00:00:00 | |
| KRY50SP | 2026-09-01 12:02:45 | 51.05456 | 17.67208 | 77° | 73km/h | 15084m | 7.6m/s | 0°C | 0% | 0hPa | 0V | 00:00:00 | 00:00:00 | 00:00:00 | |
| KRY50SP | 2026-09-01 12:02:40 | 51.05434 | 17.67071 | 75° | 77km/h | 15063m | 5.6m/s | 0°C | 0% | 0hPa | 0V | 00:00:00 | 00:00:00 | 00:00:00 | |
| SQ6EMJ | 2026-09-01 12:02:39 | 51.05428 | 17.67041 | 75° | 80km/h | 15059m | 3.1m/s | 0°C | 0% | 0hPa | 0V | 00:00:00 | 00:00:00 | 00:00:00 | |
| POL1PZ | 2026-09-01 12:02:35 | 51.05404 | 17.66925 | 72° | 71km/h | 15041m | 4.7m/s | 0°C | 0% | 0hPa | 0V | 00:00:00 | 00:00:00 | 00:00:00 | |
| KRY50SP | 2026-09-01 12:02:31 | 51.05378 | 17.66815 | 71° | 75km/h | 15023m | 4.9m/s | 0°C | 0% | 0hPa | 0V | 00:00:00 | 00:00:00 | 00:00:00 | |
| SP3BTT-10 | 2026-09-01 12:02:27 | 51.05356 | 17.66697 | 73° | 62km/h | 15006m | 4.4m/s | 0°C | 0% | 0hPa | 0V | 00:00:00 | 00:00:00 | 00:00:00 | |
| KRY50SP | 2026-09-01 12:02:25 | 51.05347 | 17.66642 | 78° | 66km/h | 14999m | 5.2m/s | 0°C | 0% | 0hPa | 0V | 00:00:00 | 00:00:00 | 00:00:00 | |
| SQ6EMJ | 2026-09-01 12:02:20 | 51.05321 | 17.66487 | 79° | 71km/h | 14973m | 4.4m/s | 0°C | 0% | 0hPa | 0V | 00:00:00 | 00:00:00 | 00:00:00 | |
| KRY50SP | 2026-09-01 12:02:14 | 51.05302 | 17.66348 | 86° | 60km/h | 14952m | 3.7m/s | 0°C | 0% | 0hPa | 0V | 00:00:00 | 00:00:00 | 00:00:00 | |
| SQ6EMJ | 2026-09-01 12:02:12 | 51.05299 | 17.66302 | 81° | 60km/h | 14943m | 5.8m/s | 0°C | 0% | 0hPa | 0V | 00:00:00 | 00:00:00 | 00:00:00 | |
| KRY50SP | 2026-09-01 12:02:09 | 51.05288 | 17.66221 | 80° | 75km/h | 14930m | 4.1m/s | 0°C | 0% | 0hPa | 0V | 00:00:00 | 00:00:00 | 00:00:00 | |
| SQ6EMJ | 2026-09-01 12:02:07 | 51.05275 | 17.66137 | 75° | 68km/h | 14918m | 3.9m/s | 0°C | 0% | 0hPa | 0V | 00:00:00 | 00:00:00 | 00:00:00 | |
| KRY50SP | 2026-09-01 12:02:05 | 51.05267 | 17.66086 | 80° | 64km/h | 14909m | 4.2m/s | 0°C | 0% | 0hPa | 0V | 00:00:00 | 00:00:00 | 00:00:00 | |
| KRY50SP | 2026-09-01 12:01:59 | 51.05241 | 17.65937 | 76° | 69km/h | 14884m | 4.2m/s | 0°C | 0% | 0hPa | 0V | 00:00:00 | 00:00:00 | 00:00:00 | |
| SQ6EMJ | 2026-09-01 12:01:54 | 51.05223 | 17.65836 | 77° | 66km/h | 14866m | 5.3m/s | 0°C | 0% | 0hPa | 0V | 00:00:00 | 00:00:00 | 00:00:00 | |
| POL1PZ | 2026-09-01 12:01:53 | 51.05219 | 17.65810 | 79° | 66km/h | 14861m | 3.9m/s | 0°C | 0% | 0hPa | 0V | 00:00:00 | 00:00:00 | 00:00:00 | |
| KRY50SP | 2026-09-01 12:01:50 | 51.05207 | 17.65738 | 74° | 60km/h | 14848m | 4.2m/s | 0°C | 0% | 0hPa | 0V | 00:00:00 | 00:00:00 | 00:00:00 | |
| SQ6EMJ | 2026-09-01 12:01:48 | 51.05199 | 17.65688 | 79° | 69km/h | 14839m | 3.2m/s | 0°C | 0% | 0hPa | 0V | 00:00:00 | 00:00:00 | 00:00:00 | |
| SQ6EMJ | 2026-09-01 12:01:37 | 51.05140 | 17.65379 | 72° | 71km/h | 14788m | 5.1m/s | 0°C | 0% | 0hPa | 0V | 00:00:00 | 00:00:00 | 00:00:00 | |
| POL1PZ | 2026-09-01 12:01:32 | 51.05123 | 17.65274 | 79° | 62km/h | 14771m | 4.0m/s | 0°C | 0% | 0hPa | 0V | 00:00:00 | 00:00:00 | 00:00:00 | |
| SQ6EMJ | 2026-09-01 12:01:26 | 51.05093 | 17.65132 | 70° | 69km/h | 14743m | 4.7m/s | 0°C | 0% | 0hPa | 0V | 00:00:00 | 00:00:00 | 00:00:00 | |
| SQ6EMJ | 2026-09-01 12:01:20 | 51.05066 | 17.64980 | 67° | 55km/h | 14716m | 3.4m/s | 0°C | 0% | 0hPa | 0V | 00:00:00 | 00:00:00 | 00:00:00 | |
| SP3BTT-10 | 2026-09-01 12:01:11 | 51.05027 | 17.64776 | 75° | 71km/h | 14676m | 5.6m/s | 0°C | 0% | 0hPa | 0V | 00:00:00 | 00:00:00 | 00:00:00 | |
| SQ6EMJ | 2026-09-01 12:01:05 | 51.05009 | 17.64638 | 82° | 66km/h | 14649m | 3.8m/s | 0°C | 0% | 0hPa | 0V | 00:00:00 | 00:00:00 | 00:00:00 | |
| SQ6EMJ | 2026-09-01 12:00:53 | 51.04985 | 17.64332 | 86° | 68km/h | 14592m | 4.9m/s | 0°C | 0% | 0hPa | 0V | 00:00:00 | 00:00:00 | 00:00:00 | |
| POL1PZ | 2026-09-01 12:00:50 | 51.04980 | 17.64280 | 80° | 66km/h | 14583m | 3.0m/s | 0°C | 0% | 0hPa | 0V | 00:00:00 | 00:00:00 | 00:00:00 | |
| SQ6EMJ | 2026-09-01 12:00:43 | 51.04967 | 17.64086 | 85° | 71km/h | 14546m | 4.8m/s | 0°C | 0% | 0hPa | 0V | 00:00:00 | 00:00:00 | 00:00:00 | |
| SQ6EMJ | 2026-09-01 12:00:36 | 51.04954 | 17.63920 | 80° | 66km/h | 14520m | 5.0m/s | 0°C | 0% | 0hPa | 0V | 00:00:00 | 00:00:00 | 00:00:00 | |
| POL1PZ | 2026-09-01 12:00:30 | 51.04941 | 17.63756 | 85° | 71km/h | 14494m | 3.4m/s | 0°C | 0% | 0hPa | 0V | 00:00:00 | 00:00:00 | 00:00:00 | |
| SQ6EMJ | 2026-09-01 12:00:29 | 51.04940 | 17.63727 | 87° | 73km/h | 14490m | 4.8m/s | 0°C | 0% | 0hPa | 0V | 00:00:00 | 00:00:00 | 00:00:00 | |
| SQ6EMJ | 2026-09-01 12:00:23 | 51.04916 | 17.63548 | 77° | 78km/h | 14464m | 6.1m/s | 0°C | 0% | 0hPa | 0V | 00:00:00 | 00:00:00 | 00:00:00 | |
| SQ6EMJ | 2026-09-01 12:00:18 | 51.04897 | 17.63362 | 82° | 80km/h | 14439m | 4.8m/s | 0°C | 0% | 0hPa | 0V | 00:00:00 | 00:00:00 | 00:00:00 | |
| SP3BTT-10 | 2026-09-01 12:00:11 | 51.04871 | 17.63180 | 80° | 71km/h | 14412m | 6.3m/s | 0°C | 0% | 0hPa | 0V | 00:00:00 | 00:00:00 | 00:00:00 | |
| POL1PZ | 2026-09-01 12:00:09 | 51.04863 | 17.63114 | 80° | 80km/h | 14404m | 4.6m/s | 0°C | 0% | 0hPa | 0V | 00:00:00 | 00:00:00 | 00:00:00 | |
| SQ6EMJ | 2026-09-01 12:00:05 | 51.04846 | 17.62994 | 76° | 80km/h | 14387m | 4.8m/s | 0°C | 0% | 0hPa | 0V | 00:00:00 | 00:00:00 | 00:00:00 | |
| SQ6EMJ | 2026-09-01 11:59:59 | 51.04808 | 17.62812 | 73° | 75km/h | 14359m | 4.8m/s | 0°C | 0% | 0hPa | 0V | 00:00:00 | 00:00:00 | 00:00:00 | |
| SQ6EMJ | 2026-09-01 11:59:54 | 51.04779 | 17.62645 | 71° | 71km/h | 14335m | 4.5m/s | 0°C | 0% | 0hPa | 0V | 00:00:00 | 00:00:00 | 00:00:00 | |
| POL1PZ | 2026-09-01 11:59:49 | 51.04753 | 17.62507 | 76° | 68km/h | 14312m | 4.5m/s | 0°C | 0% | 0hPa | 0V | 00:00:00 | 00:00:00 | 00:00:00 | |
| SQ6EMJ | 2026-09-01 11:59:47 | 51.04749 | 17.62481 | 77° | 68km/h | 14308m | 4.3m/s | 0°C | 0% | 0hPa | 0V | 00:00:00 | 00:00:00 | 00:00:00 | |
| SQ6EMJ | 2026-09-01 11:59:42 | 51.04727 | 17.62341 | 77° | 69km/h | 14285m | 3.5m/s | 0°C | 0% | 0hPa | 0V | 00:00:00 | 00:00:00 | 00:00:00 | |
| SQ6EMJ | 2026-09-01 11:59:36 | 51.04700 | 17.62182 | 79° | 71km/h | 14259m | 4.2m/s | 0°C | 0% | 0hPa | 0V | 00:00:00 | 00:00:00 | 00:00:00 | |
| SQ6EMJ | 2026-09-01 11:59:32 | 51.04694 | 17.62050 | 89° | 64km/h | 14238m | 4.6m/s | 0°C | 0% | 0hPa | 0V | 00:00:00 | 00:00:00 | 00:00:00 | |
| POL1PZ | 2026-09-01 11:59:28 | 51.04687 | 17.61976 | 76° | 60km/h | 14224m | 4.1m/s | 0°C | 0% | 0hPa | 0V | 00:00:00 | 00:00:00 | 00:00:00 | |
| SQ6EMJ | 2026-09-01 11:59:25 | 51.04676 | 17.61897 | 83° | 69km/h | 14210m | 4.1m/s | 0°C | 0% | 0hPa | 0V | 00:00:00 | 00:00:00 | 00:00:00 | |
| SQ6EMJ | 2026-09-01 11:59:19 | 51.04656 | 17.61739 | 77° | 60km/h | 14183m | 4.8m/s | 0°C | 0% | 0hPa | 0V | 00:00:00 | 00:00:00 | 00:00:00 | |
| SQ6EMJ | 2026-09-01 11:59:15 | 51.04640 | 17.61614 | 81° | 69km/h | 14162m | 5.9m/s | 0°C | 0% | 0hPa | 0V | 00:00:00 | 00:00:00 | 00:00:00 | |
| POL1PZ | 2026-09-01 11:59:08 | 51.04634 | 17.61456 | 88° | 57km/h | 14135m | 3.0m/s | 0°C | 0% | 0hPa | 0V | 00:00:00 | 00:00:00 | 00:00:00 | |
| SQ6EMJ | 2026-09-01 11:59:01 | 51.04614 | 17.61274 | 85° | 71km/h | 14106m | 4.3m/s | 0°C | 0% | 0hPa | 0V | 00:00:00 | 00:00:00 | 00:00:00 | |
| SQ6EMJ | 2026-09-01 11:58:56 | 51.04606 | 17.61144 | 82° | 66km/h | 14084m | 4.8m/s | 0°C | 0% | 0hPa | 0V | 00:00:00 | 00:00:00 | 00:00:00 | |
| PETON7-10 | 2026-09-01 11:58:55 | 51.04604 | 17.61118 | 82° | 68km/h | 14080m | 3.1m/s | 0°C | 0% | 0hPa | 0V | 00:00:00 | 00:00:00 | 00:00:00 | |
| SQ6EMJ | 2026-09-01 11:58:51 | 51.04592 | 17.61015 | 84° | 68km/h | 14064m | 4.6m/s | 0°C | 0% | 0hPa | 0V | 00:00:00 | 00:00:00 | 00:00:00 | |
| POL1PZ | 2026-09-01 11:58:48 | 51.04588 | 17.60936 | 87° | 62km/h | 14051m | 4.2m/s | 0°C | 0% | 0hPa | 0V | 00:00:00 | 00:00:00 | 00:00:00 | |
| SQ6EMJ | 2026-09-01 11:58:46 | 51.04585 | 17.60885 | 86° | 68km/h | 14042m | 4.8m/s | 0°C | 0% | 0hPa | 0V | 00:00:00 | 00:00:00 | 00:00:00 | |
| SQ6EMJ | 2026-09-01 11:58:40 | 51.04568 | 17.60728 | 82° | 71km/h | 14016m | 3.0m/s | 0°C | 0% | 0hPa | 0V | 00:00:00 | 00:00:00 | 00:00:00 | |
| SQ6EMJ | 2026-09-01 11:58:34 | 51.04560 | 17.60572 | 89° | 68km/h | 13988m | 5.9m/s | 0°C | 0% | 0hPa | 0V | 00:00:00 | 00:00:00 | 00:00:00 | |
| SQ6EMJ | 2026-09-01 11:58:22 | 51.04527 | 17.60232 | 88° | 75km/h | 13926m | 4.7m/s | 0°C | 0% | 0hPa | 0V | 00:00:00 | 00:00:00 | 00:00:00 | |
| SQ6EMJ | 2026-09-01 11:58:17 | 51.04516 | 17.60104 | 85° | 69km/h | 13902m | 4.5m/s | 0°C | 0% | 0hPa | 0V | 00:00:00 | 00:00:00 | 00:00:00 | |
| SQ6EMJ | 2026-09-01 11:58:11 | 51.04502 | 17.59903 | 86° | 75km/h | 13872m | 3.5m/s | 0°C | 0% | 0hPa | 0V | 00:00:00 | 00:00:00 | 00:00:00 | |
| POL1PZ | 2026-09-01 11:58:07 | 51.04491 | 17.59800 | 73° | 71km/h | 13854m | 4.2m/s | 0°C | 0% | 0hPa | 0V | 00:00:00 | 00:00:00 | 00:00:00 | |
| SQ6EMJ | 2026-09-01 11:58:06 | 51.04485 | 17.59771 | 72° | 78km/h | 13848m | 7.1m/s | 0°C | 0% | 0hPa | 0V | 00:00:00 | 00:00:00 | 00:00:00 | |
| SQ6EMJ | 2026-09-01 11:58:00 | 51.04445 | 17.59586 | 85° | 66km/h | 13813m | 5.4m/s | 0°C | 0% | 0hPa | 0V | 00:00:00 | 00:00:00 | 00:00:00 | |
| SQ6EMJ | 2026-09-01 11:57:55 | 51.04428 | 17.59465 | 69° | 66km/h | 13787m | 5.9m/s | 0°C | 0% | 0hPa | 0V | 00:00:00 | 00:00:00 | 00:00:00 | |
| SQ6EMJ | 2026-09-01 11:57:50 | 51.04392 | 17.59288 | 74° | 78km/h | 13754m | 4.3m/s | 0°C | 0% | 0hPa | 0V | 00:00:00 | 00:00:00 | 00:00:00 | |
| POL1PZ | 2026-09-01 11:57:47 | 51.04384 | 17.59225 | 83° | 80km/h | 13746m | 5.9m/s | 0°C | 0% | 0hPa | 0V | 00:00:00 | 00:00:00 | 00:00:00 | |
| SQ6EMJ | 2026-09-01 11:57:43 | 51.04366 | 17.59104 | 76° | 80km/h | 13724m | 9.1m/s | 0°C | 0% | 0hPa | 0V | 00:00:00 | 00:00:00 | 00:00:00 | |
| SP3BTT-10 | 2026-09-01 11:57:41 | 51.04357 | 17.59039 | 80° | 77km/h | 13712m | 6.3m/s | 0°C | 0% | 0hPa | 0V | 00:00:00 | 00:00:00 | 00:00:00 | |
| SQ6EMJ | 2026-09-01 11:57:37 | 51.04340 | 17.58914 | 74° | 77km/h | 13694m | 5.4m/s | 0°C | 0% | 0hPa | 0V | 00:00:00 | 00:00:00 | 00:00:00 | |
| SQ6EMJ | 2026-09-01 11:57:32 | 51.04315 | 17.58753 | 79° | 80km/h | 13667m | 4.8m/s | 0°C | 0% | 0hPa | 0V | 00:00:00 | 00:00:00 | 00:00:00 | |
| SQ6EMJ | 2026-09-01 11:57:27 | 51.04290 | 17.58605 | 67° | 77km/h | 13636m | 6.1m/s | 0°C | 0% | 0hPa | 0V | 00:00:00 | 00:00:00 | 00:00:00 | |
| POL1PZ | 2026-09-01 11:57:26 | 51.04282 | 17.58577 | 68° | 78km/h | 13631m | 4.6m/s | 0°C | 0% | 0hPa | 0V | 00:00:00 | 00:00:00 | 00:00:00 | |
| SQ6EMJ | 2026-09-01 11:57:21 | 51.04256 | 17.58429 | 80° | 75km/h | 13599m | 8.5m/s | 0°C | 0% | 0hPa | 0V | 00:00:00 | 00:00:00 | 00:00:00 | |
| SQ6EMJ | 2026-09-01 11:57:16 | 51.04226 | 17.58275 | 70° | 82km/h | 13567m | 4.2m/s | 0°C | 0% | 0hPa | 0V | 00:00:00 | 00:00:00 | 00:00:00 | |
| SQ6EMJ | 2026-09-01 11:57:12 | 51.04198 | 17.58125 | 77° | 73km/h | 13542m | 4.6m/s | 0°C | 0% | 0hPa | 0V | 00:00:00 | 00:00:00 | 00:00:00 | |
| POL1PZ | 2026-09-01 11:57:06 | 51.04170 | 17.57967 | 74° | 82km/h | 13519m | 5.2m/s | 0°C | 0% | 0hPa | 0V | 00:00:00 | 00:00:00 | 00:00:00 | |
| SQ6EMJ | 2026-09-01 11:57:05 | 51.04163 | 17.57937 | 72° | 77km/h | 13514m | 6.2m/s | 0°C | 0% | 0hPa | 0V | 00:00:00 | 00:00:00 | 00:00:00 | |
| SQ6EMJ | 2026-09-01 11:56:59 | 51.04129 | 17.57769 | 73° | 75km/h | 13480m | 3.7m/s | 0°C | 0% | 0hPa | 0V | 00:00:00 | 00:00:00 | 00:00:00 | |
| SQ6EMJ | 2026-09-01 11:56:48 | 51.04074 | 17.57449 | 78° | 80km/h | 13419m | 5.6m/s | 0°C | 0% | 0hPa | 0V | 00:00:00 | 00:00:00 | 00:00:00 | |
| POL1PZ | 2026-09-01 11:56:44 | 51.04043 | 17.57314 | 69° | 88km/h | 13397m | 3.1m/s | 0°C | 0% | 0hPa | 0V | 00:00:00 | 00:00:00 | 00:00:00 | |
| SQ6EMJ | 2026-09-01 11:56:42 | 51.04027 | 17.57251 | 71° | 77km/h | 13387m | 3.3m/s | 0°C | 0% | 0hPa | 0V | 00:00:00 | 00:00:00 | 00:00:00 | |
| SQ6EMJ | 2026-09-01 11:56:37 | 51.04005 | 17.57110 | 70° | 75km/h | 13358m | 6.6m/s | 0°C | 0% | 0hPa | 0V | 00:00:00 | 00:00:00 | 00:00:00 | |
| SQ6EMJ | 2026-09-01 11:56:32 | 51.03971 | 17.56960 | 76° | 71km/h | 13330m | 5.5m/s | 0°C | 0% | 0hPa | 0V | 00:00:00 | 00:00:00 | 00:00:00 | |
| SQ6EMJ | 2026-09-01 11:56:26 | 51.03940 | 17.56790 | 69° | 86km/h | 13296m | 5.2m/s | 0°C | 0% | 0hPa | 0V | 00:00:00 | 00:00:00 | 00:00:00 | |
| SP3BTT-10 | 2026-09-01 11:56:25 | 51.03932 | 17.56758 | 68° | 66km/h | 13290m | 7.5m/s | 0°C | 0% | 0hPa | 0V | 00:00:00 | 00:00:00 | 00:00:00 | |
| SQ6EMJ | 2026-09-01 11:56:21 | 51.03905 | 17.56650 | 74° | 60km/h | 13271m | 5.0m/s | 0°C | 0% | 0hPa | 0V | 00:00:00 | 00:00:00 | 00:00:00 | |
| POL1PZ | 2026-09-01 11:56:19 | 51.03900 | 17.56601 | 89° | 68km/h | 13256m | 5.3m/s | 0°C | 0% | 0hPa | 0V | 00:00:00 | 00:00:00 | 00:00:00 | |
| SQ6EMJ | 2026-09-01 11:56:15 | 51.03885 | 17.56496 | 69° | 75km/h | 13230m | 5.2m/s | 0°C | 0% | 0hPa | 0V | 00:00:00 | 00:00:00 | 00:00:00 | |
| SQ6EMJ | 2026-09-01 11:56:09 | 51.03853 | 17.56337 | 74° | 68km/h | 13194m | 3.6m/s | 0°C | 0% | 0hPa | 0V | 00:00:00 | 00:00:00 | 00:00:00 | |
| SQ6EMJ | 2026-09-01 11:56:03 | 51.03837 | 17.56191 | 89° | 58km/h | 13163m | 4.5m/s | 0°C | 0% | 0hPa | 0V | 00:00:00 | 00:00:00 | 00:00:00 | |
| POL1PZ | 2026-09-01 11:55:54 | 51.03816 | 17.55965 | 87° | 53km/h | 13117m | 4.6m/s | 0°C | 0% | 0hPa | 0V | 00:00:00 | 00:00:00 | 00:00:00 | |
| SQ6EMJ | 2026-09-01 11:55:51 | 51.03811 | 17.55902 | 85° | 55km/h | 13103m | 1.1m/s | 0°C | 0% | 0hPa | 0V | 00:00:00 | 00:00:00 | 00:00:00 | |
| SQ6EMJ | 2026-09-01 11:55:45 | 51.03806 | 17.55758 | 92° | 58km/h | 13072m | 5.5m/s | 0°C | 0% | 0hPa | 0V | 00:00:00 | 00:00:00 | 00:00:00 | |
| SQ6EMJ | 2026-09-01 11:55:40 | 51.03806 | 17.55627 | 88° | 66km/h | 13037m | 7.8m/s | 0°C | 0% | 0hPa | 0V | 00:00:00 | 00:00:00 | 00:00:00 | |
| SP3BTT-10 | 2026-09-01 11:55:39 | 51.03804 | 17.55601 | 81° | 78km/h | 13031m | 4.2m/s | 0°C | 0% | 0hPa | 0V | 00:00:00 | 00:00:00 | 00:00:00 | |
| POL1PZ | 2026-09-01 11:55:34 | 51.03791 | 17.55458 | 86° | 69km/h | 12995m | 5.1m/s | 0°C | 0% | 0hPa | 0V | 00:00:00 | 00:00:00 | 00:00:00 | |
| SQ6EMJ | 2026-09-01 11:55:28 | 51.03788 | 17.55327 | 81° | 60km/h | 12962m | 7.2m/s | 0°C | 0% | 0hPa | 0V | 00:00:00 | 00:00:00 | 00:00:00 | |
| SQ6EMJ | 2026-09-01 11:55:22 | 51.03777 | 17.55166 | 92° | 68km/h | 12927m | 8.5m/s | 0°C | 0% | 0hPa | 0V | 00:00:00 | 00:00:00 | 00:00:00 | |
| SQ6EMJ | 2026-09-01 11:55:17 | 51.03790 | 17.55039 | 96° | 69km/h | 12898m | 4.2m/s | 0°C | 0% | 0hPa | 0V | 00:00:00 | 00:00:00 | 00:00:00 | |
| POL1PZ | 2026-09-01 11:55:12 | 51.03801 | 17.54891 | 99° | 71km/h | 12867m | 6.5m/s | 0°C | 0% | 0hPa | 0V | 00:00:00 | 00:00:00 | 00:00:00 | |
| SQ6EMJ | 2026-09-01 11:55:11 | 51.03803 | 17.54862 | 99° | 73km/h | 12860m | 8.7m/s | 0°C | 0% | 0hPa | 0V | 00:00:00 | 00:00:00 | 00:00:00 | |
| SQ6EMJ | 2026-09-01 11:55:06 | 51.03819 | 17.54727 | 99° | 71km/h | 12831m | 2.3m/s | 0°C | 0% | 0hPa | 0V | 00:00:00 | 00:00:00 | 00:00:00 | |
| SQ6EMJ | 2026-09-01 11:54:59 | 51.03846 | 17.54521 | 107° | 86km/h | 12797m | 5.1m/s | 0°C | 0% | 0hPa | 0V | 00:00:00 | 00:00:00 | 00:00:00 | |
| SQ6EMJ | 2026-09-01 11:54:53 | 51.03875 | 17.54348 | 98° | 66km/h | 12762m | 7.4m/s | 0°C | 0% | 0hPa | 0V | 00:00:00 | 00:00:00 | 00:00:00 | |
| POL1PZ | 2026-09-01 11:54:51 | 51.03880 | 17.54287 | 101° | 88km/h | 12751m | 6.0m/s | 0°C | 0% | 0hPa | 0V | 00:00:00 | 00:00:00 | 00:00:00 | |
| SQ6EMJ | 2026-09-01 11:54:48 | 51.03898 | 17.54182 | 109° | 86km/h | 12730m | 4.8m/s | 0°C | 0% | 0hPa | 0V | 00:00:00 | 00:00:00 | 00:00:00 | |
| SQ6EMJ | 2026-09-01 11:54:42 | 51.03927 | 17.53981 | 98° | 99km/h | 12696m | 4.1m/s | 0°C | 0% | 0hPa | 0V | 00:00:00 | 00:00:00 | 00:00:00 | |
| SQ6EMJ | 2026-09-01 11:54:36 | 51.03951 | 17.53770 | 104° | 84km/h | 12667m | 8.7m/s | 0°C | 0% | 0hPa | 0V | 00:00:00 | 00:00:00 | 00:00:00 | |
| SQ6EMJ | 2026-09-01 11:54:30 | 51.03968 | 17.53557 | 97° | 88km/h | 12634m | 9.0m/s | 0°C | 0% | 0hPa | 0V | 00:00:00 | 00:00:00 | 00:00:00 | |
| SQ6EMJ | 2026-09-01 11:54:24 | 51.03998 | 17.53366 | 95° | 84km/h | 12597m | 8.7m/s | 0°C | 0% | 0hPa | 0V | 00:00:00 | 00:00:00 | 00:00:00 | |
| SP3BTT-10 | 2026-09-01 11:54:23 | 51.03999 | 17.53332 | 91° | 88km/h | 12589m | 6.0m/s | 0°C | 0% | 0hPa | 0V | 00:00:00 | 00:00:00 | 00:00:00 | |
| SQ6EMJ | 2026-09-01 11:54:11 | 51.04045 | 17.52953 | 102° | 84km/h | 12526m | 3.5m/s | 0°C | 0% | 0hPa | 0V | 00:00:00 | 00:00:00 | 00:00:00 | |
| SQ6EMJ | 2026-09-01 11:53:58 | 51.04136 | 17.52574 | 107° | 77km/h | 12456m | 6.6m/s | 0°C | 0% | 0hPa | 0V | 00:00:00 | 00:00:00 | 00:00:00 | |
| POL1PZ | 2026-09-01 11:53:57 | 51.04141 | 17.52545 | 109° | 78km/h | 12450m | 4.2m/s | 0°C | 0% | 0hPa | 0V | 00:00:00 | 00:00:00 | 00:00:00 | |
| SQ6EMJ | 2026-09-01 11:53:53 | 51.04170 | 17.52419 | 116° | 84km/h | 12429m | 3.7m/s | 0°C | 0% | 0hPa | 0V | 00:00:00 | 00:00:00 | 00:00:00 | |
| SQ6EMJ | 2026-09-01 11:53:47 | 51.04216 | 17.52239 | 109° | 91km/h | 12403m | 4.5m/s | 0°C | 0% | 0hPa | 0V | 00:00:00 | 00:00:00 | 00:00:00 | |
| SQ6EMJ | 2026-09-01 11:53:42 | 51.04247 | 17.52067 | 105° | 86km/h | 12376m | 5.4m/s | 0°C | 0% | 0hPa | 0V | 00:00:00 | 00:00:00 | 00:00:00 | |
| SP3BTT-10 | 2026-09-01 11:53:39 | 51.04273 | 17.51920 | 108° | 117km/h | 12359m | 4.2m/s | 0°C | 0% | 0hPa | 0V | 00:00:00 | 00:00:00 | 00:00:00 | |
| POL1PZ | 2026-09-01 11:53:36 | 51.04289 | 17.51845 | 108° | 100km/h | 12350m | 3.8m/s | 0°C | 0% | 0hPa | 0V | 00:00:00 | 00:00:00 | 00:00:00 | |
| SQ6EMJ | 2026-09-01 11:53:31 | 51.04322 | 17.51664 | 104° | 99km/h | 12319m | 5.4m/s | 0°C | 0% | 0hPa | 0V | 00:00:00 | 00:00:00 | 00:00:00 | |
| SQ6EMJ | 2026-09-01 11:53:25 | 51.04354 | 17.51413 | 99° | 111km/h | 12292m | 4.5m/s | 0°C | 0% | 0hPa | 0V | 00:00:00 | 00:00:00 | 00:00:00 | |
| SQ6EMJ | 2026-09-01 11:53:20 | 51.04379 | 17.51209 | 106° | 104km/h | 12268m | 4.9m/s | 0°C | 0% | 0hPa | 0V | 00:00:00 | 00:00:00 | 00:00:00 | |
| SQ6EMJ | 2026-09-01 11:53:15 | 51.04401 | 17.50993 | 101° | 111km/h | 12239m | 3.6m/s | 0°C | 0% | 0hPa | 0V | 00:00:00 | 00:00:00 | 00:00:00 | |
| SQ6EMJ | 2026-09-01 11:53:09 | 51.04433 | 17.50732 | 103° | 102km/h | 12205m | 3.0m/s | 0°C | 0% | 0hPa | 0V | 00:00:00 | 00:00:00 | 00:00:00 | |
| SQ6EMJ | 2026-09-01 11:53:04 | 51.04457 | 17.50527 | 103° | 102km/h | 12180m | 4.1m/s | 0°C | 0% | 0hPa | 0V | 00:00:00 | 00:00:00 | 00:00:00 | |
| SQ6EMJ | 2026-09-01 11:52:58 | 51.04501 | 17.50270 | 101° | 108km/h | 12150m | 4.3m/s | 0°C | 0% | 0hPa | 0V | 00:00:00 | 00:00:00 | 00:00:00 | |
| POL1PZ | 2026-09-01 11:52:54 | 51.04526 | 17.50107 | 109° | 104km/h | 12127m | 5.3m/s | 0°C | 0% | 0hPa | 0V | 00:00:00 | 00:00:00 | 00:00:00 | |
| SQ6EMJ | 2026-09-01 11:52:52 | 51.04542 | 17.50024 | 105° | 110km/h | 12117m | 4.9m/s | 0°C | 0% | 0hPa | 0V | 00:00:00 | 00:00:00 | 00:00:00 | |
| SQ6EMJ | 2026-09-01 11:52:46 | 51.04588 | 17.49754 | 107° | 126km/h | 12084m | 7.7m/s | 0°C | 0% | 0hPa | 0V | 00:00:00 | 00:00:00 | 00:00:00 | |
| SQ6EMJ | 2026-09-01 11:52:40 | 51.04628 | 17.49478 | 106° | 110km/h | 12055m | 6.9m/s | 0°C | 0% | 0hPa | 0V | 00:00:00 | 00:00:00 | 00:00:00 | |
| SQ6EMJ | 2026-09-01 11:52:34 | 51.04683 | 17.49218 | 110° | 110km/h | 12022m | 5.5m/s | 0°C | 0% | 0hPa | 0V | 00:00:00 | 00:00:00 | 00:00:00 | |
| POL1PZ | 2026-09-01 11:52:29 | 51.04719 | 17.48999 | 101° | 117km/h | 11993m | 3.4m/s | 0°C | 0% | 0hPa | 0V | 00:00:00 | 00:00:00 | 00:00:00 | |
| SQ6EMJ | 2026-09-01 11:52:28 | 51.04725 | 17.48953 | 102° | 117km/h | 11988m | 5.4m/s | 0°C | 0% | 0hPa | 0V | 00:00:00 | 00:00:00 | 00:00:00 | |
| SQ6EMJ | 2026-09-01 11:52:22 | 51.04764 | 17.48688 | 100° | 108km/h | 11956m | 7.0m/s | 0°C | 0% | 0hPa | 0V | 00:00:00 | 00:00:00 | 00:00:00 | |
| SQ6EMJ | 2026-09-01 11:52:16 | 51.04799 | 17.48425 | 110° | 122km/h | 11929m | 8.3m/s | 0°C | 0% | 0hPa | 0V | 00:00:00 | 00:00:00 | 00:00:00 | |
| SQ6EMJ | 2026-09-01 11:52:11 | 51.04849 | 17.48155 | 105° | 120km/h | 11898m | 6.3m/s | 0°C | 0% | 0hPa | 0V | 00:00:00 | 00:00:00 | 00:00:00 | |
| POL1PZ | 2026-09-01 11:52:06 | 51.04873 | 17.47956 | 102° | 120km/h | 11877m | 3.0m/s | 0°C | 0% | 0hPa | 0V | 00:00:00 | 00:00:00 | 00:00:00 | |
| SQ6EMJ | 2026-09-01 11:52:05 | 51.04879 | 17.47910 | 101° | 113km/h | 11873m | 4.9m/s | 0°C | 0% | 0hPa | 0V | 00:00:00 | 00:00:00 | 00:00:00 | |
| SQ6EMJ | 2026-09-01 11:52:00 | 51.04907 | 17.47697 | 103° | 111km/h | 11849m | 4.2m/s | 0°C | 0% | 0hPa | 0V | 00:00:00 | 00:00:00 | 00:00:00 | |
| SQ6EMJ | 2026-09-01 11:51:54 | 51.04941 | 17.47426 | 101° | 113km/h | 11812m | 3.2m/s | 0°C | 0% | 0hPa | 0V | 00:00:00 | 00:00:00 | 00:00:00 | |
| SQ6EMJ | 2026-09-01 11:51:49 | 51.04962 | 17.47207 | 98° | 111km/h | 11790m | 6.2m/s | 0°C | 0% | 0hPa | 0V | 00:00:00 | 00:00:00 | 00:00:00 | |
| POL1PZ | 2026-09-01 11:51:45 | 51.04981 | 17.47026 | 99° | 113km/h | 11771m | 6.1m/s | 0°C | 0% | 0hPa | 0V | 00:00:00 | 00:00:00 | 00:00:00 | |
| SQ6EMJ | 2026-09-01 11:51:44 | 51.04989 | 17.46936 | 98° | 111km/h | 11760m | 9.6m/s | 0°C | 0% | 0hPa | 0V | 00:00:00 | 00:00:00 | 00:00:00 | |
| SQ6EMJ | 2026-09-01 11:51:38 | 51.05001 | 17.46706 | 100° | 122km/h | 11725m | 5.0m/s | 0°C | 0% | 0hPa | 0V | 00:00:00 | 00:00:00 | 00:00:00 | |
| SQ6EMJ | 2026-09-01 11:51:33 | 51.05034 | 17.46483 | 105° | 113km/h | 11696m | 7.6m/s | 0°C | 0% | 0hPa | 0V | 00:00:00 | 00:00:00 | 00:00:00 | |
| SQ6EMJ | 2026-09-01 11:51:27 | 51.05063 | 17.46202 | 102° | 120km/h | 11660m | 5.8m/s | 0°C | 0% | 0hPa | 0V | 00:00:00 | 00:00:00 | 00:00:00 | |
| SQ6EMJ | 2026-09-01 11:51:22 | 51.05092 | 17.45974 | 97° | 119km/h | 11634m | 4.0m/s | 0°C | 0% | 0hPa | 0V | 00:00:00 | 00:00:00 | 00:00:00 | |
| POL1PZ | 2026-09-01 11:51:21 | 51.05095 | 17.45925 | 97° | 124km/h | 11629m | 6.2m/s | 0°C | 0% | 0hPa | 0V | 00:00:00 | 00:00:00 | 00:00:00 | |
| SQ6EMJ | 2026-09-01 11:51:17 | 51.05108 | 17.45721 | 97° | 131km/h | 11605m | 4.9m/s | 0°C | 0% | 0hPa | 0V | 00:00:00 | 00:00:00 | 00:00:00 | |
| SQ6EMJ | 2026-09-01 11:51:12 | 51.05138 | 17.45429 | 97° | 124km/h | 11566m | 2.3m/s | 0°C | 0% | 0hPa | 0V | 00:00:00 | 00:00:00 | 00:00:00 | |
| SQ6EMJ | 2026-09-01 11:51:05 | 51.05169 | 17.45111 | 103° | 130km/h | 11535m | 4.1m/s | 0°C | 0% | 0hPa | 0V | 00:00:00 | 00:00:00 | 00:00:00 | |
| POL1PZ | 2026-09-01 11:51:00 | 51.05186 | 17.44854 | 92° | 128km/h | 11507m | 5.3m/s | 0°C | 0% | 0hPa | 0V | 00:00:00 | 00:00:00 | 00:00:00 | |
| SQ6EMJ | 2026-09-01 11:50:54 | 51.05213 | 17.44548 | 101° | 122km/h | 11466m | 4.3m/s | 0°C | 0% | 0hPa | 0V | 00:00:00 | 00:00:00 | 00:00:00 | |
| SQ6EMJ | 2026-09-01 11:50:42 | 51.05271 | 17.43969 | 102° | 120km/h | 11394m | 4.8m/s | 0°C | 0% | 0hPa | 0V | 00:00:00 | 00:00:00 | 00:00:00 | |
| POL1PZ | 2026-09-01 11:50:39 | 51.05288 | 17.43825 | 102° | 122km/h | 11376m | 4.7m/s | 0°C | 0% | 0hPa | 0V | 00:00:00 | 00:00:00 | 00:00:00 | |
| SQ6EMJ | 2026-09-01 11:50:36 | 51.05307 | 17.43680 | 104° | 120km/h | 11360m | 4.8m/s | 0°C | 0% | 0hPa | 0V | 00:00:00 | 00:00:00 | 00:00:00 | |
| SQ6EMJ | 2026-09-01 11:50:30 | 51.05336 | 17.43395 | 99° | 124km/h | 11321m | 6.6m/s | 0°C | 0% | 0hPa | 0V | 00:00:00 | 00:00:00 | 00:00:00 | |
| SQ6EMJ | 2026-09-01 11:50:24 | 51.05374 | 17.43104 | 102° | 120km/h | 11283m | 7.1m/s | 0°C | 0% | 0hPa | 0V | 00:00:00 | 00:00:00 | 00:00:00 | |
| POL1PZ | 2026-09-01 11:50:19 | 51.05399 | 17.42853 | 99° | 130km/h | 11254m | 6.2m/s | 0°C | 0% | 0hPa | 0V | 00:00:00 | 00:00:00 | 00:00:00 | |
| SQ6EMJ | 2026-09-01 11:50:18 | 51.05404 | 17.42801 | 100° | 128km/h | 11248m | 6.5m/s | 0°C | 0% | 0hPa | 0V | 00:00:00 | 00:00:00 | 00:00:00 | |
| SQ6EMJ | 2026-09-01 11:50:13 | 51.05434 | 17.42548 | 99° | 122km/h | 11220m | 5.0m/s | 0°C | 0% | 0hPa | 0V | 00:00:00 | 00:00:00 | 00:00:00 | |
| SQ6EMJ | 2026-09-01 11:50:07 | 51.05464 | 17.42255 | 98° | 133km/h | 11183m | 5.6m/s | 0°C | 0% | 0hPa | 0V | 00:00:00 | 00:00:00 | 00:00:00 | |
| SQ6EMJ | 2026-09-01 11:50:01 | 51.05492 | 17.41943 | 101° | 122km/h | 11150m | 6.4m/s | 0°C | 0% | 0hPa | 0V | 00:00:00 | 00:00:00 | 00:00:00 | |
| POL1PZ | 2026-09-01 11:49:59 | 51.05503 | 17.41850 | 103° | 117km/h | 11133m | 6.3m/s | 0°C | 0% | 0hPa | 0V | 00:00:00 | 00:00:00 | 00:00:00 | |
| SQ6EMJ | 2026-09-01 11:49:51 | 51.05542 | 17.41460 | 97° | 115km/h | 11083m | 9.3m/s | 0°C | 0% | 0hPa | 0V | 00:00:00 | 00:00:00 | 00:00:00 | |
| SQ6EMJ | 2026-09-01 11:49:45 | 51.05570 | 17.41170 | 98° | 124km/h | 11041m | 8.3m/s | 0°C | 0% | 0hPa | 0V | 00:00:00 | 00:00:00 | 00:00:00 | |
| SP3BTT-10 | 2026-09-01 11:49:39 | 51.05586 | 17.40863 | 100° | 119km/h | 11003m | 4.6m/s | 0°C | 0% | 0hPa | 0V | 00:00:00 | 00:00:00 | 00:00:00 | |
| POL1PZ | 2026-09-01 11:49:37 | 51.05599 | 17.40755 | 103° | 131km/h | 10990m | 5.1m/s | 0°C | 0% | 0hPa | 0V | 00:00:00 | 00:00:00 | 00:00:00 | |
| SQ6EMJ | 2026-09-01 11:49:34 | 51.05618 | 17.40606 | 102° | 126km/h | 10972m | 6.4m/s | 0°C | 0% | 0hPa | 0V | 00:00:00 | 00:00:00 | 00:00:00 | |
| SQ6EMJ | 2026-09-01 11:49:29 | 51.05645 | 17.40292 | 99° | 131km/h | 10928m | 6.1m/s | 0°C | 0% | 0hPa | 0V | 00:00:00 | 00:00:00 | 00:00:00 | |
| SQ6EMJ | 2026-09-01 11:49:22 | 51.05671 | 17.39985 | 98° | 131km/h | 10888m | 6.2m/s | 0°C | 0% | 0hPa | 0V | 00:00:00 | 00:00:00 | 00:00:00 | |
| SQ6EMJ | 2026-09-01 11:49:16 | 51.05703 | 17.39655 | 99° | 137km/h | 10855m | 5.2m/s | 0°C | 0% | 0hPa | 0V | 00:00:00 | 00:00:00 | 00:00:00 | |
| SQ6EMJ | 2026-09-01 11:49:11 | 51.05723 | 17.39372 | 96° | 119km/h | 10819m | 7.2m/s | 0°C | 0% | 0hPa | 0V | 00:00:00 | 00:00:00 | 00:00:00 | |
| SQ6EMJ | 2026-09-01 11:49:05 | 51.05755 | 17.39112 | 105° | 126km/h | 10785m | 4.2m/s | 0°C | 0% | 0hPa | 0V | 00:00:00 | 00:00:00 | 00:00:00 | |
| SQ6EMJ | 2026-09-01 11:48:59 | 51.05786 | 17.38843 | 97° | 126km/h | 10747m | 4.0m/s | 0°C | 0% | 0hPa | 0V | 00:00:00 | 00:00:00 | 00:00:00 | |
| SQ6EMJ | 2026-09-01 11:48:54 | 51.05813 | 17.38592 | 102° | 119km/h | 10714m | 6.4m/s | 0°C | 0% | 0hPa | 0V | 00:00:00 | 00:00:00 | 00:00:00 | |
| POL1PZ | 2026-09-01 11:48:53 | 51.05818 | 17.38545 | 99° | 113km/h | 10707m | 7.2m/s | 0°C | 0% | 0hPa | 0V | 00:00:00 | 00:00:00 | 00:00:00 | |
| SQ6EMJ | 2026-09-01 11:48:48 | 51.05837 | 17.38305 | 102° | 126km/h | 10679m | 4.7m/s | 0°C | 0% | 0hPa | 0V | 00:00:00 | 00:00:00 | 00:00:00 | |
| SQ6EMJ | 2026-09-01 11:48:42 | 51.05864 | 17.38026 | 102° | 113km/h | 10641m | 4.2m/s | 0°C | 0% | 0hPa | 0V | 00:00:00 | 00:00:00 | 00:00:00 | |
| SQ6EMJ | 2026-09-01 11:48:37 | 51.05886 | 17.37785 | 99° | 115km/h | 10612m | 5.0m/s | 0°C | 0% | 0hPa | 0V | 00:00:00 | 00:00:00 | 00:00:00 | |
| POL1PZ | 2026-09-01 11:48:32 | 51.05908 | 17.37546 | 102° | 133km/h | 10585m | 4.5m/s | 0°C | 0% | 0hPa | 0V | 00:00:00 | 00:00:00 | 00:00:00 | |
| SQ6EMJ | 2026-09-01 11:48:31 | 51.05914 | 17.37494 | 102° | 133km/h | 10579m | 7.5m/s | 0°C | 0% | 0hPa | 0V | 00:00:00 | 00:00:00 | 00:00:00 | |
| SQ6EMJ | 2026-09-01 11:48:25 | 51.05947 | 17.37212 | 99° | 115km/h | 10538m | 6.6m/s | 0°C | 0% | 0hPa | 0V | 00:00:00 | 00:00:00 | 00:00:00 | |
| SQ6EMJ | 2026-09-01 11:48:19 | 51.05980 | 17.36936 | 99° | 115km/h | 10502m | 4.6m/s | 0°C | 0% | 0hPa | 0V | 00:00:00 | 00:00:00 | 00:00:00 | |
| SQ6EMJ | 2026-09-01 11:48:13 | 51.06010 | 17.36669 | 104° | 111km/h | 10465m | 4.2m/s | 0°C | 0% | 0hPa | 0V | 00:00:00 | 00:00:00 | 00:00:00 | |
| POL1PZ | 2026-09-01 11:48:12 | 51.06016 | 17.36626 | 102° | 110km/h | 10459m | 8.8m/s | 0°C | 0% | 0hPa | 0V | 00:00:00 | 00:00:00 | 00:00:00 | |
| SQ6EMJ | 2026-09-01 11:48:07 | 51.06040 | 17.36403 | 103° | 115km/h | 10429m | 5.6m/s | 0°C | 0% | 0hPa | 0V | 00:00:00 | 00:00:00 | 00:00:00 | |
| SQ6EMJ | 2026-09-01 11:48:02 | 51.06064 | 17.36128 | 99° | 119km/h | 10392m | 7.5m/s | 0°C | 0% | 0hPa | 0V | 00:00:00 | 00:00:00 | 00:00:00 | |
| SQ6EMJ | 2026-09-01 11:47:55 | 51.06094 | 17.35866 | 100° | 106km/h | 10355m | 7.2m/s | 0°C | 0% | 0hPa | 0V | 00:00:00 | 00:00:00 | 00:00:00 | |
| POL1PZ | 2026-09-01 11:47:52 | 51.06104 | 17.35730 | 99° | 119km/h | 10335m | 5.5m/s | 0°C | 0% | 0hPa | 0V | 00:00:00 | 00:00:00 | 00:00:00 | |
| SQ6EMJ | 2026-09-01 11:47:50 | 51.06113 | 17.35637 | 99° | 115km/h | 10324m | 5.7m/s | 0°C | 0% | 0hPa | 0V | 00:00:00 | 00:00:00 | 00:00:00 | |
| SQ6EMJ | 2026-09-01 11:47:44 | 51.06135 | 17.35374 | 101° | 120km/h | 10289m | 5.6m/s | 0°C | 0% | 0hPa | 0V | 00:00:00 | 00:00:00 | 00:00:00 | |
| SQ6EMJ | 2026-09-01 11:47:39 | 51.06155 | 17.35134 | 95° | 119km/h | 10260m | 4.6m/s | 0°C | 0% | 0hPa | 0V | 00:00:00 | 00:00:00 | 00:00:00 | |
| SQ6EMJ | 2026-09-01 11:47:34 | 51.06172 | 17.34859 | 96° | 100km/h | 10225m | 4.1m/s | 0°C | 0% | 0hPa | 0V | 00:00:00 | 00:00:00 | 00:00:00 | |
| POL1PZ | 2026-09-01 11:47:31 | 51.06177 | 17.34777 | 99° | 108km/h | 10212m | 4.7m/s | 0°C | 0% | 0hPa | 0V | 00:00:00 | 00:00:00 | 00:00:00 | |
| SQ6EMJ | 2026-09-01 11:47:28 | 51.06188 | 17.34638 | 96° | 124km/h | 10192m | 4.4m/s | 0°C | 0% | 0hPa | 0V | 00:00:00 | 00:00:00 | 00:00:00 | |
| SQ6EMJ | 2026-09-01 11:47:23 | 51.06201 | 17.34346 | 94° | 126km/h | 10154m | 5.8m/s | 0°C | 0% | 0hPa | 0V | 00:00:00 | 00:00:00 | 00:00:00 | |
| SQ6EMJ | 2026-09-01 11:47:16 | 51.06219 | 17.34080 | 96° | 100km/h | 10111m | 5.7m/s | 0°C | 0% | 0hPa | 0V | 00:00:00 | 00:00:00 | 00:00:00 | |
| POL1PZ | 2026-09-01 11:47:11 | 51.06226 | 17.33850 | 99° | 117km/h | 10083m | 6.8m/s | 0°C | 0% | 0hPa | 0V | 00:00:00 | 00:00:00 | 00:00:00 | |
| SQ6EMJ | 2026-09-01 11:47:10 | 51.06231 | 17.33805 | 104° | 111km/h | 10077m | 5.8m/s | 0°C | 0% | 0hPa | 0V | 00:00:00 | 00:00:00 | 00:00:00 | |
| SP3BTT-10 | 2026-09-01 11:47:07 | 51.06247 | 17.33681 | 96° | 108km/h | 10057m | 5.3m/s | 0°C | 0% | 0hPa | 0V | 00:00:00 | 00:00:00 | 00:00:00 | |
| SQ6EMJ | 2026-09-01 11:47:05 | 51.06250 | 17.33559 | 94° | 113km/h | 10039m | 5.1m/s | 0°C | 0% | 0hPa | 0V | 00:00:00 | 00:00:00 | 00:00:00 | |
| SQ6EMJ | 2026-09-01 11:46:59 | 51.06264 | 17.33334 | 93° | 108km/h | 10005m | 6.0m/s | 0°C | 0% | 0hPa | 0V | 00:00:00 | 00:00:00 | 00:00:00 | |
| SQ6EMJ | 2026-09-01 11:46:54 | 51.06265 | 17.33112 | 96° | 117km/h | 9976m | 5.9m/s | 0°C | 0% | 0hPa | 0V | 00:00:00 | 00:00:00 | 00:00:00 | |
| POL1PZ | 2026-09-01 11:46:50 | 51.06273 | 17.32930 | 94° | 106km/h | 9954m | 5.2m/s | 0°C | 0% | 0hPa | 0V | 00:00:00 | 00:00:00 | 00:00:00 | |
| SQ6EMJ | 2026-09-01 11:46:48 | 51.06275 | 17.32841 | 91° | 115km/h | 9943m | 3.8m/s | 0°C | 0% | 0hPa | 0V | 00:00:00 | 00:00:00 | 00:00:00 | |
| SQ6EMJ | 2026-09-01 11:46:42 | 51.06282 | 17.32574 | 95° | 110km/h | 9903m | 5.1m/s | 0°C | 0% | 0hPa | 0V | 00:00:00 | 00:00:00 | 00:00:00 | |
| SQ6EMJ | 2026-09-01 11:46:37 | 51.06286 | 17.32349 | 93° | 110km/h | 9875m | 5.0m/s | 0°C | 0% | 0hPa | 0V | 00:00:00 | 00:00:00 | 00:00:00 | |
| SQ6EMJ | 2026-09-01 11:46:33 | 51.06297 | 17.32121 | 94° | 120km/h | 9848m | 6.8m/s | 0°C | 0% | 0hPa | 0V | 00:00:00 | 00:00:00 | 00:00:00 | |
| POL1PZ | 2026-09-01 11:46:29 | 51.06298 | 17.31972 | 93° | 120km/h | 9829m | 4.7m/s | 0°C | 0% | 0hPa | 0V | 00:00:00 | 00:00:00 | 00:00:00 | |
| SQ6EMJ | 2026-09-01 11:46:26 | 51.06304 | 17.31835 | 94° | 110km/h | 9806m | 8.3m/s | 0°C | 0% | 0hPa | 0V | 00:00:00 | 00:00:00 | 00:00:00 | |
| SQ6EMJ | 2026-09-01 11:46:21 | 51.06307 | 17.31621 | 89° | 111km/h | 9772m | 6.0m/s | 0°C | 0% | 0hPa | 0V | 00:00:00 | 00:00:00 | 00:00:00 | |
| SQ6EMJ | 2026-09-01 11:46:15 | 51.06311 | 17.31336 | 94° | 111km/h | 9736m | 4.5m/s | 0°C | 0% | 0hPa | 0V | 00:00:00 | 00:00:00 | 00:00:00 | |
| SQ6EMJ | 2026-09-01 11:46:10 | 51.06317 | 17.31129 | 89° | 108km/h | 9704m | 6.8m/s | 0°C | 0% | 0hPa | 0V | 00:00:00 | 00:00:00 | 00:00:00 | |
| SP3BTT-10 | 2026-09-01 11:46:08 | 51.06317 | 17.31039 | 92° | 108km/h | 9690m | 4.5m/s | 0°C | 0% | 0hPa | 0V | 00:00:00 | 00:00:00 | 00:00:00 | |
| SQ6EMJ | 2026-09-01 11:46:05 | 51.06323 | 17.30856 | 98° | 110km/h | 9667m | 6.4m/s | 0°C | 0% | 0hPa | 0V | 00:00:00 | 00:00:00 | 00:00:00 | |
| SQ6EMJ | 2026-09-01 11:45:59 | 51.06328 | 17.30649 | 90° | 108km/h | 9635m | 9.0m/s | 0°C | 0% | 0hPa | 0V | 00:00:00 | 00:00:00 | 00:00:00 | |
| SQ6EMJ | 2026-09-01 11:45:54 | 51.06331 | 17.30386 | 87° | 106km/h | 9597m | 4.7m/s | 0°C | 0% | 0hPa | 0V | 00:00:00 | 00:00:00 | 00:00:00 | |
| POL1PZ | 2026-09-01 11:45:49 | 51.06335 | 17.30174 | 97° | 102km/h | 9565m | 7.8m/s | 0°C | 0% | 0hPa | 0V | 00:00:00 | 00:00:00 | 00:00:00 | |
| SQ6EMJ | 2026-09-01 11:45:48 | 51.06337 | 17.30132 | 95° | 108km/h | 9559m | 3.8m/s | 0°C | 0% | 0hPa | 0V | 00:00:00 | 00:00:00 | 00:00:00 | |
| SQ6EMJ | 2026-09-01 11:45:41 | 51.06343 | 17.29877 | 94° | 108km/h | 9519m | 7.4m/s | 0°C | 0% | 0hPa | 0V | 00:00:00 | 00:00:00 | 00:00:00 | |
| SQ6EMJ | 2026-09-01 11:45:36 | 51.06362 | 17.29635 | 100° | 100km/h | 9483m | 5.2m/s | 0°C | 0% | 0hPa | 0V | 00:00:00 | 00:00:00 | 00:00:00 | |
| SQ6EMJ | 2026-09-01 11:45:30 | 51.06367 | 17.29434 | 89° | 95km/h | 9452m | 5.7m/s | 0°C | 0% | 0hPa | 0V | 00:00:00 | 00:00:00 | 00:00:00 | |
| POL1PZ | 2026-09-01 11:45:28 | 51.06368 | 17.29353 | 96° | 106km/h | 9442m | 4.2m/s | 0°C | 0% | 0hPa | 0V | 00:00:00 | 00:00:00 | 00:00:00 | |
| SQ6EMJ | 2026-09-01 11:45:25 | 51.06377 | 17.29227 | 96° | 97km/h | 9422m | 4.7m/s | 0°C | 0% | 0hPa | 0V | 00:00:00 | 00:00:00 | 00:00:00 | |
| SQ6EMJ | 2026-09-01 11:45:20 | 51.06382 | 17.29031 | 94° | 106km/h | 9388m | 5.0m/s | 0°C | 0% | 0hPa | 0V | 00:00:00 | 00:00:00 | 00:00:00 | |
| SQ6EMJ | 2026-09-01 11:45:14 | 51.06402 | 17.28793 | 98° | 84km/h | 9351m | 6.5m/s | 0°C | 0% | 0hPa | 0V | 00:00:00 | 00:00:00 | 00:00:00 | |
| SQ6EMJ | 2026-09-01 11:45:09 | 51.06410 | 17.28614 | 97° | 95km/h | 9326m | 8.1m/s | 0°C | 0% | 0hPa | 0V | 00:00:00 | 00:00:00 | 00:00:00 | |
| POL1PZ | 2026-09-01 11:45:07 | 51.06416 | 17.28532 | 96° | 106km/h | 9316m | 6.9m/s | 0°C | 0% | 0hPa | 0V | 00:00:00 | 00:00:00 | 00:00:00 | |
| SQ6EMJ | 2026-09-01 11:45:06 | 51.06423 | 17.28407 | 98° | 99km/h | 9300m | 4.3m/s | 0°C | 0% | 0hPa | 0V | 00:00:00 | 00:00:00 | 00:00:00 | |
| SQ6EMJ | 2026-09-01 11:44:59 | 51.06435 | 17.28206 | 98° | 106km/h | 9268m | 5.3m/s | 0°C | 0% | 0hPa | 0V | 00:00:00 | 00:00:00 | 00:00:00 | |
| SQ6EMJ | 2026-09-01 11:44:53 | 51.06445 | 17.27956 | 94° | 104km/h | 9238m | 5.7m/s | 0°C | 0% | 0hPa | 0V | 00:00:00 | 00:00:00 | 00:00:00 | |
| SQ6EMJ | 2026-09-01 11:44:48 | 51.06471 | 17.27712 | 95° | 108km/h | 9203m | 7.0m/s | 0°C | 0% | 0hPa | 0V | 00:00:00 | 00:00:00 | 00:00:00 | |
| POL1PZ | 2026-09-01 11:44:46 | 51.06473 | 17.27668 | 97° | 111km/h | 9196m | 5.7m/s | 0°C | 0% | 0hPa | 0V | 00:00:00 | 00:00:00 | 00:00:00 | |
| SQ6EMJ | 2026-09-01 11:44:41 | 51.06495 | 17.27461 | 100° | 93km/h | 9166m | 5.0m/s | 0°C | 0% | 0hPa | 0V | 00:00:00 | 00:00:00 | 00:00:00 | |
| SQ6EMJ | 2026-09-01 11:44:37 | 51.06526 | 17.27281 | 110° | 104km/h | 9132m | 6.7m/s | 0°C | 0% | 0hPa | 0V | 00:00:00 | 00:00:00 | 00:00:00 | |
| SQ6EMJ | 2026-09-01 11:44:30 | 51.06553 | 17.27040 | 107° | 84km/h | 9095m | 7.8m/s | 0°C | 0% | 0hPa | 0V | 00:00:00 | 00:00:00 | 00:00:00 | |
| POL1PZ | 2026-09-01 11:44:27 | 51.06580 | 17.26904 | 105° | 95km/h | 9067m | 8.6m/s | 0°C | 0% | 0hPa | 0V | 00:00:00 | 00:00:00 | 00:00:00 | |
| SQ6EMJ | 2026-09-01 11:44:26 | 51.06584 | 17.26866 | 99° | 99km/h | 9059m | 8.2m/s | 0°C | 0% | 0hPa | 0V | 00:00:00 | 00:00:00 | 00:00:00 | |
| SQ6EMJ | 2026-09-01 11:44:19 | 51.06610 | 17.26628 | 106° | 108km/h | 9021m | 3.3m/s | 0°C | 0% | 0hPa | 0V | 00:00:00 | 00:00:00 | 00:00:00 | |
| SQ6EMJ | 2026-09-01 11:44:13 | 51.06634 | 17.26403 | 99° | 100km/h | 8989m | 6.3m/s | 0°C | 0% | 0hPa | 0V | 00:00:00 | 00:00:00 | 00:00:00 | |
| SQ6EMJ | 2026-09-01 11:44:08 | 51.06658 | 17.26209 | 106° | 93km/h | 8954m | 7.3m/s | 0°C | 0% | 0hPa | 0V | 00:00:00 | 00:00:00 | 00:00:00 | |
| POL1PZ | 2026-09-01 11:44:07 | 51.06668 | 17.26136 | 100° | 95km/h | 8942m | 4.6m/s | 0°C | 0% | 0hPa | 0V | 00:00:00 | 00:00:00 | 00:00:00 | |
| OE3JTB-15 | 2026-09-01 11:44:05 | 51.06676 | 17.26062 | 103° | 86km/h | 8929m | 6.8m/s | 0°C | 0% | 0hPa | 0V | 00:00:00 | 00:00:00 | 00:00:00 | |
| SQ6EMJ | 2026-09-01 11:44:02 | 51.06688 | 17.25991 | 107° | 89km/h | 8916m | 4.3m/s | 0°C | 0% | 0hPa | 0V | 00:00:00 | 00:00:00 | 00:00:00 | |
| SP3BTT-10 | 2026-09-01 11:44:00 | 51.06697 | 17.25921 | 96° | 95km/h | 8902m | 4.5m/s | 0°C | 0% | 0hPa | 0V | 00:00:00 | 00:00:00 | 00:00:00 | |
| SQ6EMJ | 2026-09-01 11:43:57 | 51.06704 | 17.25806 | 98° | 95km/h | 8882m | 6.0m/s | 0°C | 0% | 0hPa | 0V | 00:00:00 | 00:00:00 | 00:00:00 | |
| SQ6EMJ | 2026-09-01 11:43:51 | 51.06743 | 17.25587 | 99° | 102km/h | 8846m | 3.8m/s | 0°C | 0% | 0hPa | 0V | 00:00:00 | 00:00:00 | 00:00:00 | |
| POL1PZ | 2026-09-01 11:43:46 | 51.06760 | 17.25380 | 108° | 78km/h | 8808m | 4.4m/s | 0°C | 0% | 0hPa | 0V | 00:00:00 | 00:00:00 | 00:00:00 | |
| SQ6EMJ | 2026-09-01 11:43:39 | 51.06787 | 17.25190 | 97° | 71km/h | 8772m | 4.3m/s | 0°C | 0% | 0hPa | 0V | 00:00:00 | 00:00:00 | 00:00:00 | |
| SQ6EMJ | 2026-09-01 11:43:23 | 51.06870 | 17.24654 | 108° | 88km/h | 8675m | 4.9m/s | 0°C | 0% | 0hPa | 0V | 00:00:00 | 00:00:00 | 00:00:00 | |
| SQ6EMJ | 2026-09-01 11:43:18 | 51.06901 | 17.24480 | 97° | 89km/h | 8644m | 7.0m/s | 0°C | 0% | 0hPa | 0V | 00:00:00 | 00:00:00 | 00:00:00 | |
| SP3BTT-10 | 2026-09-01 11:43:17 | 51.06903 | 17.24414 | 94° | 89km/h | 8629m | 9.5m/s | 0°C | 0% | 0hPa | 0V | 00:00:00 | 00:00:00 | 00:00:00 | |
| SQ6EMJ | 2026-09-01 11:43:12 | 51.06923 | 17.24284 | 108° | 95km/h | 8603m | 7.3m/s | 0°C | 0% | 0hPa | 0V | 00:00:00 | 00:00:00 | 00:00:00 | |
| SQ6EMJ | 2026-09-01 11:43:07 | 51.06949 | 17.24094 | 105° | 91km/h | 8568m | 6.5m/s | 0°C | 0% | 0hPa | 0V | 00:00:00 | 00:00:00 | 00:00:00 | |
| POL1PZ | 2026-09-01 11:43:04 | 51.06965 | 17.23995 | 103° | 75km/h | 8549m | 5.0m/s | 0°C | 0% | 0hPa | 0V | 00:00:00 | 00:00:00 | 00:00:00 | |
| SQ6EMJ | 2026-09-01 11:43:01 | 51.06978 | 17.23899 | 103° | 91km/h | 8533m | 5.3m/s | 0°C | 0% | 0hPa | 0V | 00:00:00 | 00:00:00 | 00:00:00 | |
| SQ6EMJ | 2026-09-01 11:42:56 | 51.07005 | 17.23712 | 108° | 95km/h | 8502m | 7.8m/s | 0°C | 0% | 0hPa | 0V | 00:00:00 | 00:00:00 | 00:00:00 | |
| SQ6EMJ | 2026-09-01 11:42:50 | 51.07032 | 17.23503 | 98° | 88km/h | 8468m | 9.1m/s | 0°C | 0% | 0hPa | 0V | 00:00:00 | 00:00:00 | 00:00:00 | |
| SQ6EMJ | 2026-09-01 11:42:45 | 51.07053 | 17.23264 | 96° | 102km/h | 8428m | 6.9m/s | 0°C | 0% | 0hPa | 0V | 00:00:00 | 00:00:00 | 00:00:00 | |
| POL1PZ | 2026-09-01 11:42:42 | 51.07056 | 17.23190 | 93° | 86km/h | 8417m | 3.8m/s | 0°C | 0% | 0hPa | 0V | 00:00:00 | 00:00:00 | 00:00:00 | |
| OE3JTB-15 | 2026-09-01 11:42:39 | 51.07061 | 17.23086 | 96° | 93km/h | 8397m | 6.2m/s | 0°C | 0% | 0hPa | 0V | 00:00:00 | 00:00:00 | 00:00:00 | |
| SQ6EMJ | 2026-09-01 11:42:38 | 51.07063 | 17.23050 | 97° | 93km/h | 8391m | 7.7m/s | 0°C | 0% | 0hPa | 0V | 00:00:00 | 00:00:00 | 00:00:00 | |
| SQ6EMJ | 2026-09-01 11:42:34 | 51.07077 | 17.22864 | 95° | 97km/h | 8357m | 5.3m/s | 0°C | 0% | 0hPa | 0V | 00:00:00 | 00:00:00 | 00:00:00 | |
| SQ6EMJ | 2026-09-01 11:42:28 | 51.07085 | 17.22677 | 89° | 97km/h | 8319m | 7.6m/s | 0°C | 0% | 0hPa | 0V | 00:00:00 | 00:00:00 | 00:00:00 | |
| POL1PZ | 2026-09-01 11:42:22 | 51.07101 | 17.22451 | 95° | 78km/h | 8272m | 5.2m/s | 0°C | 0% | 0hPa | 0V | 00:00:00 | 00:00:00 | 00:00:00 | |
| SQ6EMJ | 2026-09-01 11:42:17 | 51.07108 | 17.22232 | 92° | 99km/h | 8232m | 7.4m/s | 0°C | 0% | 0hPa | 0V | 00:00:00 | 00:00:00 | 00:00:00 | |
| SQ6EMJ | 2026-09-01 11:42:10 | 51.07121 | 17.22002 | 102° | 100km/h | 8196m | 6.1m/s | 0°C | 0% | 0hPa | 0V | 00:00:00 | 00:00:00 | 00:00:00 | |
| SQ6EMJ | 2026-09-01 11:42:04 | 51.07131 | 17.21760 | 94° | 100km/h | 8151m | 11.2m/s | 0°C | 0% | 0hPa | 0V | 00:00:00 | 00:00:00 | 00:00:00 | |
| POL1PZ | 2026-09-01 11:42:03 | 51.07138 | 17.21688 | 105° | 88km/h | 8135m | 5.8m/s | 0°C | 0% | 0hPa | 0V | 00:00:00 | 00:00:00 | 00:00:00 | |
| SQ6EMJ | 2026-09-01 11:41:59 | 51.07151 | 17.21586 | 98° | 91km/h | 8119m | 5.3m/s | 0°C | 0% | 0hPa | 0V | 00:00:00 | 00:00:00 | 00:00:00 | |
| SQ6EMJ | 2026-09-01 11:41:53 | 51.07169 | 17.21369 | 93° | 95km/h | 8078m | 5.8m/s | 0°C | 0% | 0hPa | 0V | 00:00:00 | 00:00:00 | 00:00:00 | |
| SQ6EMJ | 2026-09-01 11:41:47 | 51.07177 | 17.21133 | 98° | 84km/h | 8040m | 6.4m/s | 0°C | 0% | 0hPa | 0V | 00:00:00 | 00:00:00 | 00:00:00 | |
| POL1PZ | 2026-09-01 11:41:41 | 51.07195 | 17.20934 | 96° | 84km/h | 8003m | 4.3m/s | 0°C | 0% | 0hPa | 0V | 00:00:00 | 00:00:00 | 00:00:00 | |
| SQ6EMJ | 2026-09-01 11:41:35 | 51.07197 | 17.20719 | 101° | 93km/h | 7963m | 6.8m/s | 0°C | 0% | 0hPa | 0V | 00:00:00 | 00:00:00 | 00:00:00 | |
| SQ6EMJ | 2026-09-01 11:41:30 | 51.07215 | 17.20547 | 89° | 84km/h | 7930m | 5.4m/s | 0°C | 0% | 0hPa | 0V | 00:00:00 | 00:00:00 | 00:00:00 | |
| SQ6EMJ | 2026-09-01 11:41:25 | 51.07220 | 17.20358 | 102° | 95km/h | 7897m | 6.3m/s | 0°C | 0% | 0hPa | 0V | 00:00:00 | 00:00:00 | 00:00:00 | |
| POL1PZ | 2026-09-01 11:41:21 | 51.07229 | 17.20223 | 91° | 80km/h | 7873m | 6.1m/s | 0°C | 0% | 0hPa | 0V | 00:00:00 | 00:00:00 | 00:00:00 | |
| SP3BTT-10 | 2026-09-01 11:41:19 | 51.07229 | 17.20156 | 89° | 80km/h | 7863m | 7.4m/s | 0°C | 0% | 0hPa | 0V | 00:00:00 | 00:00:00 | 00:00:00 | |
| SQ6EMJ | 2026-09-01 11:41:14 | 51.07235 | 17.19999 | 100° | 80km/h | 7830m | 4.8m/s | 0°C | 0% | 0hPa | 0V | 00:00:00 | 00:00:00 | 00:00:00 | |
| SQ6EMJ | 2026-09-01 11:41:08 | 51.07260 | 17.19797 | 94° | 82km/h | 7792m | 8.1m/s | 0°C | 0% | 0hPa | 0V | 00:00:00 | 00:00:00 | 00:00:00 | |
| SQ6EMJ | 2026-09-01 11:41:02 | 51.07270 | 17.19607 | 93° | 91km/h | 7750m | 5.9m/s | 0°C | 0% | 0hPa | 0V | 00:00:00 | 00:00:00 | 00:00:00 | |
| POL1PZ | 2026-09-01 11:41:01 | 51.07271 | 17.19571 | 93° | 89km/h | 7744m | 4.4m/s | 0°C | 0% | 0hPa | 0V | 00:00:00 | 00:00:00 | 00:00:00 | |
| SQ6EMJ | 2026-09-01 11:40:56 | 51.07279 | 17.19408 | 103° | 89km/h | 7718m | 3.8m/s | 0°C | 0% | 0hPa | 0V | 00:00:00 | 00:00:00 | 00:00:00 | |
| SQ6EMJ | 2026-09-01 11:40:50 | 51.07292 | 17.19195 | 90° | 88km/h | 7684m | 6.9m/s | 0°C | 0% | 0hPa | 0V | 00:00:00 | 00:00:00 | 00:00:00 | |
| SQ6EMJ | 2026-09-01 11:40:44 | 51.07298 | 17.19003 | 103° | 80km/h | 7645m | 8.4m/s | 0°C | 0% | 0hPa | 0V | 00:00:00 | 00:00:00 | 00:00:00 | |
| POL1PZ | 2026-09-01 11:40:41 | 51.07312 | 17.18869 | 94° | 80km/h | 7620m | 6.2m/s | 0°C | 0% | 0hPa | 0V | 00:00:00 | 00:00:00 | 00:00:00 | |
| SQ6EMJ | 2026-09-01 11:40:34 | 51.07333 | 17.18682 | 104° | 93km/h | 7588m | 5.2m/s | 0°C | 0% | 0hPa | 0V | 00:00:00 | 00:00:00 | 00:00:00 | |
| SQ6EMJ | 2026-09-01 11:40:28 | 51.07352 | 17.18477 | 102° | 84km/h | 7554m | 8.4m/s | 0°C | 0% | 0hPa | 0V | 00:00:00 | 00:00:00 | 00:00:00 | |
| SQ6EMJ | 2026-09-01 11:40:23 | 51.07371 | 17.18302 | 102° | 91km/h | 7524m | 7.3m/s | 0°C | 0% | 0hPa | 0V | 00:00:00 | 00:00:00 | 00:00:00 | |
| POL1PZ | 2026-09-01 11:40:20 | 51.07389 | 17.18201 | 108° | 80km/h | 7506m | 5.4m/s | 0°C | 0% | 0hPa | 0V | 00:00:00 | 00:00:00 | 00:00:00 | |
| SQ6EMJ | 2026-09-01 11:40:18 | 51.07401 | 17.18108 | 98° | 78km/h | 7492m | 3.4m/s | 0°C | 0% | 0hPa | 0V | 00:00:00 | 00:00:00 | 00:00:00 | |
| SQ6EMJ | 2026-09-01 11:40:11 | 51.07417 | 17.17895 | 89° | 86km/h | 7457m | 5.1m/s | 0°C | 0% | 0hPa | 0V | 00:00:00 | 00:00:00 | 00:00:00 | |
| SQ6EMJ | 2026-09-01 11:40:05 | 51.07427 | 17.17697 | 97° | 86km/h | 7422m | 3.5m/s | 0°C | 0% | 0hPa | 0V | 00:00:00 | 00:00:00 | 00:00:00 | |
| POL1PZ | 2026-09-01 11:39:59 | 51.07453 | 17.17509 | 108° | 75km/h | 7385m | 5.9m/s | 0°C | 0% | 0hPa | 0V | 00:00:00 | 00:00:00 | 00:00:00 | |
| SQ6EMJ | 2026-09-01 11:39:53 | 51.07484 | 17.17315 | 102° | 82km/h | 7349m | 7.8m/s | 0°C | 0% | 0hPa | 0V | 00:00:00 | 00:00:00 | 00:00:00 | |
| SQ6EMJ | 2026-09-01 11:39:47 | 51.07495 | 17.17129 | 97° | 89km/h | 7312m | 5.8m/s | 0°C | 0% | 0hPa | 0V | 00:00:00 | 00:00:00 | 00:00:00 | |
| SQ6EMJ | 2026-09-01 11:39:42 | 51.07509 | 17.16970 | 99° | 78km/h | 7287m | 3.9m/s | 0°C | 0% | 0hPa | 0V | 00:00:00 | 00:00:00 | 00:00:00 | |
| POL1PZ | 2026-09-01 11:39:39 | 51.07514 | 17.16867 | 97° | 93km/h | 7267m | 11.9m/s | 0°C | 0% | 0hPa | 0V | 00:00:00 | 00:00:00 | 00:00:00 | |
| SQ6EMJ | 2026-09-01 11:39:37 | 51.07519 | 17.16797 | 100° | 82km/h | 7253m | 3.1m/s | 0°C | 0% | 0hPa | 0V | 00:00:00 | 00:00:00 | 00:00:00 | |
| SQ6EMJ | 2026-09-01 11:39:26 | 51.07554 | 17.16435 | 105° | 78km/h | 7189m | 5.8m/s | 0°C | 0% | 0hPa | 0V | 00:00:00 | 00:00:00 | 00:00:00 | |
| SQ6EMJ | 2026-09-01 11:39:19 | 51.07581 | 17.16213 | 101° | 80km/h | 7150m | 3.2m/s | 0°C | 0% | 0hPa | 0V | 00:00:00 | 00:00:00 | 00:00:00 | |
| POL1PZ | 2026-09-01 11:39:17 | 51.07585 | 17.16147 | 94° | 86km/h | 7139m | 5.2m/s | 0°C | 0% | 0hPa | 0V | 00:00:00 | 00:00:00 | 00:00:00 | |
| SQ6EMJ | 2026-09-01 11:39:14 | 51.07598 | 17.16016 | 105° | 75km/h | 7113m | 6.8m/s | 0°C | 0% | 0hPa | 0V | 00:00:00 | 00:00:00 | 00:00:00 | |
| SQ6EMJ | 2026-09-01 11:39:07 | 51.07620 | 17.15832 | 105° | 77km/h | 7079m | 6.8m/s | 0°C | 0% | 0hPa | 0V | 00:00:00 | 00:00:00 | 00:00:00 | |
| SQ6EMJ | 2026-09-01 11:39:01 | 51.07639 | 17.15659 | 98° | 77km/h | 7050m | 5.9m/s | 0°C | 0% | 0hPa | 0V | 00:00:00 | 00:00:00 | 00:00:00 | |
| SQ6EMJ | 2026-09-01 11:38:56 | 51.07668 | 17.15500 | 110° | 84km/h | 7024m | 4.4m/s | 0°C | 0% | 0hPa | 0V | 00:00:00 | 00:00:00 | 00:00:00 | |
| POL1PZ | 2026-09-01 11:38:55 | 51.07675 | 17.15469 | 110° | 78km/h | 7020m | 4.1m/s | 0°C | 0% | 0hPa | 0V | 00:00:00 | 00:00:00 | 00:00:00 | |
| SQ6EMJ | 2026-09-01 11:38:48 | 51.07706 | 17.15254 | 113° | 77km/h | 6986m | 3.8m/s | 0°C | 0% | 0hPa | 0V | 00:00:00 | 00:00:00 | 00:00:00 | |
| SQ6EMJ | 2026-09-01 11:38:36 | 51.07761 | 17.14908 | 102° | 64km/h | 6919m | 5.8m/s | 0°C | 0% | 0hPa | 0V | 00:00:00 | 00:00:00 | 00:00:00 | |
| POL1PZ | 2026-09-01 11:38:33 | 51.07776 | 17.14821 | 109° | 82km/h | 6904m | 4.0m/s | 0°C | 0% | 0hPa | 0V | 00:00:00 | 00:00:00 | 00:00:00 | |
| SQ6EMJ | 2026-09-01 11:38:31 | 51.07789 | 17.14760 | 108° | 77km/h | 6894m | 5.6m/s | 0°C | 0% | 0hPa | 0V | 00:00:00 | 00:00:00 | 00:00:00 | |
| SQ6EMJ | 2026-09-01 11:38:25 | 51.07816 | 17.14594 | 98° | 82km/h | 6864m | 2.6m/s | 0°C | 0% | 0hPa | 0V | 00:00:00 | 00:00:00 | 00:00:00 | |
| SQ6EMJ | 2026-09-01 11:38:19 | 51.07831 | 17.14401 | 103° | 82km/h | 6832m | 3.0m/s | 0°C | 0% | 0hPa | 0V | 00:00:00 | 00:00:00 | 00:00:00 | |
| SQ6EMJ | 2026-09-01 11:38:13 | 51.07851 | 17.14217 | 101° | 84km/h | 6810m | 3.2m/s | 0°C | 0% | 0hPa | 0V | 00:00:00 | 00:00:00 | 00:00:00 | |
| POL1PZ | 2026-09-01 11:38:12 | 51.07855 | 17.14183 | 100° | 88km/h | 6806m | 4.9m/s | 0°C | 0% | 0hPa | 0V | 00:00:00 | 00:00:00 | 00:00:00 | |
| SQ6EMJ | 2026-09-01 11:38:07 | 51.07870 | 17.14014 | 97° | 84km/h | 6787m | 4.1m/s | 0°C | 0% | 0hPa | 0V | 00:00:00 | 00:00:00 | 00:00:00 | |
| SQ6EMJ | 2026-09-01 11:38:01 | 51.07890 | 17.13828 | 103° | 77km/h | 6765m | 2.0m/s | 0°C | 0% | 0hPa | 0V | 00:00:00 | 00:00:00 | 00:00:00 | |
| SQ6EMJ | 2026-09-01 11:37:55 | 51.07898 | 17.13613 | 90° | 88km/h | 6746m | 2.8m/s | 0°C | 0% | 0hPa | 0V | 00:00:00 | 00:00:00 | 00:00:00 | |
| POL1PZ | 2026-09-01 11:37:52 | 51.07898 | 17.13516 | 89° | 78km/h | 6733m | 5.6m/s | 0°C | 0% | 0hPa | 0V | 00:00:00 | 00:00:00 | 00:00:00 | |
| SQ6EMJ | 2026-09-01 11:37:50 | 51.07897 | 17.13450 | 88° | 86km/h | 6721m | 3.8m/s | 0°C | 0% | 0hPa | 0V | 00:00:00 | 00:00:00 | 00:00:00 | |
| SQ6EMJ | 2026-09-01 11:37:44 | 51.07911 | 17.13225 | 107° | 86km/h | 6694m | 7.0m/s | 0°C | 0% | 0hPa | 0V | 00:00:00 | 00:00:00 | 00:00:00 | |
| SQ6EMJ | 2026-09-01 11:37:38 | 51.07946 | 17.13056 | 99° | 75km/h | 6660m | 5.5m/s | 0°C | 0% | 0hPa | 0V | 00:00:00 | 00:00:00 | 00:00:00 | |
| SQ6EMJ | 2026-09-01 11:37:33 | 51.07961 | 17.12897 | 114° | 82km/h | 6634m | 3.8m/s | 0°C | 0% | 0hPa | 0V | 00:00:00 | 00:00:00 | 00:00:00 | |
| POL1PZ | 2026-09-01 11:37:31 | 51.07978 | 17.12839 | 117° | 78km/h | 6625m | 5.3m/s | 0°C | 0% | 0hPa | 0V | 00:00:00 | 00:00:00 | 00:00:00 | |
| SQ6EMJ | 2026-09-01 11:37:27 | 51.07996 | 17.12724 | 98° | 75km/h | 6610m | 4.4m/s | 0°C | 0% | 0hPa | 0V | 00:00:00 | 00:00:00 | 00:00:00 | |
| SQ6EMJ | 2026-09-01 11:37:22 | 51.08030 | 17.12564 | 112° | 91km/h | 6589m | 5.2m/s | 0°C | 0% | 0hPa | 0V | 00:00:00 | 00:00:00 | 00:00:00 | |
| SQ6EMJ | 2026-09-01 11:37:17 | 51.08053 | 17.12432 | 114° | 60km/h | 6558m | 5.2m/s | 0°C | 0% | 0hPa | 0V | 00:00:00 | 00:00:00 | 00:00:00 | |
| SQ6EMJ | 2026-09-01 11:37:11 | 51.08104 | 17.12271 | 116° | 69km/h | 6527m | 6.1m/s | 0°C | 0% | 0hPa | 0V | 00:00:00 | 00:00:00 | 00:00:00 | |
| POL1PZ | 2026-09-01 11:37:10 | 51.08111 | 17.12246 | 109° | 66km/h | 6520m | 7.5m/s | 0°C | 0% | 0hPa | 0V | 00:00:00 | 00:00:00 | 00:00:00 | |
| SQ6EMJ | 2026-09-01 11:37:06 | 51.08128 | 17.12131 | 111° | 80km/h | 6495m | 3.8m/s | 0°C | 0% | 0hPa | 0V | 00:00:00 | 00:00:00 | 00:00:00 | |
| SQ6EMJ | 2026-09-01 11:37:01 | 51.08152 | 17.11986 | 96° | 80km/h | 6467m | 6.2m/s | 0°C | 0% | 0hPa | 0V | 00:00:00 | 00:00:00 | 00:00:00 | |
| SQ6EMJ | 2026-09-01 11:36:56 | 51.08174 | 17.11843 | 117° | 68km/h | 6442m | 5.9m/s | 0°C | 0% | 0hPa | 0V | 00:00:00 | 00:00:00 | 00:00:00 | |
| SP3BTT-10 | 2026-09-01 11:36:54 | 51.08188 | 17.11790 | 110° | 80km/h | 6432m | 5.0m/s | 0°C | 0% | 0hPa | 0V | 00:00:00 | 00:00:00 | 00:00:00 | |
| POL1PZ | 2026-09-01 11:36:49 | 51.08220 | 17.11630 | 111° | 86km/h | 6403m | 8.3m/s | 0°C | 0% | 0hPa | 0V | 00:00:00 | 00:00:00 | 00:00:00 | |
| SQ6EMJ | 2026-09-01 11:36:44 | 51.08248 | 17.11479 | 114° | 75km/h | 6373m | 5.4m/s | 0°C | 0% | 0hPa | 0V | 00:00:00 | 00:00:00 | 00:00:00 | |
| SQ6EMJ | 2026-09-01 11:36:38 | 51.08284 | 17.11322 | 111° | 69km/h | 6333m | 7.1m/s | 0°C | 0% | 0hPa | 0V | 00:00:00 | 00:00:00 | 00:00:00 | |
| POL1PZ | 2026-09-01 11:36:25 | 51.08347 | 17.10967 | 109° | 64km/h | 6264m | 4.0m/s | 0°C | 0% | 0hPa | 0V | 00:00:00 | 00:00:00 | 00:00:00 | |
| SQ6EMJ | 2026-09-01 11:36:22 | 51.08359 | 17.10884 | 103° | 77km/h | 6246m | 4.1m/s | 0°C | 0% | 0hPa | 0V | 00:00:00 | 00:00:00 | 00:00:00 | |
| SQ6EMJ | 2026-09-01 11:36:16 | 51.08380 | 17.10725 | 101° | 60km/h | 6211m | 4.1m/s | 0°C | 0% | 0hPa | 0V | 00:00:00 | 00:00:00 | 00:00:00 | |
| SQ6EMJ | 2026-09-01 11:36:10 | 51.08405 | 17.10568 | 104° | 71km/h | 6173m | 10.1m/s | 0°C | 0% | 0hPa | 0V | 00:00:00 | 00:00:00 | 00:00:00 | |
| POL1PZ | 2026-09-01 11:36:04 | 51.08418 | 17.10417 | 104° | 60km/h | 6137m | 3.2m/s | 0°C | 0% | 0hPa | 0V | 00:00:00 | 00:00:00 | 00:00:00 | |
| SQ6EMJ | 2026-09-01 11:35:58 | 51.08451 | 17.10256 | 108° | 66km/h | 6105m | 5.9m/s | 0°C | 0% | 0hPa | 0V | 00:00:00 | 00:00:00 | 00:00:00 | |
| SQ6EMJ | 2026-09-01 11:35:52 | 51.08476 | 17.10089 | 105° | 86km/h | 6075m | 4.7m/s | 0°C | 0% | 0hPa | 0V | 00:00:00 | 00:00:00 | 00:00:00 | |
| SQ6EMJ | 2026-09-01 11:35:46 | 51.08503 | 17.09943 | 114° | 55km/h | 6037m | 4.8m/s | 0°C | 0% | 0hPa | 0V | 00:00:00 | 00:00:00 | 00:00:00 | |
| POL1PZ | 2026-09-01 11:35:44 | 51.08515 | 17.09897 | 111° | 71km/h | 6026m | 6.0m/s | 0°C | 0% | 0hPa | 0V | 00:00:00 | 00:00:00 | 00:00:00 | |
| SQ6EMJ | 2026-09-01 11:35:40 | 51.08532 | 17.09781 | 101° | 69km/h | 5998m | 4.3m/s | 0°C | 0% | 0hPa | 0V | 00:00:00 | 00:00:00 | 00:00:00 | |
| SQ6EMJ | 2026-09-01 11:35:34 | 51.08573 | 17.09607 | 110° | 77km/h | 5971m | 4.4m/s | 0°C | 0% | 0hPa | 0V | 00:00:00 | 00:00:00 | 00:00:00 | |
| SQ6EMJ | 2026-09-01 11:35:29 | 51.08585 | 17.09475 | 98° | 71km/h | 5942m | 5.8m/s | 0°C | 0% | 0hPa | 0V | 00:00:00 | 00:00:00 | 00:00:00 | |
| SQ6EMJ | 2026-09-01 11:35:23 | 51.08620 | 17.09296 | 114° | 66km/h | 5916m | 6.5m/s | 0°C | 0% | 0hPa | 0V | 00:00:00 | 00:00:00 | 00:00:00 | |
| SQ6EMJ | 2026-09-01 11:35:17 | 51.08632 | 17.09168 | 95° | 55km/h | 5882m | 4.3m/s | 0°C | 0% | 0hPa | 0V | 00:00:00 | 00:00:00 | 00:00:00 | |
| SQ6EMJ | 2026-09-01 11:35:10 | 51.08665 | 17.08970 | 98° | 64km/h | 5848m | 6.5m/s | 0°C | 0% | 0hPa | 0V | 00:00:00 | 00:00:00 | 00:00:00 | |
| SQ6EMJ | 2026-09-01 11:35:04 | 51.08680 | 17.08832 | 105° | 75km/h | 5812m | 6.2m/s | 0°C | 0% | 0hPa | 0V | 00:00:00 | 00:00:00 | 00:00:00 | |
| POL1PZ | 2026-09-01 11:35:03 | 51.08684 | 17.08801 | 103° | 80km/h | 5806m | 5.9m/s | 0°C | 0% | 0hPa | 0V | 00:00:00 | 00:00:00 | 00:00:00 | |
| SQ6EMJ | 2026-09-01 11:34:58 | 51.08703 | 17.08665 | 109° | 62km/h | 5779m | 10.5m/s | 0°C | 0% | 0hPa | 0V | 00:00:00 | 00:00:00 | 00:00:00 | |
| SQ6EMJ | 2026-09-01 11:34:52 | 51.08741 | 17.08515 | 109° | 68km/h | 5735m | 10.4m/s | 0°C | 0% | 0hPa | 0V | 00:00:00 | 00:00:00 | 00:00:00 | |
| SQ6EMJ | 2026-09-01 11:34:47 | 51.08760 | 17.08398 | 110° | 60km/h | 5702m | 3.3m/s | 0°C | 0% | 0hPa | 0V | 00:00:00 | 00:00:00 | 00:00:00 | |
| POL1PZ | 2026-09-01 11:34:40 | 51.08800 | 17.08243 | 114° | 53km/h | 5658m | 4.1m/s | 0°C | 0% | 0hPa | 0V | 00:00:00 | 00:00:00 | 00:00:00 | |
| SQ6EMJ | 2026-09-01 11:34:23 | 51.08856 | 17.07784 | 113° | 80km/h | 5559m | 3.5m/s | 0°C | 0% | 0hPa | 0V | 00:00:00 | 00:00:00 | 00:00:00 | |
| SQ6EMJ | 2026-09-01 11:34:19 | 51.08887 | 17.07647 | 102° | 64km/h | 5530m | 7.7m/s | 0°C | 0% | 0hPa | 0V | 00:00:00 | 00:00:00 | 00:00:00 | |
| POL1PZ | 2026-09-01 11:34:18 | 51.08887 | 17.07647 | 102° | 64km/h | 5530m | 7.7m/s | 0°C | 0% | 0hPa | 0V | 00:00:00 | 00:00:00 | 00:00:00 | |
| SQ6EMJ | 2026-09-01 11:34:13 | 51.08899 | 17.07536 | 116° | 58km/h | 5501m | 6.4m/s | 0°C | 0% | 0hPa | 0V | 00:00:00 | 00:00:00 | 00:00:00 | |
| SQ6EMJ | 2026-09-01 11:34:09 | 51.08941 | 17.07405 | 111° | 80km/h | 5473m | 6.8m/s | 0°C | 0% | 0hPa | 0V | 00:00:00 | 00:00:00 | 00:00:00 | |
| SQ6EMJ | 2026-09-01 11:34:02 | 51.08971 | 17.07258 | 123° | 64km/h | 5436m | 5.1m/s | 0°C | 0% | 0hPa | 0V | 00:00:00 | 00:00:00 | 00:00:00 | |
| POL1PZ | 2026-09-01 11:33:55 | 51.09014 | 17.07118 | 110° | 66km/h | 5399m | 6.1m/s | 0°C | 0% | 0hPa | 0V | 00:00:00 | 00:00:00 | 00:00:00 | |
| SQ6EMJ | 2026-09-01 11:33:50 | 51.09040 | 17.06984 | 107° | 62km/h | 5369m | 5.3m/s | 0°C | 0% | 0hPa | 0V | 00:00:00 | 00:00:00 | 00:00:00 | |
| POL1PZ | 2026-09-01 11:33:35 | 51.09116 | 17.06640 | 119° | 42km/h | 5293m | 3.9m/s | 0°C | 0% | 0hPa | 0V | 00:00:00 | 00:00:00 | 00:00:00 | |
| SQ6EMJ | 2026-09-01 11:33:24 | 51.09177 | 17.06358 | 104° | 71km/h | 5229m | 4.8m/s | 0°C | 0% | 0hPa | 0V | 00:00:00 | 00:00:00 | 00:00:00 | |
| SQ6EMJ | 2026-09-01 11:33:18 | 51.09208 | 17.06220 | 128° | 51km/h | 5195m | 3.3m/s | 0°C | 0% | 0hPa | 0V | 00:00:00 | 00:00:00 | 00:00:00 | |
| POL1PZ | 2026-09-01 11:33:13 | 51.09235 | 17.06115 | 97° | 62km/h | 5172m | 8.1m/s | 0°C | 0% | 0hPa | 0V | 00:00:00 | 00:00:00 | 00:00:00 | |
| SQ6EMJ | 2026-09-01 11:33:12 | 51.09236 | 17.06091 | 95° | 57km/h | 5164m | 7.5m/s | 0°C | 0% | 0hPa | 0V | 00:00:00 | 00:00:00 | 00:00:00 | |
| SQ6EMJ | 2026-09-01 11:33:06 | 51.09252 | 17.05968 | 104° | 66km/h | 5126m | 6.4m/s | 0°C | 0% | 0hPa | 0V | 00:00:00 | 00:00:00 | 00:00:00 | |
| SQ6EMJ | 2026-09-01 11:32:59 | 51.09297 | 17.05808 | 104° | 69km/h | 5088m | 4.9m/s | 0°C | 0% | 0hPa | 0V | 00:00:00 | 00:00:00 | 00:00:00 | |
| SQ6EMJ | 2026-09-01 11:32:52 | 51.09314 | 17.05642 | 109° | 46km/h | 5046m | 4.8m/s | 0°C | 0% | 0hPa | 0V | 00:00:00 | 00:00:00 | 00:00:00 | |
| POL1PZ | 2026-09-01 11:32:51 | 51.09318 | 17.05625 | 114° | 49km/h | 5041m | 4.6m/s | 0°C | 0% | 0hPa | 0V | 00:00:00 | 00:00:00 | 00:00:00 | |
| SQ6EMJ | 2026-09-01 11:32:47 | 51.09333 | 17.05531 | 96° | 69km/h | 5022m | 2.3m/s | 0°C | 0% | 0hPa | 0V | 00:00:00 | 00:00:00 | 00:00:00 | |
| SQ6EMJ | 2026-09-01 11:32:41 | 51.09361 | 17.05391 | 119° | 42km/h | 4996m | 5.1m/s | 0°C | 0% | 0hPa | 0V | 00:00:00 | 00:00:00 | 00:00:00 | |
| SQ6EMJ | 2026-09-01 11:32:36 | 51.09391 | 17.05312 | 121° | 51km/h | 4971m | 7.2m/s | 0°C | 0% | 0hPa | 0V | 00:00:00 | 00:00:00 | 00:00:00 | |
| POL1PZ | 2026-09-01 11:32:31 | 51.09407 | 17.05222 | 92° | 44km/h | 4945m | 2.9m/s | 0°C | 0% | 0hPa | 0V | 00:00:00 | 00:00:00 | 00:00:00 | |
| SQ6EMJ | 2026-09-01 11:32:25 | 51.09422 | 17.05111 | 117° | 58km/h | 4917m | 4.1m/s | 0°C | 0% | 0hPa | 0V | 00:00:00 | 00:00:00 | 00:00:00 | |
| SQ6EMJ | 2026-09-01 11:32:19 | 51.09448 | 17.04993 | 117° | 42km/h | 4891m | 4.4m/s | 0°C | 0% | 0hPa | 0V | 00:00:00 | 00:00:00 | 00:00:00 | |
| SQ6EMJ | 2026-09-01 11:32:13 | 51.09471 | 17.04892 | 91° | 53km/h | 4864m | 4.9m/s | 0°C | 0% | 0hPa | 0V | 00:00:00 | 00:00:00 | 00:00:00 | |
| POL1PZ | 2026-09-01 11:32:05 | 51.09492 | 17.04714 | 108° | 49km/h | 4816m | 5.7m/s | 0°C | 0% | 0hPa | 0V | 00:00:00 | 00:00:00 | 00:00:00 | |
| SQ6EMJ | 2026-09-01 11:31:49 | 51.09544 | 17.04384 | 113° | 62km/h | 4739m | 2.3m/s | 0°C | 0% | 0hPa | 0V | 00:00:00 | 00:00:00 | 00:00:00 | |
| SQ6EMJ | 2026-09-01 11:31:43 | 51.09576 | 17.04227 | 104° | 53km/h | 4713m | 4.7m/s | 0°C | 0% | 0hPa | 0V | 00:00:00 | 00:00:00 | 00:00:00 | |
| SQ6EMJ | 2026-09-01 11:31:37 | 51.09595 | 17.04095 | 99° | 64km/h | 4678m | 4.8m/s | 0°C | 0% | 0hPa | 0V | 00:00:00 | 00:00:00 | 00:00:00 | |
| SQ6EMJ | 2026-09-01 11:31:32 | 51.09600 | 17.04002 | 87° | 44km/h | 4656m | 2.0m/s | 0°C | 0% | 0hPa | 0V | 00:00:00 | 00:00:00 | 00:00:00 | |
| POL1PZ | 2026-09-01 11:31:07 | 51.09677 | 17.03486 | 123° | 55km/h | 4543m | 2.6m/s | 0°C | 0% | 0hPa | 0V | 00:00:00 | 00:00:00 | 00:00:00 | |
| SQ6EMJ | 2026-09-01 11:30:55 | 51.09718 | 17.03262 | 106° | 60km/h | 4485m | 4.2m/s | 0°C | 0% | 0hPa | 0V | 00:00:00 | 00:00:00 | 00:00:00 | |
| SQ6EMJ | 2026-09-01 11:30:49 | 51.09723 | 17.03123 | 104° | 57km/h | 4458m | 3.8m/s | 0°C | 0% | 0hPa | 0V | 00:00:00 | 00:00:00 | 00:00:00 | |
| POL1PZ | 2026-09-01 11:30:45 | 51.09739 | 17.03036 | 96° | 55km/h | 4440m | 2.8m/s | 0°C | 0% | 0hPa | 0V | 00:00:00 | 00:00:00 | 00:00:00 | |
| SQ6EMJ | 2026-09-01 11:30:40 | 51.09740 | 17.02930 | 109° | 51km/h | 4424m | 2.2m/s | 0°C | 0% | 0hPa | 0V | 00:00:00 | 00:00:00 | 00:00:00 | |
| SQ6EMJ | 2026-09-01 11:30:34 | 51.09767 | 17.02793 | 94° | 51km/h | 4401m | 2.6m/s | 0°C | 0% | 0hPa | 0V | 00:00:00 | 00:00:00 | 00:00:00 | |
| SQ6EMJ | 2026-09-01 11:30:28 | 51.09781 | 17.02666 | 117° | 57km/h | 4370m | 2.7m/s | 0°C | 0% | 0hPa | 0V | 00:00:00 | 00:00:00 | 00:00:00 | |
| POL1PZ | 2026-09-01 11:30:24 | 51.09795 | 17.02589 | 90° | 53km/h | 4355m | 5.2m/s | 0°C | 0% | 0hPa | 0V | 00:00:00 | 00:00:00 | 00:00:00 | |
| SQ6EMJ | 2026-09-01 11:30:00 | 51.09890 | 17.02114 | 109° | 51km/h | 4244m | 3.3m/s | 0°C | 0% | 0hPa | 0V | 00:00:00 | 00:00:00 | 00:00:00 | |
| POL1PZ | 2026-09-01 11:29:57 | 51.09908 | 17.02057 | 122° | 49km/h | 4232m | 2.7m/s | 0°C | 0% | 0hPa | 0V | 00:00:00 | 00:00:00 | 00:00:00 | |
| SQ6EMJ | 2026-09-01 11:29:55 | 51.09918 | 17.02023 | 107° | 47km/h | 4224m | 3.9m/s | 0°C | 0% | 0hPa | 0V | 00:00:00 | 00:00:00 | 00:00:00 | |
| SQ6EMJ | 2026-09-01 11:29:49 | 51.09937 | 17.01886 | 114° | 49km/h | 4190m | 2.9m/s | 0°C | 0% | 0hPa | 0V | 00:00:00 | 00:00:00 | 00:00:00 | |
| SQ6EMJ | 2026-09-01 11:29:43 | 51.09947 | 17.01795 | 79° | 40km/h | 4156m | 5.8m/s | 0°C | 0% | 0hPa | 0V | 00:00:00 | 00:00:00 | 00:00:00 | |
| POL1PZ | 2026-09-01 11:29:37 | 51.09953 | 17.01694 | 111° | 37km/h | 4130m | 2.3m/s | 0°C | 0% | 0hPa | 0V | 00:00:00 | 00:00:00 | 00:00:00 | |
| POL1PZ | 2026-09-01 11:29:13 | 51.09975 | 17.01236 | 109° | 31km/h | 4029m | 3.6m/s | 0°C | 0% | 0hPa | 0V | 00:00:00 | 00:00:00 | 00:00:00 | |
| POL1PZ | 2026-09-01 11:28:51 | 51.10022 | 17.00842 | 123° | 44km/h | 3905m | 3.5m/s | 0°C | 0% | 0hPa | 0V | 00:00:00 | 00:00:00 | 00:00:00 | |
| SQ6EMJ | 2026-09-01 11:28:42 | 51.10035 | 17.00666 | 106° | 40km/h | 3860m | 3.8m/s | 0°C | 0% | 0hPa | 0V | 00:00:00 | 00:00:00 | 00:00:00 | |
| SQ6EMJ | 2026-09-01 11:28:34 | 51.10044 | 17.00528 | 84° | 60km/h | 3814m | 6.1m/s | 0°C | 0% | 0hPa | 0V | 00:00:00 | 00:00:00 | 00:00:00 | |
| SQ6EMJ | 2026-09-01 11:28:29 | 51.10042 | 17.00430 | 106° | 40km/h | 3781m | 4.4m/s | 0°C | 0% | 0hPa | 0V | 00:00:00 | 00:00:00 | 00:00:00 |